<?xml version='1.0' encoding='UTF-8'?><gpx version="1.1" creator="JPX - https://github.com/jenetics/jpx" xmlns="http://www.topografix.com/GPX/1/1"><trk><trkseg><trkpt lat="44.2099646" lon="12.0984907"><ele>25.999999999999996</ele><time>2026-04-11T14:26:55.596Z</time></trkpt><trkpt lat="44.2100356" lon="12.0984707"><ele>26.0</ele><time>2026-04-11T14:27:09.595Z</time></trkpt><trkpt lat="44.2100525" lon="12.0983148"><ele>26.0</ele><time>2026-04-11T14:27:39.596Z</time></trkpt><trkpt lat="44.2100797" lon="12.0982189"><ele>26.0</ele><time>2026-04-11T14:27:41.595Z</time></trkpt><trkpt lat="44.2101467" lon="12.0981752"><ele>25.999999999999996</ele><time>2026-04-11T14:27:44.589Z</time></trkpt><trkpt lat="44.2102305" lon="12.0982446"><ele>26.0</ele><time>2026-04-11T14:27:46.596Z</time></trkpt><trkpt lat="44.2103165" lon="12.0983266"><ele>25.999999999999996</ele><time>2026-04-11T14:27:48.594Z</time></trkpt><trkpt lat="44.2104243" lon="12.09841"><ele>26.0</ele><time>2026-04-11T14:27:50.591Z</time></trkpt><trkpt lat="44.2104864" lon="12.0984526"><ele>26.0</ele><time>2026-04-11T14:27:51.597Z</time></trkpt><trkpt lat="44.2105492" lon="12.0984964"><ele>26.0</ele><time>2026-04-11T14:27:52.593Z</time></trkpt><trkpt lat="44.2106127" lon="12.098542"><ele>25.999999999999996</ele><time>2026-04-11T14:27:53.593Z</time></trkpt><trkpt lat="44.21068" lon="12.098589"><ele>26.0</ele><time>2026-04-11T14:27:54.59Z</time></trkpt><trkpt lat="44.2107506" lon="12.0986363"><ele>25.833333333333332</ele><time>2026-04-11T14:27:55.586Z</time></trkpt><trkpt lat="44.2108228" lon="12.0986849"><ele>25.666666666666664</ele><time>2026-04-11T14:27:56.602Z</time></trkpt><trkpt lat="44.2108933" lon="12.0987317"><ele>25.5</ele><time>2026-04-11T14:27:57.589Z</time></trkpt><trkpt lat="44.2109648" lon="12.0987759"><ele>25.333333333333336</ele><time>2026-04-11T14:27:58.589Z</time></trkpt><trkpt lat="44.2110387" lon="12.0988211"><ele>25.166666666666668</ele><time>2026-04-11T14:27:59.59Z</time></trkpt><trkpt lat="44.211111" lon="12.098863"><ele>25.0</ele><time>2026-04-11T14:28:00.597Z</time></trkpt><trkpt lat="44.2111783" lon="12.0989159"><ele>25.000000000000004</ele><time>2026-04-11T14:28:01.597Z</time></trkpt><trkpt lat="44.2112443" lon="12.0989693"><ele>25.0</ele><time>2026-04-11T14:28:02.592Z</time></trkpt><trkpt lat="44.2113049" lon="12.0990201"><ele>25.0</ele><time>2026-04-11T14:28:03.59Z</time></trkpt><trkpt lat="44.2113637" lon="12.0990625"><ele>25.0</ele><time>2026-04-11T14:28:04.595Z</time></trkpt><trkpt lat="44.211446" lon="12.099148"><ele>25.000000000000004</ele><time>2026-04-11T14:28:06.609Z</time></trkpt><trkpt lat="44.2114306" lon="12.0993066"><ele>25.0</ele><time>2026-04-11T14:28:08.587Z</time></trkpt><trkpt lat="44.2113857" lon="12.0994025"><ele>25.166666666666668</ele><time>2026-04-11T14:28:09.59Z</time></trkpt><trkpt lat="44.2113228" lon="12.0994811"><ele>25.333333333333336</ele><time>2026-04-11T14:28:10.591Z</time></trkpt><trkpt lat="44.2112595" lon="12.099557"><ele>25.5</ele><time>2026-04-11T14:28:11.596Z</time></trkpt><trkpt lat="44.2111991" lon="12.0996376"><ele>25.666666666666664</ele><time>2026-04-11T14:28:12.591Z</time></trkpt><trkpt lat="44.2111375" lon="12.0997235"><ele>25.833333333333332</ele><time>2026-04-11T14:28:13.608Z</time></trkpt><trkpt lat="44.2110756" lon="12.0998185"><ele>26.0</ele><time>2026-04-11T14:28:14.603Z</time></trkpt><trkpt lat="44.2110102" lon="12.0999164"><ele>26.0</ele><time>2026-04-11T14:28:15.602Z</time></trkpt><trkpt lat="44.2109469" lon="12.1000145"><ele>26.0</ele><time>2026-04-11T14:28:16.607Z</time></trkpt><trkpt lat="44.2108823" lon="12.1001144"><ele>26.0</ele><time>2026-04-11T14:28:17.603Z</time></trkpt><trkpt lat="44.2108196" lon="12.1002209"><ele>26.0</ele><time>2026-04-11T14:28:18.603Z</time></trkpt><trkpt lat="44.2107514" lon="12.1003331"><ele>26.0</ele><time>2026-04-11T14:28:19.604Z</time></trkpt><trkpt lat="44.2106816" lon="12.100449"><ele>25.75</ele><time>2026-04-11T14:28:20.61Z</time></trkpt><trkpt lat="44.210609" lon="12.1005739"><ele>25.5</ele><time>2026-04-11T14:28:21.609Z</time></trkpt><trkpt lat="44.2105351" lon="12.1007047"><ele>25.25</ele><time>2026-04-11T14:28:22.604Z</time></trkpt><trkpt lat="44.2104575" lon="12.1008363"><ele>25.0</ele><time>2026-04-11T14:28:23.603Z</time></trkpt><trkpt lat="44.2103761" lon="12.1009701"><ele>25.0</ele><time>2026-04-11T14:28:24.607Z</time></trkpt><trkpt lat="44.2102927" lon="12.1011069"><ele>25.0</ele><time>2026-04-11T14:28:25.602Z</time></trkpt><trkpt lat="44.2102115" lon="12.1012492"><ele>25.0</ele><time>2026-04-11T14:28:26.599Z</time></trkpt><trkpt lat="44.2101266" lon="12.1013962"><ele>25.0</ele><time>2026-04-11T14:28:27.608Z</time></trkpt><trkpt lat="44.2100405" lon="12.101547"><ele>25.25</ele><time>2026-04-11T14:28:28.598Z</time></trkpt><trkpt lat="44.2099603" lon="12.1016981"><ele>25.5</ele><time>2026-04-11T14:28:29.604Z</time></trkpt><trkpt lat="44.2098814" lon="12.1018519"><ele>25.75</ele><time>2026-04-11T14:28:30.606Z</time></trkpt><trkpt lat="44.2098083" lon="12.1020034"><ele>26.0</ele><time>2026-04-11T14:28:31.598Z</time></trkpt><trkpt lat="44.2097379" lon="12.1021552"><ele>25.5</ele><time>2026-04-11T14:28:32.603Z</time></trkpt><trkpt lat="44.209676" lon="12.1023028"><ele>25.0</ele><time>2026-04-11T14:28:33.605Z</time></trkpt><trkpt lat="44.2096132" lon="12.1024413"><ele>24.5</ele><time>2026-04-11T14:28:34.602Z</time></trkpt><trkpt lat="44.2095501" lon="12.1025729"><ele>24.0</ele><time>2026-04-11T14:28:35.6Z</time></trkpt><trkpt lat="44.2094892" lon="12.1027076"><ele>24.0</ele><time>2026-04-11T14:28:36.609Z</time></trkpt><trkpt lat="44.2094339" lon="12.102847"><ele>24.0</ele><time>2026-04-11T14:28:37.626Z</time></trkpt><trkpt lat="44.2093822" lon="12.1029849"><ele>24.0</ele><time>2026-04-11T14:28:38.602Z</time></trkpt><trkpt lat="44.2093328" lon="12.1031223"><ele>24.0</ele><time>2026-04-11T14:28:39.614Z</time></trkpt><trkpt lat="44.209285" lon="12.1032597"><ele>24.0</ele><time>2026-04-11T14:28:40.615Z</time></trkpt><trkpt lat="44.209242" lon="12.1033993"><ele>24.0</ele><time>2026-04-11T14:28:41.608Z</time></trkpt><trkpt lat="44.2091939" lon="12.1035351"><ele>24.0</ele><time>2026-04-11T14:28:42.608Z</time></trkpt><trkpt lat="44.2091474" lon="12.1036678"><ele>24.0</ele><time>2026-04-11T14:28:43.613Z</time></trkpt><trkpt lat="44.2091021" lon="12.1037942"><ele>24.0</ele><time>2026-04-11T14:28:44.689Z</time></trkpt><trkpt lat="44.2090604" lon="12.1039094"><ele>24.0</ele><time>2026-04-11T14:28:45.701Z</time></trkpt><trkpt lat="44.2090224" lon="12.1040119"><ele>23.999999999999996</ele><time>2026-04-11T14:28:46.696Z</time></trkpt><trkpt lat="44.2089856" lon="12.1041081"><ele>24.0</ele><time>2026-04-11T14:28:47.7Z</time></trkpt><trkpt lat="44.2089449" lon="12.1041939"><ele>24.0</ele><time>2026-04-11T14:28:48.694Z</time></trkpt><trkpt lat="44.2089003" lon="12.1042638"><ele>24.0</ele><time>2026-04-11T14:28:49.691Z</time></trkpt><trkpt lat="44.2088492" lon="12.1043151"><ele>24.0</ele><time>2026-04-11T14:28:50.694Z</time></trkpt><trkpt lat="44.208788" lon="12.1043464"><ele>23.999999999999996</ele><time>2026-04-11T14:28:51.677Z</time></trkpt><trkpt lat="44.2087218" lon="12.1043504"><ele>24.0</ele><time>2026-04-11T14:28:52.688Z</time></trkpt><trkpt lat="44.2086339" lon="12.1043334"><ele>24.0</ele><time>2026-04-11T14:28:53.687Z</time></trkpt><trkpt lat="44.2085447" lon="12.1042793"><ele>24.0</ele><time>2026-04-11T14:28:54.671Z</time></trkpt><trkpt lat="44.2084653" lon="12.1042205"><ele>24.0</ele><time>2026-04-11T14:28:55.695Z</time></trkpt><trkpt lat="44.2083811" lon="12.1041593"><ele>24.0</ele><time>2026-04-11T14:28:56.696Z</time></trkpt><trkpt lat="44.2082947" lon="12.1040931"><ele>24.0</ele><time>2026-04-11T14:28:57.698Z</time></trkpt><trkpt lat="44.2082023" lon="12.1040247"><ele>24.0</ele><time>2026-04-11T14:28:58.696Z</time></trkpt><trkpt lat="44.2081095" lon="12.1039566"><ele>24.0</ele><time>2026-04-11T14:28:59.695Z</time></trkpt><trkpt lat="44.2080152" lon="12.1038913"><ele>24.0</ele><time>2026-04-11T14:29:00.715Z</time></trkpt><trkpt lat="44.2079233" lon="12.1038283"><ele>24.0</ele><time>2026-04-11T14:29:01.698Z</time></trkpt><trkpt lat="44.2078338" lon="12.1037656"><ele>24.0</ele><time>2026-04-11T14:29:02.709Z</time></trkpt><trkpt lat="44.2077471" lon="12.1037029"><ele>24.0</ele><time>2026-04-11T14:29:03.695Z</time></trkpt><trkpt lat="44.2076607" lon="12.1036409"><ele>24.0</ele><time>2026-04-11T14:29:04.699Z</time></trkpt><trkpt lat="44.2075713" lon="12.1035814"><ele>24.0</ele><time>2026-04-11T14:29:05.705Z</time></trkpt><trkpt lat="44.2074809" lon="12.1035216"><ele>24.0</ele><time>2026-04-11T14:29:06.687Z</time></trkpt><trkpt lat="44.2073924" lon="12.1034629"><ele>24.0</ele><time>2026-04-11T14:29:07.709Z</time></trkpt><trkpt lat="44.2073105" lon="12.1034044"><ele>24.0</ele><time>2026-04-11T14:29:08.71Z</time></trkpt><trkpt lat="44.2072412" lon="12.1033416"><ele>24.0</ele><time>2026-04-11T14:29:09.691Z</time></trkpt><trkpt lat="44.2071858" lon="12.1032674"><ele>24.0</ele><time>2026-04-11T14:29:10.695Z</time></trkpt><trkpt lat="44.2071354" lon="12.1031757"><ele>24.0</ele><time>2026-04-11T14:29:11.695Z</time></trkpt><trkpt lat="44.2070889" lon="12.1030853"><ele>24.0</ele><time>2026-04-11T14:29:12.679Z</time></trkpt><trkpt lat="44.207037" lon="12.1030196"><ele>24.0</ele><time>2026-04-11T14:29:13.688Z</time></trkpt><trkpt lat="44.2069787" lon="12.1029785"><ele>24.166666666666668</ele><time>2026-04-11T14:29:14.682Z</time></trkpt><trkpt lat="44.2069098" lon="12.1029556"><ele>24.333333333333336</ele><time>2026-04-11T14:29:15.687Z</time></trkpt><trkpt lat="44.2068351" lon="12.1029561"><ele>24.5</ele><time>2026-04-11T14:29:16.693Z</time></trkpt><trkpt lat="44.2067447" lon="12.1029608"><ele>24.666666666666668</ele><time>2026-04-11T14:29:17.594Z</time></trkpt><trkpt lat="44.2066532" lon="12.1029452"><ele>24.833333333333336</ele><time>2026-04-11T14:29:18.597Z</time></trkpt><trkpt lat="44.2065591" lon="12.1028974"><ele>25.0</ele><time>2026-04-11T14:29:19.591Z</time></trkpt><trkpt lat="44.2064663" lon="12.102821"><ele>24.5</ele><time>2026-04-11T14:29:20.595Z</time></trkpt><trkpt lat="44.2063723" lon="12.1027356"><ele>24.0</ele><time>2026-04-11T14:29:21.59Z</time></trkpt><trkpt lat="44.2062751" lon="12.1026449"><ele>23.5</ele><time>2026-04-11T14:29:22.602Z</time></trkpt><trkpt lat="44.2061747" lon="12.102563"><ele>23.0</ele><time>2026-04-11T14:29:23.588Z</time></trkpt><trkpt lat="44.2060692" lon="12.1024739"><ele>23.25</ele><time>2026-04-11T14:29:24.598Z</time></trkpt><trkpt lat="44.2059595" lon="12.1023806"><ele>23.5</ele><time>2026-04-11T14:29:25.6Z</time></trkpt><trkpt lat="44.2058492" lon="12.1022843"><ele>23.75</ele><time>2026-04-11T14:29:26.6Z</time></trkpt><trkpt lat="44.2057415" lon="12.1021956"><ele>24.0</ele><time>2026-04-11T14:29:27.605Z</time></trkpt><trkpt lat="44.2056367" lon="12.1021105"><ele>24.0</ele><time>2026-04-11T14:29:28.599Z</time></trkpt><trkpt lat="44.2055308" lon="12.1020228"><ele>24.0</ele><time>2026-04-11T14:29:29.599Z</time></trkpt><trkpt lat="44.2054299" lon="12.1019343"><ele>24.0</ele><time>2026-04-11T14:29:30.607Z</time></trkpt><trkpt lat="44.2053274" lon="12.1018444"><ele>24.0</ele><time>2026-04-11T14:29:31.599Z</time></trkpt><trkpt lat="44.2052253" lon="12.1017587"><ele>24.0</ele><time>2026-04-11T14:29:32.606Z</time></trkpt><trkpt lat="44.2051193" lon="12.1016704"><ele>24.0</ele><time>2026-04-11T14:29:33.602Z</time></trkpt><trkpt lat="44.205011" lon="12.1015852"><ele>24.0</ele><time>2026-04-11T14:29:34.603Z</time></trkpt><trkpt lat="44.2049058" lon="12.1015007"><ele>24.0</ele><time>2026-04-11T14:29:35.601Z</time></trkpt><trkpt lat="44.2048014" lon="12.1014116"><ele>24.5</ele><time>2026-04-11T14:29:36.602Z</time></trkpt><trkpt lat="44.2046967" lon="12.101319"><ele>25.0</ele><time>2026-04-11T14:29:37.603Z</time></trkpt><trkpt lat="44.2046002" lon="12.1012267"><ele>25.5</ele><time>2026-04-11T14:29:38.597Z</time></trkpt><trkpt lat="44.2045116" lon="12.1011317"><ele>26.0</ele><time>2026-04-11T14:29:39.627Z</time></trkpt><trkpt lat="44.2044226" lon="12.1010294"><ele>26.0</ele><time>2026-04-11T14:29:40.603Z</time></trkpt><trkpt lat="44.2043362" lon="12.1009179"><ele>26.0</ele><time>2026-04-11T14:29:41.6Z</time></trkpt><trkpt lat="44.204253" lon="12.1007901"><ele>26.0</ele><time>2026-04-11T14:29:42.6Z</time></trkpt><trkpt lat="44.2041751" lon="12.1006514"><ele>26.0</ele><time>2026-04-11T14:29:43.599Z</time></trkpt><trkpt lat="44.204096" lon="12.1005109"><ele>25.75</ele><time>2026-04-11T14:29:44.597Z</time></trkpt><trkpt lat="44.2040208" lon="12.1003751"><ele>25.5</ele><time>2026-04-11T14:29:45.601Z</time></trkpt><trkpt lat="44.20395" lon="12.1002409"><ele>25.25</ele><time>2026-04-11T14:29:46.593Z</time></trkpt><trkpt lat="44.2038893" lon="12.1000996"><ele>25.0</ele><time>2026-04-11T14:29:47.592Z</time></trkpt><trkpt lat="44.2038309" lon="12.0999478"><ele>24.5</ele><time>2026-04-11T14:29:48.597Z</time></trkpt><trkpt lat="44.2037816" lon="12.0997938"><ele>24.0</ele><time>2026-04-11T14:29:49.598Z</time></trkpt><trkpt lat="44.2037284" lon="12.0996387"><ele>23.5</ele><time>2026-04-11T14:29:50.605Z</time></trkpt><trkpt lat="44.2036733" lon="12.0994812"><ele>23.0</ele><time>2026-04-11T14:29:51.605Z</time></trkpt><trkpt lat="44.2036195" lon="12.0993257"><ele>23.0</ele><time>2026-04-11T14:29:52.599Z</time></trkpt><trkpt lat="44.2035688" lon="12.0991663"><ele>23.0</ele><time>2026-04-11T14:29:53.604Z</time></trkpt><trkpt lat="44.2035193" lon="12.0990071"><ele>23.0</ele><time>2026-04-11T14:29:54.602Z</time></trkpt><trkpt lat="44.2034696" lon="12.0988461"><ele>23.0</ele><time>2026-04-11T14:29:55.602Z</time></trkpt><trkpt lat="44.2034165" lon="12.0986851"><ele>23.25</ele><time>2026-04-11T14:29:56.605Z</time></trkpt><trkpt lat="44.2033596" lon="12.098525"><ele>23.5</ele><time>2026-04-11T14:29:57.599Z</time></trkpt><trkpt lat="44.2033048" lon="12.0983705"><ele>23.75</ele><time>2026-04-11T14:29:58.607Z</time></trkpt><trkpt lat="44.2032452" lon="12.0982253"><ele>24.0</ele><time>2026-04-11T14:29:59.595Z</time></trkpt><trkpt lat="44.2031876" lon="12.0980917"><ele>24.0</ele><time>2026-04-11T14:30:00.595Z</time></trkpt><trkpt lat="44.2031257" lon="12.0979623"><ele>24.0</ele><time>2026-04-11T14:30:01.603Z</time></trkpt><trkpt lat="44.2030733" lon="12.0978443"><ele>24.0</ele><time>2026-04-11T14:30:02.591Z</time></trkpt><trkpt lat="44.2030384" lon="12.0977326"><ele>24.0</ele><time>2026-04-11T14:30:03.605Z</time></trkpt><trkpt lat="44.2030291" lon="12.097622"><ele>24.0</ele><time>2026-04-11T14:30:04.593Z</time></trkpt><trkpt lat="44.2030355" lon="12.0975072"><ele>24.0</ele><time>2026-04-11T14:30:05.599Z</time></trkpt><trkpt lat="44.2030441" lon="12.0973893"><ele>24.0</ele><time>2026-04-11T14:30:06.604Z</time></trkpt><trkpt lat="44.2030394" lon="12.0972746"><ele>24.0</ele><time>2026-04-11T14:30:07.603Z</time></trkpt><trkpt lat="44.2030125" lon="12.097176"><ele>24.0</ele><time>2026-04-11T14:30:08.601Z</time></trkpt><trkpt lat="44.202961" lon="12.0970951"><ele>24.0</ele><time>2026-04-11T14:30:09.604Z</time></trkpt><trkpt lat="44.2028918" lon="12.0970413"><ele>24.0</ele><time>2026-04-11T14:30:10.626Z</time></trkpt><trkpt lat="44.2028095" lon="12.0970224"><ele>24.0</ele><time>2026-04-11T14:30:11.6Z</time></trkpt><trkpt lat="44.2027204" lon="12.0970332"><ele>24.0</ele><time>2026-04-11T14:30:12.591Z</time></trkpt><trkpt lat="44.2026257" lon="12.097042"><ele>24.0</ele><time>2026-04-11T14:30:13.59Z</time></trkpt><trkpt lat="44.2025325" lon="12.097027"><ele>24.0</ele><time>2026-04-11T14:30:14.59Z</time></trkpt><trkpt lat="44.2024448" lon="12.096979"><ele>24.0</ele><time>2026-04-11T14:30:15.597Z</time></trkpt><trkpt lat="44.2023565" lon="12.0969025"><ele>24.0</ele><time>2026-04-11T14:30:16.594Z</time></trkpt><trkpt lat="44.2022694" lon="12.0968024"><ele>24.0</ele><time>2026-04-11T14:30:17.59Z</time></trkpt><trkpt lat="44.2021828" lon="12.096709"><ele>24.0</ele><time>2026-04-11T14:30:18.594Z</time></trkpt><trkpt lat="44.2020926" lon="12.0966121"><ele>24.0</ele><time>2026-04-11T14:30:19.592Z</time></trkpt><trkpt lat="44.2019959" lon="12.0965263"><ele>24.25</ele><time>2026-04-11T14:30:20.6Z</time></trkpt><trkpt lat="44.2018965" lon="12.0964408"><ele>24.5</ele><time>2026-04-11T14:30:21.595Z</time></trkpt><trkpt lat="44.2017913" lon="12.0963584"><ele>24.75</ele><time>2026-04-11T14:30:22.589Z</time></trkpt><trkpt lat="44.2016838" lon="12.0962788"><ele>25.0</ele><time>2026-04-11T14:30:23.591Z</time></trkpt><trkpt lat="44.2015708" lon="12.0961938"><ele>25.0</ele><time>2026-04-11T14:30:24.589Z</time></trkpt><trkpt lat="44.2014568" lon="12.0961114"><ele>25.0</ele><time>2026-04-11T14:30:25.59Z</time></trkpt><trkpt lat="44.2013424" lon="12.0960189"><ele>25.0</ele><time>2026-04-11T14:30:26.594Z</time></trkpt><trkpt lat="44.2012258" lon="12.0959296"><ele>25.0</ele><time>2026-04-11T14:30:27.594Z</time></trkpt><trkpt lat="44.2011091" lon="12.0958425"><ele>25.0</ele><time>2026-04-11T14:30:28.59Z</time></trkpt><trkpt lat="44.2009915" lon="12.0957548"><ele>25.0</ele><time>2026-04-11T14:30:29.596Z</time></trkpt><trkpt lat="44.2008742" lon="12.0956687"><ele>25.0</ele><time>2026-04-11T14:30:30.594Z</time></trkpt><trkpt lat="44.2007624" lon="12.0955908"><ele>25.0</ele><time>2026-04-11T14:30:31.59Z</time></trkpt><trkpt lat="44.2006596" lon="12.0955158"><ele>25.0</ele><time>2026-04-11T14:30:32.588Z</time></trkpt><trkpt lat="44.200565" lon="12.0954438"><ele>25.0</ele><time>2026-04-11T14:30:33.583Z</time></trkpt><trkpt lat="44.2004702" lon="12.0953763"><ele>25.0</ele><time>2026-04-11T14:30:34.579Z</time></trkpt><trkpt lat="44.2003807" lon="12.0953082"><ele>25.0</ele><time>2026-04-11T14:30:35.577Z</time></trkpt><trkpt lat="44.2003014" lon="12.0952468"><ele>25.0</ele><time>2026-04-11T14:30:36.582Z</time></trkpt><trkpt lat="44.2002274" lon="12.0951892"><ele>25.000000000000004</ele><time>2026-04-11T14:30:37.592Z</time></trkpt><trkpt lat="44.2001689" lon="12.0951291"><ele>25.0</ele><time>2026-04-11T14:30:38.591Z</time></trkpt><trkpt lat="44.2001161" lon="12.0950233"><ele>25.0</ele><time>2026-04-11T14:30:40.597Z</time></trkpt><trkpt lat="44.200119" lon="12.0949315"><ele>25.0</ele><time>2026-04-11T14:30:44.618Z</time></trkpt><trkpt lat="44.2001045" lon="12.0948068"><ele>25.000000000000004</ele><time>2026-04-11T14:30:47.613Z</time></trkpt><trkpt lat="44.2000525" lon="12.0946454"><ele>25.0</ele><time>2026-04-11T14:30:49.616Z</time></trkpt><trkpt lat="44.2000065" lon="12.0945733"><ele>25.000000000000004</ele><time>2026-04-11T14:30:50.608Z</time></trkpt><trkpt lat="44.199941" lon="12.0945145"><ele>25.0</ele><time>2026-04-11T14:30:51.609Z</time></trkpt><trkpt lat="44.1998613" lon="12.0944787"><ele>25.0</ele><time>2026-04-11T14:30:52.611Z</time></trkpt><trkpt lat="44.1997715" lon="12.0944796"><ele>25.0</ele><time>2026-04-11T14:30:53.6Z</time></trkpt><trkpt lat="44.1996883" lon="12.0945233"><ele>25.000000000000004</ele><time>2026-04-11T14:30:54.607Z</time></trkpt><trkpt lat="44.1996153" lon="12.0946045"><ele>25.0</ele><time>2026-04-11T14:30:55.594Z</time></trkpt><trkpt lat="44.1995535" lon="12.0947102"><ele>25.0</ele><time>2026-04-11T14:30:56.603Z</time></trkpt><trkpt lat="44.199506" lon="12.0948413"><ele>25.0</ele><time>2026-04-11T14:30:57.609Z</time></trkpt><trkpt lat="44.1994697" lon="12.0949815"><ele>25.0</ele><time>2026-04-11T14:30:58.602Z</time></trkpt><trkpt lat="44.199443" lon="12.0951274"><ele>25.0</ele><time>2026-04-11T14:30:59.61Z</time></trkpt><trkpt lat="44.1994145" lon="12.0952681"><ele>25.0</ele><time>2026-04-11T14:31:00.695Z</time></trkpt><trkpt lat="44.1993701" lon="12.095404"><ele>25.25</ele><time>2026-04-11T14:31:01.688Z</time></trkpt><trkpt lat="44.1993111" lon="12.0955373"><ele>25.5</ele><time>2026-04-11T14:31:02.697Z</time></trkpt><trkpt lat="44.1992455" lon="12.0956753"><ele>25.75</ele><time>2026-04-11T14:31:03.68Z</time></trkpt><trkpt lat="44.19918" lon="12.0958211"><ele>26.0</ele><time>2026-04-11T14:31:04.682Z</time></trkpt><trkpt lat="44.1991248" lon="12.0959714"><ele>25.75</ele><time>2026-04-11T14:31:05.687Z</time></trkpt><trkpt lat="44.1990681" lon="12.0961299"><ele>25.5</ele><time>2026-04-11T14:31:06.678Z</time></trkpt><trkpt lat="44.1990116" lon="12.0962865"><ele>25.25</ele><time>2026-04-11T14:31:07.706Z</time></trkpt><trkpt lat="44.1989528" lon="12.0964454"><ele>25.0</ele><time>2026-04-11T14:31:08.694Z</time></trkpt><trkpt lat="44.19889" lon="12.0966071"><ele>25.0</ele><time>2026-04-11T14:31:09.693Z</time></trkpt><trkpt lat="44.1988256" lon="12.0967696"><ele>25.0</ele><time>2026-04-11T14:31:10.696Z</time></trkpt><trkpt lat="44.1987515" lon="12.0969447"><ele>25.0</ele><time>2026-04-11T14:31:11.688Z</time></trkpt><trkpt lat="44.1986776" lon="12.0971155"><ele>25.0</ele><time>2026-04-11T14:31:12.715Z</time></trkpt><trkpt lat="44.1986082" lon="12.0972834"><ele>25.25</ele><time>2026-04-11T14:31:13.696Z</time></trkpt><trkpt lat="44.1985297" lon="12.0974539"><ele>25.5</ele><time>2026-04-11T14:31:14.692Z</time></trkpt><trkpt lat="44.1984574" lon="12.0976237"><ele>25.75</ele><time>2026-04-11T14:31:15.697Z</time></trkpt><trkpt lat="44.1983841" lon="12.0977951"><ele>26.0</ele><time>2026-04-11T14:31:16.699Z</time></trkpt><trkpt lat="44.1983105" lon="12.0979662"><ele>26.0</ele><time>2026-04-11T14:31:17.698Z</time></trkpt><trkpt lat="44.1982351" lon="12.0981413"><ele>26.0</ele><time>2026-04-11T14:31:18.699Z</time></trkpt><trkpt lat="44.1981602" lon="12.0983187"><ele>26.0</ele><time>2026-04-11T14:31:19.695Z</time></trkpt><trkpt lat="44.198075" lon="12.0984994"><ele>26.0</ele><time>2026-04-11T14:31:20.69Z</time></trkpt><trkpt lat="44.1979933" lon="12.0986801"><ele>26.0</ele><time>2026-04-11T14:31:21.689Z</time></trkpt><trkpt lat="44.1979187" lon="12.0988579"><ele>26.0</ele><time>2026-04-11T14:31:22.692Z</time></trkpt><trkpt lat="44.1978411" lon="12.0990306"><ele>26.0</ele><time>2026-04-11T14:31:23.695Z</time></trkpt><trkpt lat="44.1977637" lon="12.0992036"><ele>26.0</ele><time>2026-04-11T14:31:24.696Z</time></trkpt><trkpt lat="44.1976902" lon="12.0993794"><ele>26.0</ele><time>2026-04-11T14:31:25.692Z</time></trkpt><trkpt lat="44.1976183" lon="12.0995549"><ele>26.0</ele><time>2026-04-11T14:31:26.699Z</time></trkpt><trkpt lat="44.1975458" lon="12.0997306"><ele>26.0</ele><time>2026-04-11T14:31:27.696Z</time></trkpt><trkpt lat="44.1974686" lon="12.099908"><ele>26.0</ele><time>2026-04-11T14:31:28.704Z</time></trkpt><trkpt lat="44.1973914" lon="12.100084"><ele>26.0</ele><time>2026-04-11T14:31:29.694Z</time></trkpt><trkpt lat="44.1973144" lon="12.1002672"><ele>26.0</ele><time>2026-04-11T14:31:30.695Z</time></trkpt><trkpt lat="44.1972376" lon="12.1004487"><ele>26.0</ele><time>2026-04-11T14:31:31.697Z</time></trkpt><trkpt lat="44.1971615" lon="12.1006314"><ele>26.333333333333332</ele><time>2026-04-11T14:31:32.698Z</time></trkpt><trkpt lat="44.1970859" lon="12.1008144"><ele>26.666666666666664</ele><time>2026-04-11T14:31:33.698Z</time></trkpt><trkpt lat="44.1970092" lon="12.100999"><ele>27.0</ele><time>2026-04-11T14:31:34.699Z</time></trkpt><trkpt lat="44.1969331" lon="12.1011827"><ele>27.0</ele><time>2026-04-11T14:31:35.691Z</time></trkpt><trkpt lat="44.1968553" lon="12.1013668"><ele>27.0</ele><time>2026-04-11T14:31:36.695Z</time></trkpt><trkpt lat="44.196779" lon="12.1015537"><ele>27.0</ele><time>2026-04-11T14:31:37.689Z</time></trkpt><trkpt lat="44.1967055" lon="12.1017449"><ele>27.0</ele><time>2026-04-11T14:31:38.7Z</time></trkpt><trkpt lat="44.1966339" lon="12.1019396"><ele>27.0</ele><time>2026-04-11T14:31:39.691Z</time></trkpt><trkpt lat="44.1965622" lon="12.1021369"><ele>27.0</ele><time>2026-04-11T14:31:40.706Z</time></trkpt><trkpt lat="44.1964922" lon="12.1023291"><ele>27.0</ele><time>2026-04-11T14:31:41.691Z</time></trkpt><trkpt lat="44.1964243" lon="12.1025226"><ele>27.0</ele><time>2026-04-11T14:31:42.689Z</time></trkpt><trkpt lat="44.1963547" lon="12.102715"><ele>27.0</ele><time>2026-04-11T14:31:43.728Z</time></trkpt><trkpt lat="44.1962818" lon="12.1029037"><ele>27.0</ele><time>2026-04-11T14:31:44.684Z</time></trkpt><trkpt lat="44.1962054" lon="12.1030971"><ele>27.0</ele><time>2026-04-11T14:31:45.692Z</time></trkpt><trkpt lat="44.1961278" lon="12.1032872"><ele>27.0</ele><time>2026-04-11T14:31:46.692Z</time></trkpt><trkpt lat="44.1960539" lon="12.1034906"><ele>27.0</ele><time>2026-04-11T14:31:47.689Z</time></trkpt><trkpt lat="44.1959778" lon="12.1036837"><ele>27.0</ele><time>2026-04-11T14:31:48.689Z</time></trkpt><trkpt lat="44.1958968" lon="12.1038731"><ele>27.0</ele><time>2026-04-11T14:31:49.69Z</time></trkpt><trkpt lat="44.1958168" lon="12.1040651"><ele>27.333333333333336</ele><time>2026-04-11T14:31:50.688Z</time></trkpt><trkpt lat="44.1957419" lon="12.1042674"><ele>27.666666666666668</ele><time>2026-04-11T14:31:51.696Z</time></trkpt><trkpt lat="44.1956636" lon="12.1044699"><ele>28.0</ele><time>2026-04-11T14:31:52.68Z</time></trkpt><trkpt lat="44.1955806" lon="12.1046743"><ele>27.666666666666668</ele><time>2026-04-11T14:31:53.689Z</time></trkpt><trkpt lat="44.1954938" lon="12.1048681"><ele>27.333333333333336</ele><time>2026-04-11T14:31:54.694Z</time></trkpt><trkpt lat="44.1954074" lon="12.1050609"><ele>27.0</ele><time>2026-04-11T14:31:55.689Z</time></trkpt><trkpt lat="44.1953212" lon="12.1052553"><ele>27.0</ele><time>2026-04-11T14:31:56.696Z</time></trkpt><trkpt lat="44.1952373" lon="12.1054499"><ele>27.0</ele><time>2026-04-11T14:31:57.696Z</time></trkpt><trkpt lat="44.1951563" lon="12.1056471"><ele>27.0</ele><time>2026-04-11T14:31:58.7Z</time></trkpt><trkpt lat="44.1950783" lon="12.105841"><ele>26.666666666666664</ele><time>2026-04-11T14:31:59.699Z</time></trkpt><trkpt lat="44.1949987" lon="12.1060347"><ele>26.333333333333332</ele><time>2026-04-11T14:32:00.706Z</time></trkpt><trkpt lat="44.1949207" lon="12.1062303"><ele>26.0</ele><time>2026-04-11T14:32:01.702Z</time></trkpt><trkpt lat="44.1948416" lon="12.106419"><ele>26.333333333333332</ele><time>2026-04-11T14:32:02.703Z</time></trkpt><trkpt lat="44.194764" lon="12.1066085"><ele>26.666666666666664</ele><time>2026-04-11T14:32:03.697Z</time></trkpt><trkpt lat="44.1946862" lon="12.1067966"><ele>27.0</ele><time>2026-04-11T14:32:04.699Z</time></trkpt><trkpt lat="44.1946062" lon="12.1069891"><ele>27.0</ele><time>2026-04-11T14:32:05.696Z</time></trkpt><trkpt lat="44.194525" lon="12.1071826"><ele>27.0</ele><time>2026-04-11T14:32:06.7Z</time></trkpt><trkpt lat="44.1944432" lon="12.1073754"><ele>27.0</ele><time>2026-04-11T14:32:07.7Z</time></trkpt><trkpt lat="44.1943616" lon="12.1075675"><ele>27.0</ele><time>2026-04-11T14:32:08.691Z</time></trkpt><trkpt lat="44.1942814" lon="12.10776"><ele>27.0</ele><time>2026-04-11T14:32:09.694Z</time></trkpt><trkpt lat="44.1942018" lon="12.1079545"><ele>27.0</ele><time>2026-04-11T14:32:10.697Z</time></trkpt><trkpt lat="44.1941232" lon="12.1081483"><ele>27.333333333333336</ele><time>2026-04-11T14:32:11.693Z</time></trkpt><trkpt lat="44.1940443" lon="12.1083428"><ele>27.666666666666668</ele><time>2026-04-11T14:32:12.699Z</time></trkpt><trkpt lat="44.193966" lon="12.1085406"><ele>28.0</ele><time>2026-04-11T14:32:13.72Z</time></trkpt><trkpt lat="44.1938889" lon="12.1087411"><ele>27.333333333333336</ele><time>2026-04-11T14:32:14.695Z</time></trkpt><trkpt lat="44.1938149" lon="12.1089413"><ele>26.666666666666664</ele><time>2026-04-11T14:32:15.698Z</time></trkpt><trkpt lat="44.1937424" lon="12.1091422"><ele>26.0</ele><time>2026-04-11T14:32:16.696Z</time></trkpt><trkpt lat="44.1936671" lon="12.1093433"><ele>26.0</ele><time>2026-04-11T14:32:17.692Z</time></trkpt><trkpt lat="44.1935924" lon="12.1095419"><ele>26.0</ele><time>2026-04-11T14:32:18.699Z</time></trkpt><trkpt lat="44.193521" lon="12.1097337"><ele>26.0</ele><time>2026-04-11T14:32:19.692Z</time></trkpt><trkpt lat="44.1934525" lon="12.1099173"><ele>26.0</ele><time>2026-04-11T14:32:20.699Z</time></trkpt><trkpt lat="44.1933859" lon="12.110095"><ele>26.0</ele><time>2026-04-11T14:32:21.692Z</time></trkpt><trkpt lat="44.1933196" lon="12.1102677"><ele>26.0</ele><time>2026-04-11T14:32:22.696Z</time></trkpt><trkpt lat="44.1932554" lon="12.1104318"><ele>26.0</ele><time>2026-04-11T14:32:23.695Z</time></trkpt><trkpt lat="44.1931989" lon="12.1106008"><ele>26.0</ele><time>2026-04-11T14:32:24.694Z</time></trkpt><trkpt lat="44.1931586" lon="12.1107747"><ele>26.0</ele><time>2026-04-11T14:32:25.686Z</time></trkpt><trkpt lat="44.1931299" lon="12.1109569"><ele>26.0</ele><time>2026-04-11T14:32:26.688Z</time></trkpt><trkpt lat="44.1931114" lon="12.1111368"><ele>26.0</ele><time>2026-04-11T14:32:27.68Z</time></trkpt><trkpt lat="44.1931114" lon="12.1113127"><ele>26.0</ele><time>2026-04-11T14:32:28.588Z</time></trkpt><trkpt lat="44.1931009" lon="12.1114716"><ele>26.0</ele><time>2026-04-11T14:32:29.582Z</time></trkpt><trkpt lat="44.1930727" lon="12.1115942"><ele>26.0</ele><time>2026-04-11T14:32:30.582Z</time></trkpt><trkpt lat="44.1930217" lon="12.1116906"><ele>26.0</ele><time>2026-04-11T14:32:31.598Z</time></trkpt><trkpt lat="44.1929563" lon="12.1117553"><ele>26.0</ele><time>2026-04-11T14:32:32.597Z</time></trkpt><trkpt lat="44.1928643" lon="12.1117933"><ele>26.0</ele><time>2026-04-11T14:32:33.602Z</time></trkpt><trkpt lat="44.1927662" lon="12.1118218"><ele>26.0</ele><time>2026-04-11T14:32:34.602Z</time></trkpt><trkpt lat="44.1926621" lon="12.111849"><ele>26.0</ele><time>2026-04-11T14:32:35.593Z</time></trkpt><trkpt lat="44.1925595" lon="12.1118563"><ele>26.0</ele><time>2026-04-11T14:32:36.596Z</time></trkpt><trkpt lat="44.192457" lon="12.1118343"><ele>26.0</ele><time>2026-04-11T14:32:37.592Z</time></trkpt><trkpt lat="44.1923626" lon="12.11176"><ele>25.5</ele><time>2026-04-11T14:32:38.591Z</time></trkpt><trkpt lat="44.19227" lon="12.1116495"><ele>25.0</ele><time>2026-04-11T14:32:39.592Z</time></trkpt><trkpt lat="44.1921731" lon="12.1115292"><ele>24.5</ele><time>2026-04-11T14:32:40.603Z</time></trkpt><trkpt lat="44.1920662" lon="12.1114147"><ele>24.0</ele><time>2026-04-11T14:32:41.592Z</time></trkpt><trkpt lat="44.1919581" lon="12.1113059"><ele>23.75</ele><time>2026-04-11T14:32:42.589Z</time></trkpt><trkpt lat="44.1918444" lon="12.1111965"><ele>23.5</ele><time>2026-04-11T14:32:43.593Z</time></trkpt><trkpt lat="44.1917292" lon="12.1110864"><ele>23.25</ele><time>2026-04-11T14:32:44.61Z</time></trkpt><trkpt lat="44.1916114" lon="12.1109813"><ele>23.0</ele><time>2026-04-11T14:32:45.599Z</time></trkpt><trkpt lat="44.1914846" lon="12.1108928"><ele>23.666666666666668</ele><time>2026-04-11T14:32:46.598Z</time></trkpt><trkpt lat="44.1913345" lon="12.1108355"><ele>24.333333333333336</ele><time>2026-04-11T14:32:47.59Z</time></trkpt><trkpt lat="44.1911812" lon="12.1107794"><ele>25.0</ele><time>2026-04-11T14:32:48.591Z</time></trkpt><trkpt lat="44.1910211" lon="12.110752"><ele>25.0</ele><time>2026-04-11T14:32:49.585Z</time></trkpt><trkpt lat="44.1908702" lon="12.1107388"><ele>25.0</ele><time>2026-04-11T14:32:50.585Z</time></trkpt><trkpt lat="44.1907143" lon="12.1107489"><ele>25.0</ele><time>2026-04-11T14:32:51.586Z</time></trkpt><trkpt lat="44.1905598" lon="12.1107759"><ele>25.0</ele><time>2026-04-11T14:32:52.593Z</time></trkpt><trkpt lat="44.1904082" lon="12.1108239"><ele>25.0</ele><time>2026-04-11T14:32:53.586Z</time></trkpt><trkpt lat="44.1902594" lon="12.1108854"><ele>25.0</ele><time>2026-04-11T14:32:54.589Z</time></trkpt><trkpt lat="44.1901137" lon="12.1109702"><ele>25.0</ele><time>2026-04-11T14:32:55.588Z</time></trkpt><trkpt lat="44.1899749" lon="12.1110826"><ele>25.0</ele><time>2026-04-11T14:32:56.59Z</time></trkpt><trkpt lat="44.1898346" lon="12.1111934"><ele>25.0</ele><time>2026-04-11T14:32:57.588Z</time></trkpt><trkpt lat="44.189692" lon="12.1113205"><ele>25.666666666666668</ele><time>2026-04-11T14:32:58.592Z</time></trkpt><trkpt lat="44.1895592" lon="12.1114578"><ele>26.333333333333336</ele><time>2026-04-11T14:32:59.591Z</time></trkpt><trkpt lat="44.1894235" lon="12.111605"><ele>27.0</ele><time>2026-04-11T14:33:00.599Z</time></trkpt><trkpt lat="44.189295" lon="12.1117514"><ele>27.0</ele><time>2026-04-11T14:33:01.595Z</time></trkpt><trkpt lat="44.1891653" lon="12.1118994"><ele>27.0</ele><time>2026-04-11T14:33:02.595Z</time></trkpt><trkpt lat="44.1890259" lon="12.1120541"><ele>27.0</ele><time>2026-04-11T14:33:03.603Z</time></trkpt><trkpt lat="44.1888867" lon="12.1121934"><ele>27.0</ele><time>2026-04-11T14:33:04.588Z</time></trkpt><trkpt lat="44.1887403" lon="12.1123124"><ele>27.0</ele><time>2026-04-11T14:33:05.598Z</time></trkpt><trkpt lat="44.1885874" lon="12.1124106"><ele>27.0</ele><time>2026-04-11T14:33:06.598Z</time></trkpt><trkpt lat="44.1884289" lon="12.1124881"><ele>26.666666666666664</ele><time>2026-04-11T14:33:07.595Z</time></trkpt><trkpt lat="44.1882718" lon="12.1125467"><ele>26.333333333333332</ele><time>2026-04-11T14:33:08.6Z</time></trkpt><trkpt lat="44.1881142" lon="12.1125803"><ele>26.0</ele><time>2026-04-11T14:33:09.598Z</time></trkpt><trkpt lat="44.1879482" lon="12.1125952"><ele>25.666666666666664</ele><time>2026-04-11T14:33:10.603Z</time></trkpt><trkpt lat="44.1877812" lon="12.1125953"><ele>25.333333333333336</ele><time>2026-04-11T14:33:11.593Z</time></trkpt><trkpt lat="44.1876165" lon="12.1125804"><ele>25.0</ele><time>2026-04-11T14:33:12.591Z</time></trkpt><trkpt lat="44.1874482" lon="12.1125647"><ele>25.666666666666668</ele><time>2026-04-11T14:33:13.599Z</time></trkpt><trkpt lat="44.1872882" lon="12.112549"><ele>26.333333333333336</ele><time>2026-04-11T14:33:14.596Z</time></trkpt><trkpt lat="44.1871242" lon="12.1125412"><ele>27.0</ele><time>2026-04-11T14:33:15.616Z</time></trkpt><trkpt lat="44.1869589" lon="12.1125402"><ele>27.0</ele><time>2026-04-11T14:33:16.592Z</time></trkpt><trkpt lat="44.1867974" lon="12.1125398"><ele>27.0</ele><time>2026-04-11T14:33:17.594Z</time></trkpt><trkpt lat="44.1866388" lon="12.1125379"><ele>27.0</ele><time>2026-04-11T14:33:18.59Z</time></trkpt><trkpt lat="44.1864798" lon="12.1125354"><ele>26.666666666666664</ele><time>2026-04-11T14:33:19.592Z</time></trkpt><trkpt lat="44.1863251" lon="12.1125291"><ele>26.333333333333332</ele><time>2026-04-11T14:33:20.591Z</time></trkpt><trkpt lat="44.186171" lon="12.1125173"><ele>26.0</ele><time>2026-04-11T14:33:21.598Z</time></trkpt><trkpt lat="44.1860106" lon="12.1125055"><ele>26.0</ele><time>2026-04-11T14:33:22.591Z</time></trkpt><trkpt lat="44.1858591" lon="12.1124754"><ele>26.0</ele><time>2026-04-11T14:33:23.606Z</time></trkpt><trkpt lat="44.1857112" lon="12.11242"><ele>26.0</ele><time>2026-04-11T14:33:24.598Z</time></trkpt><trkpt lat="44.1855745" lon="12.1123564"><ele>26.25</ele><time>2026-04-11T14:33:25.596Z</time></trkpt><trkpt lat="44.1854495" lon="12.1122934"><ele>26.5</ele><time>2026-04-11T14:33:26.605Z</time></trkpt><trkpt lat="44.1853426" lon="12.1122301"><ele>26.75</ele><time>2026-04-11T14:33:27.604Z</time></trkpt><trkpt lat="44.1852563" lon="12.1121354"><ele>27.0</ele><time>2026-04-11T14:33:28.599Z</time></trkpt><trkpt lat="44.1852051" lon="12.112007"><ele>27.0</ele><time>2026-04-11T14:33:29.603Z</time></trkpt><trkpt lat="44.1851538" lon="12.1118883"><ele>27.000000000000004</ele><time>2026-04-11T14:33:30.608Z</time></trkpt><trkpt lat="44.1850732" lon="12.1118065"><ele>27.000000000000004</ele><time>2026-04-11T14:33:31.597Z</time></trkpt><trkpt lat="44.1849918" lon="12.111779"><ele>27.0</ele><time>2026-04-11T14:33:32.595Z</time></trkpt><trkpt lat="44.1848993" lon="12.1117741"><ele>27.0</ele><time>2026-04-11T14:33:33.594Z</time></trkpt><trkpt lat="44.1848146" lon="12.1117958"><ele>27.0</ele><time>2026-04-11T14:33:34.588Z</time></trkpt><trkpt lat="44.1847399" lon="12.1117982"><ele>27.0</ele><time>2026-04-11T14:33:35.59Z</time></trkpt><trkpt lat="44.1846681" lon="12.1117691"><ele>27.0</ele><time>2026-04-11T14:33:36.589Z</time></trkpt><trkpt lat="44.1845915" lon="12.1117106"><ele>27.0</ele><time>2026-04-11T14:33:37.58Z</time></trkpt><trkpt lat="44.1845133" lon="12.1116408"><ele>27.0</ele><time>2026-04-11T14:33:38.59Z</time></trkpt><trkpt lat="44.1844303" lon="12.1115597"><ele>27.0</ele><time>2026-04-11T14:33:39.587Z</time></trkpt><trkpt lat="44.1843426" lon="12.1114774"><ele>27.0</ele><time>2026-04-11T14:33:40.587Z</time></trkpt><trkpt lat="44.1842489" lon="12.1113973"><ele>27.000000000000004</ele><time>2026-04-11T14:33:41.595Z</time></trkpt><trkpt lat="44.1841566" lon="12.1113177"><ele>27.000000000000004</ele><time>2026-04-11T14:33:42.577Z</time></trkpt><trkpt lat="44.1840633" lon="12.1112394"><ele>27.0</ele><time>2026-04-11T14:33:43.593Z</time></trkpt><trkpt lat="44.1839708" lon="12.1111695"><ele>27.0</ele><time>2026-04-11T14:33:44.587Z</time></trkpt><trkpt lat="44.1838751" lon="12.1110973"><ele>27.0</ele><time>2026-04-11T14:33:45.59Z</time></trkpt><trkpt lat="44.1837804" lon="12.1110291"><ele>27.000000000000004</ele><time>2026-04-11T14:33:46.606Z</time></trkpt><trkpt lat="44.1836859" lon="12.1109571"><ele>27.000000000000004</ele><time>2026-04-11T14:33:47.588Z</time></trkpt><trkpt lat="44.1835865" lon="12.1108907"><ele>27.0</ele><time>2026-04-11T14:33:48.592Z</time></trkpt><trkpt lat="44.1834803" lon="12.1108241"><ele>27.0</ele><time>2026-04-11T14:33:49.589Z</time></trkpt><trkpt lat="44.1833741" lon="12.110752"><ele>27.0</ele><time>2026-04-11T14:33:50.588Z</time></trkpt><trkpt lat="44.1832668" lon="12.1106756"><ele>27.0</ele><time>2026-04-11T14:33:51.585Z</time></trkpt><trkpt lat="44.1831556" lon="12.1105981"><ele>27.0</ele><time>2026-04-11T14:33:52.585Z</time></trkpt><trkpt lat="44.183042" lon="12.1105149"><ele>27.0</ele><time>2026-04-11T14:33:53.596Z</time></trkpt><trkpt lat="44.1829295" lon="12.1104301"><ele>27.0</ele><time>2026-04-11T14:33:54.589Z</time></trkpt><trkpt lat="44.182811" lon="12.1103443"><ele>27.0</ele><time>2026-04-11T14:33:55.591Z</time></trkpt><trkpt lat="44.182691" lon="12.110257"><ele>27.0</ele><time>2026-04-11T14:33:56.589Z</time></trkpt><trkpt lat="44.1825707" lon="12.1101739"><ele>27.0</ele><time>2026-04-11T14:33:57.59Z</time></trkpt><trkpt lat="44.1824458" lon="12.110086"><ele>26.75</ele><time>2026-04-11T14:33:58.594Z</time></trkpt><trkpt lat="44.18232" lon="12.1099963"><ele>26.5</ele><time>2026-04-11T14:33:59.59Z</time></trkpt><trkpt lat="44.1821895" lon="12.1099089"><ele>26.25</ele><time>2026-04-11T14:34:00.596Z</time></trkpt><trkpt lat="44.182059" lon="12.1098236"><ele>26.0</ele><time>2026-04-11T14:34:01.595Z</time></trkpt><trkpt lat="44.181933" lon="12.1097419"><ele>26.25</ele><time>2026-04-11T14:34:02.596Z</time></trkpt><trkpt lat="44.1818045" lon="12.1096493"><ele>26.5</ele><time>2026-04-11T14:34:03.595Z</time></trkpt><trkpt lat="44.181676" lon="12.10956"><ele>26.75</ele><time>2026-04-11T14:34:04.592Z</time></trkpt><trkpt lat="44.181546" lon="12.1094693"><ele>27.0</ele><time>2026-04-11T14:34:05.592Z</time></trkpt><trkpt lat="44.1814146" lon="12.1093732"><ele>27.0</ele><time>2026-04-11T14:34:06.595Z</time></trkpt><trkpt lat="44.1812855" lon="12.1092788"><ele>27.0</ele><time>2026-04-11T14:34:07.593Z</time></trkpt><trkpt lat="44.1811626" lon="12.1091886"><ele>27.0</ele><time>2026-04-11T14:34:08.594Z</time></trkpt><trkpt lat="44.1810344" lon="12.1090952"><ele>27.0</ele><time>2026-04-11T14:34:09.597Z</time></trkpt><trkpt lat="44.1808984" lon="12.1089977"><ele>27.0</ele><time>2026-04-11T14:34:10.6Z</time></trkpt><trkpt lat="44.1807661" lon="12.1089013"><ele>27.0</ele><time>2026-04-11T14:34:11.603Z</time></trkpt><trkpt lat="44.1806352" lon="12.1088047"><ele>27.0</ele><time>2026-04-11T14:34:12.601Z</time></trkpt><trkpt lat="44.1805105" lon="12.1087057"><ele>27.0</ele><time>2026-04-11T14:34:13.601Z</time></trkpt><trkpt lat="44.1803881" lon="12.1085985"><ele>27.25</ele><time>2026-04-11T14:34:14.608Z</time></trkpt><trkpt lat="44.1802694" lon="12.108483"><ele>27.5</ele><time>2026-04-11T14:34:15.603Z</time></trkpt><trkpt lat="44.1801563" lon="12.108366"><ele>27.75</ele><time>2026-04-11T14:34:16.603Z</time></trkpt><trkpt lat="44.1800398" lon="12.1082422"><ele>28.0</ele><time>2026-04-11T14:34:17.624Z</time></trkpt><trkpt lat="44.1799247" lon="12.108118"><ele>28.0</ele><time>2026-04-11T14:34:18.607Z</time></trkpt><trkpt lat="44.1798109" lon="12.1079917"><ele>28.0</ele><time>2026-04-11T14:34:19.609Z</time></trkpt><trkpt lat="44.1796937" lon="12.1078716"><ele>28.0</ele><time>2026-04-11T14:34:20.602Z</time></trkpt><trkpt lat="44.1795773" lon="12.1077484"><ele>28.0</ele><time>2026-04-11T14:34:21.598Z</time></trkpt><trkpt lat="44.1794624" lon="12.1076315"><ele>28.0</ele><time>2026-04-11T14:34:22.602Z</time></trkpt><trkpt lat="44.1793452" lon="12.107518"><ele>28.0</ele><time>2026-04-11T14:34:23.594Z</time></trkpt><trkpt lat="44.179224" lon="12.1073992"><ele>28.0</ele><time>2026-04-11T14:34:24.593Z</time></trkpt><trkpt lat="44.1791074" lon="12.1072794"><ele>28.0</ele><time>2026-04-11T14:34:25.606Z</time></trkpt><trkpt lat="44.1789852" lon="12.1071575"><ele>28.25</ele><time>2026-04-11T14:34:26.597Z</time></trkpt><trkpt lat="44.1788696" lon="12.1070352"><ele>28.5</ele><time>2026-04-11T14:34:27.609Z</time></trkpt><trkpt lat="44.1787504" lon="12.1069174"><ele>28.75</ele><time>2026-04-11T14:34:28.598Z</time></trkpt><trkpt lat="44.1786337" lon="12.1067994"><ele>29.0</ele><time>2026-04-11T14:34:29.604Z</time></trkpt><trkpt lat="44.1785171" lon="12.1066772"><ele>29.25</ele><time>2026-04-11T14:34:30.607Z</time></trkpt><trkpt lat="44.1784015" lon="12.1065537"><ele>29.5</ele><time>2026-04-11T14:34:31.596Z</time></trkpt><trkpt lat="44.1782824" lon="12.1064304"><ele>29.75</ele><time>2026-04-11T14:34:32.603Z</time></trkpt><trkpt lat="44.1781646" lon="12.1063075"><ele>30.0</ele><time>2026-04-11T14:34:33.6Z</time></trkpt><trkpt lat="44.178044" lon="12.1061924"><ele>30.0</ele><time>2026-04-11T14:34:34.598Z</time></trkpt><trkpt lat="44.1779264" lon="12.1060723"><ele>30.0</ele><time>2026-04-11T14:34:35.6Z</time></trkpt><trkpt lat="44.1778075" lon="12.1059483"><ele>30.0</ele><time>2026-04-11T14:34:36.592Z</time></trkpt><trkpt lat="44.1776907" lon="12.1058281"><ele>30.0</ele><time>2026-04-11T14:34:37.602Z</time></trkpt><trkpt lat="44.1775733" lon="12.1057061"><ele>30.0</ele><time>2026-04-11T14:34:38.597Z</time></trkpt><trkpt lat="44.1774517" lon="12.1055908"><ele>30.0</ele><time>2026-04-11T14:34:39.599Z</time></trkpt><trkpt lat="44.1773287" lon="12.1054759"><ele>30.0</ele><time>2026-04-11T14:34:40.604Z</time></trkpt><trkpt lat="44.1772003" lon="12.1053692"><ele>30.0</ele><time>2026-04-11T14:34:41.592Z</time></trkpt><trkpt lat="44.1770719" lon="12.1052667"><ele>30.5</ele><time>2026-04-11T14:34:42.596Z</time></trkpt><trkpt lat="44.1769439" lon="12.1051767"><ele>31.0</ele><time>2026-04-11T14:34:43.599Z</time></trkpt><trkpt lat="44.17681" lon="12.1050925"><ele>31.5</ele><time>2026-04-11T14:34:44.596Z</time></trkpt><trkpt lat="44.1766723" lon="12.1050069"><ele>32.0</ele><time>2026-04-11T14:34:45.592Z</time></trkpt><trkpt lat="44.1765292" lon="12.1049343"><ele>31.333333333333332</ele><time>2026-04-11T14:34:46.597Z</time></trkpt><trkpt lat="44.1763871" lon="12.1048682"><ele>30.666666666666664</ele><time>2026-04-11T14:34:47.594Z</time></trkpt><trkpt lat="44.1762379" lon="12.1048212"><ele>30.0</ele><time>2026-04-11T14:34:48.609Z</time></trkpt><trkpt lat="44.1760874" lon="12.1047778"><ele>30.0</ele><time>2026-04-11T14:34:49.589Z</time></trkpt><trkpt lat="44.1759302" lon="12.1047382"><ele>30.0</ele><time>2026-04-11T14:34:50.599Z</time></trkpt><trkpt lat="44.1757747" lon="12.1046996"><ele>30.0</ele><time>2026-04-11T14:34:51.589Z</time></trkpt><trkpt lat="44.1756309" lon="12.1046765"><ele>30.0</ele><time>2026-04-11T14:34:52.597Z</time></trkpt><trkpt lat="44.1754977" lon="12.1046592"><ele>30.0</ele><time>2026-04-11T14:34:53.593Z</time></trkpt><trkpt lat="44.1753713" lon="12.1046594"><ele>30.0</ele><time>2026-04-11T14:34:54.59Z</time></trkpt><trkpt lat="44.1752423" lon="12.104663"><ele>30.0</ele><time>2026-04-11T14:34:55.594Z</time></trkpt><trkpt lat="44.1751079" lon="12.1046663"><ele>30.0</ele><time>2026-04-11T14:34:56.595Z</time></trkpt><trkpt lat="44.1749766" lon="12.104685"><ele>30.0</ele><time>2026-04-11T14:34:57.594Z</time></trkpt><trkpt lat="44.1748414" lon="12.1046994"><ele>30.0</ele><time>2026-04-11T14:34:58.593Z</time></trkpt><trkpt lat="44.1747052" lon="12.1047244"><ele>30.0</ele><time>2026-04-11T14:34:59.596Z</time></trkpt><trkpt lat="44.1745695" lon="12.1047496"><ele>30.75</ele><time>2026-04-11T14:35:00.606Z</time></trkpt><trkpt lat="44.1744361" lon="12.1047793"><ele>31.5</ele><time>2026-04-11T14:35:01.593Z</time></trkpt><trkpt lat="44.1743072" lon="12.1048117"><ele>32.25</ele><time>2026-04-11T14:35:02.593Z</time></trkpt><trkpt lat="44.1741731" lon="12.1048465"><ele>33.0</ele><time>2026-04-11T14:35:03.59Z</time></trkpt><trkpt lat="44.1740419" lon="12.1048794"><ele>33.25</ele><time>2026-04-11T14:35:04.595Z</time></trkpt><trkpt lat="44.1739152" lon="12.1049105"><ele>33.5</ele><time>2026-04-11T14:35:05.592Z</time></trkpt><trkpt lat="44.1737923" lon="12.104933"><ele>33.75</ele><time>2026-04-11T14:35:06.593Z</time></trkpt><trkpt lat="44.1736661" lon="12.1049472"><ele>34.0</ele><time>2026-04-11T14:35:07.599Z</time></trkpt><trkpt lat="44.1735351" lon="12.1049652"><ele>34.0</ele><time>2026-04-11T14:35:08.597Z</time></trkpt><trkpt lat="44.1734093" lon="12.1049792"><ele>34.0</ele><time>2026-04-11T14:35:09.59Z</time></trkpt><trkpt lat="44.1732757" lon="12.104988"><ele>34.0</ele><time>2026-04-11T14:35:10.594Z</time></trkpt><trkpt lat="44.1731472" lon="12.1049901"><ele>34.0</ele><time>2026-04-11T14:35:11.592Z</time></trkpt><trkpt lat="44.1730196" lon="12.1049857"><ele>34.0</ele><time>2026-04-11T14:35:12.594Z</time></trkpt><trkpt lat="44.1728952" lon="12.1049745"><ele>34.0</ele><time>2026-04-11T14:35:13.593Z</time></trkpt><trkpt lat="44.172774" lon="12.1049592"><ele>34.0</ele><time>2026-04-11T14:35:14.592Z</time></trkpt><trkpt lat="44.1726513" lon="12.1049401"><ele>34.0</ele><time>2026-04-11T14:35:15.597Z</time></trkpt><trkpt lat="44.1725287" lon="12.1049214"><ele>34.0</ele><time>2026-04-11T14:35:16.591Z</time></trkpt><trkpt lat="44.1724048" lon="12.1049052"><ele>34.0</ele><time>2026-04-11T14:35:17.592Z</time></trkpt><trkpt lat="44.1722822" lon="12.1048914"><ele>34.0</ele><time>2026-04-11T14:35:18.596Z</time></trkpt><trkpt lat="44.1721605" lon="12.1048728"><ele>34.0</ele><time>2026-04-11T14:35:19.61Z</time></trkpt><trkpt lat="44.1720428" lon="12.1048526"><ele>34.0</ele><time>2026-04-11T14:35:20.588Z</time></trkpt><trkpt lat="44.1719326" lon="12.1048314"><ele>34.0</ele><time>2026-04-11T14:35:21.592Z</time></trkpt><trkpt lat="44.1718234" lon="12.1048091"><ele>34.0</ele><time>2026-04-11T14:35:22.591Z</time></trkpt><trkpt lat="44.171719" lon="12.1047659"><ele>34.0</ele><time>2026-04-11T14:35:23.601Z</time></trkpt><trkpt lat="44.1716237" lon="12.1047219"><ele>34.0</ele><time>2026-04-11T14:35:24.595Z</time></trkpt><trkpt lat="44.1715387" lon="12.104671"><ele>34.0</ele><time>2026-04-11T14:35:25.59Z</time></trkpt><trkpt lat="44.1714674" lon="12.1045945"><ele>34.0</ele><time>2026-04-11T14:35:26.596Z</time></trkpt><trkpt lat="44.1714055" lon="12.1045127"><ele>34.0</ele><time>2026-04-11T14:35:27.586Z</time></trkpt><trkpt lat="44.1713288" lon="12.1044529"><ele>34.0</ele><time>2026-04-11T14:35:28.599Z</time></trkpt><trkpt lat="44.1712426" lon="12.1044241"><ele>34.0</ele><time>2026-04-11T14:35:29.579Z</time></trkpt><trkpt lat="44.1711531" lon="12.1044205"><ele>34.0</ele><time>2026-04-11T14:35:30.597Z</time></trkpt><trkpt lat="44.1710605" lon="12.1044611"><ele>34.0</ele><time>2026-04-11T14:35:31.587Z</time></trkpt><trkpt lat="44.1709663" lon="12.1045117"><ele>34.0</ele><time>2026-04-11T14:35:32.583Z</time></trkpt><trkpt lat="44.1708669" lon="12.1045327"><ele>34.0</ele><time>2026-04-11T14:35:33.588Z</time></trkpt><trkpt lat="44.170763" lon="12.1045173"><ele>34.0</ele><time>2026-04-11T14:35:34.59Z</time></trkpt><trkpt lat="44.1706566" lon="12.1044754"><ele>34.0</ele><time>2026-04-11T14:35:35.587Z</time></trkpt><trkpt lat="44.1705496" lon="12.1044378"><ele>34.5</ele><time>2026-04-11T14:35:36.593Z</time></trkpt><trkpt lat="44.1704365" lon="12.1044025"><ele>35.0</ele><time>2026-04-11T14:35:37.591Z</time></trkpt><trkpt lat="44.1703207" lon="12.1043616"><ele>35.5</ele><time>2026-04-11T14:35:38.595Z</time></trkpt><trkpt lat="44.1702032" lon="12.1043156"><ele>36.0</ele><time>2026-04-11T14:35:39.592Z</time></trkpt><trkpt lat="44.1700861" lon="12.1042584"><ele>36.0</ele><time>2026-04-11T14:35:40.587Z</time></trkpt><trkpt lat="44.1699686" lon="12.1041862"><ele>36.0</ele><time>2026-04-11T14:35:41.586Z</time></trkpt><trkpt lat="44.1698577" lon="12.1041047"><ele>36.0</ele><time>2026-04-11T14:35:42.59Z</time></trkpt><trkpt lat="44.169747" lon="12.1040115"><ele>36.0</ele><time>2026-04-11T14:35:43.589Z</time></trkpt><trkpt lat="44.1696388" lon="12.1039051"><ele>36.25</ele><time>2026-04-11T14:35:44.585Z</time></trkpt><trkpt lat="44.1695328" lon="12.1037995"><ele>36.5</ele><time>2026-04-11T14:35:45.592Z</time></trkpt><trkpt lat="44.169427" lon="12.103687"><ele>36.75</ele><time>2026-04-11T14:35:46.595Z</time></trkpt><trkpt lat="44.1693239" lon="12.1035666"><ele>37.0</ele><time>2026-04-11T14:35:47.594Z</time></trkpt><trkpt lat="44.1692248" lon="12.10344"><ele>37.0</ele><time>2026-04-11T14:35:48.588Z</time></trkpt><trkpt lat="44.1691258" lon="12.1033037"><ele>37.0</ele><time>2026-04-11T14:35:49.591Z</time></trkpt><trkpt lat="44.1690261" lon="12.1031612"><ele>37.0</ele><time>2026-04-11T14:35:50.614Z</time></trkpt><trkpt lat="44.1689223" lon="12.1030166"><ele>37.0</ele><time>2026-04-11T14:35:51.599Z</time></trkpt><trkpt lat="44.1688069" lon="12.1028715"><ele>37.0</ele><time>2026-04-11T14:35:52.595Z</time></trkpt><trkpt lat="44.1687024" lon="12.1027464"><ele>37.0</ele><time>2026-04-11T14:35:53.589Z</time></trkpt><trkpt lat="44.1686121" lon="12.1026128"><ele>37.0</ele><time>2026-04-11T14:35:54.584Z</time></trkpt><trkpt lat="44.1685124" lon="12.1024947"><ele>37.0</ele><time>2026-04-11T14:35:55.591Z</time></trkpt><trkpt lat="44.1684161" lon="12.1023673"><ele>36.75</ele><time>2026-04-11T14:35:56.594Z</time></trkpt><trkpt lat="44.1683188" lon="12.1022378"><ele>36.5</ele><time>2026-04-11T14:35:57.594Z</time></trkpt><trkpt lat="44.1682242" lon="12.1021087"><ele>36.25</ele><time>2026-04-11T14:35:58.588Z</time></trkpt><trkpt lat="44.1681343" lon="12.1019882"><ele>36.0</ele><time>2026-04-11T14:35:59.594Z</time></trkpt><trkpt lat="44.1680483" lon="12.1018736"><ele>36.0</ele><time>2026-04-11T14:36:00.595Z</time></trkpt><trkpt lat="44.1679705" lon="12.1017694"><ele>36.0</ele><time>2026-04-11T14:36:01.596Z</time></trkpt><trkpt lat="44.1678978" lon="12.1016714"><ele>36.0</ele><time>2026-04-11T14:36:02.623Z</time></trkpt><trkpt lat="44.1678325" lon="12.1015826"><ele>36.0</ele><time>2026-04-11T14:36:03.605Z</time></trkpt><trkpt lat="44.167776" lon="12.1015025"><ele>36.0</ele><time>2026-04-11T14:36:04.604Z</time></trkpt><trkpt lat="44.1677053" lon="12.1014059"><ele>36.0</ele><time>2026-04-11T14:36:06.608Z</time></trkpt><trkpt lat="44.1676313" lon="12.1013423"><ele>36.0</ele><time>2026-04-11T14:37:29.612Z</time></trkpt><trkpt lat="44.1675278" lon="12.1012376"><ele>36.0</ele><time>2026-04-11T14:37:31.603Z</time></trkpt><trkpt lat="44.1674672" lon="12.1011698"><ele>36.0</ele><time>2026-04-11T14:37:32.608Z</time></trkpt><trkpt lat="44.1673978" lon="12.101096"><ele>36.0</ele><time>2026-04-11T14:37:33.605Z</time></trkpt><trkpt lat="44.1673232" lon="12.101019"><ele>36.0</ele><time>2026-04-11T14:37:34.601Z</time></trkpt><trkpt lat="44.1672493" lon="12.1009383"><ele>36.0</ele><time>2026-04-11T14:37:35.603Z</time></trkpt><trkpt lat="44.1671736" lon="12.1008583"><ele>36.0</ele><time>2026-04-11T14:37:36.677Z</time></trkpt><trkpt lat="44.1670971" lon="12.1007758"><ele>36.0</ele><time>2026-04-11T14:37:37.682Z</time></trkpt><trkpt lat="44.1670222" lon="12.1006976"><ele>36.0</ele><time>2026-04-11T14:37:38.68Z</time></trkpt><trkpt lat="44.1669731" lon="12.1006064"><ele>36.0</ele><time>2026-04-11T14:37:39.69Z</time></trkpt><trkpt lat="44.1669195" lon="12.1005244"><ele>36.0</ele><time>2026-04-11T14:37:40.602Z</time></trkpt><trkpt lat="44.1668802" lon="12.1004266"><ele>36.0</ele><time>2026-04-11T14:37:41.578Z</time></trkpt><trkpt lat="44.1668236" lon="12.1003571"><ele>36.0</ele><time>2026-04-11T14:37:42.577Z</time></trkpt><trkpt lat="44.1667468" lon="12.1003244"><ele>36.0</ele><time>2026-04-11T14:37:43.574Z</time></trkpt><trkpt lat="44.1666636" lon="12.1003259"><ele>36.0</ele><time>2026-04-11T14:37:44.582Z</time></trkpt><trkpt lat="44.1665671" lon="12.1003247"><ele>35.4</ele><time>2026-04-11T14:37:45.593Z</time></trkpt><trkpt lat="44.1664747" lon="12.1003017"><ele>34.8</ele><time>2026-04-11T14:37:46.578Z</time></trkpt><trkpt lat="44.1663825" lon="12.1002489"><ele>34.199999999999996</ele><time>2026-04-11T14:37:47.583Z</time></trkpt><trkpt lat="44.166291" lon="12.1001649"><ele>33.6</ele><time>2026-04-11T14:37:48.582Z</time></trkpt><trkpt lat="44.1661931" lon="12.100067"><ele>33.0</ele><time>2026-04-11T14:37:49.587Z</time></trkpt><trkpt lat="44.1660856" lon="12.0999772"><ele>32.5</ele><time>2026-04-11T14:37:50.586Z</time></trkpt><trkpt lat="44.1659762" lon="12.0998921"><ele>32.0</ele><time>2026-04-11T14:37:51.588Z</time></trkpt><trkpt lat="44.1658626" lon="12.0998065"><ele>31.5</ele><time>2026-04-11T14:37:52.593Z</time></trkpt><trkpt lat="44.1657474" lon="12.0997268"><ele>31.0</ele><time>2026-04-11T14:37:53.591Z</time></trkpt><trkpt lat="44.165633" lon="12.0996435"><ele>30.5</ele><time>2026-04-11T14:37:54.613Z</time></trkpt><trkpt lat="44.1655151" lon="12.0995569"><ele>30.0</ele><time>2026-04-11T14:37:55.592Z</time></trkpt><trkpt lat="44.165395" lon="12.0994693"><ele>29.5</ele><time>2026-04-11T14:37:56.598Z</time></trkpt><trkpt lat="44.1652681" lon="12.0993782"><ele>29.0</ele><time>2026-04-11T14:37:57.585Z</time></trkpt><trkpt lat="44.1651408" lon="12.0992791"><ele>29.0</ele><time>2026-04-11T14:37:58.585Z</time></trkpt><trkpt lat="44.1650024" lon="12.0991851"><ele>29.0</ele><time>2026-04-11T14:37:59.592Z</time></trkpt><trkpt lat="44.1648613" lon="12.0990742"><ele>29.0</ele><time>2026-04-11T14:38:00.6Z</time></trkpt><trkpt lat="44.1647128" lon="12.0989718"><ele>29.0</ele><time>2026-04-11T14:38:01.596Z</time></trkpt><trkpt lat="44.1645677" lon="12.0988749"><ele>29.0</ele><time>2026-04-11T14:38:02.598Z</time></trkpt><trkpt lat="44.1644231" lon="12.0987649"><ele>29.0</ele><time>2026-04-11T14:38:03.591Z</time></trkpt><trkpt lat="44.1642781" lon="12.0986533"><ele>29.0</ele><time>2026-04-11T14:38:04.592Z</time></trkpt><trkpt lat="44.1641358" lon="12.0985401"><ele>29.0</ele><time>2026-04-11T14:38:05.591Z</time></trkpt><trkpt lat="44.1639892" lon="12.0984256"><ele>29.0</ele><time>2026-04-11T14:38:06.59Z</time></trkpt><trkpt lat="44.1638379" lon="12.0983196"><ele>28.666666666666664</ele><time>2026-04-11T14:38:07.592Z</time></trkpt><trkpt lat="44.1636918" lon="12.0982112"><ele>28.333333333333336</ele><time>2026-04-11T14:38:08.592Z</time></trkpt><trkpt lat="44.1635476" lon="12.0980964"><ele>28.0</ele><time>2026-04-11T14:38:09.593Z</time></trkpt><trkpt lat="44.1634004" lon="12.0979877"><ele>28.0</ele><time>2026-04-11T14:38:10.594Z</time></trkpt><trkpt lat="44.1632518" lon="12.0978856"><ele>28.0</ele><time>2026-04-11T14:38:11.591Z</time></trkpt><trkpt lat="44.1630995" lon="12.0977753"><ele>28.0</ele><time>2026-04-11T14:38:12.595Z</time></trkpt><trkpt lat="44.1629498" lon="12.0976626"><ele>28.333333333333336</ele><time>2026-04-11T14:38:13.593Z</time></trkpt><trkpt lat="44.1628012" lon="12.0975537"><ele>28.666666666666664</ele><time>2026-04-11T14:38:14.598Z</time></trkpt><trkpt lat="44.162651" lon="12.0974525"><ele>29.0</ele><time>2026-04-11T14:38:15.596Z</time></trkpt><trkpt lat="44.1625015" lon="12.0973461"><ele>30.0</ele><time>2026-04-11T14:38:16.591Z</time></trkpt><trkpt lat="44.1623481" lon="12.0972423"><ele>31.0</ele><time>2026-04-11T14:38:17.592Z</time></trkpt><trkpt lat="44.1621968" lon="12.0971241"><ele>32.0</ele><time>2026-04-11T14:38:18.594Z</time></trkpt><trkpt lat="44.1620489" lon="12.0970195"><ele>32.0</ele><time>2026-04-11T14:38:19.596Z</time></trkpt><trkpt lat="44.1619026" lon="12.0969157"><ele>32.0</ele><time>2026-04-11T14:38:20.596Z</time></trkpt><trkpt lat="44.1617596" lon="12.0968065"><ele>32.0</ele><time>2026-04-11T14:38:21.594Z</time></trkpt><trkpt lat="44.161624" lon="12.0966982"><ele>31.666666666666664</ele><time>2026-04-11T14:38:22.596Z</time></trkpt><trkpt lat="44.161491" lon="12.0965963"><ele>31.333333333333336</ele><time>2026-04-11T14:38:23.594Z</time></trkpt><trkpt lat="44.1613483" lon="12.0964897"><ele>31.0</ele><time>2026-04-11T14:38:24.593Z</time></trkpt><trkpt lat="44.1611997" lon="12.0963839"><ele>30.666666666666668</ele><time>2026-04-11T14:38:25.612Z</time></trkpt><trkpt lat="44.1610604" lon="12.0962854"><ele>30.333333333333336</ele><time>2026-04-11T14:38:26.593Z</time></trkpt><trkpt lat="44.1609177" lon="12.0961809"><ele>30.0</ele><time>2026-04-11T14:38:27.598Z</time></trkpt><trkpt lat="44.1607784" lon="12.0960833"><ele>30.666666666666664</ele><time>2026-04-11T14:38:28.594Z</time></trkpt><trkpt lat="44.1606391" lon="12.0959797"><ele>31.333333333333332</ele><time>2026-04-11T14:38:29.592Z</time></trkpt><trkpt lat="44.1604975" lon="12.0958774"><ele>32.0</ele><time>2026-04-11T14:38:30.595Z</time></trkpt><trkpt lat="44.1603554" lon="12.0957706"><ele>31.666666666666664</ele><time>2026-04-11T14:38:31.596Z</time></trkpt><trkpt lat="44.1602151" lon="12.0956626"><ele>31.333333333333336</ele><time>2026-04-11T14:38:32.596Z</time></trkpt><trkpt lat="44.1600693" lon="12.0955489"><ele>31.0</ele><time>2026-04-11T14:38:33.594Z</time></trkpt><trkpt lat="44.1599201" lon="12.0954372"><ele>31.333333333333336</ele><time>2026-04-11T14:38:34.595Z</time></trkpt><trkpt lat="44.1597818" lon="12.095326"><ele>31.666666666666664</ele><time>2026-04-11T14:38:35.598Z</time></trkpt><trkpt lat="44.1596456" lon="12.0952217"><ele>32.0</ele><time>2026-04-11T14:38:36.6Z</time></trkpt><trkpt lat="44.159512" lon="12.095113"><ele>32.0</ele><time>2026-04-11T14:38:37.593Z</time></trkpt><trkpt lat="44.1593712" lon="12.0950059"><ele>32.0</ele><time>2026-04-11T14:38:38.59Z</time></trkpt><trkpt lat="44.1592312" lon="12.0949027"><ele>32.0</ele><time>2026-04-11T14:38:39.594Z</time></trkpt><trkpt lat="44.1590914" lon="12.0947987"><ele>32.0</ele><time>2026-04-11T14:38:40.591Z</time></trkpt><trkpt lat="44.1589522" lon="12.094693"><ele>32.0</ele><time>2026-04-11T14:38:41.591Z</time></trkpt><trkpt lat="44.1588038" lon="12.0945919"><ele>32.0</ele><time>2026-04-11T14:38:42.586Z</time></trkpt><trkpt lat="44.1586491" lon="12.0944981"><ele>32.0</ele><time>2026-04-11T14:38:43.589Z</time></trkpt><trkpt lat="44.1584995" lon="12.0943985"><ele>32.0</ele><time>2026-04-11T14:38:44.593Z</time></trkpt><trkpt lat="44.158342" lon="12.0942868"><ele>32.0</ele><time>2026-04-11T14:38:45.587Z</time></trkpt><trkpt lat="44.158174" lon="12.0941735"><ele>31.666666666666664</ele><time>2026-04-11T14:38:46.587Z</time></trkpt><trkpt lat="44.1580086" lon="12.0940581"><ele>31.333333333333336</ele><time>2026-04-11T14:38:47.584Z</time></trkpt><trkpt lat="44.1578357" lon="12.0939303"><ele>31.0</ele><time>2026-04-11T14:38:48.589Z</time></trkpt><trkpt lat="44.1576571" lon="12.0937923"><ele>31.0</ele><time>2026-04-11T14:38:49.59Z</time></trkpt><trkpt lat="44.1574775" lon="12.093664"><ele>31.0</ele><time>2026-04-11T14:38:50.593Z</time></trkpt><trkpt lat="44.1572925" lon="12.0935386"><ele>31.0</ele><time>2026-04-11T14:38:51.591Z</time></trkpt><trkpt lat="44.1571036" lon="12.0934095"><ele>31.333333333333336</ele><time>2026-04-11T14:38:52.596Z</time></trkpt><trkpt lat="44.1569144" lon="12.0932714"><ele>31.666666666666664</ele><time>2026-04-11T14:38:53.588Z</time></trkpt><trkpt lat="44.1567271" lon="12.0931433"><ele>32.0</ele><time>2026-04-11T14:38:54.589Z</time></trkpt><trkpt lat="44.1565528" lon="12.0930137"><ele>32.666666666666664</ele><time>2026-04-11T14:38:55.588Z</time></trkpt><trkpt lat="44.1563933" lon="12.0928971"><ele>33.333333333333336</ele><time>2026-04-11T14:38:56.605Z</time></trkpt><trkpt lat="44.1562532" lon="12.0928"><ele>34.0</ele><time>2026-04-11T14:38:57.593Z</time></trkpt><trkpt lat="44.1561468" lon="12.0926949"><ele>34.0</ele><time>2026-04-11T14:38:58.597Z</time></trkpt><trkpt lat="44.1560486" lon="12.0926204"><ele>34.0</ele><time>2026-04-11T14:38:59.591Z</time></trkpt><trkpt lat="44.1559721" lon="12.0925593"><ele>34.0</ele><time>2026-04-11T14:39:00.601Z</time></trkpt><trkpt lat="44.1559091" lon="12.0925434"><ele>34.0</ele><time>2026-04-11T14:39:01.592Z</time></trkpt><trkpt lat="44.1558603" lon="12.0926438"><ele>34.0</ele><time>2026-04-11T14:39:03.597Z</time></trkpt><trkpt lat="44.1558571" lon="12.0927481"><ele>34.0</ele><time>2026-04-11T14:39:04.581Z</time></trkpt><trkpt lat="44.1558389" lon="12.0928517"><ele>34.0</ele><time>2026-04-11T14:39:05.591Z</time></trkpt><trkpt lat="44.1557995" lon="12.0929705"><ele>34.0</ele><time>2026-04-11T14:39:06.584Z</time></trkpt><trkpt lat="44.155751" lon="12.0930873"><ele>34.0</ele><time>2026-04-11T14:39:07.585Z</time></trkpt><trkpt lat="44.1557034" lon="12.0931937"><ele>34.0</ele><time>2026-04-11T14:39:08.59Z</time></trkpt><trkpt lat="44.1556471" lon="12.0932658"><ele>34.0</ele><time>2026-04-11T14:39:09.59Z</time></trkpt><trkpt lat="44.1555822" lon="12.0932854"><ele>34.0</ele><time>2026-04-11T14:39:10.59Z</time></trkpt><trkpt lat="44.155508" lon="12.0932487"><ele>33.8</ele><time>2026-04-11T14:39:11.574Z</time></trkpt><trkpt lat="44.15542" lon="12.0931673"><ele>33.599999999999994</ele><time>2026-04-11T14:39:12.584Z</time></trkpt><trkpt lat="44.1553247" lon="12.0930864"><ele>33.4</ele><time>2026-04-11T14:39:13.586Z</time></trkpt><trkpt lat="44.1552301" lon="12.0930285"><ele>33.199999999999996</ele><time>2026-04-11T14:39:14.577Z</time></trkpt><trkpt lat="44.1551311" lon="12.0929987"><ele>33.0</ele><time>2026-04-11T14:39:15.579Z</time></trkpt><trkpt lat="44.1550312" lon="12.093006"><ele>33.0</ele><time>2026-04-11T14:39:16.581Z</time></trkpt><trkpt lat="44.1549337" lon="12.0930402"><ele>33.0</ele><time>2026-04-11T14:39:17.581Z</time></trkpt><trkpt lat="44.1548392" lon="12.0930899"><ele>33.0</ele><time>2026-04-11T14:39:18.579Z</time></trkpt><trkpt lat="44.1547545" lon="12.0931613"><ele>33.0</ele><time>2026-04-11T14:39:19.59Z</time></trkpt><trkpt lat="44.154679" lon="12.0932547"><ele>33.0</ele><time>2026-04-11T14:39:20.593Z</time></trkpt><trkpt lat="44.1546162" lon="12.0933641"><ele>32.833333333333336</ele><time>2026-04-11T14:39:21.583Z</time></trkpt><trkpt lat="44.1545643" lon="12.0934725"><ele>32.666666666666664</ele><time>2026-04-11T14:39:22.595Z</time></trkpt><trkpt lat="44.1545211" lon="12.0935896"><ele>32.5</ele><time>2026-04-11T14:39:23.589Z</time></trkpt><trkpt lat="44.154484" lon="12.0937042"><ele>32.33333333333333</ele><time>2026-04-11T14:39:24.587Z</time></trkpt><trkpt lat="44.1544481" lon="12.0938155"><ele>32.166666666666664</ele><time>2026-04-11T14:39:25.59Z</time></trkpt><trkpt lat="44.1544171" lon="12.0939177"><ele>32.0</ele><time>2026-04-11T14:39:26.591Z</time></trkpt><trkpt lat="44.1543819" lon="12.0940114"><ele>31.999999999999996</ele><time>2026-04-11T14:39:27.607Z</time></trkpt><trkpt lat="44.154336" lon="12.0940758"><ele>32.0</ele><time>2026-04-11T14:39:28.591Z</time></trkpt><trkpt lat="44.1542752" lon="12.0941123"><ele>32.0</ele><time>2026-04-11T14:39:29.596Z</time></trkpt><trkpt lat="44.1541923" lon="12.0941123"><ele>32.0</ele><time>2026-04-11T14:39:30.593Z</time></trkpt><trkpt lat="44.1540957" lon="12.0940762"><ele>31.999999999999996</ele><time>2026-04-11T14:39:31.583Z</time></trkpt><trkpt lat="44.1539965" lon="12.0940303"><ele>32.0</ele><time>2026-04-11T14:39:32.598Z</time></trkpt><trkpt lat="44.1538868" lon="12.0939749"><ele>32.25</ele><time>2026-04-11T14:39:33.59Z</time></trkpt><trkpt lat="44.1537723" lon="12.0939194"><ele>32.5</ele><time>2026-04-11T14:39:34.59Z</time></trkpt><trkpt lat="44.1536521" lon="12.0938702"><ele>32.75</ele><time>2026-04-11T14:39:35.589Z</time></trkpt><trkpt lat="44.1535339" lon="12.0938194"><ele>33.0</ele><time>2026-04-11T14:39:36.592Z</time></trkpt><trkpt lat="44.1534143" lon="12.0937671"><ele>33.0</ele><time>2026-04-11T14:39:37.591Z</time></trkpt><trkpt lat="44.1532973" lon="12.0937154"><ele>33.0</ele><time>2026-04-11T14:39:38.593Z</time></trkpt><trkpt lat="44.1531796" lon="12.093672"><ele>33.0</ele><time>2026-04-11T14:39:39.592Z</time></trkpt><trkpt lat="44.1530665" lon="12.0936306"><ele>33.0</ele><time>2026-04-11T14:39:40.593Z</time></trkpt><trkpt lat="44.1529516" lon="12.0935939"><ele>33.5</ele><time>2026-04-11T14:39:41.599Z</time></trkpt><trkpt lat="44.1528368" lon="12.0935596"><ele>34.0</ele><time>2026-04-11T14:39:42.596Z</time></trkpt><trkpt lat="44.1527218" lon="12.0935254"><ele>34.5</ele><time>2026-04-11T14:39:43.594Z</time></trkpt><trkpt lat="44.1526051" lon="12.0934769"><ele>35.0</ele><time>2026-04-11T14:39:44.59Z</time></trkpt><trkpt lat="44.1524902" lon="12.0934237"><ele>35.0</ele><time>2026-04-11T14:39:45.596Z</time></trkpt><trkpt lat="44.1523779" lon="12.0933647"><ele>35.0</ele><time>2026-04-11T14:39:46.589Z</time></trkpt><trkpt lat="44.1522726" lon="12.0933001"><ele>35.0</ele><time>2026-04-11T14:39:47.589Z</time></trkpt><trkpt lat="44.1521682" lon="12.0932267"><ele>35.0</ele><time>2026-04-11T14:39:48.589Z</time></trkpt><trkpt lat="44.152069" lon="12.0931503"><ele>34.75</ele><time>2026-04-11T14:39:49.585Z</time></trkpt><trkpt lat="44.1519682" lon="12.0930578"><ele>34.5</ele><time>2026-04-11T14:39:50.583Z</time></trkpt><trkpt lat="44.1518741" lon="12.0929579"><ele>34.25</ele><time>2026-04-11T14:39:51.59Z</time></trkpt><trkpt lat="44.1517888" lon="12.0928595"><ele>34.0</ele><time>2026-04-11T14:39:52.592Z</time></trkpt><trkpt lat="44.151707" lon="12.0927603"><ele>34.0</ele><time>2026-04-11T14:39:53.593Z</time></trkpt><trkpt lat="44.1516275" lon="12.0926596"><ele>34.0</ele><time>2026-04-11T14:39:54.592Z</time></trkpt><trkpt lat="44.1515556" lon="12.092565"><ele>34.0</ele><time>2026-04-11T14:39:55.589Z</time></trkpt><trkpt lat="44.151481" lon="12.0924845"><ele>34.0</ele><time>2026-04-11T14:39:56.613Z</time></trkpt><trkpt lat="44.1513963" lon="12.0924313"><ele>34.0</ele><time>2026-04-11T14:39:57.679Z</time></trkpt><trkpt lat="44.1513057" lon="12.0923913"><ele>33.4</ele><time>2026-04-11T14:39:58.698Z</time></trkpt><trkpt lat="44.1512127" lon="12.0923533"><ele>32.8</ele><time>2026-04-11T14:39:59.682Z</time></trkpt><trkpt lat="44.1511144" lon="12.0923321"><ele>32.2</ele><time>2026-04-11T14:40:00.683Z</time></trkpt><trkpt lat="44.1510118" lon="12.0923259"><ele>31.6</ele><time>2026-04-11T14:40:01.675Z</time></trkpt><trkpt lat="44.1509064" lon="12.0923254"><ele>31.0</ele><time>2026-04-11T14:40:02.675Z</time></trkpt><trkpt lat="44.1508002" lon="12.0923268"><ele>31.0</ele><time>2026-04-11T14:40:03.678Z</time></trkpt><trkpt lat="44.1506933" lon="12.0923266"><ele>31.0</ele><time>2026-04-11T14:40:04.685Z</time></trkpt><trkpt lat="44.1505842" lon="12.0923232"><ele>31.0</ele><time>2026-04-11T14:40:05.686Z</time></trkpt><trkpt lat="44.1504695" lon="12.092321"><ele>31.0</ele><time>2026-04-11T14:40:06.684Z</time></trkpt><trkpt lat="44.1503548" lon="12.0923158"><ele>31.0</ele><time>2026-04-11T14:40:07.688Z</time></trkpt><trkpt lat="44.1502303" lon="12.0923405"><ele>31.0</ele><time>2026-04-11T14:40:08.682Z</time></trkpt><trkpt lat="44.1500821" lon="12.0924417"><ele>31.0</ele><time>2026-04-11T14:40:09.679Z</time></trkpt><trkpt lat="44.1499666" lon="12.0924146"><ele>31.0</ele><time>2026-04-11T14:40:10.685Z</time></trkpt><trkpt lat="44.1498511" lon="12.0923905"><ele>31.0</ele><time>2026-04-11T14:40:11.682Z</time></trkpt><trkpt lat="44.1497373" lon="12.092375"><ele>31.200000000000003</ele><time>2026-04-11T14:40:12.682Z</time></trkpt><trkpt lat="44.1496257" lon="12.0923796"><ele>31.400000000000002</ele><time>2026-04-11T14:40:13.681Z</time></trkpt><trkpt lat="44.1495231" lon="12.0924085"><ele>31.6</ele><time>2026-04-11T14:40:14.684Z</time></trkpt><trkpt lat="44.1494173" lon="12.0924409"><ele>31.8</ele><time>2026-04-11T14:40:15.669Z</time></trkpt><trkpt lat="44.1493089" lon="12.0924733"><ele>32.0</ele><time>2026-04-11T14:40:16.673Z</time></trkpt><trkpt lat="44.149196" lon="12.0925067"><ele>32.6</ele><time>2026-04-11T14:40:17.676Z</time></trkpt><trkpt lat="44.1490856" lon="12.0925441"><ele>33.2</ele><time>2026-04-11T14:40:18.68Z</time></trkpt><trkpt lat="44.1489723" lon="12.0925767"><ele>33.8</ele><time>2026-04-11T14:40:19.682Z</time></trkpt><trkpt lat="44.1488599" lon="12.0926112"><ele>34.4</ele><time>2026-04-11T14:40:20.679Z</time></trkpt><trkpt lat="44.1487579" lon="12.0926416"><ele>35.0</ele><time>2026-04-11T14:40:21.684Z</time></trkpt><trkpt lat="44.1486612" lon="12.0926633"><ele>35.0</ele><time>2026-04-11T14:40:22.681Z</time></trkpt><trkpt lat="44.1485661" lon="12.0926765"><ele>35.0</ele><time>2026-04-11T14:40:23.677Z</time></trkpt><trkpt lat="44.148478" lon="12.0926919"><ele>35.0</ele><time>2026-04-11T14:40:24.685Z</time></trkpt><trkpt lat="44.1483966" lon="12.0927182"><ele>35.0</ele><time>2026-04-11T14:40:25.689Z</time></trkpt><trkpt lat="44.1483395" lon="12.092767"><ele>35.0</ele><time>2026-04-11T14:40:26.681Z</time></trkpt><trkpt lat="44.1482698" lon="12.0930302"><ele>35.0</ele><time>2026-04-11T14:40:29.6Z</time></trkpt><trkpt lat="44.148243" lon="12.0931697"><ele>35.0</ele><time>2026-04-11T14:40:30.573Z</time></trkpt><trkpt lat="44.148207" lon="12.0933096"><ele>35.0</ele><time>2026-04-11T14:40:31.574Z</time></trkpt><trkpt lat="44.1481669" lon="12.0934546"><ele>35.0</ele><time>2026-04-11T14:40:32.586Z</time></trkpt><trkpt lat="44.1481171" lon="12.0936013"><ele>35.0</ele><time>2026-04-11T14:40:33.583Z</time></trkpt><trkpt lat="44.1480668" lon="12.0937504"><ele>36.5</ele><time>2026-04-11T14:40:34.587Z</time></trkpt><trkpt lat="44.1480158" lon="12.0939043"><ele>38.0</ele><time>2026-04-11T14:40:35.585Z</time></trkpt><trkpt lat="44.1479619" lon="12.0940528"><ele>39.5</ele><time>2026-04-11T14:40:36.587Z</time></trkpt><trkpt lat="44.1479106" lon="12.0942002"><ele>41.0</ele><time>2026-04-11T14:40:37.585Z</time></trkpt><trkpt lat="44.1478653" lon="12.0943474"><ele>41.599999999999994</ele><time>2026-04-11T14:40:38.587Z</time></trkpt><trkpt lat="44.1478162" lon="12.0944864"><ele>42.2</ele><time>2026-04-11T14:40:39.589Z</time></trkpt><trkpt lat="44.1477668" lon="12.0946235"><ele>42.8</ele><time>2026-04-11T14:40:40.586Z</time></trkpt><trkpt lat="44.1477224" lon="12.0947634"><ele>43.400000000000006</ele><time>2026-04-11T14:40:41.588Z</time></trkpt><trkpt lat="44.1476796" lon="12.0949006"><ele>44.0</ele><time>2026-04-11T14:40:42.584Z</time></trkpt><trkpt lat="44.1476381" lon="12.0950345"><ele>44.0</ele><time>2026-04-11T14:40:43.592Z</time></trkpt><trkpt lat="44.147592" lon="12.0951686"><ele>44.0</ele><time>2026-04-11T14:40:44.589Z</time></trkpt><trkpt lat="44.1475458" lon="12.0953023"><ele>44.0</ele><time>2026-04-11T14:40:45.584Z</time></trkpt><trkpt lat="44.1475023" lon="12.0954404"><ele>44.0</ele><time>2026-04-11T14:40:46.595Z</time></trkpt><trkpt lat="44.147459" lon="12.0955784"><ele>44.0</ele><time>2026-04-11T14:40:47.584Z</time></trkpt><trkpt lat="44.1474142" lon="12.0957123"><ele>44.400000000000006</ele><time>2026-04-11T14:40:48.591Z</time></trkpt><trkpt lat="44.1473707" lon="12.0958449"><ele>44.8</ele><time>2026-04-11T14:40:49.584Z</time></trkpt><trkpt lat="44.1473277" lon="12.0959686"><ele>45.2</ele><time>2026-04-11T14:40:50.583Z</time></trkpt><trkpt lat="44.1472878" lon="12.0960915"><ele>45.599999999999994</ele><time>2026-04-11T14:40:51.582Z</time></trkpt><trkpt lat="44.1472501" lon="12.0962024"><ele>46.0</ele><time>2026-04-11T14:40:52.589Z</time></trkpt><trkpt lat="44.1472102" lon="12.0963076"><ele>46.0</ele><time>2026-04-11T14:40:53.59Z</time></trkpt><trkpt lat="44.1471722" lon="12.0964092"><ele>46.0</ele><time>2026-04-11T14:40:54.586Z</time></trkpt><trkpt lat="44.1471404" lon="12.0965019"><ele>46.0</ele><time>2026-04-11T14:40:55.584Z</time></trkpt><trkpt lat="44.147089" lon="12.0966462"><ele>46.0</ele><time>2026-04-11T14:40:57.578Z</time></trkpt><trkpt lat="44.1470523" lon="12.0967639"><ele>46.0</ele><time>2026-04-11T14:40:59.59Z</time></trkpt><trkpt lat="44.1470758" lon="12.0968815"><ele>46.16666666666667</ele><time>2026-04-11T14:41:02.603Z</time></trkpt><trkpt lat="44.1471535" lon="12.0969277"><ele>46.333333333333336</ele><time>2026-04-11T14:41:04.599Z</time></trkpt><trkpt lat="44.1472815" lon="12.0969557"><ele>46.5</ele><time>2026-04-11T14:41:06.585Z</time></trkpt><trkpt lat="44.1473508" lon="12.0969687"><ele>46.666666666666664</ele><time>2026-04-11T14:41:07.597Z</time></trkpt><trkpt lat="44.1474148" lon="12.0969809"><ele>46.83333333333333</ele><time>2026-04-11T14:41:08.594Z</time></trkpt><trkpt lat="44.1474807" lon="12.0969891"><ele>47.0</ele><time>2026-04-11T14:41:09.587Z</time></trkpt><trkpt lat="44.1475476" lon="12.0970018"><ele>46.5</ele><time>2026-04-11T14:41:10.576Z</time></trkpt><trkpt lat="44.147608" lon="12.0970351"><ele>46.0</ele><time>2026-04-11T14:41:11.572Z</time></trkpt><trkpt lat="44.1476632" lon="12.0970891"><ele>45.5</ele><time>2026-04-11T14:41:12.58Z</time></trkpt><trkpt lat="44.1476999" lon="12.0971857"><ele>45.0</ele><time>2026-04-11T14:41:13.564Z</time></trkpt><trkpt lat="44.1477248" lon="12.0972923"><ele>44.5</ele><time>2026-04-11T14:41:14.574Z</time></trkpt><trkpt lat="44.1477449" lon="12.0974141"><ele>44.0</ele><time>2026-04-11T14:41:15.578Z</time></trkpt><trkpt lat="44.1477689" lon="12.0975274"><ele>43.666666666666664</ele><time>2026-04-11T14:41:16.586Z</time></trkpt><trkpt lat="44.1477988" lon="12.0976464"><ele>43.33333333333333</ele><time>2026-04-11T14:41:17.587Z</time></trkpt><trkpt lat="44.1478346" lon="12.0977631"><ele>43.0</ele><time>2026-04-11T14:41:18.585Z</time></trkpt><trkpt lat="44.1478775" lon="12.0978617"><ele>42.666666666666664</ele><time>2026-04-11T14:41:19.581Z</time></trkpt><trkpt lat="44.147922" lon="12.0979574"><ele>42.333333333333336</ele><time>2026-04-11T14:41:20.586Z</time></trkpt><trkpt lat="44.1479706" lon="12.0980502"><ele>42.0</ele><time>2026-04-11T14:41:21.581Z</time></trkpt><trkpt lat="44.1480155" lon="12.0981564"><ele>41.8</ele><time>2026-04-11T14:41:22.586Z</time></trkpt><trkpt lat="44.1480469" lon="12.098269"><ele>41.6</ele><time>2026-04-11T14:41:23.588Z</time></trkpt><trkpt lat="44.1480626" lon="12.0983971"><ele>41.4</ele><time>2026-04-11T14:41:24.581Z</time></trkpt><trkpt lat="44.1480708" lon="12.0985274"><ele>41.199999999999996</ele><time>2026-04-11T14:41:25.586Z</time></trkpt><trkpt lat="44.1480758" lon="12.0986648"><ele>41.0</ele><time>2026-04-11T14:41:26.583Z</time></trkpt><trkpt lat="44.1480763" lon="12.0987979"><ele>41.0</ele><time>2026-04-11T14:41:27.592Z</time></trkpt><trkpt lat="44.1480769" lon="12.0989333"><ele>41.0</ele><time>2026-04-11T14:41:28.585Z</time></trkpt><trkpt lat="44.1480794" lon="12.0990692"><ele>41.0</ele><time>2026-04-11T14:41:29.588Z</time></trkpt><trkpt lat="44.1480814" lon="12.0992013"><ele>41.0</ele><time>2026-04-11T14:41:30.612Z</time></trkpt><trkpt lat="44.1480833" lon="12.099334"><ele>41.0</ele><time>2026-04-11T14:41:31.588Z</time></trkpt><trkpt lat="44.1480863" lon="12.0994696"><ele>41.166666666666664</ele><time>2026-04-11T14:41:32.59Z</time></trkpt><trkpt lat="44.1480889" lon="12.0995943"><ele>41.33333333333333</ele><time>2026-04-11T14:41:33.588Z</time></trkpt><trkpt lat="44.1480946" lon="12.0997051"><ele>41.5</ele><time>2026-04-11T14:41:34.587Z</time></trkpt><trkpt lat="44.1480975" lon="12.099805"><ele>41.666666666666664</ele><time>2026-04-11T14:41:35.587Z</time></trkpt><trkpt lat="44.1481054" lon="12.0999564"><ele>41.833333333333336</ele><time>2026-04-11T14:41:37.584Z</time></trkpt><trkpt lat="44.1481183" lon="12.1000493"><ele>42.0</ele><time>2026-04-11T14:41:39.586Z</time></trkpt><trkpt lat="44.1480606" lon="12.1001442"><ele>42.400000000000006</ele><time>2026-04-11T14:42:02.603Z</time></trkpt><trkpt lat="44.1479586" lon="12.1001742"><ele>42.800000000000004</ele><time>2026-04-11T14:42:04.602Z</time></trkpt><trkpt lat="44.1478383" lon="12.1001955"><ele>43.2</ele><time>2026-04-11T14:42:06.594Z</time></trkpt><trkpt lat="44.1477626" lon="12.1002175"><ele>43.6</ele><time>2026-04-11T14:42:07.585Z</time></trkpt><trkpt lat="44.1476843" lon="12.1002406"><ele>44.0</ele><time>2026-04-11T14:42:08.589Z</time></trkpt><trkpt lat="44.1476017" lon="12.1002596"><ele>44.0</ele><time>2026-04-11T14:42:09.588Z</time></trkpt><trkpt lat="44.1475089" lon="12.1002859"><ele>44.0</ele><time>2026-04-11T14:42:10.596Z</time></trkpt><trkpt lat="44.1474091" lon="12.1003101"><ele>44.0</ele><time>2026-04-11T14:42:11.592Z</time></trkpt><trkpt lat="44.1473129" lon="12.1003348"><ele>44.0</ele><time>2026-04-11T14:42:12.598Z</time></trkpt><trkpt lat="44.1472166" lon="12.1003655"><ele>44.0</ele><time>2026-04-11T14:42:13.592Z</time></trkpt><trkpt lat="44.1471189" lon="12.1004011"><ele>44.25</ele><time>2026-04-11T14:42:14.601Z</time></trkpt><trkpt lat="44.147015" lon="12.1004369"><ele>44.5</ele><time>2026-04-11T14:42:15.592Z</time></trkpt><trkpt lat="44.1469065" lon="12.1004766"><ele>44.75</ele><time>2026-04-11T14:42:16.617Z</time></trkpt><trkpt lat="44.1467913" lon="12.1005209"><ele>45.0</ele><time>2026-04-11T14:42:17.607Z</time></trkpt><trkpt lat="44.1466738" lon="12.1005653"><ele>45.0</ele><time>2026-04-11T14:42:18.607Z</time></trkpt><trkpt lat="44.1465569" lon="12.1006133"><ele>45.0</ele><time>2026-04-11T14:42:19.605Z</time></trkpt><trkpt lat="44.1464384" lon="12.1006668"><ele>45.0</ele><time>2026-04-11T14:42:20.606Z</time></trkpt><trkpt lat="44.1463191" lon="12.1007221"><ele>45.0</ele><time>2026-04-11T14:42:21.604Z</time></trkpt><trkpt lat="44.1461988" lon="12.1007727"><ele>45.75</ele><time>2026-04-11T14:42:22.6Z</time></trkpt><trkpt lat="44.1460782" lon="12.1008247"><ele>46.5</ele><time>2026-04-11T14:42:23.61Z</time></trkpt><trkpt lat="44.1459593" lon="12.100876"><ele>47.25</ele><time>2026-04-11T14:42:24.605Z</time></trkpt><trkpt lat="44.1458368" lon="12.1009322"><ele>48.0</ele><time>2026-04-11T14:42:25.61Z</time></trkpt><trkpt lat="44.1457141" lon="12.1009901"><ele>47.5</ele><time>2026-04-11T14:42:26.607Z</time></trkpt><trkpt lat="44.1455893" lon="12.1010488"><ele>47.0</ele><time>2026-04-11T14:42:27.605Z</time></trkpt><trkpt lat="44.1454623" lon="12.1011054"><ele>46.5</ele><time>2026-04-11T14:42:28.606Z</time></trkpt><trkpt lat="44.1453326" lon="12.1011641"><ele>46.0</ele><time>2026-04-11T14:42:29.604Z</time></trkpt><trkpt lat="44.1452032" lon="12.1012236"><ele>46.0</ele><time>2026-04-11T14:42:30.612Z</time></trkpt><trkpt lat="44.1450737" lon="12.1012909"><ele>46.0</ele><time>2026-04-11T14:42:31.61Z</time></trkpt><trkpt lat="44.144939" lon="12.1013572"><ele>46.0</ele><time>2026-04-11T14:42:32.633Z</time></trkpt><trkpt lat="44.1448039" lon="12.1014179"><ele>46.0</ele><time>2026-04-11T14:42:33.608Z</time></trkpt><trkpt lat="44.1446718" lon="12.1014794"><ele>46.5</ele><time>2026-04-11T14:42:34.605Z</time></trkpt><trkpt lat="44.1445398" lon="12.1015443"><ele>47.0</ele><time>2026-04-11T14:42:35.602Z</time></trkpt><trkpt lat="44.1444197" lon="12.1015992"><ele>47.5</ele><time>2026-04-11T14:42:36.6Z</time></trkpt><trkpt lat="44.1443017" lon="12.101641"><ele>48.0</ele><time>2026-04-11T14:42:37.605Z</time></trkpt><trkpt lat="44.1441856" lon="12.1016959"><ele>48.599999999999994</ele><time>2026-04-11T14:42:38.606Z</time></trkpt><trkpt lat="44.1440747" lon="12.1017241"><ele>49.199999999999996</ele><time>2026-04-11T14:42:39.596Z</time></trkpt><trkpt lat="44.1439643" lon="12.1017348"><ele>49.8</ele><time>2026-04-11T14:42:40.596Z</time></trkpt><trkpt lat="44.1438568" lon="12.1017301"><ele>50.4</ele><time>2026-04-11T14:42:41.597Z</time></trkpt><trkpt lat="44.143753" lon="12.1017189"><ele>51.0</ele><time>2026-04-11T14:42:42.587Z</time></trkpt><trkpt lat="44.1436539" lon="12.1016958"><ele>51.199999999999996</ele><time>2026-04-11T14:42:43.597Z</time></trkpt><trkpt lat="44.1435632" lon="12.1016653"><ele>51.4</ele><time>2026-04-11T14:42:44.59Z</time></trkpt><trkpt lat="44.1434777" lon="12.1016275"><ele>51.6</ele><time>2026-04-11T14:42:45.584Z</time></trkpt><trkpt lat="44.1433967" lon="12.1015787"><ele>51.8</ele><time>2026-04-11T14:42:46.591Z</time></trkpt><trkpt lat="44.1433075" lon="12.1015262"><ele>52.0</ele><time>2026-04-11T14:42:47.579Z</time></trkpt><trkpt lat="44.143211" lon="12.1014676"><ele>51.5</ele><time>2026-04-11T14:42:48.596Z</time></trkpt><trkpt lat="44.1431029" lon="12.1014128"><ele>51.0</ele><time>2026-04-11T14:42:49.588Z</time></trkpt><trkpt lat="44.1429935" lon="12.1013593"><ele>50.5</ele><time>2026-04-11T14:42:50.587Z</time></trkpt><trkpt lat="44.1428929" lon="12.1013023"><ele>50.0</ele><time>2026-04-11T14:42:51.587Z</time></trkpt><trkpt lat="44.1427893" lon="12.101243"><ele>50.0</ele><time>2026-04-11T14:42:52.587Z</time></trkpt><trkpt lat="44.1426876" lon="12.101185"><ele>50.0</ele><time>2026-04-11T14:42:53.594Z</time></trkpt><trkpt lat="44.142585" lon="12.1011377"><ele>50.0</ele><time>2026-04-11T14:42:54.588Z</time></trkpt><trkpt lat="44.1424843" lon="12.1010904"><ele>50.0</ele><time>2026-04-11T14:42:55.593Z</time></trkpt><trkpt lat="44.1423811" lon="12.1010435"><ele>50.0</ele><time>2026-04-11T14:42:56.595Z</time></trkpt><trkpt lat="44.1422809" lon="12.1009948"><ele>50.8</ele><time>2026-04-11T14:42:57.595Z</time></trkpt><trkpt lat="44.1421779" lon="12.1009493"><ele>51.6</ele><time>2026-04-11T14:42:58.594Z</time></trkpt><trkpt lat="44.1420732" lon="12.1009026"><ele>52.400000000000006</ele><time>2026-04-11T14:42:59.6Z</time></trkpt><trkpt lat="44.141974" lon="12.1008477"><ele>53.2</ele><time>2026-04-11T14:43:00.596Z</time></trkpt><trkpt lat="44.1418749" lon="12.10079"><ele>54.0</ele><time>2026-04-11T14:43:01.6Z</time></trkpt><trkpt lat="44.141786" lon="12.1007494"><ele>54.0</ele><time>2026-04-11T14:43:02.589Z</time></trkpt><trkpt lat="44.1417214" lon="12.1007178"><ele>54.00000000000001</ele><time>2026-04-11T14:43:03.614Z</time></trkpt><trkpt lat="44.1416566" lon="12.1006802"><ele>54.00000000000001</ele><time>2026-04-11T14:43:06.591Z</time></trkpt><trkpt lat="44.1415806" lon="12.1006604"><ele>54.0</ele><time>2026-04-11T14:43:09.587Z</time></trkpt><trkpt lat="44.1414471" lon="12.1005824"><ele>54.0</ele><time>2026-04-11T14:43:11.582Z</time></trkpt><trkpt lat="44.1413437" lon="12.1005504"><ele>54.0</ele><time>2026-04-11T14:43:12.585Z</time></trkpt><trkpt lat="44.1412308" lon="12.1005227"><ele>54.0</ele><time>2026-04-11T14:43:13.586Z</time></trkpt><trkpt lat="44.1411165" lon="12.1004896"><ele>54.0</ele><time>2026-04-11T14:43:14.583Z</time></trkpt><trkpt lat="44.1409983" lon="12.1004578"><ele>54.0</ele><time>2026-04-11T14:43:15.589Z</time></trkpt><trkpt lat="44.1408811" lon="12.1004266"><ele>54.0</ele><time>2026-04-11T14:43:16.591Z</time></trkpt><trkpt lat="44.1407657" lon="12.1003976"><ele>54.0</ele><time>2026-04-11T14:43:17.591Z</time></trkpt><trkpt lat="44.1406479" lon="12.1003677"><ele>54.0</ele><time>2026-04-11T14:43:18.59Z</time></trkpt><trkpt lat="44.1405257" lon="12.1003375"><ele>54.0</ele><time>2026-04-11T14:43:19.589Z</time></trkpt><trkpt lat="44.1404018" lon="12.1003079"><ele>54.25</ele><time>2026-04-11T14:43:20.59Z</time></trkpt><trkpt lat="44.1402819" lon="12.100282"><ele>54.5</ele><time>2026-04-11T14:43:21.591Z</time></trkpt><trkpt lat="44.1401583" lon="12.1002655"><ele>54.75</ele><time>2026-04-11T14:43:22.59Z</time></trkpt><trkpt lat="44.1400364" lon="12.1002591"><ele>55.0</ele><time>2026-04-11T14:43:23.592Z</time></trkpt><trkpt lat="44.1399134" lon="12.1002771"><ele>55.0</ele><time>2026-04-11T14:43:24.6Z</time></trkpt><trkpt lat="44.1397881" lon="12.1003278"><ele>55.0</ele><time>2026-04-11T14:43:25.589Z</time></trkpt><trkpt lat="44.139663" lon="12.1004055"><ele>55.0</ele><time>2026-04-11T14:43:26.597Z</time></trkpt><trkpt lat="44.1395452" lon="12.1004893"><ele>55.0</ele><time>2026-04-11T14:43:27.595Z</time></trkpt><trkpt lat="44.1394379" lon="12.1005772"><ele>55.0</ele><time>2026-04-11T14:43:28.595Z</time></trkpt><trkpt lat="44.139332" lon="12.1006763"><ele>55.0</ele><time>2026-04-11T14:43:29.596Z</time></trkpt><trkpt lat="44.1392325" lon="12.1007684"><ele>55.0</ele><time>2026-04-11T14:43:30.691Z</time></trkpt><trkpt lat="44.1391354" lon="12.1008627"><ele>55.0</ele><time>2026-04-11T14:43:31.698Z</time></trkpt><trkpt lat="44.1390523" lon="12.100987"><ele>54.5</ele><time>2026-04-11T14:43:32.689Z</time></trkpt><trkpt lat="44.1389788" lon="12.1011248"><ele>54.0</ele><time>2026-04-11T14:43:33.688Z</time></trkpt><trkpt lat="44.1389082" lon="12.1012399"><ele>53.5</ele><time>2026-04-11T14:43:34.699Z</time></trkpt><trkpt lat="44.1388418" lon="12.1013616"><ele>53.0</ele><time>2026-04-11T14:43:35.675Z</time></trkpt><trkpt lat="44.1387816" lon="12.1014951"><ele>53.0</ele><time>2026-04-11T14:43:36.682Z</time></trkpt><trkpt lat="44.138723" lon="12.1016393"><ele>53.0</ele><time>2026-04-11T14:43:37.671Z</time></trkpt><trkpt lat="44.1386646" lon="12.101791"><ele>53.0</ele><time>2026-04-11T14:43:38.681Z</time></trkpt><trkpt lat="44.1386095" lon="12.1019458"><ele>53.0</ele><time>2026-04-11T14:43:39.683Z</time></trkpt><trkpt lat="44.1385508" lon="12.1021024"><ele>53.0</ele><time>2026-04-11T14:43:40.676Z</time></trkpt><trkpt lat="44.1385227" lon="12.1022706"><ele>53.0</ele><time>2026-04-11T14:43:41.683Z</time></trkpt><trkpt lat="44.1384815" lon="12.1024244"><ele>53.0</ele><time>2026-04-11T14:43:42.673Z</time></trkpt><trkpt lat="44.1384262" lon="12.1025665"><ele>53.0</ele><time>2026-04-11T14:43:43.669Z</time></trkpt><trkpt lat="44.1383711" lon="12.1027078"><ele>53.25</ele><time>2026-04-11T14:43:44.67Z</time></trkpt><trkpt lat="44.1383289" lon="12.1028612"><ele>53.5</ele><time>2026-04-11T14:43:45.671Z</time></trkpt><trkpt lat="44.1382831" lon="12.1030132"><ele>53.75</ele><time>2026-04-11T14:43:46.673Z</time></trkpt><trkpt lat="44.1382326" lon="12.103166"><ele>54.0</ele><time>2026-04-11T14:43:47.675Z</time></trkpt><trkpt lat="44.1381835" lon="12.1033143"><ele>54.0</ele><time>2026-04-11T14:43:48.676Z</time></trkpt><trkpt lat="44.1381335" lon="12.1034667"><ele>54.0</ele><time>2026-04-11T14:43:49.677Z</time></trkpt><trkpt lat="44.1380824" lon="12.1036239"><ele>54.0</ele><time>2026-04-11T14:43:50.676Z</time></trkpt><trkpt lat="44.1380316" lon="12.1037815"><ele>54.0</ele><time>2026-04-11T14:43:51.682Z</time></trkpt><trkpt lat="44.1379793" lon="12.1039392"><ele>54.5</ele><time>2026-04-11T14:43:52.678Z</time></trkpt><trkpt lat="44.1379267" lon="12.1040898"><ele>55.0</ele><time>2026-04-11T14:43:53.675Z</time></trkpt><trkpt lat="44.1378733" lon="12.1042381"><ele>55.5</ele><time>2026-04-11T14:43:54.681Z</time></trkpt><trkpt lat="44.1378229" lon="12.1043855"><ele>56.0</ele><time>2026-04-11T14:43:55.673Z</time></trkpt><trkpt lat="44.1377742" lon="12.1045388"><ele>56.0</ele><time>2026-04-11T14:43:56.68Z</time></trkpt><trkpt lat="44.1377244" lon="12.1046841"><ele>56.0</ele><time>2026-04-11T14:43:57.685Z</time></trkpt><trkpt lat="44.1376745" lon="12.1048271"><ele>56.0</ele><time>2026-04-11T14:43:58.682Z</time></trkpt><trkpt lat="44.1376239" lon="12.1049621"><ele>56.0</ele><time>2026-04-11T14:43:59.679Z</time></trkpt><trkpt lat="44.1375768" lon="12.1051042"><ele>56.0</ele><time>2026-04-11T14:44:00.694Z</time></trkpt><trkpt lat="44.1375203" lon="12.1052141"><ele>55.99999999999999</ele><time>2026-04-11T14:44:01.688Z</time></trkpt><trkpt lat="44.1374618" lon="12.1053157"><ele>55.99999999999999</ele><time>2026-04-11T14:44:02.689Z</time></trkpt><trkpt lat="44.1373908" lon="12.1054079"><ele>56.0</ele><time>2026-04-11T14:44:03.665Z</time></trkpt><trkpt lat="44.137308" lon="12.1054975"><ele>56.0</ele><time>2026-04-11T14:44:04.668Z</time></trkpt><trkpt lat="44.1372204" lon="12.105582"><ele>56.0</ele><time>2026-04-11T14:44:05.687Z</time></trkpt><trkpt lat="44.1371266" lon="12.1056591"><ele>55.99999999999999</ele><time>2026-04-11T14:44:06.664Z</time></trkpt><trkpt lat="44.1370287" lon="12.1057367"><ele>55.99999999999999</ele><time>2026-04-11T14:44:07.679Z</time></trkpt><trkpt lat="44.1369306" lon="12.1057923"><ele>56.0</ele><time>2026-04-11T14:44:08.676Z</time></trkpt><trkpt lat="44.1368273" lon="12.10585"><ele>56.0</ele><time>2026-04-11T14:44:09.665Z</time></trkpt><trkpt lat="44.1367169" lon="12.1058931"><ele>56.0</ele><time>2026-04-11T14:44:10.669Z</time></trkpt><trkpt lat="44.1366043" lon="12.1059046"><ele>56.0</ele><time>2026-04-11T14:44:11.671Z</time></trkpt><trkpt lat="44.1364846" lon="12.1058615"><ele>56.0</ele><time>2026-04-11T14:44:12.684Z</time></trkpt><trkpt lat="44.1362774" lon="12.1057156"><ele>55.599999999999994</ele><time>2026-04-11T14:44:14.577Z</time></trkpt><trkpt lat="44.1361858" lon="12.1056462"><ele>55.199999999999996</ele><time>2026-04-11T14:44:15.582Z</time></trkpt><trkpt lat="44.136089" lon="12.1056006"><ele>54.800000000000004</ele><time>2026-04-11T14:44:16.583Z</time></trkpt><trkpt lat="44.1359912" lon="12.1055615"><ele>54.400000000000006</ele><time>2026-04-11T14:44:17.579Z</time></trkpt><trkpt lat="44.1358908" lon="12.1055393"><ele>54.0</ele><time>2026-04-11T14:44:18.58Z</time></trkpt><trkpt lat="44.1357876" lon="12.105541"><ele>54.0</ele><time>2026-04-11T14:44:19.586Z</time></trkpt><trkpt lat="44.1356817" lon="12.1055666"><ele>54.00000000000001</ele><time>2026-04-11T14:44:20.576Z</time></trkpt><trkpt lat="44.13558" lon="12.1056211"><ele>54.00000000000001</ele><time>2026-04-11T14:44:21.582Z</time></trkpt><trkpt lat="44.1354797" lon="12.1056787"><ele>54.0</ele><time>2026-04-11T14:44:22.585Z</time></trkpt><trkpt lat="44.1353824" lon="12.1057413"><ele>54.0</ele><time>2026-04-11T14:44:23.588Z</time></trkpt><trkpt lat="44.1352779" lon="12.1058001"><ele>55.0</ele><time>2026-04-11T14:44:24.591Z</time></trkpt><trkpt lat="44.1351681" lon="12.1058575"><ele>56.0</ele><time>2026-04-11T14:44:25.588Z</time></trkpt><trkpt lat="44.1350609" lon="12.1059126"><ele>57.0</ele><time>2026-04-11T14:44:26.594Z</time></trkpt><trkpt lat="44.1349504" lon="12.1059588"><ele>58.0</ele><time>2026-04-11T14:44:27.583Z</time></trkpt><trkpt lat="44.1348407" lon="12.1059927"><ele>58.0</ele><time>2026-04-11T14:44:28.591Z</time></trkpt><trkpt lat="44.134729" lon="12.1060102"><ele>58.0</ele><time>2026-04-11T14:44:29.586Z</time></trkpt><trkpt lat="44.1346126" lon="12.1060216"><ele>58.0</ele><time>2026-04-11T14:44:30.595Z</time></trkpt><trkpt lat="44.1344942" lon="12.1060187"><ele>58.0</ele><time>2026-04-11T14:44:31.593Z</time></trkpt><trkpt lat="44.1343717" lon="12.1060122"><ele>58.0</ele><time>2026-04-11T14:44:32.59Z</time></trkpt><trkpt lat="44.1342466" lon="12.1060188"><ele>58.0</ele><time>2026-04-11T14:44:33.581Z</time></trkpt><trkpt lat="44.1341192" lon="12.1060411"><ele>58.0</ele><time>2026-04-11T14:44:34.582Z</time></trkpt><trkpt lat="44.1339952" lon="12.106077"><ele>58.0</ele><time>2026-04-11T14:44:35.583Z</time></trkpt><trkpt lat="44.133873" lon="12.1061385"><ele>57.75</ele><time>2026-04-11T14:44:36.601Z</time></trkpt><trkpt lat="44.133749" lon="12.1062062"><ele>57.5</ele><time>2026-04-11T14:44:37.583Z</time></trkpt><trkpt lat="44.1336259" lon="12.1062746"><ele>57.25</ele><time>2026-04-11T14:44:38.585Z</time></trkpt><trkpt lat="44.1335007" lon="12.1063468"><ele>57.0</ele><time>2026-04-11T14:44:39.583Z</time></trkpt><trkpt lat="44.13338" lon="12.1064137"><ele>57.0</ele><time>2026-04-11T14:44:40.584Z</time></trkpt><trkpt lat="44.1332711" lon="12.1064792"><ele>57.0</ele><time>2026-04-11T14:44:41.595Z</time></trkpt><trkpt lat="44.1331697" lon="12.1065356"><ele>57.0</ele><time>2026-04-11T14:44:42.581Z</time></trkpt><trkpt lat="44.1330759" lon="12.1065837"><ele>57.0</ele><time>2026-04-11T14:44:43.579Z</time></trkpt><trkpt lat="44.1329836" lon="12.1066188"><ele>57.0</ele><time>2026-04-11T14:44:44.58Z</time></trkpt><trkpt lat="44.1328945" lon="12.1066395"><ele>56.833333333333336</ele><time>2026-04-11T14:44:45.587Z</time></trkpt><trkpt lat="44.1328127" lon="12.1066607"><ele>56.66666666666667</ele><time>2026-04-11T14:44:46.583Z</time></trkpt><trkpt lat="44.1327376" lon="12.1066802"><ele>56.5</ele><time>2026-04-11T14:44:47.585Z</time></trkpt><trkpt lat="44.1326714" lon="12.1066919"><ele>56.333333333333336</ele><time>2026-04-11T14:44:48.587Z</time></trkpt><trkpt lat="44.1325505" lon="12.1066282"><ele>56.16666666666667</ele><time>2026-04-11T14:44:50.583Z</time></trkpt><trkpt lat="44.1324899" lon="12.106573"><ele>56.0</ele><time>2026-04-11T14:44:51.585Z</time></trkpt><trkpt lat="44.1324229" lon="12.106516"><ele>55.4</ele><time>2026-04-11T14:44:52.585Z</time></trkpt><trkpt lat="44.1323454" lon="12.1064703"><ele>54.8</ele><time>2026-04-11T14:44:53.586Z</time></trkpt><trkpt lat="44.1322602" lon="12.1064568"><ele>54.199999999999996</ele><time>2026-04-11T14:44:54.587Z</time></trkpt><trkpt lat="44.1321631" lon="12.1064514"><ele>53.599999999999994</ele><time>2026-04-11T14:44:55.58Z</time></trkpt><trkpt lat="44.132064" lon="12.1064622"><ele>53.0</ele><time>2026-04-11T14:44:56.583Z</time></trkpt><trkpt lat="44.13196" lon="12.1064739"><ele>53.0</ele><time>2026-04-11T14:44:57.581Z</time></trkpt><trkpt lat="44.1318547" lon="12.106496"><ele>53.0</ele><time>2026-04-11T14:44:58.582Z</time></trkpt><trkpt lat="44.1317453" lon="12.1065305"><ele>53.0</ele><time>2026-04-11T14:44:59.588Z</time></trkpt><trkpt lat="44.131638" lon="12.1065734"><ele>53.0</ele><time>2026-04-11T14:45:00.59Z</time></trkpt><trkpt lat="44.1315258" lon="12.1066188"><ele>53.0</ele><time>2026-04-11T14:45:01.585Z</time></trkpt><trkpt lat="44.1314189" lon="12.1066771"><ele>53.599999999999994</ele><time>2026-04-11T14:45:02.587Z</time></trkpt><trkpt lat="44.1313161" lon="12.1067429"><ele>54.199999999999996</ele><time>2026-04-11T14:45:03.584Z</time></trkpt><trkpt lat="44.1312174" lon="12.1068038"><ele>54.8</ele><time>2026-04-11T14:45:04.585Z</time></trkpt><trkpt lat="44.1311175" lon="12.1068593"><ele>55.4</ele><time>2026-04-11T14:45:05.583Z</time></trkpt><trkpt lat="44.1310142" lon="12.1069072"><ele>56.0</ele><time>2026-04-11T14:45:06.583Z</time></trkpt><trkpt lat="44.1309089" lon="12.106939"><ele>56.0</ele><time>2026-04-11T14:45:07.601Z</time></trkpt><trkpt lat="44.1308027" lon="12.1069418"><ele>56.0</ele><time>2026-04-11T14:45:08.577Z</time></trkpt><trkpt lat="44.1306926" lon="12.1069197"><ele>56.0</ele><time>2026-04-11T14:45:09.582Z</time></trkpt><trkpt lat="44.1305785" lon="12.1068706"><ele>56.0</ele><time>2026-04-11T14:45:10.582Z</time></trkpt><trkpt lat="44.1304568" lon="12.1068172"><ele>55.5</ele><time>2026-04-11T14:45:11.583Z</time></trkpt><trkpt lat="44.1303367" lon="12.1067748"><ele>55.0</ele><time>2026-04-11T14:45:12.587Z</time></trkpt><trkpt lat="44.1302084" lon="12.1067484"><ele>54.5</ele><time>2026-04-11T14:45:13.579Z</time></trkpt><trkpt lat="44.1300835" lon="12.1067554"><ele>54.0</ele><time>2026-04-11T14:45:14.586Z</time></trkpt><trkpt lat="44.1299593" lon="12.1067712"><ele>54.5</ele><time>2026-04-11T14:45:15.582Z</time></trkpt><trkpt lat="44.1298348" lon="12.1068007"><ele>55.0</ele><time>2026-04-11T14:45:16.583Z</time></trkpt><trkpt lat="44.1297082" lon="12.106843"><ele>55.5</ele><time>2026-04-11T14:45:17.581Z</time></trkpt><trkpt lat="44.129581" lon="12.1069014"><ele>56.0</ele><time>2026-04-11T14:45:18.584Z</time></trkpt><trkpt lat="44.1294531" lon="12.1069731"><ele>56.0</ele><time>2026-04-11T14:45:19.579Z</time></trkpt><trkpt lat="44.1293256" lon="12.1070569"><ele>56.0</ele><time>2026-04-11T14:45:20.583Z</time></trkpt><trkpt lat="44.1292023" lon="12.1071573"><ele>56.0</ele><time>2026-04-11T14:45:21.582Z</time></trkpt><trkpt lat="44.1290797" lon="12.1072574"><ele>56.0</ele><time>2026-04-11T14:45:22.58Z</time></trkpt><trkpt lat="44.1289547" lon="12.1073594"><ele>57.25</ele><time>2026-04-11T14:45:23.584Z</time></trkpt><trkpt lat="44.1288329" lon="12.1074598"><ele>58.5</ele><time>2026-04-11T14:45:24.579Z</time></trkpt><trkpt lat="44.1287058" lon="12.107563"><ele>59.75</ele><time>2026-04-11T14:45:25.58Z</time></trkpt><trkpt lat="44.1285853" lon="12.1076593"><ele>61.0</ele><time>2026-04-11T14:45:26.577Z</time></trkpt><trkpt lat="44.1284671" lon="12.1077673"><ele>61.0</ele><time>2026-04-11T14:45:27.58Z</time></trkpt><trkpt lat="44.128345" lon="12.1078608"><ele>61.0</ele><time>2026-04-11T14:45:28.584Z</time></trkpt><trkpt lat="44.1282225" lon="12.1079553"><ele>61.0</ele><time>2026-04-11T14:45:29.585Z</time></trkpt><trkpt lat="44.1280987" lon="12.1080511"><ele>61.0</ele><time>2026-04-11T14:45:30.591Z</time></trkpt><trkpt lat="44.1279702" lon="12.1081291"><ele>60.75</ele><time>2026-04-11T14:45:31.583Z</time></trkpt><trkpt lat="44.1278359" lon="12.108204"><ele>60.5</ele><time>2026-04-11T14:45:32.584Z</time></trkpt><trkpt lat="44.1277031" lon="12.1082739"><ele>60.25</ele><time>2026-04-11T14:45:33.585Z</time></trkpt><trkpt lat="44.1275664" lon="12.108334"><ele>60.0</ele><time>2026-04-11T14:45:34.583Z</time></trkpt><trkpt lat="44.1274351" lon="12.1083931"><ele>60.0</ele><time>2026-04-11T14:45:35.582Z</time></trkpt><trkpt lat="44.1273152" lon="12.1084608"><ele>60.0</ele><time>2026-04-11T14:45:36.583Z</time></trkpt><trkpt lat="44.1271997" lon="12.1085342"><ele>60.0</ele><time>2026-04-11T14:45:37.583Z</time></trkpt><trkpt lat="44.1270905" lon="12.1085977"><ele>60.0</ele><time>2026-04-11T14:45:38.63Z</time></trkpt><trkpt lat="44.1269763" lon="12.1086622"><ele>60.0</ele><time>2026-04-11T14:45:39.583Z</time></trkpt><trkpt lat="44.1268638" lon="12.1087226"><ele>60.0</ele><time>2026-04-11T14:45:40.584Z</time></trkpt><trkpt lat="44.1267533" lon="12.1087797"><ele>60.0</ele><time>2026-04-11T14:45:41.583Z</time></trkpt><trkpt lat="44.1266441" lon="12.10884"><ele>60.0</ele><time>2026-04-11T14:45:42.582Z</time></trkpt><trkpt lat="44.1265391" lon="12.1089009"><ele>60.0</ele><time>2026-04-11T14:45:43.587Z</time></trkpt><trkpt lat="44.1264357" lon="12.1089548"><ele>60.0</ele><time>2026-04-11T14:45:44.579Z</time></trkpt><trkpt lat="44.1263325" lon="12.109011"><ele>60.0</ele><time>2026-04-11T14:45:45.585Z</time></trkpt><trkpt lat="44.1262317" lon="12.109079"><ele>60.0</ele><time>2026-04-11T14:45:46.58Z</time></trkpt><trkpt lat="44.1261367" lon="12.1091636"><ele>60.0</ele><time>2026-04-11T14:45:47.58Z</time></trkpt><trkpt lat="44.1260494" lon="12.1092695"><ele>60.0</ele><time>2026-04-11T14:45:48.584Z</time></trkpt><trkpt lat="44.1259707" lon="12.1093908"><ele>60.0</ele><time>2026-04-11T14:45:49.582Z</time></trkpt><trkpt lat="44.1258989" lon="12.10952"><ele>60.0</ele><time>2026-04-11T14:45:50.588Z</time></trkpt><trkpt lat="44.1258318" lon="12.1096529"><ele>60.0</ele><time>2026-04-11T14:45:51.584Z</time></trkpt><trkpt lat="44.125768" lon="12.1097786"><ele>59.833333333333336</ele><time>2026-04-11T14:45:52.584Z</time></trkpt><trkpt lat="44.1257076" lon="12.1098938"><ele>59.66666666666667</ele><time>2026-04-11T14:45:53.584Z</time></trkpt><trkpt lat="44.1256488" lon="12.110001"><ele>59.5</ele><time>2026-04-11T14:45:54.576Z</time></trkpt><trkpt lat="44.125594" lon="12.110093"><ele>59.333333333333336</ele><time>2026-04-11T14:45:55.575Z</time></trkpt><trkpt lat="44.125534" lon="12.1101628"><ele>59.16666666666667</ele><time>2026-04-11T14:45:56.571Z</time></trkpt><trkpt lat="44.1254628" lon="12.1102083"><ele>59.0</ele><time>2026-04-11T14:45:57.571Z</time></trkpt><trkpt lat="44.1253833" lon="12.1102317"><ele>59.400000000000006</ele><time>2026-04-11T14:45:58.584Z</time></trkpt><trkpt lat="44.1252885" lon="12.1102134"><ele>59.800000000000004</ele><time>2026-04-11T14:45:59.584Z</time></trkpt><trkpt lat="44.1251874" lon="12.1101591"><ele>60.199999999999996</ele><time>2026-04-11T14:46:00.581Z</time></trkpt><trkpt lat="44.1250858" lon="12.1100775"><ele>60.599999999999994</ele><time>2026-04-11T14:46:01.58Z</time></trkpt><trkpt lat="44.1249923" lon="12.109979"><ele>61.0</ele><time>2026-04-11T14:46:02.58Z</time></trkpt><trkpt lat="44.1248904" lon="12.1098666"><ele>61.5</ele><time>2026-04-11T14:46:03.584Z</time></trkpt><trkpt lat="44.1247893" lon="12.1097407"><ele>62.0</ele><time>2026-04-11T14:46:04.585Z</time></trkpt><trkpt lat="44.1246964" lon="12.1096194"><ele>62.5</ele><time>2026-04-11T14:46:05.585Z</time></trkpt><trkpt lat="44.1246019" lon="12.1094973"><ele>63.0</ele><time>2026-04-11T14:46:06.582Z</time></trkpt><trkpt lat="44.1245019" lon="12.1093953"><ele>63.0</ele><time>2026-04-11T14:46:07.584Z</time></trkpt><trkpt lat="44.1243967" lon="12.1093305"><ele>63.0</ele><time>2026-04-11T14:46:08.607Z</time></trkpt><trkpt lat="44.1242872" lon="12.1093008"><ele>63.0</ele><time>2026-04-11T14:46:09.585Z</time></trkpt><trkpt lat="44.1241881" lon="12.1093162"><ele>63.0</ele><time>2026-04-11T14:46:10.583Z</time></trkpt><trkpt lat="44.124098" lon="12.1093289"><ele>63.0</ele><time>2026-04-11T14:46:11.589Z</time></trkpt><trkpt lat="44.1240188" lon="12.1093232"><ele>63.8</ele><time>2026-04-11T14:46:12.586Z</time></trkpt><trkpt lat="44.1239407" lon="12.1092897"><ele>64.6</ele><time>2026-04-11T14:46:13.581Z</time></trkpt><trkpt lat="44.123853" lon="12.1092458"><ele>65.4</ele><time>2026-04-11T14:46:14.584Z</time></trkpt><trkpt lat="44.1237606" lon="12.1092031"><ele>66.2</ele><time>2026-04-11T14:46:15.584Z</time></trkpt><trkpt lat="44.1236642" lon="12.109161"><ele>67.0</ele><time>2026-04-11T14:46:16.587Z</time></trkpt><trkpt lat="44.1235668" lon="12.1091193"><ele>67.0</ele><time>2026-04-11T14:46:17.58Z</time></trkpt><trkpt lat="44.1234633" lon="12.1090792"><ele>67.0</ele><time>2026-04-11T14:46:18.58Z</time></trkpt><trkpt lat="44.1233574" lon="12.1090409"><ele>67.0</ele><time>2026-04-11T14:46:19.584Z</time></trkpt><trkpt lat="44.123251" lon="12.1090164"><ele>67.0</ele><time>2026-04-11T14:46:20.582Z</time></trkpt><trkpt lat="44.1231459" lon="12.1090059"><ele>67.0</ele><time>2026-04-11T14:46:21.58Z</time></trkpt><trkpt lat="44.1230403" lon="12.1090147"><ele>66.2</ele><time>2026-04-11T14:46:22.586Z</time></trkpt><trkpt lat="44.1229371" lon="12.1090348"><ele>65.4</ele><time>2026-04-11T14:46:23.582Z</time></trkpt><trkpt lat="44.1228356" lon="12.1090672"><ele>64.6</ele><time>2026-04-11T14:46:24.584Z</time></trkpt><trkpt lat="44.1227332" lon="12.1090996"><ele>63.8</ele><time>2026-04-11T14:46:25.584Z</time></trkpt><trkpt lat="44.1226323" lon="12.1091209"><ele>63.0</ele><time>2026-04-11T14:46:26.585Z</time></trkpt><trkpt lat="44.12253" lon="12.1091134"><ele>63.0</ele><time>2026-04-11T14:46:27.58Z</time></trkpt><trkpt lat="44.1224315" lon="12.109079"><ele>63.0</ele><time>2026-04-11T14:46:28.584Z</time></trkpt><trkpt lat="44.1223315" lon="12.1090241"><ele>63.0</ele><time>2026-04-11T14:46:29.583Z</time></trkpt><trkpt lat="44.1222341" lon="12.1089502"><ele>63.0</ele><time>2026-04-11T14:46:30.581Z</time></trkpt><trkpt lat="44.1221413" lon="12.1088658"><ele>63.0</ele><time>2026-04-11T14:46:31.582Z</time></trkpt><trkpt lat="44.1220536" lon="12.1087605"><ele>62.75</ele><time>2026-04-11T14:46:32.582Z</time></trkpt><trkpt lat="44.121966" lon="12.1086494"><ele>62.5</ele><time>2026-04-11T14:46:33.577Z</time></trkpt><trkpt lat="44.1218805" lon="12.1085399"><ele>62.25</ele><time>2026-04-11T14:46:34.584Z</time></trkpt><trkpt lat="44.1217934" lon="12.1084428"><ele>62.0</ele><time>2026-04-11T14:46:35.58Z</time></trkpt><trkpt lat="44.1217026" lon="12.1083688"><ele>62.0</ele><time>2026-04-11T14:46:36.585Z</time></trkpt><trkpt lat="44.1216042" lon="12.1083292"><ele>62.0</ele><time>2026-04-11T14:46:37.582Z</time></trkpt><trkpt lat="44.1215013" lon="12.1083202"><ele>62.0</ele><time>2026-04-11T14:46:38.578Z</time></trkpt><trkpt lat="44.1213965" lon="12.1083537"><ele>62.0</ele><time>2026-04-11T14:46:39.597Z</time></trkpt><trkpt lat="44.121292" lon="12.1084017"><ele>62.0</ele><time>2026-04-11T14:46:40.571Z</time></trkpt><trkpt lat="44.1211844" lon="12.1084678"><ele>61.5</ele><time>2026-04-11T14:46:41.576Z</time></trkpt><trkpt lat="44.1210818" lon="12.1085449"><ele>61.0</ele><time>2026-04-11T14:46:42.576Z</time></trkpt><trkpt lat="44.120984" lon="12.108624"><ele>60.5</ele><time>2026-04-11T14:46:43.573Z</time></trkpt><trkpt lat="44.1208877" lon="12.1087056"><ele>60.0</ele><time>2026-04-11T14:46:44.575Z</time></trkpt><trkpt lat="44.1207912" lon="12.1087787"><ele>60.2</ele><time>2026-04-11T14:46:45.58Z</time></trkpt><trkpt lat="44.1206925" lon="12.1088509"><ele>60.4</ele><time>2026-04-11T14:46:46.579Z</time></trkpt><trkpt lat="44.1205933" lon="12.1089266"><ele>60.599999999999994</ele><time>2026-04-11T14:46:47.579Z</time></trkpt><trkpt lat="44.1204971" lon="12.1090073"><ele>60.8</ele><time>2026-04-11T14:46:48.581Z</time></trkpt><trkpt lat="44.1203983" lon="12.1090824"><ele>61.0</ele><time>2026-04-11T14:46:49.581Z</time></trkpt><trkpt lat="44.1202959" lon="12.1091515"><ele>61.0</ele><time>2026-04-11T14:46:50.584Z</time></trkpt><trkpt lat="44.1201986" lon="12.1092172"><ele>60.99999999999999</ele><time>2026-04-11T14:46:51.584Z</time></trkpt><trkpt lat="44.1201075" lon="12.1092731"><ele>60.99999999999999</ele><time>2026-04-11T14:46:52.58Z</time></trkpt><trkpt lat="44.1200216" lon="12.1093234"><ele>61.0</ele><time>2026-04-11T14:46:53.582Z</time></trkpt><trkpt lat="44.1199367" lon="12.1093647"><ele>61.0</ele><time>2026-04-11T14:46:54.577Z</time></trkpt><trkpt lat="44.1198515" lon="12.1093854"><ele>61.0</ele><time>2026-04-11T14:46:55.572Z</time></trkpt><trkpt lat="44.1197689" lon="12.1093867"><ele>60.99999999999999</ele><time>2026-04-11T14:46:56.578Z</time></trkpt><trkpt lat="44.1196805" lon="12.1093757"><ele>60.99999999999999</ele><time>2026-04-11T14:46:57.578Z</time></trkpt><trkpt lat="44.1195889" lon="12.1093552"><ele>61.0</ele><time>2026-04-11T14:46:58.58Z</time></trkpt><trkpt lat="44.1194913" lon="12.1093253"><ele>61.0</ele><time>2026-04-11T14:46:59.578Z</time></trkpt><trkpt lat="44.1193866" lon="12.1092982"><ele>61.0</ele><time>2026-04-11T14:47:00.584Z</time></trkpt><trkpt lat="44.1192792" lon="12.1092723"><ele>60.99999999999999</ele><time>2026-04-11T14:47:01.608Z</time></trkpt><trkpt lat="44.1191728" lon="12.1092465"><ele>60.99999999999999</ele><time>2026-04-11T14:47:02.68Z</time></trkpt><trkpt lat="44.119068" lon="12.1092202"><ele>61.0</ele><time>2026-04-11T14:47:03.681Z</time></trkpt><trkpt lat="44.118965" lon="12.1091916"><ele>61.0</ele><time>2026-04-11T14:47:04.685Z</time></trkpt><trkpt lat="44.1188665" lon="12.1091642"><ele>61.0</ele><time>2026-04-11T14:47:05.68Z</time></trkpt><trkpt lat="44.1187613" lon="12.1091359"><ele>60.99999999999999</ele><time>2026-04-11T14:47:06.674Z</time></trkpt><trkpt lat="44.1186565" lon="12.1091055"><ele>60.99999999999999</ele><time>2026-04-11T14:47:07.689Z</time></trkpt><trkpt lat="44.1185513" lon="12.1090737"><ele>61.0</ele><time>2026-04-11T14:47:08.68Z</time></trkpt><trkpt lat="44.1184447" lon="12.1090426"><ele>61.0</ele><time>2026-04-11T14:47:09.687Z</time></trkpt><trkpt lat="44.1183357" lon="12.1090123"><ele>61.599999999999994</ele><time>2026-04-11T14:47:10.7Z</time></trkpt><trkpt lat="44.1182274" lon="12.1089813"><ele>62.199999999999996</ele><time>2026-04-11T14:47:11.684Z</time></trkpt><trkpt lat="44.1181222" lon="12.1089499"><ele>62.800000000000004</ele><time>2026-04-11T14:47:12.685Z</time></trkpt><trkpt lat="44.1180075" lon="12.1089263"><ele>63.400000000000006</ele><time>2026-04-11T14:47:13.684Z</time></trkpt><trkpt lat="44.1178996" lon="12.1088999"><ele>64.0</ele><time>2026-04-11T14:47:14.677Z</time></trkpt><trkpt lat="44.1177903" lon="12.1088707"><ele>64.0</ele><time>2026-04-11T14:47:15.691Z</time></trkpt><trkpt lat="44.1176823" lon="12.1088391"><ele>64.0</ele><time>2026-04-11T14:47:16.685Z</time></trkpt><trkpt lat="44.1175799" lon="12.1087974"><ele>64.0</ele><time>2026-04-11T14:47:17.681Z</time></trkpt><trkpt lat="44.1174833" lon="12.1087354"><ele>64.0</ele><time>2026-04-11T14:47:18.678Z</time></trkpt><trkpt lat="44.1173892" lon="12.1086633"><ele>64.0</ele><time>2026-04-11T14:47:19.673Z</time></trkpt><trkpt lat="44.1173039" lon="12.1085736"><ele>64.4</ele><time>2026-04-11T14:47:20.679Z</time></trkpt><trkpt lat="44.1172228" lon="12.1084743"><ele>64.80000000000001</ele><time>2026-04-11T14:47:21.67Z</time></trkpt><trkpt lat="44.1171413" lon="12.1083674"><ele>65.19999999999999</ele><time>2026-04-11T14:47:22.67Z</time></trkpt><trkpt lat="44.1170569" lon="12.1082612"><ele>65.6</ele><time>2026-04-11T14:47:23.667Z</time></trkpt><trkpt lat="44.116972" lon="12.1081586"><ele>66.0</ele><time>2026-04-11T14:47:24.683Z</time></trkpt><trkpt lat="44.1168853" lon="12.1080621"><ele>66.2</ele><time>2026-04-11T14:47:25.677Z</time></trkpt><trkpt lat="44.1167928" lon="12.1079726"><ele>66.39999999999999</ele><time>2026-04-11T14:47:26.668Z</time></trkpt><trkpt lat="44.1166982" lon="12.1079123"><ele>66.6</ele><time>2026-04-11T14:47:27.679Z</time></trkpt><trkpt lat="44.1165924" lon="12.1078766"><ele>66.8</ele><time>2026-04-11T14:47:28.681Z</time></trkpt><trkpt lat="44.1164815" lon="12.1078775"><ele>67.0</ele><time>2026-04-11T14:47:29.668Z</time></trkpt><trkpt lat="44.1163672" lon="12.1078937"><ele>67.0</ele><time>2026-04-11T14:47:30.669Z</time></trkpt><trkpt lat="44.1162499" lon="12.1079154"><ele>67.0</ele><time>2026-04-11T14:47:31.676Z</time></trkpt><trkpt lat="44.1161291" lon="12.1079362"><ele>67.0</ele><time>2026-04-11T14:47:32.674Z</time></trkpt><trkpt lat="44.1160086" lon="12.1079572"><ele>67.0</ele><time>2026-04-11T14:47:33.688Z</time></trkpt><trkpt lat="44.1158898" lon="12.1079751"><ele>67.0</ele><time>2026-04-11T14:47:34.682Z</time></trkpt><trkpt lat="44.1157718" lon="12.1079956"><ele>67.0</ele><time>2026-04-11T14:47:35.689Z</time></trkpt><trkpt lat="44.1156534" lon="12.108014"><ele>67.0</ele><time>2026-04-11T14:47:36.685Z</time></trkpt><trkpt lat="44.1155394" lon="12.1080355"><ele>67.0</ele><time>2026-04-11T14:47:37.684Z</time></trkpt><trkpt lat="44.1154321" lon="12.1080539"><ele>67.4</ele><time>2026-04-11T14:47:38.681Z</time></trkpt><trkpt lat="44.1153259" lon="12.1080691"><ele>67.80000000000001</ele><time>2026-04-11T14:47:39.683Z</time></trkpt><trkpt lat="44.1152216" lon="12.1080866"><ele>68.2</ele><time>2026-04-11T14:47:40.684Z</time></trkpt><trkpt lat="44.1151166" lon="12.1081086"><ele>68.60000000000001</ele><time>2026-04-11T14:47:41.701Z</time></trkpt><trkpt lat="44.1150105" lon="12.1081298"><ele>69.0</ele><time>2026-04-11T14:47:42.685Z</time></trkpt><trkpt lat="44.1149025" lon="12.1081491"><ele>69.4</ele><time>2026-04-11T14:47:43.689Z</time></trkpt><trkpt lat="44.1147985" lon="12.1081682"><ele>69.80000000000001</ele><time>2026-04-11T14:47:44.679Z</time></trkpt><trkpt lat="44.1146958" lon="12.1081817"><ele>70.19999999999999</ele><time>2026-04-11T14:47:45.682Z</time></trkpt><trkpt lat="44.1145937" lon="12.1082017"><ele>70.6</ele><time>2026-04-11T14:47:46.675Z</time></trkpt><trkpt lat="44.1144999" lon="12.1082346"><ele>71.0</ele><time>2026-04-11T14:47:47.673Z</time></trkpt><trkpt lat="44.1144123" lon="12.1082874"><ele>71.0</ele><time>2026-04-11T14:47:48.676Z</time></trkpt><trkpt lat="44.1143271" lon="12.1083588"><ele>71.0</ele><time>2026-04-11T14:47:49.664Z</time></trkpt><trkpt lat="44.1142491" lon="12.1084493"><ele>71.0</ele><time>2026-04-11T14:47:50.667Z</time></trkpt><trkpt lat="44.1141732" lon="12.1085593"><ele>71.0</ele><time>2026-04-11T14:47:51.671Z</time></trkpt><trkpt lat="44.1141014" lon="12.1086833"><ele>71.0</ele><time>2026-04-11T14:47:52.666Z</time></trkpt><trkpt lat="44.1140288" lon="12.1088015"><ele>71.5</ele><time>2026-04-11T14:47:53.692Z</time></trkpt><trkpt lat="44.113954" lon="12.1089212"><ele>72.0</ele><time>2026-04-11T14:47:54.676Z</time></trkpt><trkpt lat="44.1138803" lon="12.109045"><ele>72.5</ele><time>2026-04-11T14:47:55.677Z</time></trkpt><trkpt lat="44.1138039" lon="12.1091695"><ele>73.0</ele><time>2026-04-11T14:47:56.675Z</time></trkpt><trkpt lat="44.1137263" lon="12.1092994"><ele>73.0</ele><time>2026-04-11T14:47:57.676Z</time></trkpt><trkpt lat="44.1136487" lon="12.1094293"><ele>73.0</ele><time>2026-04-11T14:47:58.678Z</time></trkpt><trkpt lat="44.1135681" lon="12.1095499"><ele>73.0</ele><time>2026-04-11T14:47:59.672Z</time></trkpt><trkpt lat="44.1134878" lon="12.1096643"><ele>73.0</ele><time>2026-04-11T14:48:00.671Z</time></trkpt><trkpt lat="44.1134072" lon="12.1097419"><ele>73.0</ele><time>2026-04-11T14:48:01.668Z</time></trkpt><trkpt lat="44.1133231" lon="12.1098017"><ele>73.0</ele><time>2026-04-11T14:48:02.676Z</time></trkpt><trkpt lat="44.1132296" lon="12.1098633"><ele>73.0</ele><time>2026-04-11T14:48:03.663Z</time></trkpt><trkpt lat="44.1131358" lon="12.109919"><ele>73.0</ele><time>2026-04-11T14:48:04.668Z</time></trkpt><trkpt lat="44.1130397" lon="12.1099692"><ele>73.0</ele><time>2026-04-11T14:48:05.662Z</time></trkpt><trkpt lat="44.112952" lon="12.1100137"><ele>73.0</ele><time>2026-04-11T14:48:06.665Z</time></trkpt><trkpt lat="44.1128661" lon="12.1100633"><ele>73.0</ele><time>2026-04-11T14:48:07.672Z</time></trkpt><trkpt lat="44.1127836" lon="12.1101174"><ele>73.0</ele><time>2026-04-11T14:48:08.677Z</time></trkpt><trkpt lat="44.1127112" lon="12.1101698"><ele>73.0</ele><time>2026-04-11T14:48:09.671Z</time></trkpt><trkpt lat="44.1126467" lon="12.1102257"><ele>73.0</ele><time>2026-04-11T14:48:10.672Z</time></trkpt><trkpt lat="44.1125881" lon="12.1102829"><ele>73.0</ele><time>2026-04-11T14:48:11.677Z</time></trkpt><trkpt lat="44.1125352" lon="12.1103388"><ele>73.0</ele><time>2026-04-11T14:48:12.691Z</time></trkpt><trkpt lat="44.1124502" lon="12.1104441"><ele>73.0</ele><time>2026-04-11T14:48:14.681Z</time></trkpt><trkpt lat="44.1123867" lon="12.1105296"><ele>73.0</ele><time>2026-04-11T14:48:16.665Z</time></trkpt><trkpt lat="44.1123398" lon="12.1105909"><ele>73.0</ele><time>2026-04-11T14:48:21.681Z</time></trkpt><trkpt lat="44.1122919" lon="12.1106991"><ele>73.0</ele><time>2026-04-11T14:48:32.672Z</time></trkpt><trkpt lat="44.1122486" lon="12.1108569"><ele>73.6</ele><time>2026-04-11T14:48:34.672Z</time></trkpt><trkpt lat="44.112221" lon="12.1109829"><ele>74.19999999999999</ele><time>2026-04-11T14:48:35.667Z</time></trkpt><trkpt lat="44.1122527" lon="12.1110637"><ele>74.8</ele><time>2026-04-11T14:48:37.666Z</time></trkpt><trkpt lat="44.1122287" lon="12.1112095"><ele>75.39999999999999</ele><time>2026-04-11T14:48:38.66Z</time></trkpt><trkpt lat="44.1122029" lon="12.1113645"><ele>76.0</ele><time>2026-04-11T14:48:39.67Z</time></trkpt><trkpt lat="44.1121781" lon="12.1115294"><ele>74.75</ele><time>2026-04-11T14:48:40.68Z</time></trkpt><trkpt lat="44.1121529" lon="12.1116898"><ele>73.5</ele><time>2026-04-11T14:48:41.677Z</time></trkpt><trkpt lat="44.1121287" lon="12.1118474"><ele>72.25</ele><time>2026-04-11T14:48:42.679Z</time></trkpt><trkpt lat="44.1121007" lon="12.112"><ele>71.0</ele><time>2026-04-11T14:48:43.7Z</time></trkpt><trkpt lat="44.1120723" lon="12.1121511"><ele>71.0</ele><time>2026-04-11T14:48:44.678Z</time></trkpt><trkpt lat="44.1120391" lon="12.1122959"><ele>71.0</ele><time>2026-04-11T14:48:45.676Z</time></trkpt><trkpt lat="44.1119945" lon="12.1124334"><ele>71.0</ele><time>2026-04-11T14:48:46.672Z</time></trkpt><trkpt lat="44.1119352" lon="12.1125619"><ele>71.0</ele><time>2026-04-11T14:48:47.662Z</time></trkpt><trkpt lat="44.1118585" lon="12.1126795"><ele>71.0</ele><time>2026-04-11T14:48:48.665Z</time></trkpt><trkpt lat="44.1117731" lon="12.1127867"><ele>71.0</ele><time>2026-04-11T14:48:49.667Z</time></trkpt><trkpt lat="44.1116831" lon="12.1128924"><ele>71.0</ele><time>2026-04-11T14:48:50.668Z</time></trkpt><trkpt lat="44.1115955" lon="12.112997"><ele>71.0</ele><time>2026-04-11T14:48:51.686Z</time></trkpt><trkpt lat="44.1115099" lon="12.113103"><ele>71.0</ele><time>2026-04-11T14:48:52.667Z</time></trkpt><trkpt lat="44.1114239" lon="12.1132109"><ele>71.8</ele><time>2026-04-11T14:48:53.688Z</time></trkpt><trkpt lat="44.1113422" lon="12.1133225"><ele>72.6</ele><time>2026-04-11T14:48:54.673Z</time></trkpt><trkpt lat="44.1112864" lon="12.1134377"><ele>73.4</ele><time>2026-04-11T14:48:55.666Z</time></trkpt><trkpt lat="44.1112437" lon="12.1135601"><ele>74.2</ele><time>2026-04-11T14:48:56.671Z</time></trkpt><trkpt lat="44.1111977" lon="12.1137201"><ele>75.0</ele><time>2026-04-11T14:48:57.662Z</time></trkpt><trkpt lat="44.1111676" lon="12.1138792"><ele>75.0</ele><time>2026-04-11T14:48:58.672Z</time></trkpt><trkpt lat="44.1111452" lon="12.1140388"><ele>75.0</ele><time>2026-04-11T14:48:59.664Z</time></trkpt><trkpt lat="44.1111232" lon="12.1142003"><ele>75.0</ele><time>2026-04-11T14:49:00.661Z</time></trkpt><trkpt lat="44.1111017" lon="12.1143644"><ele>75.0</ele><time>2026-04-11T14:49:01.667Z</time></trkpt><trkpt lat="44.1110798" lon="12.1145287"><ele>74.8</ele><time>2026-04-11T14:49:02.672Z</time></trkpt><trkpt lat="44.1110591" lon="12.1146874"><ele>74.6</ele><time>2026-04-11T14:49:03.672Z</time></trkpt><trkpt lat="44.111036" lon="12.1148389"><ele>74.4</ele><time>2026-04-11T14:49:04.663Z</time></trkpt><trkpt lat="44.110999" lon="12.1149744"><ele>74.2</ele><time>2026-04-11T14:49:05.67Z</time></trkpt><trkpt lat="44.1109448" lon="12.1151041"><ele>74.0</ele><time>2026-04-11T14:49:06.657Z</time></trkpt><trkpt lat="44.1108825" lon="12.1152236"><ele>74.0</ele><time>2026-04-11T14:49:07.656Z</time></trkpt><trkpt lat="44.110814" lon="12.1153414"><ele>74.0</ele><time>2026-04-11T14:49:08.658Z</time></trkpt><trkpt lat="44.1107393" lon="12.1154613"><ele>74.0</ele><time>2026-04-11T14:49:09.657Z</time></trkpt><trkpt lat="44.1106609" lon="12.1155754"><ele>74.0</ele><time>2026-04-11T14:49:10.669Z</time></trkpt><trkpt lat="44.1105832" lon="12.1156907"><ele>74.75</ele><time>2026-04-11T14:49:11.671Z</time></trkpt><trkpt lat="44.1105074" lon="12.115813"><ele>75.5</ele><time>2026-04-11T14:49:12.683Z</time></trkpt><trkpt lat="44.1104335" lon="12.115933"><ele>76.25</ele><time>2026-04-11T14:49:13.679Z</time></trkpt><trkpt lat="44.1103552" lon="12.1160554"><ele>77.0</ele><time>2026-04-11T14:49:14.7Z</time></trkpt><trkpt lat="44.1102774" lon="12.1161778"><ele>77.0</ele><time>2026-04-11T14:49:15.675Z</time></trkpt><trkpt lat="44.1101991" lon="12.1163088"><ele>77.0</ele><time>2026-04-11T14:49:16.679Z</time></trkpt><trkpt lat="44.1101183" lon="12.1164424"><ele>77.0</ele><time>2026-04-11T14:49:17.676Z</time></trkpt><trkpt lat="44.1100335" lon="12.1165789"><ele>77.0</ele><time>2026-04-11T14:49:18.677Z</time></trkpt><trkpt lat="44.1099463" lon="12.1167175"><ele>77.5</ele><time>2026-04-11T14:49:19.668Z</time></trkpt><trkpt lat="44.1098587" lon="12.1168573"><ele>78.0</ele><time>2026-04-11T14:49:20.669Z</time></trkpt><trkpt lat="44.109773" lon="12.1169958"><ele>78.5</ele><time>2026-04-11T14:49:21.679Z</time></trkpt><trkpt lat="44.1096865" lon="12.117136"><ele>79.0</ele><time>2026-04-11T14:49:22.671Z</time></trkpt><trkpt lat="44.1096002" lon="12.1172693"><ele>79.0</ele><time>2026-04-11T14:49:23.673Z</time></trkpt><trkpt lat="44.109515" lon="12.1173957"><ele>79.0</ele><time>2026-04-11T14:49:24.674Z</time></trkpt><trkpt lat="44.1094266" lon="12.1175179"><ele>79.0</ele><time>2026-04-11T14:49:25.676Z</time></trkpt><trkpt lat="44.1093356" lon="12.1176367"><ele>79.0</ele><time>2026-04-11T14:49:26.675Z</time></trkpt><trkpt lat="44.1092434" lon="12.1177545"><ele>78.75</ele><time>2026-04-11T14:49:27.676Z</time></trkpt><trkpt lat="44.1091493" lon="12.1178713"><ele>78.5</ele><time>2026-04-11T14:49:28.683Z</time></trkpt><trkpt lat="44.1090528" lon="12.1179876"><ele>78.25</ele><time>2026-04-11T14:49:29.675Z</time></trkpt><trkpt lat="44.1089607" lon="12.1181033"><ele>78.0</ele><time>2026-04-11T14:49:30.677Z</time></trkpt><trkpt lat="44.1088727" lon="12.118212"><ele>78.2</ele><time>2026-04-11T14:49:31.677Z</time></trkpt><trkpt lat="44.108786" lon="12.118312"><ele>78.4</ele><time>2026-04-11T14:49:32.678Z</time></trkpt><trkpt lat="44.1086952" lon="12.1184001"><ele>78.60000000000001</ele><time>2026-04-11T14:49:33.676Z</time></trkpt><trkpt lat="44.108603" lon="12.1184769"><ele>78.8</ele><time>2026-04-11T14:49:34.675Z</time></trkpt><trkpt lat="44.1085046" lon="12.1185523"><ele>79.0</ele><time>2026-04-11T14:49:35.679Z</time></trkpt><trkpt lat="44.1084004" lon="12.1186271"><ele>79.0</ele><time>2026-04-11T14:49:36.678Z</time></trkpt><trkpt lat="44.1082952" lon="12.1187005"><ele>79.0</ele><time>2026-04-11T14:49:37.682Z</time></trkpt><trkpt lat="44.1081903" lon="12.1187704"><ele>79.0</ele><time>2026-04-11T14:49:38.678Z</time></trkpt><trkpt lat="44.1080817" lon="12.1188381"><ele>79.0</ele><time>2026-04-11T14:49:39.677Z</time></trkpt><trkpt lat="44.1079751" lon="12.1189088"><ele>79.4</ele><time>2026-04-11T14:49:40.681Z</time></trkpt><trkpt lat="44.1078679" lon="12.1189799"><ele>79.80000000000001</ele><time>2026-04-11T14:49:41.68Z</time></trkpt><trkpt lat="44.1077611" lon="12.1190445"><ele>80.19999999999999</ele><time>2026-04-11T14:49:42.69Z</time></trkpt><trkpt lat="44.107662" lon="12.1191071"><ele>80.6</ele><time>2026-04-11T14:49:43.681Z</time></trkpt><trkpt lat="44.1075647" lon="12.1191597"><ele>81.0</ele><time>2026-04-11T14:49:44.672Z</time></trkpt><trkpt lat="44.1074829" lon="12.1191926"><ele>81.0</ele><time>2026-04-11T14:49:45.705Z</time></trkpt><trkpt lat="44.1074094" lon="12.1191897"><ele>81.0</ele><time>2026-04-11T14:49:46.681Z</time></trkpt><trkpt lat="44.107336" lon="12.1191537"><ele>81.0</ele><time>2026-04-11T14:49:47.666Z</time></trkpt><trkpt lat="44.107251" lon="12.1190955"><ele>81.0</ele><time>2026-04-11T14:49:48.665Z</time></trkpt><trkpt lat="44.1071625" lon="12.1190234"><ele>81.0</ele><time>2026-04-11T14:49:49.669Z</time></trkpt><trkpt lat="44.1070681" lon="12.1189503"><ele>81.0</ele><time>2026-04-11T14:49:50.668Z</time></trkpt><trkpt lat="44.1069738" lon="12.1188759"><ele>81.0</ele><time>2026-04-11T14:49:51.677Z</time></trkpt><trkpt lat="44.1068806" lon="12.1187955"><ele>81.0</ele><time>2026-04-11T14:49:52.68Z</time></trkpt><trkpt lat="44.1067894" lon="12.1187167"><ele>81.0</ele><time>2026-04-11T14:49:53.679Z</time></trkpt><trkpt lat="44.1066949" lon="12.1186335"><ele>81.0</ele><time>2026-04-11T14:49:54.685Z</time></trkpt><trkpt lat="44.1066035" lon="12.1185527"><ele>81.25</ele><time>2026-04-11T14:49:55.68Z</time></trkpt><trkpt lat="44.1065175" lon="12.1184207"><ele>81.5</ele><time>2026-04-11T14:49:56.679Z</time></trkpt><trkpt lat="44.1063515" lon="12.1183049"><ele>81.75</ele><time>2026-04-11T14:49:58.583Z</time></trkpt><trkpt lat="44.1062729" lon="12.11829"><ele>82.0</ele><time>2026-04-11T14:49:59.578Z</time></trkpt><trkpt lat="44.1061867" lon="12.1182984"><ele>82.0</ele><time>2026-04-11T14:50:00.587Z</time></trkpt><trkpt lat="44.1060948" lon="12.1183009"><ele>82.0</ele><time>2026-04-11T14:50:01.582Z</time></trkpt><trkpt lat="44.106" lon="12.1182956"><ele>82.0</ele><time>2026-04-11T14:50:02.588Z</time></trkpt><trkpt lat="44.1058998" lon="12.1182846"><ele>82.0</ele><time>2026-04-11T14:50:03.58Z</time></trkpt><trkpt lat="44.1057975" lon="12.1182652"><ele>82.0</ele><time>2026-04-11T14:50:04.578Z</time></trkpt><trkpt lat="44.1056943" lon="12.118226"><ele>82.8</ele><time>2026-04-11T14:50:05.572Z</time></trkpt><trkpt lat="44.1055969" lon="12.1181729"><ele>83.6</ele><time>2026-04-11T14:50:06.576Z</time></trkpt><trkpt lat="44.105498" lon="12.1181049"><ele>84.39999999999999</ele><time>2026-04-11T14:50:07.582Z</time></trkpt><trkpt lat="44.1053914" lon="12.1180416"><ele>85.19999999999999</ele><time>2026-04-11T14:50:08.579Z</time></trkpt><trkpt lat="44.1052811" lon="12.1179958"><ele>86.0</ele><time>2026-04-11T14:50:09.574Z</time></trkpt><trkpt lat="44.1051656" lon="12.1179761"><ele>86.0</ele><time>2026-04-11T14:50:10.576Z</time></trkpt><trkpt lat="44.1050428" lon="12.1179649"><ele>86.0</ele><time>2026-04-11T14:50:11.579Z</time></trkpt><trkpt lat="44.1049179" lon="12.1179645"><ele>86.0</ele><time>2026-04-11T14:50:12.582Z</time></trkpt><trkpt lat="44.1047915" lon="12.1179635"><ele>86.0</ele><time>2026-04-11T14:50:13.577Z</time></trkpt><trkpt lat="44.1046602" lon="12.1179682"><ele>87.25</ele><time>2026-04-11T14:50:14.579Z</time></trkpt><trkpt lat="44.1045272" lon="12.1179725"><ele>88.5</ele><time>2026-04-11T14:50:15.58Z</time></trkpt><trkpt lat="44.1043958" lon="12.1179733"><ele>89.75</ele><time>2026-04-11T14:50:16.602Z</time></trkpt><trkpt lat="44.1042651" lon="12.1179693"><ele>91.0</ele><time>2026-04-11T14:50:17.581Z</time></trkpt><trkpt lat="44.1041343" lon="12.1179623"><ele>91.0</ele><time>2026-04-11T14:50:18.588Z</time></trkpt><trkpt lat="44.1040065" lon="12.1179638"><ele>91.0</ele><time>2026-04-11T14:50:19.579Z</time></trkpt><trkpt lat="44.1038788" lon="12.1179648"><ele>91.0</ele><time>2026-04-11T14:50:20.582Z</time></trkpt><trkpt lat="44.1037538" lon="12.1179584"><ele>91.0</ele><time>2026-04-11T14:50:21.581Z</time></trkpt><trkpt lat="44.1036331" lon="12.1179532"><ele>91.0</ele><time>2026-04-11T14:50:22.579Z</time></trkpt><trkpt lat="44.1035127" lon="12.1179496"><ele>91.0</ele><time>2026-04-11T14:50:23.582Z</time></trkpt><trkpt lat="44.1033945" lon="12.117948"><ele>91.0</ele><time>2026-04-11T14:50:24.579Z</time></trkpt><trkpt lat="44.1032789" lon="12.1179494"><ele>91.0</ele><time>2026-04-11T14:50:25.581Z</time></trkpt><trkpt lat="44.1031662" lon="12.1179425"><ele>90.8</ele><time>2026-04-11T14:50:26.583Z</time></trkpt><trkpt lat="44.1030539" lon="12.1179371"><ele>90.6</ele><time>2026-04-11T14:50:27.582Z</time></trkpt><trkpt lat="44.1029396" lon="12.1179311"><ele>90.4</ele><time>2026-04-11T14:50:28.586Z</time></trkpt><trkpt lat="44.1028297" lon="12.1179266"><ele>90.2</ele><time>2026-04-11T14:50:29.584Z</time></trkpt><trkpt lat="44.1027215" lon="12.1179179"><ele>90.0</ele><time>2026-04-11T14:50:30.584Z</time></trkpt><trkpt lat="44.102617" lon="12.1179142"><ele>90.0</ele><time>2026-04-11T14:50:31.583Z</time></trkpt><trkpt lat="44.1025153" lon="12.1179066"><ele>90.0</ele><time>2026-04-11T14:50:32.587Z</time></trkpt><trkpt lat="44.1024172" lon="12.1179023"><ele>90.0</ele><time>2026-04-11T14:50:33.585Z</time></trkpt><trkpt lat="44.1023234" lon="12.1178915"><ele>90.0</ele><time>2026-04-11T14:50:34.587Z</time></trkpt><trkpt lat="44.1022273" lon="12.1178784"><ele>90.0</ele><time>2026-04-11T14:50:35.584Z</time></trkpt><trkpt lat="44.1021316" lon="12.1178626"><ele>90.0</ele><time>2026-04-11T14:50:36.584Z</time></trkpt><trkpt lat="44.1020408" lon="12.1178506"><ele>90.0</ele><time>2026-04-11T14:50:37.581Z</time></trkpt><trkpt lat="44.1019555" lon="12.1178424"><ele>90.0</ele><time>2026-04-11T14:50:38.587Z</time></trkpt><trkpt lat="44.1018706" lon="12.1178342"><ele>90.0</ele><time>2026-04-11T14:50:39.584Z</time></trkpt><trkpt lat="44.101787" lon="12.1178244"><ele>90.0</ele><time>2026-04-11T14:50:40.586Z</time></trkpt><trkpt lat="44.1017012" lon="12.1178205"><ele>90.0</ele><time>2026-04-11T14:50:41.579Z</time></trkpt><trkpt lat="44.1016197" lon="12.1178255"><ele>90.16666666666667</ele><time>2026-04-11T14:50:42.58Z</time></trkpt><trkpt lat="44.1015449" lon="12.1178503"><ele>90.33333333333333</ele><time>2026-04-11T14:50:43.577Z</time></trkpt><trkpt lat="44.1014751" lon="12.1179122"><ele>90.5</ele><time>2026-04-11T14:50:44.579Z</time></trkpt><trkpt lat="44.1014155" lon="12.1180021"><ele>90.66666666666666</ele><time>2026-04-11T14:50:45.574Z</time></trkpt><trkpt lat="44.1013585" lon="12.1181056"><ele>90.83333333333333</ele><time>2026-04-11T14:50:46.573Z</time></trkpt><trkpt lat="44.1013097" lon="12.1182113"><ele>91.0</ele><time>2026-04-11T14:50:47.596Z</time></trkpt><trkpt lat="44.1012617" lon="12.1183035"><ele>91.0</ele><time>2026-04-11T14:50:48.57Z</time></trkpt><trkpt lat="44.1012116" lon="12.1183822"><ele>91.0</ele><time>2026-04-11T14:50:49.572Z</time></trkpt><trkpt lat="44.1011635" lon="12.1184557"><ele>91.0</ele><time>2026-04-11T14:50:50.58Z</time></trkpt><trkpt lat="44.1011111" lon="12.118528"><ele>91.0</ele><time>2026-04-11T14:50:51.585Z</time></trkpt><trkpt lat="44.1010556" lon="12.1185929"><ele>91.0</ele><time>2026-04-11T14:50:52.586Z</time></trkpt><trkpt lat="44.1009983" lon="12.1186422"><ele>91.0</ele><time>2026-04-11T14:50:53.58Z</time></trkpt><trkpt lat="44.1008925" lon="12.1187139"><ele>91.0</ele><time>2026-04-11T14:50:55.58Z</time></trkpt><trkpt lat="44.1007587" lon="12.1187484"><ele>91.0</ele><time>2026-04-11T14:50:57.577Z</time></trkpt><trkpt lat="44.1006717" lon="12.1187525"><ele>91.0</ele><time>2026-04-11T14:50:58.573Z</time></trkpt><trkpt lat="44.1005722" lon="12.1187428"><ele>91.0</ele><time>2026-04-11T14:50:59.574Z</time></trkpt><trkpt lat="44.1004623" lon="12.1187236"><ele>91.0</ele><time>2026-04-11T14:51:00.586Z</time></trkpt><trkpt lat="44.1003472" lon="12.1187036"><ele>91.5</ele><time>2026-04-11T14:51:01.583Z</time></trkpt><trkpt lat="44.1002297" lon="12.1186805"><ele>92.0</ele><time>2026-04-11T14:51:02.581Z</time></trkpt><trkpt lat="44.1001078" lon="12.1186599"><ele>92.5</ele><time>2026-04-11T14:51:03.579Z</time></trkpt><trkpt lat="44.0999905" lon="12.1186441"><ele>93.0</ele><time>2026-04-11T14:51:04.58Z</time></trkpt><trkpt lat="44.0998727" lon="12.1186278"><ele>93.5</ele><time>2026-04-11T14:51:05.58Z</time></trkpt><trkpt lat="44.0997524" lon="12.1186099"><ele>94.0</ele><time>2026-04-11T14:51:06.577Z</time></trkpt><trkpt lat="44.0996306" lon="12.1185915"><ele>94.5</ele><time>2026-04-11T14:51:07.581Z</time></trkpt><trkpt lat="44.0995105" lon="12.1185772"><ele>95.0</ele><time>2026-04-11T14:51:08.583Z</time></trkpt><trkpt lat="44.0993868" lon="12.1185629"><ele>95.0</ele><time>2026-04-11T14:51:09.584Z</time></trkpt><trkpt lat="44.0992629" lon="12.1185507"><ele>95.0</ele><time>2026-04-11T14:51:10.584Z</time></trkpt><trkpt lat="44.0991409" lon="12.1185424"><ele>95.0</ele><time>2026-04-11T14:51:11.584Z</time></trkpt><trkpt lat="44.0990214" lon="12.1185313"><ele>95.0</ele><time>2026-04-11T14:51:12.584Z</time></trkpt><trkpt lat="44.0989051" lon="12.1185205"><ele>95.25</ele><time>2026-04-11T14:51:13.583Z</time></trkpt><trkpt lat="44.0987899" lon="12.1185066"><ele>95.5</ele><time>2026-04-11T14:51:14.581Z</time></trkpt><trkpt lat="44.0986768" lon="12.1184982"><ele>95.75</ele><time>2026-04-11T14:51:15.581Z</time></trkpt><trkpt lat="44.0985648" lon="12.1184844"><ele>96.0</ele><time>2026-04-11T14:51:16.588Z</time></trkpt><trkpt lat="44.0984559" lon="12.1184738"><ele>96.0</ele><time>2026-04-11T14:51:17.581Z</time></trkpt><trkpt lat="44.0983529" lon="12.1184618"><ele>96.0</ele><time>2026-04-11T14:51:18.604Z</time></trkpt><trkpt lat="44.0982547" lon="12.1184479"><ele>96.0</ele><time>2026-04-11T14:51:19.583Z</time></trkpt><trkpt lat="44.0981575" lon="12.1184377"><ele>96.0</ele><time>2026-04-11T14:51:20.583Z</time></trkpt><trkpt lat="44.0980539" lon="12.1184289"><ele>96.0</ele><time>2026-04-11T14:51:21.583Z</time></trkpt><trkpt lat="44.0979512" lon="12.1184178"><ele>96.6</ele><time>2026-04-11T14:51:22.583Z</time></trkpt><trkpt lat="44.0978546" lon="12.1184107"><ele>97.19999999999999</ele><time>2026-04-11T14:51:23.589Z</time></trkpt><trkpt lat="44.0977612" lon="12.1183976"><ele>97.80000000000001</ele><time>2026-04-11T14:51:24.585Z</time></trkpt><trkpt lat="44.0976719" lon="12.1183898"><ele>98.4</ele><time>2026-04-11T14:51:25.587Z</time></trkpt><trkpt lat="44.0975823" lon="12.1183864"><ele>99.0</ele><time>2026-04-11T14:51:26.584Z</time></trkpt><trkpt lat="44.0974915" lon="12.1183919"><ele>100.0</ele><time>2026-04-11T14:51:27.581Z</time></trkpt><trkpt lat="44.0974013" lon="12.1184106"><ele>101.0</ele><time>2026-04-11T14:51:28.573Z</time></trkpt><trkpt lat="44.0973095" lon="12.1184463"><ele>102.0</ele><time>2026-04-11T14:51:29.58Z</time></trkpt><trkpt lat="44.0972211" lon="12.1184959"><ele>103.0</ele><time>2026-04-11T14:51:30.576Z</time></trkpt><trkpt lat="44.0971309" lon="12.118554"><ele>104.0</ele><time>2026-04-11T14:51:31.578Z</time></trkpt><trkpt lat="44.0970385" lon="12.1186238"><ele>104.0</ele><time>2026-04-11T14:51:32.579Z</time></trkpt><trkpt lat="44.0969453" lon="12.1187009"><ele>104.0</ele><time>2026-04-11T14:51:33.582Z</time></trkpt><trkpt lat="44.0968582" lon="12.1187788"><ele>104.0</ele><time>2026-04-11T14:51:34.571Z</time></trkpt><trkpt lat="44.0967676" lon="12.1188532"><ele>104.0</ele><time>2026-04-11T14:51:35.578Z</time></trkpt><trkpt lat="44.0966742" lon="12.1189221"><ele>104.0</ele><time>2026-04-11T14:51:36.571Z</time></trkpt><trkpt lat="44.0965756" lon="12.1189895"><ele>103.5</ele><time>2026-04-11T14:51:37.579Z</time></trkpt><trkpt lat="44.0964754" lon="12.1190487"><ele>103.0</ele><time>2026-04-11T14:51:38.575Z</time></trkpt><trkpt lat="44.0963777" lon="12.1191172"><ele>102.5</ele><time>2026-04-11T14:51:39.581Z</time></trkpt><trkpt lat="44.0962775" lon="12.1191903"><ele>102.0</ele><time>2026-04-11T14:51:40.581Z</time></trkpt><trkpt lat="44.0961728" lon="12.1192693"><ele>102.0</ele><time>2026-04-11T14:51:41.585Z</time></trkpt><trkpt lat="44.0960689" lon="12.1193443"><ele>102.0</ele><time>2026-04-11T14:51:42.578Z</time></trkpt><trkpt lat="44.0959673" lon="12.1194203"><ele>102.0</ele><time>2026-04-11T14:51:43.581Z</time></trkpt><trkpt lat="44.0958698" lon="12.1195028"><ele>102.0</ele><time>2026-04-11T14:51:44.581Z</time></trkpt><trkpt lat="44.0957739" lon="12.1195773"><ele>102.39999999999999</ele><time>2026-04-11T14:51:45.581Z</time></trkpt><trkpt lat="44.0956776" lon="12.1196511"><ele>102.8</ele><time>2026-04-11T14:51:46.583Z</time></trkpt><trkpt lat="44.0955846" lon="12.1197222"><ele>103.2</ele><time>2026-04-11T14:51:47.58Z</time></trkpt><trkpt lat="44.0954899" lon="12.1197938"><ele>103.6</ele><time>2026-04-11T14:51:48.583Z</time></trkpt><trkpt lat="44.0953934" lon="12.1198614"><ele>104.0</ele><time>2026-04-11T14:51:49.604Z</time></trkpt><trkpt lat="44.0953006" lon="12.1199344"><ele>104.0</ele><time>2026-04-11T14:51:50.58Z</time></trkpt><trkpt lat="44.0952063" lon="12.1200133"><ele>104.0</ele><time>2026-04-11T14:51:51.584Z</time></trkpt><trkpt lat="44.0951155" lon="12.1200983"><ele>104.0</ele><time>2026-04-11T14:51:52.579Z</time></trkpt><trkpt lat="44.0950295" lon="12.1201909"><ele>104.0</ele><time>2026-04-11T14:51:53.579Z</time></trkpt><trkpt lat="44.0949446" lon="12.1202876"><ele>104.0</ele><time>2026-04-11T14:51:54.578Z</time></trkpt><trkpt lat="44.09486" lon="12.1203817"><ele>104.6</ele><time>2026-04-11T14:51:55.578Z</time></trkpt><trkpt lat="44.0947774" lon="12.1204764"><ele>105.2</ele><time>2026-04-11T14:51:56.58Z</time></trkpt><trkpt lat="44.0946943" lon="12.120573"><ele>105.79999999999998</ele><time>2026-04-11T14:51:57.581Z</time></trkpt><trkpt lat="44.0946115" lon="12.1206659"><ele>106.39999999999999</ele><time>2026-04-11T14:51:58.58Z</time></trkpt><trkpt lat="44.0945332" lon="12.1207573"><ele>107.0</ele><time>2026-04-11T14:51:59.592Z</time></trkpt><trkpt lat="44.0944532" lon="12.1208414"><ele>107.0</ele><time>2026-04-11T14:52:00.587Z</time></trkpt><trkpt lat="44.0943759" lon="12.1209263"><ele>106.99999999999999</ele><time>2026-04-11T14:52:01.579Z</time></trkpt><trkpt lat="44.0943016" lon="12.1210081"><ele>106.99999999999999</ele><time>2026-04-11T14:52:02.581Z</time></trkpt><trkpt lat="44.0942247" lon="12.1210909"><ele>107.0</ele><time>2026-04-11T14:52:03.579Z</time></trkpt><trkpt lat="44.0941446" lon="12.1211769"><ele>107.0</ele><time>2026-04-11T14:52:04.581Z</time></trkpt><trkpt lat="44.0940623" lon="12.1212653"><ele>107.39999999999999</ele><time>2026-04-11T14:52:05.579Z</time></trkpt><trkpt lat="44.0939738" lon="12.1213505"><ele>107.79999999999998</ele><time>2026-04-11T14:52:06.577Z</time></trkpt><trkpt lat="44.0938828" lon="12.1214346"><ele>108.2</ele><time>2026-04-11T14:52:07.573Z</time></trkpt><trkpt lat="44.0937876" lon="12.1215262"><ele>108.6</ele><time>2026-04-11T14:52:08.577Z</time></trkpt><trkpt lat="44.0936955" lon="12.1216194"><ele>109.0</ele><time>2026-04-11T14:52:09.576Z</time></trkpt><trkpt lat="44.093608" lon="12.1217223"><ele>109.0</ele><time>2026-04-11T14:52:10.576Z</time></trkpt><trkpt lat="44.0935175" lon="12.1218182"><ele>109.0</ele><time>2026-04-11T14:52:11.578Z</time></trkpt><trkpt lat="44.0934279" lon="12.1219242"><ele>109.0</ele><time>2026-04-11T14:52:12.579Z</time></trkpt><trkpt lat="44.093343" lon="12.1220327"><ele>109.0</ele><time>2026-04-11T14:52:13.574Z</time></trkpt><trkpt lat="44.0932676" lon="12.1221446"><ele>110.4</ele><time>2026-04-11T14:52:14.579Z</time></trkpt><trkpt lat="44.0931994" lon="12.1222668"><ele>111.80000000000001</ele><time>2026-04-11T14:52:15.578Z</time></trkpt><trkpt lat="44.0931356" lon="12.1223851"><ele>113.19999999999999</ele><time>2026-04-11T14:52:16.58Z</time></trkpt><trkpt lat="44.0930748" lon="12.1225004"><ele>114.6</ele><time>2026-04-11T14:52:17.58Z</time></trkpt><trkpt lat="44.0930129" lon="12.1226121"><ele>116.0</ele><time>2026-04-11T14:52:18.582Z</time></trkpt><trkpt lat="44.09295" lon="12.1227214"><ele>115.99999999999999</ele><time>2026-04-11T14:52:19.581Z</time></trkpt><trkpt lat="44.0928868" lon="12.1228284"><ele>116.0</ele><time>2026-04-11T14:52:20.604Z</time></trkpt><trkpt lat="44.0928281" lon="12.1229312"><ele>116.0</ele><time>2026-04-11T14:52:21.581Z</time></trkpt><trkpt lat="44.0927751" lon="12.1230244"><ele>116.0</ele><time>2026-04-11T14:52:22.576Z</time></trkpt><trkpt lat="44.0927261" lon="12.1231067"><ele>115.99999999999999</ele><time>2026-04-11T14:52:23.578Z</time></trkpt><trkpt lat="44.0926837" lon="12.1231915"><ele>116.0</ele><time>2026-04-11T14:52:24.577Z</time></trkpt><trkpt lat="44.092643" lon="12.1232715"><ele>116.66666666666666</ele><time>2026-04-11T14:52:25.579Z</time></trkpt><trkpt lat="44.0925994" lon="12.123353"><ele>117.33333333333333</ele><time>2026-04-11T14:52:26.577Z</time></trkpt><trkpt lat="44.0925499" lon="12.1234407"><ele>118.0</ele><time>2026-04-11T14:52:27.584Z</time></trkpt><trkpt lat="44.0924971" lon="12.1235381"><ele>118.66666666666666</ele><time>2026-04-11T14:52:28.579Z</time></trkpt><trkpt lat="44.092446" lon="12.123639"><ele>119.33333333333333</ele><time>2026-04-11T14:52:29.581Z</time></trkpt><trkpt lat="44.0923969" lon="12.1237373"><ele>120.0</ele><time>2026-04-11T14:52:30.585Z</time></trkpt><trkpt lat="44.0923467" lon="12.1238422"><ele>120.0</ele><time>2026-04-11T14:52:31.579Z</time></trkpt><trkpt lat="44.0922956" lon="12.1239509"><ele>120.0</ele><time>2026-04-11T14:52:32.584Z</time></trkpt><trkpt lat="44.092242" lon="12.1240576"><ele>120.0</ele><time>2026-04-11T14:52:33.579Z</time></trkpt><trkpt lat="44.0921903" lon="12.1241621"><ele>120.0</ele><time>2026-04-11T14:52:34.578Z</time></trkpt><trkpt lat="44.0921326" lon="12.1242625"><ele>120.0</ele><time>2026-04-11T14:52:35.578Z</time></trkpt><trkpt lat="44.0920734" lon="12.1243536"><ele>119.0</ele><time>2026-04-11T14:52:36.58Z</time></trkpt><trkpt lat="44.0920113" lon="12.1244404"><ele>118.0</ele><time>2026-04-11T14:52:37.58Z</time></trkpt><trkpt lat="44.0919471" lon="12.1245246"><ele>117.0</ele><time>2026-04-11T14:52:38.582Z</time></trkpt><trkpt lat="44.09188" lon="12.124606"><ele>116.0</ele><time>2026-04-11T14:52:39.581Z</time></trkpt><trkpt lat="44.0918131" lon="12.1246872"><ele>115.0</ele><time>2026-04-11T14:52:40.581Z</time></trkpt><trkpt lat="44.0917388" lon="12.1247694"><ele>114.0</ele><time>2026-04-11T14:52:41.579Z</time></trkpt><trkpt lat="44.0916599" lon="12.1248559"><ele>114.2</ele><time>2026-04-11T14:52:42.575Z</time></trkpt><trkpt lat="44.0915813" lon="12.12494"><ele>114.4</ele><time>2026-04-11T14:52:43.579Z</time></trkpt><trkpt lat="44.0915035" lon="12.1250234"><ele>114.6</ele><time>2026-04-11T14:52:44.579Z</time></trkpt><trkpt lat="44.0914332" lon="12.1251013"><ele>114.8</ele><time>2026-04-11T14:52:45.579Z</time></trkpt><trkpt lat="44.0913671" lon="12.1251814"><ele>115.0</ele><time>2026-04-11T14:52:46.581Z</time></trkpt><trkpt lat="44.0913074" lon="12.1252554"><ele>115.00000000000001</ele><time>2026-04-11T14:52:47.579Z</time></trkpt><trkpt lat="44.0912506" lon="12.1253273"><ele>115.0</ele><time>2026-04-11T14:52:48.588Z</time></trkpt><trkpt lat="44.0912001" lon="12.1254054"><ele>115.0</ele><time>2026-04-11T14:52:49.58Z</time></trkpt><trkpt lat="44.0911578" lon="12.1254852"><ele>115.0</ele><time>2026-04-11T14:52:50.573Z</time></trkpt><trkpt lat="44.0911265" lon="12.1255643"><ele>115.00000000000001</ele><time>2026-04-11T14:52:51.595Z</time></trkpt><trkpt lat="44.0911015" lon="12.1257167"><ele>115.0</ele><time>2026-04-11T14:52:53.576Z</time></trkpt><trkpt lat="44.0911006" lon="12.1258358"><ele>115.00000000000001</ele><time>2026-04-11T14:52:55.571Z</time></trkpt><trkpt lat="44.0910928" lon="12.1259434"><ele>115.0</ele><time>2026-04-11T14:52:58.589Z</time></trkpt><trkpt lat="44.0910817" lon="12.126053"><ele>115.0</ele><time>2026-04-11T14:53:26.591Z</time></trkpt><trkpt lat="44.0910668" lon="12.1261387"><ele>115.0</ele><time>2026-04-11T14:53:27.589Z</time></trkpt><trkpt lat="44.0910451" lon="12.126237"><ele>115.00000000000001</ele><time>2026-04-11T14:53:28.583Z</time></trkpt><trkpt lat="44.0910113" lon="12.1263413"><ele>115.0</ele><time>2026-04-11T14:53:29.588Z</time></trkpt><trkpt lat="44.0909714" lon="12.12645"><ele>115.00000000000001</ele><time>2026-04-11T14:53:30.586Z</time></trkpt><trkpt lat="44.0909342" lon="12.1265579"><ele>115.0</ele><time>2026-04-11T14:53:31.584Z</time></trkpt><trkpt lat="44.0909002" lon="12.1266633"><ele>115.0</ele><time>2026-04-11T14:53:32.585Z</time></trkpt><trkpt lat="44.0908653" lon="12.1267736"><ele>115.0</ele><time>2026-04-11T14:53:33.588Z</time></trkpt><trkpt lat="44.0908347" lon="12.1268833"><ele>115.00000000000001</ele><time>2026-04-11T14:53:34.589Z</time></trkpt><trkpt lat="44.0908136" lon="12.1270012"><ele>115.0</ele><time>2026-04-11T14:53:35.592Z</time></trkpt><trkpt lat="44.0908012" lon="12.1271234"><ele>115.5</ele><time>2026-04-11T14:53:36.578Z</time></trkpt><trkpt lat="44.0908003" lon="12.1272585"><ele>116.0</ele><time>2026-04-11T14:53:37.597Z</time></trkpt><trkpt lat="44.0907956" lon="12.1273919"><ele>116.5</ele><time>2026-04-11T14:53:38.669Z</time></trkpt><trkpt lat="44.0907882" lon="12.1275497"><ele>117.0</ele><time>2026-04-11T14:53:39.677Z</time></trkpt><trkpt lat="44.0907751" lon="12.1277539"><ele>117.66666666666666</ele><time>2026-04-11T14:53:40.675Z</time></trkpt><trkpt lat="44.0907533" lon="12.1279651"><ele>118.33333333333333</ele><time>2026-04-11T14:53:41.667Z</time></trkpt><trkpt lat="44.0907292" lon="12.1281866"><ele>119.0</ele><time>2026-04-11T14:53:42.671Z</time></trkpt><trkpt lat="44.0907031" lon="12.1284173"><ele>122.0</ele><time>2026-04-11T14:53:43.677Z</time></trkpt><trkpt lat="44.0907904" lon="12.1287253"><ele>125.0</ele><time>2026-04-11T14:53:44.58Z</time></trkpt><trkpt lat="44.0907941" lon="12.1289058"><ele>128.0</ele><time>2026-04-11T14:53:45.57Z</time></trkpt><trkpt lat="44.0908158" lon="12.129057"><ele>129.75</ele><time>2026-04-11T14:53:46.567Z</time></trkpt><trkpt lat="44.090858" lon="12.1291961"><ele>131.5</ele><time>2026-04-11T14:53:47.564Z</time></trkpt><trkpt lat="44.0909047" lon="12.1293662"><ele>133.25</ele><time>2026-04-11T14:53:48.576Z</time></trkpt><trkpt lat="44.0909492" lon="12.1295275"><ele>135.0</ele><time>2026-04-11T14:53:49.573Z</time></trkpt><trkpt lat="44.0909881" lon="12.1296733"><ele>135.0</ele><time>2026-04-11T14:53:50.572Z</time></trkpt><trkpt lat="44.0910238" lon="12.1297996"><ele>135.0</ele><time>2026-04-11T14:53:51.573Z</time></trkpt><trkpt lat="44.0910508" lon="12.12991"><ele>135.0</ele><time>2026-04-11T14:53:52.573Z</time></trkpt><trkpt lat="44.0910753" lon="12.1299966"><ele>135.0</ele><time>2026-04-11T14:53:53.605Z</time></trkpt><trkpt lat="44.0910263" lon="12.1300739"><ele>135.0</ele><time>2026-04-11T14:54:22.575Z</time></trkpt><trkpt lat="44.0909621" lon="12.130084"><ele>135.0</ele><time>2026-04-11T14:54:23.577Z</time></trkpt><trkpt lat="44.090888" lon="12.130094"><ele>134.33333333333334</ele><time>2026-04-11T14:54:24.594Z</time></trkpt><trkpt lat="44.0908156" lon="12.1301189"><ele>133.66666666666666</ele><time>2026-04-11T14:54:25.574Z</time></trkpt><trkpt lat="44.0907465" lon="12.1301664"><ele>133.0</ele><time>2026-04-11T14:54:26.566Z</time></trkpt><trkpt lat="44.0906796" lon="12.1302235"><ele>132.33333333333331</ele><time>2026-04-11T14:54:27.564Z</time></trkpt><trkpt lat="44.0906051" lon="12.1303074"><ele>131.66666666666666</ele><time>2026-04-11T14:54:28.562Z</time></trkpt><trkpt lat="44.0905216" lon="12.1303867"><ele>131.0</ele><time>2026-04-11T14:54:29.578Z</time></trkpt><trkpt lat="44.0904308" lon="12.1304688"><ele>131.0</ele><time>2026-04-11T14:54:30.579Z</time></trkpt><trkpt lat="44.0903391" lon="12.1305545"><ele>131.0</ele><time>2026-04-11T14:54:31.576Z</time></trkpt><trkpt lat="44.0902433" lon="12.1306447"><ele>131.0</ele><time>2026-04-11T14:54:32.583Z</time></trkpt><trkpt lat="44.0901369" lon="12.1307364"><ele>131.0</ele><time>2026-04-11T14:54:33.577Z</time></trkpt><trkpt lat="44.0900213" lon="12.1308261"><ele>131.5</ele><time>2026-04-11T14:54:34.587Z</time></trkpt><trkpt lat="44.0898995" lon="12.1309071"><ele>132.0</ele><time>2026-04-11T14:54:35.583Z</time></trkpt><trkpt lat="44.0897705" lon="12.130982"><ele>132.5</ele><time>2026-04-11T14:54:36.585Z</time></trkpt><trkpt lat="44.0896452" lon="12.131063"><ele>133.0</ele><time>2026-04-11T14:54:37.586Z</time></trkpt><trkpt lat="44.0895128" lon="12.1311444"><ele>133.0</ele><time>2026-04-11T14:54:38.587Z</time></trkpt><trkpt lat="44.089372" lon="12.131243"><ele>133.0</ele><time>2026-04-11T14:54:39.595Z</time></trkpt><trkpt lat="44.0892278" lon="12.1313245"><ele>133.0</ele><time>2026-04-11T14:54:40.589Z</time></trkpt><trkpt lat="44.0890792" lon="12.1314087"><ele>134.66666666666669</ele><time>2026-04-11T14:54:41.592Z</time></trkpt><trkpt lat="44.0889314" lon="12.1314933"><ele>136.33333333333334</ele><time>2026-04-11T14:54:42.591Z</time></trkpt><trkpt lat="44.0887957" lon="12.1315737"><ele>138.0</ele><time>2026-04-11T14:54:43.596Z</time></trkpt><trkpt lat="44.0886584" lon="12.1316597"><ele>139.75</ele><time>2026-04-11T14:54:44.596Z</time></trkpt><trkpt lat="44.0885309" lon="12.1317488"><ele>141.5</ele><time>2026-04-11T14:54:45.587Z</time></trkpt><trkpt lat="44.0884065" lon="12.1318168"><ele>143.25</ele><time>2026-04-11T14:54:46.582Z</time></trkpt><trkpt lat="44.0883" lon="12.1318976"><ele>145.0</ele><time>2026-04-11T14:54:47.588Z</time></trkpt><trkpt lat="44.0882088" lon="12.1319998"><ele>145.5</ele><time>2026-04-11T14:54:48.592Z</time></trkpt><trkpt lat="44.0881323" lon="12.1321205"><ele>146.0</ele><time>2026-04-11T14:54:49.59Z</time></trkpt><trkpt lat="44.0880745" lon="12.1322645"><ele>146.5</ele><time>2026-04-11T14:54:50.593Z</time></trkpt><trkpt lat="44.0880182" lon="12.1324258"><ele>147.0</ele><time>2026-04-11T14:54:51.588Z</time></trkpt><trkpt lat="44.0879725" lon="12.1326045"><ele>149.33333333333334</ele><time>2026-04-11T14:54:52.589Z</time></trkpt><trkpt lat="44.0879321" lon="12.1327963"><ele>151.66666666666669</ele><time>2026-04-11T14:54:53.595Z</time></trkpt><trkpt lat="44.087898" lon="12.1329997"><ele>154.0</ele><time>2026-04-11T14:54:54.587Z</time></trkpt><trkpt lat="44.0878614" lon="12.1332305"><ele>156.0</ele><time>2026-04-11T14:54:55.628Z</time></trkpt><trkpt lat="44.0878255" lon="12.1334679"><ele>158.0</ele><time>2026-04-11T14:54:56.593Z</time></trkpt><trkpt lat="44.0877739" lon="12.1337092"><ele>160.0</ele><time>2026-04-11T14:54:57.593Z</time></trkpt><trkpt lat="44.0877209" lon="12.133959"><ele>161.66666666666669</ele><time>2026-04-11T14:54:58.593Z</time></trkpt><trkpt lat="44.0876666" lon="12.1342221"><ele>163.33333333333334</ele><time>2026-04-11T14:54:59.591Z</time></trkpt><trkpt lat="44.0876143" lon="12.1344713"><ele>165.0</ele><time>2026-04-11T14:55:00.596Z</time></trkpt><trkpt lat="44.0875621" lon="12.1347034"><ele>166.66666666666666</ele><time>2026-04-11T14:55:01.584Z</time></trkpt><trkpt lat="44.0875024" lon="12.1349191"><ele>168.33333333333331</ele><time>2026-04-11T14:55:02.592Z</time></trkpt><trkpt lat="44.0874293" lon="12.1351274"><ele>170.0</ele><time>2026-04-11T14:55:03.582Z</time></trkpt><trkpt lat="44.0873476" lon="12.135327"><ele>172.0</ele><time>2026-04-11T14:55:04.591Z</time></trkpt><trkpt lat="44.0872562" lon="12.1355168"><ele>174.0</ele><time>2026-04-11T14:55:05.592Z</time></trkpt><trkpt lat="44.0871636" lon="12.1357169"><ele>176.0</ele><time>2026-04-11T14:55:06.584Z</time></trkpt><trkpt lat="44.0870688" lon="12.1358989"><ele>178.33333333333331</ele><time>2026-04-11T14:55:07.594Z</time></trkpt><trkpt lat="44.086973" lon="12.136075"><ele>180.66666666666666</ele><time>2026-04-11T14:55:08.598Z</time></trkpt><trkpt lat="44.0868728" lon="12.1362642"><ele>183.0</ele><time>2026-04-11T14:55:09.591Z</time></trkpt><trkpt lat="44.0867691" lon="12.1364435"><ele>186.33333333333331</ele><time>2026-04-11T14:55:10.595Z</time></trkpt><trkpt lat="44.0866696" lon="12.136611"><ele>189.66666666666666</ele><time>2026-04-11T14:55:11.594Z</time></trkpt><trkpt lat="44.0865611" lon="12.1367722"><ele>193.0</ele><time>2026-04-11T14:55:12.593Z</time></trkpt><trkpt lat="44.0864441" lon="12.1369159"><ele>195.66666666666666</ele><time>2026-04-11T14:55:13.6Z</time></trkpt><trkpt lat="44.0863224" lon="12.1370556"><ele>198.33333333333331</ele><time>2026-04-11T14:55:14.596Z</time></trkpt><trkpt lat="44.086191" lon="12.1372067"><ele>201.0</ele><time>2026-04-11T14:55:15.588Z</time></trkpt><trkpt lat="44.0860559" lon="12.1373593"><ele>204.66666666666669</ele><time>2026-04-11T14:55:16.592Z</time></trkpt><trkpt lat="44.0859256" lon="12.1375131"><ele>208.33333333333334</ele><time>2026-04-11T14:55:17.589Z</time></trkpt><trkpt lat="44.085803" lon="12.1376646"><ele>212.0</ele><time>2026-04-11T14:55:18.601Z</time></trkpt><trkpt lat="44.0856833" lon="12.1378042"><ele>212.0</ele><time>2026-04-11T14:55:19.591Z</time></trkpt><trkpt lat="44.0855631" lon="12.1379455"><ele>212.0</ele><time>2026-04-11T14:55:20.596Z</time></trkpt><trkpt lat="44.0854325" lon="12.1380967"><ele>212.0</ele><time>2026-04-11T14:55:21.594Z</time></trkpt><trkpt lat="44.0852957" lon="12.1382594"><ele>215.0</ele><time>2026-04-11T14:55:22.587Z</time></trkpt><trkpt lat="44.0851569" lon="12.1384149"><ele>218.0</ele><time>2026-04-11T14:55:23.594Z</time></trkpt><trkpt lat="44.085032" lon="12.138565"><ele>221.0</ele><time>2026-04-11T14:55:24.586Z</time></trkpt><trkpt lat="44.0849183" lon="12.1387107"><ele>221.0</ele><time>2026-04-11T14:55:25.616Z</time></trkpt><trkpt lat="44.0848092" lon="12.1388472"><ele>221.0</ele><time>2026-04-11T14:55:26.591Z</time></trkpt><trkpt lat="44.0847078" lon="12.13899"><ele>221.0</ele><time>2026-04-11T14:55:27.585Z</time></trkpt><trkpt lat="44.0846104" lon="12.1391576"><ele>221.0</ele><time>2026-04-11T14:55:28.601Z</time></trkpt><trkpt lat="44.0845068" lon="12.1393305"><ele>225.33333333333334</ele><time>2026-04-11T14:55:29.599Z</time></trkpt><trkpt lat="44.0844071" lon="12.1395077"><ele>229.66666666666669</ele><time>2026-04-11T14:55:30.592Z</time></trkpt><trkpt lat="44.0842994" lon="12.139694"><ele>234.0</ele><time>2026-04-11T14:55:31.598Z</time></trkpt><trkpt lat="44.0841946" lon="12.1398675"><ele>236.2</ele><time>2026-04-11T14:55:32.584Z</time></trkpt><trkpt lat="44.0840995" lon="12.1400077"><ele>238.39999999999998</ele><time>2026-04-11T14:55:33.595Z</time></trkpt><trkpt lat="44.0840299" lon="12.1401148"><ele>240.6</ele><time>2026-04-11T14:55:34.584Z</time></trkpt><trkpt lat="44.0839673" lon="12.1401959"><ele>242.8</ele><time>2026-04-11T14:55:35.584Z</time></trkpt><trkpt lat="44.083911" lon="12.1402561"><ele>245.0</ele><time>2026-04-11T14:55:36.594Z</time></trkpt><trkpt lat="44.0837904" lon="12.140314"><ele>245.6</ele><time>2026-04-11T14:55:38.589Z</time></trkpt><trkpt lat="44.0837074" lon="12.1403322"><ele>246.2</ele><time>2026-04-11T14:55:39.588Z</time></trkpt><trkpt lat="44.0836115" lon="12.14033"><ele>246.8</ele><time>2026-04-11T14:55:40.581Z</time></trkpt><trkpt lat="44.083491" lon="12.1403215"><ele>247.4</ele><time>2026-04-11T14:55:41.62Z</time></trkpt><trkpt lat="44.0833594" lon="12.1403156"><ele>248.0</ele><time>2026-04-11T14:55:42.69Z</time></trkpt><trkpt lat="44.0832172" lon="12.1403089"><ele>250.33333333333334</ele><time>2026-04-11T14:55:43.693Z</time></trkpt><trkpt lat="44.083072" lon="12.1402943"><ele>252.66666666666669</ele><time>2026-04-11T14:55:44.69Z</time></trkpt><trkpt lat="44.0829048" lon="12.1402505"><ele>255.0</ele><time>2026-04-11T14:55:45.696Z</time></trkpt><trkpt lat="44.0827665" lon="12.1401989"><ele>255.0</ele><time>2026-04-11T14:55:46.603Z</time></trkpt><trkpt lat="44.0826455" lon="12.1401626"><ele>255.0</ele><time>2026-04-11T14:55:47.58Z</time></trkpt><trkpt lat="44.082543" lon="12.1401698"><ele>255.0</ele><time>2026-04-11T14:55:48.584Z</time></trkpt><trkpt lat="44.0824382" lon="12.140205"><ele>255.0</ele><time>2026-04-11T14:55:49.579Z</time></trkpt><trkpt lat="44.0823361" lon="12.1402476"><ele>255.0</ele><time>2026-04-11T14:55:50.589Z</time></trkpt><trkpt lat="44.0822317" lon="12.1402769"><ele>255.5</ele><time>2026-04-11T14:55:51.598Z</time></trkpt><trkpt lat="44.082141" lon="12.1402989"><ele>256.0</ele><time>2026-04-11T14:55:52.595Z</time></trkpt><trkpt lat="44.0820567" lon="12.1403171"><ele>256.5</ele><time>2026-04-11T14:55:53.604Z</time></trkpt><trkpt lat="44.0819785" lon="12.1403332"><ele>257.0</ele><time>2026-04-11T14:55:54.594Z</time></trkpt><trkpt lat="44.0818969" lon="12.1403409"><ele>257.5</ele><time>2026-04-11T14:55:55.595Z</time></trkpt><trkpt lat="44.081818" lon="12.140336"><ele>258.0</ele><time>2026-04-11T14:55:56.613Z</time></trkpt><trkpt lat="44.0817361" lon="12.1403186"><ele>258.0</ele><time>2026-04-11T14:55:57.589Z</time></trkpt><trkpt lat="44.0816484" lon="12.1402885"><ele>258.0</ele><time>2026-04-11T14:55:58.593Z</time></trkpt><trkpt lat="44.0815528" lon="12.1402459"><ele>258.0</ele><time>2026-04-11T14:55:59.588Z</time></trkpt><trkpt lat="44.081448" lon="12.1401963"><ele>258.0</ele><time>2026-04-11T14:56:00.592Z</time></trkpt><trkpt lat="44.0813463" lon="12.1401284"><ele>258.0</ele><time>2026-04-11T14:56:01.591Z</time></trkpt><trkpt lat="44.0812431" lon="12.1400565"><ele>256.8</ele><time>2026-04-11T14:56:02.587Z</time></trkpt><trkpt lat="44.0811357" lon="12.1399921"><ele>255.60000000000002</ele><time>2026-04-11T14:56:03.592Z</time></trkpt><trkpt lat="44.081031" lon="12.1399371"><ele>254.39999999999998</ele><time>2026-04-11T14:56:04.582Z</time></trkpt><trkpt lat="44.0809335" lon="12.1398811"><ele>253.2</ele><time>2026-04-11T14:56:05.581Z</time></trkpt><trkpt lat="44.0808393" lon="12.1398371"><ele>252.0</ele><time>2026-04-11T14:56:06.577Z</time></trkpt><trkpt lat="44.0807479" lon="12.1398028"><ele>251.83333333333334</ele><time>2026-04-11T14:56:07.579Z</time></trkpt><trkpt lat="44.0806635" lon="12.139766"><ele>251.66666666666669</ele><time>2026-04-11T14:56:08.582Z</time></trkpt><trkpt lat="44.0805961" lon="12.1397262"><ele>251.5</ele><time>2026-04-11T14:56:09.577Z</time></trkpt><trkpt lat="44.0805424" lon="12.139675"><ele>251.33333333333334</ele><time>2026-04-11T14:56:10.58Z</time></trkpt><trkpt lat="44.0804911" lon="12.1396206"><ele>251.16666666666669</ele><time>2026-04-11T14:56:11.577Z</time></trkpt><trkpt lat="44.0803926" lon="12.1395048"><ele>251.0</ele><time>2026-04-11T14:56:13.577Z</time></trkpt><trkpt lat="44.0803389" lon="12.1394358"><ele>251.0</ele><time>2026-04-11T14:56:14.584Z</time></trkpt><trkpt lat="44.0802807" lon="12.1393599"><ele>251.00000000000003</ele><time>2026-04-11T14:56:15.579Z</time></trkpt><trkpt lat="44.0802165" lon="12.1392793"><ele>251.00000000000003</ele><time>2026-04-11T14:56:16.581Z</time></trkpt><trkpt lat="44.080144" lon="12.1391945"><ele>251.0</ele><time>2026-04-11T14:56:17.584Z</time></trkpt><trkpt lat="44.0800644" lon="12.1391058"><ele>251.0</ele><time>2026-04-11T14:56:18.586Z</time></trkpt><trkpt lat="44.0799748" lon="12.1390143"><ele>253.25</ele><time>2026-04-11T14:56:19.586Z</time></trkpt><trkpt lat="44.0798805" lon="12.1389136"><ele>255.5</ele><time>2026-04-11T14:56:20.591Z</time></trkpt><trkpt lat="44.0797903" lon="12.1388049"><ele>257.75</ele><time>2026-04-11T14:56:21.592Z</time></trkpt><trkpt lat="44.0796974" lon="12.1386931"><ele>260.0</ele><time>2026-04-11T14:56:22.591Z</time></trkpt><trkpt lat="44.079594" lon="12.1385805"><ele>260.0</ele><time>2026-04-11T14:56:23.592Z</time></trkpt><trkpt lat="44.0794823" lon="12.1384698"><ele>260.0</ele><time>2026-04-11T14:56:24.591Z</time></trkpt><trkpt lat="44.0793705" lon="12.1383577"><ele>260.0</ele><time>2026-04-11T14:56:25.598Z</time></trkpt><trkpt lat="44.079258" lon="12.1382504"><ele>260.0</ele><time>2026-04-11T14:56:26.587Z</time></trkpt><trkpt lat="44.0791439" lon="12.1381575"><ele>261.0</ele><time>2026-04-11T14:56:27.625Z</time></trkpt><trkpt lat="44.0790342" lon="12.1381023"><ele>262.0</ele><time>2026-04-11T14:56:28.603Z</time></trkpt><trkpt lat="44.0789261" lon="12.1380737"><ele>263.0</ele><time>2026-04-11T14:56:29.598Z</time></trkpt><trkpt lat="44.0788178" lon="12.1380692"><ele>264.0</ele><time>2026-04-11T14:56:30.598Z</time></trkpt><trkpt lat="44.0787066" lon="12.1380838"><ele>265.0</ele><time>2026-04-11T14:56:31.586Z</time></trkpt><trkpt lat="44.0785923" lon="12.1381129"><ele>265.0</ele><time>2026-04-11T14:56:32.6Z</time></trkpt><trkpt lat="44.0784714" lon="12.1381402"><ele>265.0</ele><time>2026-04-11T14:56:33.598Z</time></trkpt><trkpt lat="44.0783429" lon="12.1381656"><ele>265.0</ele><time>2026-04-11T14:56:34.6Z</time></trkpt><trkpt lat="44.0782043" lon="12.1381858"><ele>265.0</ele><time>2026-04-11T14:56:35.595Z</time></trkpt><trkpt lat="44.0780667" lon="12.1382015"><ele>266.0</ele><time>2026-04-11T14:56:36.597Z</time></trkpt><trkpt lat="44.0779251" lon="12.1382272"><ele>267.0</ele><time>2026-04-11T14:56:37.595Z</time></trkpt><trkpt lat="44.0777858" lon="12.1382486"><ele>268.0</ele><time>2026-04-11T14:56:38.596Z</time></trkpt><trkpt lat="44.0776549" lon="12.1382682"><ele>269.0</ele><time>2026-04-11T14:56:39.605Z</time></trkpt><trkpt lat="44.0775216" lon="12.1382826"><ele>270.5</ele><time>2026-04-11T14:56:40.605Z</time></trkpt><trkpt lat="44.0773865" lon="12.1382947"><ele>272.0</ele><time>2026-04-11T14:56:41.595Z</time></trkpt><trkpt lat="44.0772464" lon="12.1383054"><ele>273.5</ele><time>2026-04-11T14:56:42.6Z</time></trkpt><trkpt lat="44.0771013" lon="12.1383259"><ele>275.0</ele><time>2026-04-11T14:56:43.6Z</time></trkpt><trkpt lat="44.0769415" lon="12.1383349"><ele>275.0</ele><time>2026-04-11T14:56:44.602Z</time></trkpt><trkpt lat="44.0767848" lon="12.13835"><ele>275.0</ele><time>2026-04-11T14:56:45.596Z</time></trkpt><trkpt lat="44.0766304" lon="12.1383588"><ele>275.0</ele><time>2026-04-11T14:56:46.596Z</time></trkpt><trkpt lat="44.0764735" lon="12.1383599"><ele>277.33333333333337</ele><time>2026-04-11T14:56:47.595Z</time></trkpt><trkpt lat="44.0763118" lon="12.1383594"><ele>279.6666666666667</ele><time>2026-04-11T14:56:48.6Z</time></trkpt><trkpt lat="44.0761485" lon="12.1383631"><ele>282.0</ele><time>2026-04-11T14:56:49.591Z</time></trkpt><trkpt lat="44.0759839" lon="12.1383415"><ele>282.0</ele><time>2026-04-11T14:56:50.603Z</time></trkpt><trkpt lat="44.0758303" lon="12.1382942"><ele>282.0</ele><time>2026-04-11T14:56:51.596Z</time></trkpt><trkpt lat="44.0756912" lon="12.1382215"><ele>282.0</ele><time>2026-04-11T14:56:52.593Z</time></trkpt><trkpt lat="44.0755654" lon="12.1381364"><ele>282.0</ele><time>2026-04-11T14:56:53.599Z</time></trkpt><trkpt lat="44.0754605" lon="12.1380518"><ele>284.75</ele><time>2026-04-11T14:56:54.594Z</time></trkpt><trkpt lat="44.0753643" lon="12.1379413"><ele>287.5</ele><time>2026-04-11T14:56:55.603Z</time></trkpt><trkpt lat="44.0752842" lon="12.1377868"><ele>290.25</ele><time>2026-04-11T14:56:56.594Z</time></trkpt><trkpt lat="44.0752148" lon="12.1375903"><ele>293.0</ele><time>2026-04-11T14:56:57.59Z</time></trkpt><trkpt lat="44.0751573" lon="12.1374085"><ele>291.8</ele><time>2026-04-11T14:56:58.607Z</time></trkpt><trkpt lat="44.0750988" lon="12.1372504"><ele>290.6</ele><time>2026-04-11T14:56:59.585Z</time></trkpt><trkpt lat="44.0750549" lon="12.1371124"><ele>289.4</ele><time>2026-04-11T14:57:00.592Z</time></trkpt><trkpt lat="44.0749985" lon="12.1369967"><ele>288.2</ele><time>2026-04-11T14:57:01.597Z</time></trkpt><trkpt lat="44.0749245" lon="12.1368793"><ele>287.0</ele><time>2026-04-11T14:57:02.584Z</time></trkpt><trkpt lat="44.0748356" lon="12.1368017"><ele>290.25</ele><time>2026-04-11T14:57:03.574Z</time></trkpt><trkpt lat="44.0747286" lon="12.1367512"><ele>293.5</ele><time>2026-04-11T14:57:04.581Z</time></trkpt><trkpt lat="44.0746026" lon="12.1367316"><ele>296.75</ele><time>2026-04-11T14:57:05.581Z</time></trkpt><trkpt lat="44.0744625" lon="12.1367246"><ele>300.0</ele><time>2026-04-11T14:57:06.584Z</time></trkpt><trkpt lat="44.074316" lon="12.1367346"><ele>300.0</ele><time>2026-04-11T14:57:07.582Z</time></trkpt><trkpt lat="44.0741609" lon="12.1367763"><ele>300.0</ele><time>2026-04-11T14:57:08.585Z</time></trkpt><trkpt lat="44.0740145" lon="12.1368468"><ele>300.0</ele><time>2026-04-11T14:57:09.586Z</time></trkpt><trkpt lat="44.0738858" lon="12.1369464"><ele>303.4</ele><time>2026-04-11T14:57:10.579Z</time></trkpt><trkpt lat="44.0737737" lon="12.1370527"><ele>306.8</ele><time>2026-04-11T14:57:11.582Z</time></trkpt><trkpt lat="44.0736806" lon="12.1371474"><ele>310.2</ele><time>2026-04-11T14:57:12.586Z</time></trkpt><trkpt lat="44.0736289" lon="12.137225"><ele>313.6</ele><time>2026-04-11T14:57:13.58Z</time></trkpt><trkpt lat="44.0735797" lon="12.1372874"><ele>317.0</ele><time>2026-04-11T14:57:14.586Z</time></trkpt><trkpt lat="44.0734921" lon="12.1374101"><ele>317.0</ele><time>2026-04-11T14:57:16.591Z</time></trkpt><trkpt lat="44.0734379" lon="12.1374728"><ele>317.0</ele><time>2026-04-11T14:57:17.584Z</time></trkpt><trkpt lat="44.073379" lon="12.1375411"><ele>317.0</ele><time>2026-04-11T14:57:18.586Z</time></trkpt><trkpt lat="44.0733269" lon="12.137615"><ele>317.0</ele><time>2026-04-11T14:57:19.585Z</time></trkpt><trkpt lat="44.0732739" lon="12.1376814"><ele>317.0</ele><time>2026-04-11T14:57:20.587Z</time></trkpt><trkpt lat="44.0732231" lon="12.1377358"><ele>317.0</ele><time>2026-04-11T14:57:21.584Z</time></trkpt><trkpt lat="44.0731631" lon="12.1377648"><ele>317.0</ele><time>2026-04-11T14:57:22.58Z</time></trkpt><trkpt lat="44.0730894" lon="12.1377651"><ele>318.5</ele><time>2026-04-11T14:57:23.574Z</time></trkpt><trkpt lat="44.073013" lon="12.1377461"><ele>320.0</ele><time>2026-04-11T14:57:24.581Z</time></trkpt><trkpt lat="44.0729347" lon="12.1377128"><ele>321.5</ele><time>2026-04-11T14:57:25.587Z</time></trkpt><trkpt lat="44.0728524" lon="12.1376659"><ele>323.0</ele><time>2026-04-11T14:57:26.592Z</time></trkpt><trkpt lat="44.0727771" lon="12.1376279"><ele>324.5</ele><time>2026-04-11T14:57:27.579Z</time></trkpt><trkpt lat="44.0727006" lon="12.1376125"><ele>326.0</ele><time>2026-04-11T14:57:28.576Z</time></trkpt><trkpt lat="44.0726223" lon="12.1376118"><ele>326.0</ele><time>2026-04-11T14:57:29.588Z</time></trkpt><trkpt lat="44.072542" lon="12.1376366"><ele>326.0</ele><time>2026-04-11T14:57:30.567Z</time></trkpt><trkpt lat="44.0724687" lon="12.1376811"><ele>326.0</ele><time>2026-04-11T14:57:31.566Z</time></trkpt><trkpt lat="44.0724019" lon="12.1377326"><ele>326.0</ele><time>2026-04-11T14:57:32.562Z</time></trkpt><trkpt lat="44.0723431" lon="12.1377893"><ele>326.0</ele><time>2026-04-11T14:57:33.566Z</time></trkpt><trkpt lat="44.0722819" lon="12.1378646"><ele>326.0</ele><time>2026-04-11T14:57:34.566Z</time></trkpt><trkpt lat="44.0722134" lon="12.1379428"><ele>327.0</ele><time>2026-04-11T14:57:35.563Z</time></trkpt><trkpt lat="44.0721413" lon="12.138018"><ele>328.0</ele><time>2026-04-11T14:57:36.568Z</time></trkpt><trkpt lat="44.0720626" lon="12.1380837"><ele>329.0</ele><time>2026-04-11T14:57:37.559Z</time></trkpt><trkpt lat="44.0719825" lon="12.1381286"><ele>330.0</ele><time>2026-04-11T14:57:38.567Z</time></trkpt><trkpt lat="44.0719129" lon="12.13814"><ele>331.0</ele><time>2026-04-11T14:57:39.568Z</time></trkpt><trkpt lat="44.0718431" lon="12.1381326"><ele>332.0</ele><time>2026-04-11T14:57:40.566Z</time></trkpt><trkpt lat="44.0717735" lon="12.1381145"><ele>332.0</ele><time>2026-04-11T14:57:41.559Z</time></trkpt><trkpt lat="44.071698" lon="12.138108"><ele>332.0</ele><time>2026-04-11T14:57:42.558Z</time></trkpt><trkpt lat="44.0716172" lon="12.1381248"><ele>332.0</ele><time>2026-04-11T14:57:43.559Z</time></trkpt><trkpt lat="44.0715381" lon="12.1381715"><ele>332.0</ele><time>2026-04-11T14:57:44.571Z</time></trkpt><trkpt lat="44.0714628" lon="12.1382719"><ele>332.0</ele><time>2026-04-11T14:57:45.567Z</time></trkpt><trkpt lat="44.0714092" lon="12.1383902"><ele>332.0</ele><time>2026-04-11T14:57:46.565Z</time></trkpt><trkpt lat="44.0713605" lon="12.1385165"><ele>331.5</ele><time>2026-04-11T14:57:47.577Z</time></trkpt><trkpt lat="44.0713215" lon="12.1386517"><ele>331.0</ele><time>2026-04-11T14:57:48.572Z</time></trkpt><trkpt lat="44.0712834" lon="12.1388006"><ele>330.5</ele><time>2026-04-11T14:57:49.577Z</time></trkpt><trkpt lat="44.0712485" lon="12.1389544"><ele>330.0</ele><time>2026-04-11T14:57:50.575Z</time></trkpt><trkpt lat="44.0712141" lon="12.1391105"><ele>330.0</ele><time>2026-04-11T14:57:51.578Z</time></trkpt><trkpt lat="44.071186" lon="12.1392681"><ele>330.0</ele><time>2026-04-11T14:57:52.574Z</time></trkpt><trkpt lat="44.0711623" lon="12.1394265"><ele>330.0</ele><time>2026-04-11T14:57:53.576Z</time></trkpt><trkpt lat="44.0711429" lon="12.1395864"><ele>330.0</ele><time>2026-04-11T14:57:54.58Z</time></trkpt><trkpt lat="44.0711302" lon="12.1397489"><ele>330.0</ele><time>2026-04-11T14:57:55.588Z</time></trkpt><trkpt lat="44.071123" lon="12.1399026"><ele>330.0</ele><time>2026-04-11T14:57:56.577Z</time></trkpt><trkpt lat="44.0711163" lon="12.1400408"><ele>330.0</ele><time>2026-04-11T14:57:57.586Z</time></trkpt><trkpt lat="44.071118" lon="12.1401635"><ele>330.0</ele><time>2026-04-11T14:57:58.581Z</time></trkpt><trkpt lat="44.0711323" lon="12.1402671"><ele>330.0</ele><time>2026-04-11T14:57:59.585Z</time></trkpt><trkpt lat="44.0711587" lon="12.1403601"><ele>330.0</ele><time>2026-04-11T14:58:00.604Z</time></trkpt><trkpt lat="44.0712012" lon="12.1404488"><ele>330.0</ele><time>2026-04-11T14:58:01.578Z</time></trkpt><trkpt lat="44.0712548" lon="12.1405324"><ele>330.0</ele><time>2026-04-11T14:58:02.587Z</time></trkpt><trkpt lat="44.0713061" lon="12.1405979"><ele>330.0</ele><time>2026-04-11T14:58:03.575Z</time></trkpt><trkpt lat="44.0713678" lon="12.1406744"><ele>330.0</ele><time>2026-04-11T14:58:05.581Z</time></trkpt><trkpt lat="44.0713264" lon="12.1407837"><ele>330.0</ele><time>2026-04-11T14:58:08.596Z</time></trkpt><trkpt lat="44.0712004" lon="12.1408624"><ele>330.0</ele><time>2026-04-11T14:58:10.573Z</time></trkpt><trkpt lat="44.0711257" lon="12.1408831"><ele>330.0</ele><time>2026-04-11T14:58:11.592Z</time></trkpt><trkpt lat="44.0710492" lon="12.140851"><ele>330.0</ele><time>2026-04-11T14:58:12.587Z</time></trkpt><trkpt lat="44.0709795" lon="12.1407633"><ele>330.0</ele><time>2026-04-11T14:58:13.584Z</time></trkpt><trkpt lat="44.0709089" lon="12.1406199"><ele>330.0</ele><time>2026-04-11T14:58:14.592Z</time></trkpt><trkpt lat="44.0708418" lon="12.1404464"><ele>333.0</ele><time>2026-04-11T14:58:15.588Z</time></trkpt><trkpt lat="44.0707668" lon="12.1402591"><ele>336.0</ele><time>2026-04-11T14:58:16.594Z</time></trkpt><trkpt lat="44.0706854" lon="12.1400675"><ele>339.0</ele><time>2026-04-11T14:58:17.586Z</time></trkpt><trkpt lat="44.0705943" lon="12.139865"><ele>344.0</ele><time>2026-04-11T14:58:18.58Z</time></trkpt><trkpt lat="44.0704791" lon="12.1397002"><ele>349.0</ele><time>2026-04-11T14:58:19.612Z</time></trkpt><trkpt lat="44.0703595" lon="12.1395525"><ele>354.0</ele><time>2026-04-11T14:58:20.59Z</time></trkpt><trkpt lat="44.070275" lon="12.1394094"><ele>354.0</ele><time>2026-04-11T14:58:21.595Z</time></trkpt><trkpt lat="44.0702297" lon="12.1392461"><ele>354.0</ele><time>2026-04-11T14:58:22.597Z</time></trkpt><trkpt lat="44.0701907" lon="12.1390404"><ele>354.0</ele><time>2026-04-11T14:58:23.594Z</time></trkpt><trkpt lat="44.0701458" lon="12.1388385"><ele>354.0</ele><time>2026-04-11T14:58:24.596Z</time></trkpt><trkpt lat="44.0700833" lon="12.138625"><ele>356.3333333333333</ele><time>2026-04-11T14:58:25.594Z</time></trkpt><trkpt lat="44.0700077" lon="12.138402"><ele>358.66666666666663</ele><time>2026-04-11T14:58:26.59Z</time></trkpt><trkpt lat="44.0699549" lon="12.138199"><ele>361.0</ele><time>2026-04-11T14:58:27.594Z</time></trkpt><trkpt lat="44.0699243" lon="12.1380019"><ele>364.66666666666663</ele><time>2026-04-11T14:58:28.588Z</time></trkpt><trkpt lat="44.0699337" lon="12.1377914"><ele>368.3333333333333</ele><time>2026-04-11T14:58:29.6Z</time></trkpt><trkpt lat="44.0699717" lon="12.1375681"><ele>372.0</ele><time>2026-04-11T14:58:30.591Z</time></trkpt><trkpt lat="44.07003" lon="12.1373377"><ele>376.0</ele><time>2026-04-11T14:58:31.604Z</time></trkpt><trkpt lat="44.0701225" lon="12.1370884"><ele>380.0</ele><time>2026-04-11T14:58:32.57Z</time></trkpt><trkpt lat="44.0702063" lon="12.1368806"><ele>384.0</ele><time>2026-04-11T14:58:33.588Z</time></trkpt><trkpt lat="44.070268" lon="12.1367213"><ele>384.0</ele><time>2026-04-11T14:58:34.592Z</time></trkpt><trkpt lat="44.070291" lon="12.1366097"><ele>384.0</ele><time>2026-04-11T14:58:35.583Z</time></trkpt><trkpt lat="44.0702397" lon="12.1365032"><ele>384.0</ele><time>2026-04-11T14:58:37.589Z</time></trkpt><trkpt lat="44.0701758" lon="12.1364915"><ele>384.0</ele><time>2026-04-11T14:58:38.581Z</time></trkpt><trkpt lat="44.070103" lon="12.1365123"><ele>384.0</ele><time>2026-04-11T14:58:39.574Z</time></trkpt><trkpt lat="44.0700173" lon="12.1365607"><ele>384.0</ele><time>2026-04-11T14:58:40.578Z</time></trkpt><trkpt lat="44.0699216" lon="12.1366287"><ele>388.0</ele><time>2026-04-11T14:58:41.573Z</time></trkpt><trkpt lat="44.0698251" lon="12.1366995"><ele>392.0</ele><time>2026-04-11T14:58:42.588Z</time></trkpt><trkpt lat="44.0697257" lon="12.1367745"><ele>396.0</ele><time>2026-04-11T14:58:43.586Z</time></trkpt><trkpt lat="44.0696267" lon="12.1368421"><ele>400.0</ele><time>2026-04-11T14:58:44.595Z</time></trkpt><trkpt lat="44.0695283" lon="12.1369248"><ele>404.0</ele><time>2026-04-11T14:58:45.589Z</time></trkpt><trkpt lat="44.0694398" lon="12.1370161"><ele>404.0</ele><time>2026-04-11T14:58:46.581Z</time></trkpt><trkpt lat="44.0693678" lon="12.1371175"><ele>404.0</ele><time>2026-04-11T14:58:47.591Z</time></trkpt><trkpt lat="44.0693223" lon="12.1372267"><ele>404.0</ele><time>2026-04-11T14:58:48.591Z</time></trkpt><trkpt lat="44.0692785" lon="12.1372969"><ele>404.0</ele><time>2026-04-11T14:58:49.593Z</time></trkpt><trkpt lat="44.0691874" lon="12.1373171"><ele>404.0</ele><time>2026-04-11T14:58:51.586Z</time></trkpt><trkpt lat="44.069126" lon="12.1371478"><ele>404.0</ele><time>2026-04-11T14:58:53.58Z</time></trkpt><trkpt lat="44.0691191" lon="12.1369844"><ele>404.0</ele><time>2026-04-11T14:58:54.574Z</time></trkpt><trkpt lat="44.0691244" lon="12.1368229"><ele>404.0</ele><time>2026-04-11T14:58:55.576Z</time></trkpt><trkpt lat="44.069125" lon="12.1366718"><ele>404.0</ele><time>2026-04-11T14:58:56.577Z</time></trkpt><trkpt lat="44.0691318" lon="12.1365206"><ele>406.2</ele><time>2026-04-11T14:58:57.573Z</time></trkpt><trkpt lat="44.0691456" lon="12.1363802"><ele>408.4</ele><time>2026-04-11T14:58:58.579Z</time></trkpt><trkpt lat="44.0691833" lon="12.136239"><ele>410.6</ele><time>2026-04-11T14:58:59.584Z</time></trkpt><trkpt lat="44.0692573" lon="12.1361137"><ele>412.8</ele><time>2026-04-11T14:59:00.58Z</time></trkpt><trkpt lat="44.0693379" lon="12.136005"><ele>415.0</ele><time>2026-04-11T14:59:01.58Z</time></trkpt><trkpt lat="44.0694286" lon="12.1359151"><ele>415.00000000000006</ele><time>2026-04-11T14:59:02.591Z</time></trkpt><trkpt lat="44.0695044" lon="12.1358377"><ele>415.0</ele><time>2026-04-11T14:59:03.574Z</time></trkpt><trkpt lat="44.0695581" lon="12.1357668"><ele>415.0</ele><time>2026-04-11T14:59:04.589Z</time></trkpt><trkpt lat="44.0695216" lon="12.135664"><ele>415.0</ele><time>2026-04-11T14:59:06.582Z</time></trkpt><trkpt lat="44.0694352" lon="12.1356624"><ele>415.00000000000006</ele><time>2026-04-11T14:59:07.576Z</time></trkpt><trkpt lat="44.0693447" lon="12.135696"><ele>415.0</ele><time>2026-04-11T14:59:08.568Z</time></trkpt><trkpt lat="44.0692558" lon="12.135755"><ele>415.00000000000006</ele><time>2026-04-11T14:59:09.58Z</time></trkpt><trkpt lat="44.0691683" lon="12.135797"><ele>415.0</ele><time>2026-04-11T14:59:10.587Z</time></trkpt><trkpt lat="44.0690866" lon="12.1358409"><ele>415.0</ele><time>2026-04-11T14:59:11.583Z</time></trkpt><trkpt lat="44.0690053" lon="12.1358841"><ele>415.0</ele><time>2026-04-11T14:59:12.583Z</time></trkpt><trkpt lat="44.0689371" lon="12.1359354"><ele>415.00000000000006</ele><time>2026-04-11T14:59:13.579Z</time></trkpt><trkpt lat="44.0688782" lon="12.1360026"><ele>415.0</ele><time>2026-04-11T14:59:14.571Z</time></trkpt><trkpt lat="44.0688285" lon="12.1360814"><ele>417.50000000000006</ele><time>2026-04-11T14:59:15.577Z</time></trkpt><trkpt lat="44.0687834" lon="12.1361625"><ele>420.0</ele><time>2026-04-11T14:59:16.576Z</time></trkpt><trkpt lat="44.068736" lon="12.1362208"><ele>422.5</ele><time>2026-04-11T14:59:17.584Z</time></trkpt><trkpt lat="44.0686579" lon="12.1361875"><ele>425.0</ele><time>2026-04-11T14:59:19.58Z</time></trkpt><trkpt lat="44.0686532" lon="12.1360929"><ele>427.50000000000006</ele><time>2026-04-11T14:59:20.581Z</time></trkpt><trkpt lat="44.0686773" lon="12.1359811"><ele>430.0</ele><time>2026-04-11T14:59:21.574Z</time></trkpt><trkpt lat="44.0687098" lon="12.1358637"><ele>430.0</ele><time>2026-04-11T14:59:22.577Z</time></trkpt><trkpt lat="44.0687444" lon="12.1357414"><ele>430.0</ele><time>2026-04-11T14:59:23.58Z</time></trkpt><trkpt lat="44.0687883" lon="12.1356233"><ele>430.0</ele><time>2026-04-11T14:59:24.574Z</time></trkpt><trkpt lat="44.0688408" lon="12.1355245"><ele>430.0</ele><time>2026-04-11T14:59:25.586Z</time></trkpt><trkpt lat="44.0689102" lon="12.1354488"><ele>430.0</ele><time>2026-04-11T14:59:26.578Z</time></trkpt><trkpt lat="44.0689921" lon="12.1353875"><ele>430.00000000000006</ele><time>2026-04-11T14:59:27.589Z</time></trkpt><trkpt lat="44.069085" lon="12.1353439"><ele>430.0</ele><time>2026-04-11T14:59:28.578Z</time></trkpt><trkpt lat="44.0691877" lon="12.1353117"><ele>430.0</ele><time>2026-04-11T14:59:29.58Z</time></trkpt><trkpt lat="44.0692808" lon="12.1352865"><ele>430.0</ele><time>2026-04-11T14:59:30.575Z</time></trkpt><trkpt lat="44.0693442" lon="12.1352517"><ele>430.00000000000006</ele><time>2026-04-11T14:59:31.581Z</time></trkpt><trkpt lat="44.0693575" lon="12.1351474"><ele>430.0</ele><time>2026-04-11T14:59:34.586Z</time></trkpt><trkpt lat="44.0692559" lon="12.1351531"><ele>430.00000000000006</ele><time>2026-04-11T14:59:36.571Z</time></trkpt><trkpt lat="44.0691718" lon="12.135166"><ele>430.0</ele><time>2026-04-11T14:59:37.57Z</time></trkpt><trkpt lat="44.0690853" lon="12.1351799"><ele>430.0</ele><time>2026-04-11T14:59:38.569Z</time></trkpt><trkpt lat="44.0690014" lon="12.1351865"><ele>430.0</ele><time>2026-04-11T14:59:39.566Z</time></trkpt><trkpt lat="44.0689111" lon="12.1351854"><ele>430.00000000000006</ele><time>2026-04-11T14:59:40.568Z</time></trkpt><trkpt lat="44.0688154" lon="12.1351854"><ele>430.0</ele><time>2026-04-11T14:59:41.57Z</time></trkpt><trkpt lat="44.0687227" lon="12.1351749"><ele>430.00000000000006</ele><time>2026-04-11T14:59:42.563Z</time></trkpt><trkpt lat="44.0686363" lon="12.1351624"><ele>430.0</ele><time>2026-04-11T14:59:43.572Z</time></trkpt><trkpt lat="44.0685711" lon="12.135141"><ele>430.0</ele><time>2026-04-11T14:59:44.577Z</time></trkpt><trkpt lat="44.0684906" lon="12.1350935"><ele>430.0</ele><time>2026-04-11T14:59:46.572Z</time></trkpt><trkpt lat="44.0684676" lon="12.1350046"><ele>430.00000000000006</ele><time>2026-04-11T14:59:48.592Z</time></trkpt><trkpt lat="44.0684802" lon="12.134848"><ele>430.0</ele><time>2026-04-11T14:59:50.598Z</time></trkpt><trkpt lat="44.068488" lon="12.1347441"><ele>429.8</ele><time>2026-04-11T14:59:51.589Z</time></trkpt><trkpt lat="44.0684923" lon="12.1346313"><ele>429.6</ele><time>2026-04-11T14:59:52.574Z</time></trkpt><trkpt lat="44.0684906" lon="12.1345112"><ele>429.4</ele><time>2026-04-11T14:59:53.583Z</time></trkpt><trkpt lat="44.0684909" lon="12.1343764"><ele>429.2</ele><time>2026-04-11T14:59:54.576Z</time></trkpt><trkpt lat="44.0684888" lon="12.1342408"><ele>429.0</ele><time>2026-04-11T14:59:55.577Z</time></trkpt><trkpt lat="44.0684946" lon="12.1341112"><ele>430.0</ele><time>2026-04-11T14:59:56.578Z</time></trkpt><trkpt lat="44.068514" lon="12.1339829"><ele>431.0</ele><time>2026-04-11T14:59:57.569Z</time></trkpt><trkpt lat="44.0685429" lon="12.1338543"><ele>432.0</ele><time>2026-04-11T14:59:58.571Z</time></trkpt><trkpt lat="44.0685824" lon="12.1337277"><ele>433.0</ele><time>2026-04-11T14:59:59.568Z</time></trkpt><trkpt lat="44.0686172" lon="12.1335864"><ele>434.0</ele><time>2026-04-11T15:00:00.563Z</time></trkpt><trkpt lat="44.0686336" lon="12.1334302"><ele>434.0</ele><time>2026-04-11T15:00:01.562Z</time></trkpt><trkpt lat="44.0686251" lon="12.1332705"><ele>434.0</ele><time>2026-04-11T15:00:02.562Z</time></trkpt><trkpt lat="44.0686047" lon="12.1331132"><ele>434.0</ele><time>2026-04-11T15:00:03.566Z</time></trkpt><trkpt lat="44.0685666" lon="12.1329566"><ele>434.0</ele><time>2026-04-11T15:00:04.55Z</time></trkpt><trkpt lat="44.0685259" lon="12.1328106"><ele>435.2</ele><time>2026-04-11T15:00:05.557Z</time></trkpt><trkpt lat="44.0684773" lon="12.1326746"><ele>436.4</ele><time>2026-04-11T15:00:06.568Z</time></trkpt><trkpt lat="44.0684414" lon="12.1325426"><ele>437.6</ele><time>2026-04-11T15:00:07.569Z</time></trkpt><trkpt lat="44.0684208" lon="12.1324084"><ele>438.8</ele><time>2026-04-11T15:00:08.578Z</time></trkpt><trkpt lat="44.0684063" lon="12.132275"><ele>440.0</ele><time>2026-04-11T15:00:09.569Z</time></trkpt><trkpt lat="44.068402" lon="12.1321302"><ele>440.0</ele><time>2026-04-11T15:00:10.569Z</time></trkpt><trkpt lat="44.0684067" lon="12.1319871"><ele>440.0</ele><time>2026-04-11T15:00:11.575Z</time></trkpt><trkpt lat="44.0684174" lon="12.1318343"><ele>440.0</ele><time>2026-04-11T15:00:12.575Z</time></trkpt><trkpt lat="44.0684297" lon="12.1316716"><ele>440.0</ele><time>2026-04-11T15:00:13.576Z</time></trkpt><trkpt lat="44.0684363" lon="12.1315062"><ele>440.0</ele><time>2026-04-11T15:00:14.574Z</time></trkpt><trkpt lat="44.06843" lon="12.1313422"><ele>440.0</ele><time>2026-04-11T15:00:15.576Z</time></trkpt><trkpt lat="44.0684214" lon="12.1311828"><ele>440.0</ele><time>2026-04-11T15:00:16.578Z</time></trkpt><trkpt lat="44.0684211" lon="12.1310304"><ele>440.0</ele><time>2026-04-11T15:00:17.576Z</time></trkpt><trkpt lat="44.0684327" lon="12.1308907"><ele>440.0</ele><time>2026-04-11T15:00:18.577Z</time></trkpt><trkpt lat="44.0684553" lon="12.1307518"><ele>440.0</ele><time>2026-04-11T15:00:19.568Z</time></trkpt><trkpt lat="44.0684884" lon="12.1306145"><ele>440.0</ele><time>2026-04-11T15:00:20.573Z</time></trkpt><trkpt lat="44.0685199" lon="12.1304706"><ele>440.0</ele><time>2026-04-11T15:00:21.572Z</time></trkpt><trkpt lat="44.0685383" lon="12.1303245"><ele>440.0</ele><time>2026-04-11T15:00:22.567Z</time></trkpt><trkpt lat="44.0685521" lon="12.1301755"><ele>440.0</ele><time>2026-04-11T15:00:23.569Z</time></trkpt><trkpt lat="44.0685542" lon="12.1300222"><ele>441.0</ele><time>2026-04-11T15:00:24.569Z</time></trkpt><trkpt lat="44.068539" lon="12.1298734"><ele>442.0</ele><time>2026-04-11T15:00:25.565Z</time></trkpt><trkpt lat="44.0685158" lon="12.1297281"><ele>443.0</ele><time>2026-04-11T15:00:26.57Z</time></trkpt><trkpt lat="44.0684874" lon="12.1295797"><ele>444.0</ele><time>2026-04-11T15:00:27.568Z</time></trkpt><trkpt lat="44.0684578" lon="12.1294317"><ele>445.0</ele><time>2026-04-11T15:00:28.57Z</time></trkpt><trkpt lat="44.0684271" lon="12.1292867"><ele>445.0</ele><time>2026-04-11T15:00:29.571Z</time></trkpt><trkpt lat="44.0683879" lon="12.1291404"><ele>445.0</ele><time>2026-04-11T15:00:30.571Z</time></trkpt><trkpt lat="44.0683432" lon="12.1289955"><ele>445.0</ele><time>2026-04-11T15:00:31.574Z</time></trkpt><trkpt lat="44.0682942" lon="12.1288559"><ele>445.0</ele><time>2026-04-11T15:00:32.563Z</time></trkpt><trkpt lat="44.0682467" lon="12.1287211"><ele>445.0</ele><time>2026-04-11T15:00:33.564Z</time></trkpt><trkpt lat="44.0681923" lon="12.1285988"><ele>442.6666666666667</ele><time>2026-04-11T15:00:34.583Z</time></trkpt><trkpt lat="44.0681319" lon="12.1284896"><ele>440.33333333333337</ele><time>2026-04-11T15:00:35.558Z</time></trkpt><trkpt lat="44.0680759" lon="12.1283831"><ele>438.0</ele><time>2026-04-11T15:00:36.586Z</time></trkpt><trkpt lat="44.0680302" lon="12.1282894"><ele>435.66666666666663</ele><time>2026-04-11T15:00:37.563Z</time></trkpt><trkpt lat="44.0680019" lon="12.1281838"><ele>433.3333333333333</ele><time>2026-04-11T15:00:38.573Z</time></trkpt><trkpt lat="44.0680099" lon="12.1280764"><ele>431.0</ele><time>2026-04-11T15:00:39.581Z</time></trkpt><trkpt lat="44.0680682" lon="12.1279822"><ele>432.4</ele><time>2026-04-11T15:00:40.589Z</time></trkpt><trkpt lat="44.0681549" lon="12.1279094"><ele>433.8</ele><time>2026-04-11T15:00:41.586Z</time></trkpt><trkpt lat="44.0682702" lon="12.1278529"><ele>435.19999999999993</ele><time>2026-04-11T15:00:42.596Z</time></trkpt><trkpt lat="44.068376" lon="12.1277882"><ele>436.59999999999997</ele><time>2026-04-11T15:00:43.594Z</time></trkpt><trkpt lat="44.0684681" lon="12.1277049"><ele>438.0</ele><time>2026-04-11T15:00:44.586Z</time></trkpt><trkpt lat="44.0685546" lon="12.1276002"><ele>438.0</ele><time>2026-04-11T15:00:45.585Z</time></trkpt><trkpt lat="44.0686386" lon="12.1274788"><ele>438.0</ele><time>2026-04-11T15:00:46.57Z</time></trkpt><trkpt lat="44.0687168" lon="12.1273387"><ele>438.0</ele><time>2026-04-11T15:00:47.578Z</time></trkpt><trkpt lat="44.068787" lon="12.127192"><ele>438.0</ele><time>2026-04-11T15:00:48.589Z</time></trkpt><trkpt lat="44.0688548" lon="12.127048"><ele>434.25</ele><time>2026-04-11T15:00:49.592Z</time></trkpt><trkpt lat="44.068919" lon="12.1269029"><ele>430.5</ele><time>2026-04-11T15:00:50.589Z</time></trkpt><trkpt lat="44.0689755" lon="12.1267652"><ele>426.75</ele><time>2026-04-11T15:00:51.592Z</time></trkpt><trkpt lat="44.069022" lon="12.1266251"><ele>423.0</ele><time>2026-04-11T15:00:52.584Z</time></trkpt><trkpt lat="44.0690562" lon="12.1264858"><ele>421.4</ele><time>2026-04-11T15:00:53.587Z</time></trkpt><trkpt lat="44.0690724" lon="12.1263428"><ele>419.79999999999995</ele><time>2026-04-11T15:00:54.581Z</time></trkpt><trkpt lat="44.0690779" lon="12.1261944"><ele>418.2</ele><time>2026-04-11T15:00:55.585Z</time></trkpt><trkpt lat="44.0690773" lon="12.1260519"><ele>416.6</ele><time>2026-04-11T15:00:56.579Z</time></trkpt><trkpt lat="44.0690678" lon="12.1259144"><ele>415.0</ele><time>2026-04-11T15:00:57.585Z</time></trkpt><trkpt lat="44.0690485" lon="12.1257721"><ele>415.00000000000006</ele><time>2026-04-11T15:00:58.588Z</time></trkpt><trkpt lat="44.0690323" lon="12.1256351"><ele>415.0</ele><time>2026-04-11T15:00:59.586Z</time></trkpt><trkpt lat="44.069017" lon="12.1255175"><ele>415.0</ele><time>2026-04-11T15:01:00.579Z</time></trkpt><trkpt lat="44.0690122" lon="12.125402"><ele>415.0</ele><time>2026-04-11T15:01:01.581Z</time></trkpt><trkpt lat="44.0690193" lon="12.1252923"><ele>415.00000000000006</ele><time>2026-04-11T15:01:02.564Z</time></trkpt><trkpt lat="44.0690429" lon="12.1251833"><ele>415.0</ele><time>2026-04-11T15:01:03.592Z</time></trkpt><trkpt lat="44.0690744" lon="12.1250837"><ele>418.33333333333337</ele><time>2026-04-11T15:01:04.577Z</time></trkpt><trkpt lat="44.0691113" lon="12.1249957"><ele>421.6666666666667</ele><time>2026-04-11T15:01:05.595Z</time></trkpt><trkpt lat="44.0691564" lon="12.1249136"><ele>425.0</ele><time>2026-04-11T15:01:06.592Z</time></trkpt><trkpt lat="44.0691955" lon="12.1248448"><ele>428.33333333333337</ele><time>2026-04-11T15:01:07.589Z</time></trkpt><trkpt lat="44.0692715" lon="12.12473"><ele>431.6666666666667</ele><time>2026-04-11T15:01:09.593Z</time></trkpt><trkpt lat="44.0692776" lon="12.1245856"><ele>435.0</ele><time>2026-04-11T15:01:11.588Z</time></trkpt><trkpt lat="44.0692589" lon="12.1244995"><ele>435.0</ele><time>2026-04-11T15:01:12.604Z</time></trkpt><trkpt lat="44.0692312" lon="12.1244046"><ele>435.0</ele><time>2026-04-11T15:01:13.604Z</time></trkpt><trkpt lat="44.0692021" lon="12.1242997"><ele>435.0</ele><time>2026-04-11T15:01:14.601Z</time></trkpt><trkpt lat="44.0691678" lon="12.1241823"><ele>435.0</ele><time>2026-04-11T15:01:15.613Z</time></trkpt><trkpt lat="44.0691299" lon="12.1240567"><ele>435.0</ele><time>2026-04-11T15:01:16.604Z</time></trkpt><trkpt lat="44.0690954" lon="12.1239302"><ele>435.0</ele><time>2026-04-11T15:01:17.688Z</time></trkpt><trkpt lat="44.0690552" lon="12.1238015"><ele>434.2</ele><time>2026-04-11T15:01:18.689Z</time></trkpt><trkpt lat="44.0690089" lon="12.123672"><ele>433.4</ele><time>2026-04-11T15:01:19.691Z</time></trkpt><trkpt lat="44.0689608" lon="12.1235415"><ele>432.6</ele><time>2026-04-11T15:01:20.685Z</time></trkpt><trkpt lat="44.0689089" lon="12.1234121"><ele>431.8</ele><time>2026-04-11T15:01:21.692Z</time></trkpt><trkpt lat="44.068852" lon="12.1232846"><ele>431.0</ele><time>2026-04-11T15:01:22.681Z</time></trkpt><trkpt lat="44.0687934" lon="12.1231582"><ele>431.0</ele><time>2026-04-11T15:01:23.683Z</time></trkpt><trkpt lat="44.0687283" lon="12.1230118"><ele>431.0</ele><time>2026-04-11T15:01:24.678Z</time></trkpt><trkpt lat="44.0686884" lon="12.1228982"><ele>431.0</ele><time>2026-04-11T15:01:25.684Z</time></trkpt><trkpt lat="44.0686692" lon="12.1227956"><ele>431.0</ele><time>2026-04-11T15:01:26.68Z</time></trkpt><trkpt lat="44.0686616" lon="12.1226777"><ele>431.0</ele><time>2026-04-11T15:01:27.677Z</time></trkpt><trkpt lat="44.0686619" lon="12.1225687"><ele>431.0</ele><time>2026-04-11T15:01:28.675Z</time></trkpt><trkpt lat="44.0686647" lon="12.1224574"><ele>431.0</ele><time>2026-04-11T15:01:29.68Z</time></trkpt><trkpt lat="44.0686552" lon="12.1223134"><ele>431.0</ele><time>2026-04-11T15:01:30.683Z</time></trkpt><trkpt lat="44.0686485" lon="12.1221817"><ele>431.0</ele><time>2026-04-11T15:01:31.698Z</time></trkpt><trkpt lat="44.0686385" lon="12.1220544"><ele>431.0</ele><time>2026-04-11T15:01:32.691Z</time></trkpt><trkpt lat="44.0686261" lon="12.1219295"><ele>430.99999999999994</ele><time>2026-04-11T15:01:33.693Z</time></trkpt><trkpt lat="44.0686109" lon="12.1218058"><ele>431.0</ele><time>2026-04-11T15:01:34.688Z</time></trkpt><trkpt lat="44.0685975" lon="12.121689"><ele>431.0</ele><time>2026-04-11T15:01:35.687Z</time></trkpt><trkpt lat="44.0685814" lon="12.1215658"><ele>431.0</ele><time>2026-04-11T15:01:36.714Z</time></trkpt><trkpt lat="44.0685601" lon="12.1214487"><ele>430.99999999999994</ele><time>2026-04-11T15:01:37.684Z</time></trkpt><trkpt lat="44.0685334" lon="12.1213344"><ele>431.0</ele><time>2026-04-11T15:01:38.676Z</time></trkpt><trkpt lat="44.0685093" lon="12.1212235"><ele>430.66666666666663</ele><time>2026-04-11T15:01:39.675Z</time></trkpt><trkpt lat="44.068483" lon="12.1211078"><ele>430.3333333333333</ele><time>2026-04-11T15:01:40.671Z</time></trkpt><trkpt lat="44.0684552" lon="12.1209985"><ele>430.0</ele><time>2026-04-11T15:01:41.676Z</time></trkpt><trkpt lat="44.0684263" lon="12.1208988"><ele>429.66666666666663</ele><time>2026-04-11T15:01:42.687Z</time></trkpt><trkpt lat="44.0684058" lon="12.1208088"><ele>429.3333333333333</ele><time>2026-04-11T15:01:43.7Z</time></trkpt><trkpt lat="44.0683691" lon="12.1206535"><ele>429.0</ele><time>2026-04-11T15:01:45.702Z</time></trkpt><trkpt lat="44.0682957" lon="12.120532"><ele>425.3333333333333</ele><time>2026-04-11T15:01:47.679Z</time></trkpt><trkpt lat="44.0682408" lon="12.120481"><ele>421.66666666666663</ele><time>2026-04-11T15:01:48.691Z</time></trkpt><trkpt lat="44.0681805" lon="12.1204312"><ele>418.0</ele><time>2026-04-11T15:01:49.68Z</time></trkpt><trkpt lat="44.068124" lon="12.1203879"><ele>414.3333333333333</ele><time>2026-04-11T15:01:50.706Z</time></trkpt><trkpt lat="44.068022" lon="12.120337"><ele>410.66666666666663</ele><time>2026-04-11T15:01:52.693Z</time></trkpt><trkpt lat="44.0679319" lon="12.1204014"><ele>407.0</ele><time>2026-04-11T15:01:54.671Z</time></trkpt><trkpt lat="44.067878" lon="12.1204511"><ele>407.0</ele><time>2026-04-11T15:01:55.674Z</time></trkpt><trkpt lat="44.067846" lon="12.1206045"><ele>407.0</ele><time>2026-04-11T15:01:57.67Z</time></trkpt><trkpt lat="44.0678063" lon="12.1207143"><ele>407.0</ele><time>2026-04-11T15:01:59.67Z</time></trkpt><trkpt lat="44.0677472" lon="12.1207579"><ele>407.0</ele><time>2026-04-11T15:02:01.674Z</time></trkpt><trkpt lat="44.0676732" lon="12.1207493"><ele>407.0</ele><time>2026-04-11T15:02:02.671Z</time></trkpt><trkpt lat="44.0675968" lon="12.1206376"><ele>407.00000000000006</ele><time>2026-04-11T15:02:04.659Z</time></trkpt><trkpt lat="44.0675669" lon="12.1205499"><ele>407.0</ele><time>2026-04-11T15:02:05.676Z</time></trkpt><trkpt lat="44.0675396" lon="12.1204631"><ele>407.0</ele><time>2026-04-11T15:02:06.676Z</time></trkpt><trkpt lat="44.0675104" lon="12.1203704"><ele>407.0</ele><time>2026-04-11T15:02:07.692Z</time></trkpt><trkpt lat="44.0674582" lon="12.1202864"><ele>407.0</ele><time>2026-04-11T15:02:08.682Z</time></trkpt><trkpt lat="44.0673968" lon="12.1202361"><ele>407.00000000000006</ele><time>2026-04-11T15:02:09.688Z</time></trkpt><trkpt lat="44.0673259" lon="12.12019"><ele>407.0</ele><time>2026-04-11T15:02:10.67Z</time></trkpt><trkpt lat="44.0672438" lon="12.1201654"><ele>407.3333333333333</ele><time>2026-04-11T15:02:11.679Z</time></trkpt><trkpt lat="44.0671636" lon="12.1201417"><ele>407.66666666666663</ele><time>2026-04-11T15:02:12.673Z</time></trkpt><trkpt lat="44.067086" lon="12.120109"><ele>408.0</ele><time>2026-04-11T15:02:13.67Z</time></trkpt><trkpt lat="44.0670262" lon="12.1200647"><ele>408.33333333333337</ele><time>2026-04-11T15:02:14.686Z</time></trkpt><trkpt lat="44.0669469" lon="12.1199913"><ele>408.6666666666667</ele><time>2026-04-11T15:02:15.678Z</time></trkpt><trkpt lat="44.0669029" lon="12.1199106"><ele>409.0</ele><time>2026-04-11T15:02:16.665Z</time></trkpt><trkpt lat="44.0668834" lon="12.1197996"><ele>409.00000000000006</ele><time>2026-04-11T15:02:17.671Z</time></trkpt><trkpt lat="44.066895" lon="12.1196961"><ele>409.0</ele><time>2026-04-11T15:02:18.576Z</time></trkpt><trkpt lat="44.0668988" lon="12.1195984"><ele>409.0</ele><time>2026-04-11T15:02:19.574Z</time></trkpt><trkpt lat="44.0668511" lon="12.1194393"><ele>409.0</ele><time>2026-04-11T15:02:21.58Z</time></trkpt><trkpt lat="44.0667919" lon="12.1193816"><ele>409.00000000000006</ele><time>2026-04-11T15:02:22.59Z</time></trkpt><trkpt lat="44.0667197" lon="12.1193425"><ele>409.0</ele><time>2026-04-11T15:02:23.58Z</time></trkpt><trkpt lat="44.0666401" lon="12.1193239"><ele>412.4</ele><time>2026-04-11T15:02:24.589Z</time></trkpt><trkpt lat="44.0665504" lon="12.1193505"><ele>415.79999999999995</ele><time>2026-04-11T15:02:25.591Z</time></trkpt><trkpt lat="44.0664618" lon="12.1194191"><ele>419.20000000000005</ele><time>2026-04-11T15:02:26.587Z</time></trkpt><trkpt lat="44.0663829" lon="12.1195014"><ele>422.6</ele><time>2026-04-11T15:02:27.587Z</time></trkpt><trkpt lat="44.0663122" lon="12.1195777"><ele>426.0</ele><time>2026-04-11T15:02:28.582Z</time></trkpt><trkpt lat="44.06624" lon="12.1196495"><ele>426.0</ele><time>2026-04-11T15:02:29.58Z</time></trkpt><trkpt lat="44.0661671" lon="12.1197129"><ele>426.0</ele><time>2026-04-11T15:02:30.582Z</time></trkpt><trkpt lat="44.066087" lon="12.1197679"><ele>426.0</ele><time>2026-04-11T15:02:31.581Z</time></trkpt><trkpt lat="44.0660083" lon="12.1198131"><ele>426.0</ele><time>2026-04-11T15:02:32.582Z</time></trkpt><trkpt lat="44.065929" lon="12.1198615"><ele>426.0</ele><time>2026-04-11T15:02:33.584Z</time></trkpt><trkpt lat="44.0658517" lon="12.1199114"><ele>426.0</ele><time>2026-04-11T15:02:34.577Z</time></trkpt><trkpt lat="44.0657755" lon="12.1199544"><ele>426.6666666666667</ele><time>2026-04-11T15:02:35.572Z</time></trkpt><trkpt lat="44.0656995" lon="12.120002"><ele>427.33333333333337</ele><time>2026-04-11T15:02:36.582Z</time></trkpt><trkpt lat="44.0656312" lon="12.1200479"><ele>428.0</ele><time>2026-04-11T15:02:37.576Z</time></trkpt><trkpt lat="44.0655702" lon="12.1200944"><ele>428.6666666666667</ele><time>2026-04-11T15:02:38.59Z</time></trkpt><trkpt lat="44.0655074" lon="12.120134"><ele>429.33333333333337</ele><time>2026-04-11T15:02:39.585Z</time></trkpt><trkpt lat="44.065434" lon="12.120173"><ele>430.0</ele><time>2026-04-11T15:02:40.582Z</time></trkpt><trkpt lat="44.0653525" lon="12.1202179"><ele>430.00000000000006</ele><time>2026-04-11T15:02:41.579Z</time></trkpt><trkpt lat="44.0652698" lon="12.1202498"><ele>430.0</ele><time>2026-04-11T15:02:42.572Z</time></trkpt><trkpt lat="44.0651888" lon="12.1202609"><ele>430.0</ele><time>2026-04-11T15:02:43.582Z</time></trkpt><trkpt lat="44.065101" lon="12.120247"><ele>430.0</ele><time>2026-04-11T15:02:44.575Z</time></trkpt><trkpt lat="44.0650101" lon="12.120217"><ele>430.00000000000006</ele><time>2026-04-11T15:02:45.576Z</time></trkpt><trkpt lat="44.0649222" lon="12.1201687"><ele>430.0</ele><time>2026-04-11T15:02:46.572Z</time></trkpt><trkpt lat="44.0648366" lon="12.1201094"><ele>430.0</ele><time>2026-04-11T15:02:47.576Z</time></trkpt><trkpt lat="44.0647499" lon="12.1200381"><ele>430.0</ele><time>2026-04-11T15:02:48.574Z</time></trkpt><trkpt lat="44.0646668" lon="12.1199571"><ele>430.0</ele><time>2026-04-11T15:02:49.583Z</time></trkpt><trkpt lat="44.0645857" lon="12.1198671"><ele>430.0</ele><time>2026-04-11T15:02:50.592Z</time></trkpt><trkpt lat="44.0645045" lon="12.1197718"><ele>430.0</ele><time>2026-04-11T15:02:51.583Z</time></trkpt><trkpt lat="44.064431" lon="12.1196739"><ele>430.0</ele><time>2026-04-11T15:02:52.593Z</time></trkpt><trkpt lat="44.0643638" lon="12.1195767"><ele>430.0</ele><time>2026-04-11T15:02:53.578Z</time></trkpt><trkpt lat="44.0643117" lon="12.1194779"><ele>430.0</ele><time>2026-04-11T15:02:54.573Z</time></trkpt><trkpt lat="44.064276" lon="12.1193743"><ele>430.0</ele><time>2026-04-11T15:02:55.59Z</time></trkpt><trkpt lat="44.0642763" lon="12.1192498"><ele>430.0</ele><time>2026-04-11T15:02:56.577Z</time></trkpt><trkpt lat="44.0642931" lon="12.1191223"><ele>430.6</ele><time>2026-04-11T15:02:57.583Z</time></trkpt><trkpt lat="44.0643146" lon="12.1189903"><ele>431.2</ele><time>2026-04-11T15:02:58.583Z</time></trkpt><trkpt lat="44.0643288" lon="12.1188453"><ele>431.79999999999995</ele><time>2026-04-11T15:02:59.581Z</time></trkpt><trkpt lat="44.064322" lon="12.1186967"><ele>432.4</ele><time>2026-04-11T15:03:00.588Z</time></trkpt><trkpt lat="44.0643043" lon="12.118553"><ele>433.0</ele><time>2026-04-11T15:03:01.581Z</time></trkpt><trkpt lat="44.0642653" lon="12.118432"><ele>433.0</ele><time>2026-04-11T15:03:02.58Z</time></trkpt><trkpt lat="44.0642205" lon="12.1183157"><ele>432.99999999999994</ele><time>2026-04-11T15:03:03.588Z</time></trkpt><trkpt lat="44.0641795" lon="12.1181945"><ele>432.99999999999994</ele><time>2026-04-11T15:03:04.588Z</time></trkpt><trkpt lat="44.0641445" lon="12.1180754"><ele>433.0</ele><time>2026-04-11T15:03:05.584Z</time></trkpt><trkpt lat="44.0641173" lon="12.1179567"><ele>433.0</ele><time>2026-04-11T15:03:06.593Z</time></trkpt><trkpt lat="44.064101" lon="12.1178362"><ele>432.50000000000006</ele><time>2026-04-11T15:03:07.584Z</time></trkpt><trkpt lat="44.0640843" lon="12.1177273"><ele>432.0</ele><time>2026-04-11T15:03:08.595Z</time></trkpt><trkpt lat="44.0639979" lon="12.1176005"><ele>431.5</ele><time>2026-04-11T15:03:10.596Z</time></trkpt><trkpt lat="44.063925" lon="12.1175837"><ele>431.0</ele><time>2026-04-11T15:03:11.587Z</time></trkpt><trkpt lat="44.0638433" lon="12.1175894"><ele>430.50000000000006</ele><time>2026-04-11T15:03:12.598Z</time></trkpt><trkpt lat="44.0637605" lon="12.1175865"><ele>430.0</ele><time>2026-04-11T15:03:13.59Z</time></trkpt><trkpt lat="44.0636803" lon="12.1175646"><ele>430.00000000000006</ele><time>2026-04-11T15:03:14.59Z</time></trkpt><trkpt lat="44.0635984" lon="12.1175281"><ele>430.0</ele><time>2026-04-11T15:03:15.579Z</time></trkpt><trkpt lat="44.063521" lon="12.1174719"><ele>430.0</ele><time>2026-04-11T15:03:16.571Z</time></trkpt><trkpt lat="44.0634497" lon="12.1174083"><ele>430.0</ele><time>2026-04-11T15:03:17.589Z</time></trkpt><trkpt lat="44.0633821" lon="12.1173276"><ele>430.00000000000006</ele><time>2026-04-11T15:03:18.576Z</time></trkpt><trkpt lat="44.0633223" lon="12.1172342"><ele>430.0</ele><time>2026-04-11T15:03:19.585Z</time></trkpt><trkpt lat="44.0632631" lon="12.1171398"><ele>430.2</ele><time>2026-04-11T15:03:20.592Z</time></trkpt><trkpt lat="44.0632015" lon="12.1170387"><ele>430.4</ele><time>2026-04-11T15:03:21.589Z</time></trkpt><trkpt lat="44.0631362" lon="12.1169288"><ele>430.6</ele><time>2026-04-11T15:03:22.587Z</time></trkpt><trkpt lat="44.0630699" lon="12.1168166"><ele>430.8</ele><time>2026-04-11T15:03:23.59Z</time></trkpt><trkpt lat="44.0630078" lon="12.1167096"><ele>431.0</ele><time>2026-04-11T15:03:24.583Z</time></trkpt><trkpt lat="44.0629442" lon="12.1166079"><ele>430.6</ele><time>2026-04-11T15:03:25.582Z</time></trkpt><trkpt lat="44.0628829" lon="12.116512"><ele>430.20000000000005</ele><time>2026-04-11T15:03:26.591Z</time></trkpt><trkpt lat="44.0628165" lon="12.1164155"><ele>429.79999999999995</ele><time>2026-04-11T15:03:27.587Z</time></trkpt><trkpt lat="44.062743" lon="12.1163251"><ele>429.4</ele><time>2026-04-11T15:03:28.585Z</time></trkpt><trkpt lat="44.0626637" lon="12.1162386"><ele>429.0</ele><time>2026-04-11T15:03:29.589Z</time></trkpt><trkpt lat="44.0625793" lon="12.1161674"><ele>429.0</ele><time>2026-04-11T15:03:30.593Z</time></trkpt><trkpt lat="44.0624896" lon="12.1161116"><ele>429.0</ele><time>2026-04-11T15:03:31.59Z</time></trkpt><trkpt lat="44.0623979" lon="12.1160958"><ele>429.0</ele><time>2026-04-11T15:03:32.596Z</time></trkpt><trkpt lat="44.0623033" lon="12.1161133"><ele>429.0</ele><time>2026-04-11T15:03:33.58Z</time></trkpt><trkpt lat="44.062215" lon="12.1161618"><ele>429.0</ele><time>2026-04-11T15:03:34.574Z</time></trkpt><trkpt lat="44.0621377" lon="12.1162315"><ele>430.6666666666667</ele><time>2026-04-11T15:03:35.565Z</time></trkpt><trkpt lat="44.0620612" lon="12.1163079"><ele>432.33333333333337</ele><time>2026-04-11T15:03:36.573Z</time></trkpt><trkpt lat="44.061989" lon="12.1163846"><ele>434.0</ele><time>2026-04-11T15:03:37.572Z</time></trkpt><trkpt lat="44.0619252" lon="12.1164504"><ele>435.6666666666667</ele><time>2026-04-11T15:03:38.565Z</time></trkpt><trkpt lat="44.0618669" lon="12.1164945"><ele>437.33333333333337</ele><time>2026-04-11T15:03:39.565Z</time></trkpt><trkpt lat="44.0617698" lon="12.1165101"><ele>439.0</ele><time>2026-04-11T15:03:41.575Z</time></trkpt><trkpt lat="44.0617601" lon="12.1163514"><ele>439.00000000000006</ele><time>2026-04-11T15:03:43.568Z</time></trkpt><trkpt lat="44.0617778" lon="12.1162382"><ele>439.0</ele><time>2026-04-11T15:03:44.58Z</time></trkpt><trkpt lat="44.0617952" lon="12.1161233"><ele>439.0</ele><time>2026-04-11T15:03:45.585Z</time></trkpt><trkpt lat="44.0618047" lon="12.1160013"><ele>439.0</ele><time>2026-04-11T15:03:46.578Z</time></trkpt><trkpt lat="44.061806" lon="12.115888"><ele>439.00000000000006</ele><time>2026-04-11T15:03:47.58Z</time></trkpt><trkpt lat="44.0617918" lon="12.115791"><ele>439.0</ele><time>2026-04-11T15:03:48.583Z</time></trkpt><trkpt lat="44.0617147" lon="12.1156637"><ele>439.00000000000006</ele><time>2026-04-11T15:03:50.588Z</time></trkpt><trkpt lat="44.0616537" lon="12.1156166"><ele>439.0</ele><time>2026-04-11T15:03:51.58Z</time></trkpt><trkpt lat="44.0615881" lon="12.1155749"><ele>439.0</ele><time>2026-04-11T15:03:52.582Z</time></trkpt><trkpt lat="44.0615145" lon="12.1155274"><ele>439.0</ele><time>2026-04-11T15:03:53.581Z</time></trkpt><trkpt lat="44.0614284" lon="12.1154748"><ele>439.00000000000006</ele><time>2026-04-11T15:03:54.589Z</time></trkpt><trkpt lat="44.0613403" lon="12.1154123"><ele>439.0</ele><time>2026-04-11T15:03:55.581Z</time></trkpt><trkpt lat="44.0612534" lon="12.1153544"><ele>439.00000000000006</ele><time>2026-04-11T15:03:56.59Z</time></trkpt><trkpt lat="44.0611746" lon="12.115298"><ele>439.0</ele><time>2026-04-11T15:03:57.581Z</time></trkpt><trkpt lat="44.0611003" lon="12.1152287"><ele>439.0</ele><time>2026-04-11T15:03:58.576Z</time></trkpt><trkpt lat="44.0610339" lon="12.1151515"><ele>439.0</ele><time>2026-04-11T15:03:59.585Z</time></trkpt><trkpt lat="44.0609729" lon="12.1150638"><ele>439.00000000000006</ele><time>2026-04-11T15:04:00.584Z</time></trkpt><trkpt lat="44.0609179" lon="12.114966"><ele>439.0</ele><time>2026-04-11T15:04:01.59Z</time></trkpt><trkpt lat="44.0608672" lon="12.1148647"><ele>439.0</ele><time>2026-04-11T15:04:02.59Z</time></trkpt><trkpt lat="44.060821" lon="12.1147638"><ele>439.0</ele><time>2026-04-11T15:04:03.588Z</time></trkpt><trkpt lat="44.0607808" lon="12.1146628"><ele>439.0</ele><time>2026-04-11T15:04:04.586Z</time></trkpt><trkpt lat="44.0607475" lon="12.1145771"><ele>439.0</ele><time>2026-04-11T15:04:05.593Z</time></trkpt><trkpt lat="44.0606811" lon="12.1144497"><ele>439.0</ele><time>2026-04-11T15:04:07.593Z</time></trkpt><trkpt lat="44.0605766" lon="12.1144083"><ele>440.1666666666667</ele><time>2026-04-11T15:04:09.591Z</time></trkpt><trkpt lat="44.0605098" lon="12.1144173"><ele>441.33333333333337</ele><time>2026-04-11T15:04:10.604Z</time></trkpt><trkpt lat="44.0604354" lon="12.1144417"><ele>442.5</ele><time>2026-04-11T15:04:11.622Z</time></trkpt><trkpt lat="44.0603524" lon="12.1144752"><ele>443.66666666666663</ele><time>2026-04-11T15:04:12.577Z</time></trkpt><trkpt lat="44.0602697" lon="12.1145067"><ele>444.8333333333333</ele><time>2026-04-11T15:04:13.591Z</time></trkpt><trkpt lat="44.0601889" lon="12.1145347"><ele>446.0</ele><time>2026-04-11T15:04:14.586Z</time></trkpt><trkpt lat="44.0601075" lon="12.1145652"><ele>446.0</ele><time>2026-04-11T15:04:15.578Z</time></trkpt><trkpt lat="44.0600212" lon="12.1145967"><ele>446.0</ele><time>2026-04-11T15:04:16.591Z</time></trkpt><trkpt lat="44.0599303" lon="12.1146259"><ele>446.0</ele><time>2026-04-11T15:04:17.586Z</time></trkpt><trkpt lat="44.0598289" lon="12.1146496"><ele>446.0</ele><time>2026-04-11T15:04:18.586Z</time></trkpt><trkpt lat="44.0597217" lon="12.1146731"><ele>446.0</ele><time>2026-04-11T15:04:19.584Z</time></trkpt><trkpt lat="44.0596153" lon="12.1147063"><ele>446.20000000000005</ele><time>2026-04-11T15:04:20.584Z</time></trkpt><trkpt lat="44.0595113" lon="12.1147518"><ele>446.40000000000003</ele><time>2026-04-11T15:04:21.589Z</time></trkpt><trkpt lat="44.0594114" lon="12.1148051"><ele>446.6</ele><time>2026-04-11T15:04:22.585Z</time></trkpt><trkpt lat="44.0593054" lon="12.1148657"><ele>446.8</ele><time>2026-04-11T15:04:23.59Z</time></trkpt><trkpt lat="44.0592017" lon="12.114934"><ele>447.0</ele><time>2026-04-11T15:04:24.587Z</time></trkpt><trkpt lat="44.0590945" lon="12.1149963"><ele>445.75</ele><time>2026-04-11T15:04:25.591Z</time></trkpt><trkpt lat="44.0589862" lon="12.1150564"><ele>444.5</ele><time>2026-04-11T15:04:26.588Z</time></trkpt><trkpt lat="44.058876" lon="12.1151115"><ele>443.25</ele><time>2026-04-11T15:04:27.591Z</time></trkpt><trkpt lat="44.0587666" lon="12.115171"><ele>442.0</ele><time>2026-04-11T15:04:28.586Z</time></trkpt><trkpt lat="44.0586615" lon="12.1152385"><ele>442.0</ele><time>2026-04-11T15:04:29.594Z</time></trkpt><trkpt lat="44.0585571" lon="12.1153138"><ele>442.0</ele><time>2026-04-11T15:04:30.596Z</time></trkpt><trkpt lat="44.0584543" lon="12.1153907"><ele>442.0</ele><time>2026-04-11T15:04:31.596Z</time></trkpt><trkpt lat="44.0583522" lon="12.1154671"><ele>442.0</ele><time>2026-04-11T15:04:32.589Z</time></trkpt><trkpt lat="44.058252" lon="12.1155323"><ele>440.8</ele><time>2026-04-11T15:04:33.591Z</time></trkpt><trkpt lat="44.0581543" lon="12.1155905"><ele>439.6</ele><time>2026-04-11T15:04:34.588Z</time></trkpt><trkpt lat="44.0580569" lon="12.1156514"><ele>438.40000000000003</ele><time>2026-04-11T15:04:35.591Z</time></trkpt><trkpt lat="44.0579694" lon="12.1157163"><ele>437.20000000000005</ele><time>2026-04-11T15:04:36.585Z</time></trkpt><trkpt lat="44.0578924" lon="12.1157828"><ele>436.0</ele><time>2026-04-11T15:04:37.58Z</time></trkpt><trkpt lat="44.0578193" lon="12.1158588"><ele>436.0</ele><time>2026-04-11T15:04:38.582Z</time></trkpt><trkpt lat="44.0577462" lon="12.115947"><ele>436.0</ele><time>2026-04-11T15:04:39.592Z</time></trkpt><trkpt lat="44.0576709" lon="12.1160424"><ele>436.0</ele><time>2026-04-11T15:04:40.587Z</time></trkpt><trkpt lat="44.0575887" lon="12.1161231"><ele>436.0</ele><time>2026-04-11T15:04:41.608Z</time></trkpt><trkpt lat="44.057499" lon="12.1161951"><ele>436.0</ele><time>2026-04-11T15:04:42.586Z</time></trkpt><trkpt lat="44.0574029" lon="12.1162534"><ele>434.00000000000006</ele><time>2026-04-11T15:04:43.596Z</time></trkpt><trkpt lat="44.0573152" lon="12.1163141"><ele>432.0</ele><time>2026-04-11T15:04:44.581Z</time></trkpt><trkpt lat="44.0572401" lon="12.1163702"><ele>430.0</ele><time>2026-04-11T15:04:45.584Z</time></trkpt><trkpt lat="44.05718" lon="12.1164433"><ele>428.0</ele><time>2026-04-11T15:04:46.605Z</time></trkpt><trkpt lat="44.0571342" lon="12.1165337"><ele>426.00000000000006</ele><time>2026-04-11T15:04:47.593Z</time></trkpt><trkpt lat="44.0571055" lon="12.1166372"><ele>424.0</ele><time>2026-04-11T15:04:48.601Z</time></trkpt><trkpt lat="44.0570945" lon="12.1167485"><ele>424.0</ele><time>2026-04-11T15:04:49.596Z</time></trkpt><trkpt lat="44.0571015" lon="12.1168655"><ele>424.0</ele><time>2026-04-11T15:04:50.596Z</time></trkpt><trkpt lat="44.0571215" lon="12.1169843"><ele>424.0</ele><time>2026-04-11T15:04:51.596Z</time></trkpt><trkpt lat="44.0571464" lon="12.1171072"><ele>424.0</ele><time>2026-04-11T15:04:52.605Z</time></trkpt><trkpt lat="44.0571646" lon="12.1172406"><ele>424.0</ele><time>2026-04-11T15:04:53.596Z</time></trkpt><trkpt lat="44.0571656" lon="12.1173726"><ele>423.79999999999995</ele><time>2026-04-11T15:04:54.609Z</time></trkpt><trkpt lat="44.0571481" lon="12.117507"><ele>423.59999999999997</ele><time>2026-04-11T15:04:55.683Z</time></trkpt><trkpt lat="44.057125" lon="12.1176156"><ele>423.4</ele><time>2026-04-11T15:04:56.685Z</time></trkpt><trkpt lat="44.0570751" lon="12.1177708"><ele>423.2</ele><time>2026-04-11T15:04:57.681Z</time></trkpt><trkpt lat="44.0570162" lon="12.1178683"><ele>423.0</ele><time>2026-04-11T15:04:58.671Z</time></trkpt><trkpt lat="44.0569517" lon="12.117949"><ele>423.0</ele><time>2026-04-11T15:04:59.675Z</time></trkpt><trkpt lat="44.05689" lon="12.1180252"><ele>423.0</ele><time>2026-04-11T15:05:00.675Z</time></trkpt><trkpt lat="44.0568223" lon="12.1181067"><ele>423.0</ele><time>2026-04-11T15:05:01.687Z</time></trkpt><trkpt lat="44.0567527" lon="12.1181935"><ele>423.0</ele><time>2026-04-11T15:05:02.688Z</time></trkpt><trkpt lat="44.0566783" lon="12.1182885"><ele>423.0</ele><time>2026-04-11T15:05:03.687Z</time></trkpt><trkpt lat="44.0565977" lon="12.1183907"><ele>422.5</ele><time>2026-04-11T15:05:04.677Z</time></trkpt><trkpt lat="44.0565118" lon="12.1185009"><ele>422.0</ele><time>2026-04-11T15:05:05.684Z</time></trkpt><trkpt lat="44.0563548" lon="12.1185519"><ele>421.5</ele><time>2026-04-11T15:05:06.674Z</time></trkpt><trkpt lat="44.0562668" lon="12.1186729"><ele>421.0</ele><time>2026-04-11T15:05:07.681Z</time></trkpt><trkpt lat="44.0561725" lon="12.1187853"><ele>421.0</ele><time>2026-04-11T15:05:08.69Z</time></trkpt><trkpt lat="44.0560733" lon="12.1188863"><ele>421.0</ele><time>2026-04-11T15:05:09.691Z</time></trkpt><trkpt lat="44.0559662" lon="12.1189585"><ele>421.0</ele><time>2026-04-11T15:05:10.693Z</time></trkpt><trkpt lat="44.055851" lon="12.1190012"><ele>421.0</ele><time>2026-04-11T15:05:11.676Z</time></trkpt><trkpt lat="44.0557258" lon="12.119027"><ele>420.0</ele><time>2026-04-11T15:05:12.698Z</time></trkpt><trkpt lat="44.0556022" lon="12.1190449"><ele>419.0</ele><time>2026-04-11T15:05:13.679Z</time></trkpt><trkpt lat="44.0554785" lon="12.119063"><ele>418.0</ele><time>2026-04-11T15:05:14.681Z</time></trkpt><trkpt lat="44.0553599" lon="12.1191022"><ele>417.0</ele><time>2026-04-11T15:05:15.685Z</time></trkpt><trkpt lat="44.0552488" lon="12.1191513"><ele>419.5</ele><time>2026-04-11T15:05:16.686Z</time></trkpt><trkpt lat="44.0551203" lon="12.1192176"><ele>422.0</ele><time>2026-04-11T15:05:17.689Z</time></trkpt><trkpt lat="44.0549879" lon="12.1192766"><ele>424.5</ele><time>2026-04-11T15:05:18.684Z</time></trkpt><trkpt lat="44.0548846" lon="12.1193017"><ele>427.0</ele><time>2026-04-11T15:05:19.695Z</time></trkpt><trkpt lat="44.0547764" lon="12.11932"><ele>427.00000000000006</ele><time>2026-04-11T15:05:20.681Z</time></trkpt><trkpt lat="44.0546774" lon="12.1193279"><ele>427.0</ele><time>2026-04-11T15:05:21.684Z</time></trkpt><trkpt lat="44.0545894" lon="12.1193349"><ele>427.0</ele><time>2026-04-11T15:05:22.682Z</time></trkpt><trkpt lat="44.0545144" lon="12.1193407"><ele>427.0</ele><time>2026-04-11T15:05:23.686Z</time></trkpt><trkpt lat="44.0544266" lon="12.1193405"><ele>427.00000000000006</ele><time>2026-04-11T15:05:25.692Z</time></trkpt><trkpt lat="44.0543603" lon="12.11935"><ele>427.0</ele><time>2026-04-11T15:05:33.695Z</time></trkpt><trkpt lat="44.0543396" lon="12.1194605"><ele>427.0</ele><time>2026-04-11T15:12:58.742Z</time></trkpt><trkpt lat="44.0543553" lon="12.1195773"><ele>427.00000000000006</ele><time>2026-04-11T15:13:00.741Z</time></trkpt><trkpt lat="44.0542829" lon="12.1197472"><ele>427.00000000000006</ele><time>2026-04-11T15:13:02.728Z</time></trkpt><trkpt lat="44.0542449" lon="12.1198536"><ele>427.0</ele><time>2026-04-11T15:13:03.713Z</time></trkpt><trkpt lat="44.0542003" lon="12.1199531"><ele>427.0</ele><time>2026-04-11T15:13:04.717Z</time></trkpt><trkpt lat="44.0541538" lon="12.1200568"><ele>425.40000000000003</ele><time>2026-04-11T15:13:05.726Z</time></trkpt><trkpt lat="44.0541064" lon="12.1201637"><ele>423.80000000000007</ele><time>2026-04-11T15:13:06.732Z</time></trkpt><trkpt lat="44.054055" lon="12.1202707"><ele>422.2</ele><time>2026-04-11T15:13:07.73Z</time></trkpt><trkpt lat="44.0540037" lon="12.1203802"><ele>420.6</ele><time>2026-04-11T15:13:08.738Z</time></trkpt><trkpt lat="44.0539538" lon="12.1204862"><ele>419.0</ele><time>2026-04-11T15:13:09.725Z</time></trkpt><trkpt lat="44.0539002" lon="12.1205888"><ele>419.0</ele><time>2026-04-11T15:13:10.725Z</time></trkpt><trkpt lat="44.0538467" lon="12.1206928"><ele>419.0</ele><time>2026-04-11T15:13:11.731Z</time></trkpt><trkpt lat="44.0537926" lon="12.1207984"><ele>419.0</ele><time>2026-04-11T15:13:12.726Z</time></trkpt><trkpt lat="44.0537371" lon="12.1209057"><ele>419.0</ele><time>2026-04-11T15:13:13.74Z</time></trkpt><trkpt lat="44.0536828" lon="12.1210184"><ele>419.0</ele><time>2026-04-11T15:13:14.723Z</time></trkpt><trkpt lat="44.0536361" lon="12.1211389"><ele>420.79999999999995</ele><time>2026-04-11T15:13:15.73Z</time></trkpt><trkpt lat="44.0535926" lon="12.1212565"><ele>422.59999999999997</ele><time>2026-04-11T15:13:16.728Z</time></trkpt><trkpt lat="44.0535485" lon="12.121374"><ele>424.4</ele><time>2026-04-11T15:13:17.728Z</time></trkpt><trkpt lat="44.0535013" lon="12.1214875"><ele>426.2</ele><time>2026-04-11T15:13:18.754Z</time></trkpt><trkpt lat="44.0534379" lon="12.1215895"><ele>428.0</ele><time>2026-04-11T15:13:19.732Z</time></trkpt><trkpt lat="44.0533644" lon="12.1216789"><ele>428.4</ele><time>2026-04-11T15:13:20.711Z</time></trkpt><trkpt lat="44.0532829" lon="12.1217576"><ele>428.79999999999995</ele><time>2026-04-11T15:13:21.716Z</time></trkpt><trkpt lat="44.0531998" lon="12.1218427"><ele>429.2</ele><time>2026-04-11T15:13:22.718Z</time></trkpt><trkpt lat="44.0531253" lon="12.1219404"><ele>429.6</ele><time>2026-04-11T15:13:23.732Z</time></trkpt><trkpt lat="44.0530591" lon="12.122053"><ele>430.0</ele><time>2026-04-11T15:13:24.73Z</time></trkpt><trkpt lat="44.0529962" lon="12.1221766"><ele>430.0</ele><time>2026-04-11T15:13:25.729Z</time></trkpt><trkpt lat="44.052937" lon="12.1223124"><ele>430.0</ele><time>2026-04-11T15:13:26.714Z</time></trkpt><trkpt lat="44.0528835" lon="12.1224564"><ele>430.0</ele><time>2026-04-11T15:13:27.712Z</time></trkpt><trkpt lat="44.0528277" lon="12.1226083"><ele>430.0</ele><time>2026-04-11T15:13:28.769Z</time></trkpt><trkpt lat="44.0527667" lon="12.1227616"><ele>430.25</ele><time>2026-04-11T15:13:29.72Z</time></trkpt><trkpt lat="44.0527056" lon="12.1229172"><ele>430.5</ele><time>2026-04-11T15:13:30.734Z</time></trkpt><trkpt lat="44.0526465" lon="12.123074"><ele>430.75</ele><time>2026-04-11T15:13:31.73Z</time></trkpt><trkpt lat="44.0525906" lon="12.1232344"><ele>431.0</ele><time>2026-04-11T15:13:32.728Z</time></trkpt><trkpt lat="44.0525361" lon="12.123399"><ele>429.75</ele><time>2026-04-11T15:13:33.755Z</time></trkpt><trkpt lat="44.052487" lon="12.1235645"><ele>428.5</ele><time>2026-04-11T15:13:34.741Z</time></trkpt><trkpt lat="44.0524438" lon="12.1237301"><ele>427.25</ele><time>2026-04-11T15:13:35.727Z</time></trkpt><trkpt lat="44.0524064" lon="12.1238917"><ele>426.0</ele><time>2026-04-11T15:13:36.731Z</time></trkpt><trkpt lat="44.052374" lon="12.1240503"><ele>425.20000000000005</ele><time>2026-04-11T15:13:37.738Z</time></trkpt><trkpt lat="44.0523435" lon="12.124202"><ele>424.40000000000003</ele><time>2026-04-11T15:13:38.743Z</time></trkpt><trkpt lat="44.0523119" lon="12.1243445"><ele>423.6</ele><time>2026-04-11T15:13:39.724Z</time></trkpt><trkpt lat="44.0522783" lon="12.1244759"><ele>422.8</ele><time>2026-04-11T15:13:40.732Z</time></trkpt><trkpt lat="44.0522478" lon="12.1245911"><ele>422.0</ele><time>2026-04-11T15:13:41.722Z</time></trkpt><trkpt lat="44.0522089" lon="12.1246882"><ele>422.0</ele><time>2026-04-11T15:13:42.724Z</time></trkpt><trkpt lat="44.0521564" lon="12.124761"><ele>422.0</ele><time>2026-04-11T15:13:43.739Z</time></trkpt><trkpt lat="44.0520949" lon="12.1248015"><ele>422.0</ele><time>2026-04-11T15:13:44.71Z</time></trkpt><trkpt lat="44.0519884" lon="12.1248352"><ele>422.0</ele><time>2026-04-11T15:13:46.719Z</time></trkpt><trkpt lat="44.0518669" lon="12.1249008"><ele>422.0</ele><time>2026-04-11T15:13:48.738Z</time></trkpt><trkpt lat="44.0517955" lon="12.1249474"><ele>420.0</ele><time>2026-04-11T15:13:49.721Z</time></trkpt><trkpt lat="44.0517201" lon="12.1249986"><ele>418.0</ele><time>2026-04-11T15:13:50.731Z</time></trkpt><trkpt lat="44.05164" lon="12.1250539"><ele>416.0</ele><time>2026-04-11T15:13:51.726Z</time></trkpt><trkpt lat="44.0515584" lon="12.1251095"><ele>414.0</ele><time>2026-04-11T15:13:52.728Z</time></trkpt><trkpt lat="44.0514701" lon="12.1251593"><ele>412.0</ele><time>2026-04-11T15:13:53.724Z</time></trkpt><trkpt lat="44.0513777" lon="12.1252004"><ele>411.0</ele><time>2026-04-11T15:13:54.748Z</time></trkpt><trkpt lat="44.0512854" lon="12.1252439"><ele>410.0</ele><time>2026-04-11T15:13:55.719Z</time></trkpt><trkpt lat="44.0511931" lon="12.1252983"><ele>409.0</ele><time>2026-04-11T15:13:56.716Z</time></trkpt><trkpt lat="44.051102" lon="12.1253613"><ele>408.0</ele><time>2026-04-11T15:13:57.717Z</time></trkpt><trkpt lat="44.0510122" lon="12.1254402"><ele>407.0</ele><time>2026-04-11T15:13:58.739Z</time></trkpt><trkpt lat="44.0509311" lon="12.1255334"><ele>406.25</ele><time>2026-04-11T15:13:59.748Z</time></trkpt><trkpt lat="44.0507939" lon="12.1257661"><ele>405.5</ele><time>2026-04-11T15:14:01.616Z</time></trkpt><trkpt lat="44.0507219" lon="12.1258858"><ele>404.75</ele><time>2026-04-11T15:14:02.611Z</time></trkpt><trkpt lat="44.0506309" lon="12.1259776"><ele>404.0</ele><time>2026-04-11T15:14:03.608Z</time></trkpt><trkpt lat="44.0505335" lon="12.1260443"><ele>403.2</ele><time>2026-04-11T15:14:04.613Z</time></trkpt><trkpt lat="44.0504361" lon="12.1260986"><ele>402.4</ele><time>2026-04-11T15:14:05.623Z</time></trkpt><trkpt lat="44.0503412" lon="12.1261531"><ele>401.6</ele><time>2026-04-11T15:14:06.624Z</time></trkpt><trkpt lat="44.0502479" lon="12.1262058"><ele>400.8</ele><time>2026-04-11T15:14:07.628Z</time></trkpt><trkpt lat="44.0501533" lon="12.1262561"><ele>400.0</ele><time>2026-04-11T15:14:08.628Z</time></trkpt><trkpt lat="44.0500635" lon="12.1262969"><ele>400.0</ele><time>2026-04-11T15:14:09.625Z</time></trkpt><trkpt lat="44.0499765" lon="12.1263382"><ele>400.0</ele><time>2026-04-11T15:14:10.623Z</time></trkpt><trkpt lat="44.0498967" lon="12.1263831"><ele>400.0</ele><time>2026-04-11T15:14:11.624Z</time></trkpt><trkpt lat="44.0498167" lon="12.126441"><ele>400.0</ele><time>2026-04-11T15:14:12.622Z</time></trkpt><trkpt lat="44.0497409" lon="12.1265126"><ele>400.0</ele><time>2026-04-11T15:14:13.617Z</time></trkpt><trkpt lat="44.0496775" lon="12.1266061"><ele>398.2</ele><time>2026-04-11T15:14:14.616Z</time></trkpt><trkpt lat="44.0496191" lon="12.1267203"><ele>396.4</ele><time>2026-04-11T15:14:15.623Z</time></trkpt><trkpt lat="44.0495657" lon="12.1268356"><ele>394.6</ele><time>2026-04-11T15:14:16.625Z</time></trkpt><trkpt lat="44.0495145" lon="12.1269511"><ele>392.8</ele><time>2026-04-11T15:14:17.629Z</time></trkpt><trkpt lat="44.0494612" lon="12.1270622"><ele>391.0</ele><time>2026-04-11T15:14:18.629Z</time></trkpt><trkpt lat="44.0494012" lon="12.1271593"><ele>391.0</ele><time>2026-04-11T15:14:19.629Z</time></trkpt><trkpt lat="44.0493403" lon="12.1272465"><ele>391.0</ele><time>2026-04-11T15:14:20.616Z</time></trkpt><trkpt lat="44.049269" lon="12.1273226"><ele>391.0</ele><time>2026-04-11T15:14:21.616Z</time></trkpt><trkpt lat="44.0491896" lon="12.127389"><ele>391.0</ele><time>2026-04-11T15:14:22.631Z</time></trkpt><trkpt lat="44.0491076" lon="12.1274687"><ele>391.0</ele><time>2026-04-11T15:14:23.627Z</time></trkpt><trkpt lat="44.0490317" lon="12.1275528"><ele>390.0</ele><time>2026-04-11T15:14:24.633Z</time></trkpt><trkpt lat="44.0489612" lon="12.1276491"><ele>389.0</ele><time>2026-04-11T15:14:25.622Z</time></trkpt><trkpt lat="44.0488899" lon="12.1277481"><ele>388.0</ele><time>2026-04-11T15:14:26.625Z</time></trkpt><trkpt lat="44.0488176" lon="12.1278489"><ele>387.0</ele><time>2026-04-11T15:14:27.629Z</time></trkpt><trkpt lat="44.0487506" lon="12.1279509"><ele>386.0</ele><time>2026-04-11T15:14:28.629Z</time></trkpt><trkpt lat="44.0486811" lon="12.1280526"><ele>386.0</ele><time>2026-04-11T15:14:29.65Z</time></trkpt><trkpt lat="44.0486074" lon="12.1281519"><ele>386.0</ele><time>2026-04-11T15:14:30.621Z</time></trkpt><trkpt lat="44.0485326" lon="12.1282485"><ele>386.0</ele><time>2026-04-11T15:14:31.63Z</time></trkpt><trkpt lat="44.0484517" lon="12.1283397"><ele>386.0</ele><time>2026-04-11T15:14:32.625Z</time></trkpt><trkpt lat="44.0483751" lon="12.1284283"><ele>386.0</ele><time>2026-04-11T15:14:33.623Z</time></trkpt><trkpt lat="44.0483015" lon="12.1285227"><ele>386.8</ele><time>2026-04-11T15:14:34.622Z</time></trkpt><trkpt lat="44.0482355" lon="12.1286252"><ele>387.6</ele><time>2026-04-11T15:14:35.618Z</time></trkpt><trkpt lat="44.0481819" lon="12.1287308"><ele>388.4</ele><time>2026-04-11T15:14:36.624Z</time></trkpt><trkpt lat="44.0481332" lon="12.1288474"><ele>389.2</ele><time>2026-04-11T15:14:37.62Z</time></trkpt><trkpt lat="44.0480881" lon="12.1289588"><ele>390.0</ele><time>2026-04-11T15:14:38.621Z</time></trkpt><trkpt lat="44.0480371" lon="12.1290753"><ele>390.0</ele><time>2026-04-11T15:14:39.619Z</time></trkpt><trkpt lat="44.0479832" lon="12.1291883"><ele>390.0</ele><time>2026-04-11T15:14:40.623Z</time></trkpt><trkpt lat="44.0479268" lon="12.129304"><ele>390.0</ele><time>2026-04-11T15:14:41.623Z</time></trkpt><trkpt lat="44.0478635" lon="12.12942"><ele>390.0</ele><time>2026-04-11T15:14:42.625Z</time></trkpt><trkpt lat="44.0477923" lon="12.1295384"><ele>390.0</ele><time>2026-04-11T15:14:43.622Z</time></trkpt><trkpt lat="44.0477154" lon="12.1296536"><ele>390.0</ele><time>2026-04-11T15:14:44.618Z</time></trkpt><trkpt lat="44.0476335" lon="12.129766"><ele>390.0</ele><time>2026-04-11T15:14:45.621Z</time></trkpt><trkpt lat="44.0475484" lon="12.1298743"><ele>390.0</ele><time>2026-04-11T15:14:46.619Z</time></trkpt><trkpt lat="44.0474567" lon="12.129973"><ele>390.0</ele><time>2026-04-11T15:14:47.621Z</time></trkpt><trkpt lat="44.0473629" lon="12.1300692"><ele>386.25</ele><time>2026-04-11T15:14:48.619Z</time></trkpt><trkpt lat="44.0472636" lon="12.130161"><ele>382.5</ele><time>2026-04-11T15:14:49.621Z</time></trkpt><trkpt lat="44.0471669" lon="12.1302487"><ele>378.75</ele><time>2026-04-11T15:14:50.62Z</time></trkpt><trkpt lat="44.0470692" lon="12.1303261"><ele>375.0</ele><time>2026-04-11T15:14:51.62Z</time></trkpt><trkpt lat="44.0469768" lon="12.1304004"><ele>375.0</ele><time>2026-04-11T15:14:52.617Z</time></trkpt><trkpt lat="44.0468903" lon="12.1304808"><ele>375.0</ele><time>2026-04-11T15:14:53.624Z</time></trkpt><trkpt lat="44.0468115" lon="12.1305625"><ele>375.0</ele><time>2026-04-11T15:14:54.622Z</time></trkpt><trkpt lat="44.0467371" lon="12.1306449"><ele>375.0</ele><time>2026-04-11T15:14:55.624Z</time></trkpt><trkpt lat="44.0466713" lon="12.1307349"><ele>375.0</ele><time>2026-04-11T15:14:56.62Z</time></trkpt><trkpt lat="44.0466174" lon="12.1308306"><ele>371.2</ele><time>2026-04-11T15:14:57.687Z</time></trkpt><trkpt lat="44.0465788" lon="12.1309438"><ele>367.4</ele><time>2026-04-11T15:14:58.623Z</time></trkpt><trkpt lat="44.0465535" lon="12.1310641"><ele>363.6</ele><time>2026-04-11T15:14:59.629Z</time></trkpt><trkpt lat="44.0465476" lon="12.1311919"><ele>359.8</ele><time>2026-04-11T15:15:00.647Z</time></trkpt><trkpt lat="44.0465506" lon="12.1313268"><ele>356.0</ele><time>2026-04-11T15:15:01.629Z</time></trkpt><trkpt lat="44.0465461" lon="12.1314554"><ele>356.6666666666667</ele><time>2026-04-11T15:15:02.625Z</time></trkpt><trkpt lat="44.0465298" lon="12.1315893"><ele>357.33333333333337</ele><time>2026-04-11T15:15:03.624Z</time></trkpt><trkpt lat="44.0464994" lon="12.131705"><ele>358.0</ele><time>2026-04-11T15:15:04.627Z</time></trkpt><trkpt lat="44.0464519" lon="12.131805"><ele>358.6666666666667</ele><time>2026-04-11T15:15:05.627Z</time></trkpt><trkpt lat="44.0463883" lon="12.1318847"><ele>359.3333333333333</ele><time>2026-04-11T15:15:06.625Z</time></trkpt><trkpt lat="44.0463175" lon="12.1319561"><ele>360.0</ele><time>2026-04-11T15:15:07.619Z</time></trkpt><trkpt lat="44.0462332" lon="12.1320191"><ele>360.0</ele><time>2026-04-11T15:15:08.621Z</time></trkpt><trkpt lat="44.0461566" lon="12.1320778"><ele>360.0</ele><time>2026-04-11T15:15:09.62Z</time></trkpt><trkpt lat="44.0460885" lon="12.1321538"><ele>360.0</ele><time>2026-04-11T15:15:10.626Z</time></trkpt><trkpt lat="44.0460361" lon="12.1322522"><ele>360.0</ele><time>2026-04-11T15:15:11.619Z</time></trkpt><trkpt lat="44.0459947" lon="12.1323696"><ele>360.0</ele><time>2026-04-11T15:15:12.618Z</time></trkpt><trkpt lat="44.0459568" lon="12.1325076"><ele>361.0</ele><time>2026-04-11T15:15:13.614Z</time></trkpt><trkpt lat="44.0459323" lon="12.1326448"><ele>362.0</ele><time>2026-04-11T15:15:14.615Z</time></trkpt><trkpt lat="44.0459131" lon="12.1328055"><ele>363.0</ele><time>2026-04-11T15:15:15.612Z</time></trkpt><trkpt lat="44.0459018" lon="12.1329669"><ele>364.0</ele><time>2026-04-11T15:15:16.619Z</time></trkpt><trkpt lat="44.0458813" lon="12.1331239"><ele>364.0</ele><time>2026-04-11T15:15:17.624Z</time></trkpt><trkpt lat="44.0458408" lon="12.1332723"><ele>364.0</ele><time>2026-04-11T15:15:18.628Z</time></trkpt><trkpt lat="44.045786" lon="12.1334067"><ele>364.0</ele><time>2026-04-11T15:15:19.619Z</time></trkpt><trkpt lat="44.045721" lon="12.1335386"><ele>364.0</ele><time>2026-04-11T15:15:20.618Z</time></trkpt><trkpt lat="44.0456494" lon="12.1336633"><ele>362.25</ele><time>2026-04-11T15:15:21.611Z</time></trkpt><trkpt lat="44.0455693" lon="12.1337812"><ele>360.5</ele><time>2026-04-11T15:15:22.613Z</time></trkpt><trkpt lat="44.0454891" lon="12.1338956"><ele>358.75</ele><time>2026-04-11T15:15:23.607Z</time></trkpt><trkpt lat="44.0454075" lon="12.134014"><ele>357.0</ele><time>2026-04-11T15:15:24.615Z</time></trkpt><trkpt lat="44.0453263" lon="12.1341332"><ele>357.0</ele><time>2026-04-11T15:15:25.613Z</time></trkpt><trkpt lat="44.0452521" lon="12.1342563"><ele>357.0</ele><time>2026-04-11T15:15:26.616Z</time></trkpt><trkpt lat="44.0451823" lon="12.1343936"><ele>357.0</ele><time>2026-04-11T15:15:27.618Z</time></trkpt><trkpt lat="44.0451194" lon="12.1345403"><ele>357.0</ele><time>2026-04-11T15:15:28.618Z</time></trkpt><trkpt lat="44.0450623" lon="12.1346847"><ele>357.0</ele><time>2026-04-11T15:15:29.617Z</time></trkpt><trkpt lat="44.0450079" lon="12.1348363"><ele>357.0</ele><time>2026-04-11T15:15:30.618Z</time></trkpt><trkpt lat="44.0449588" lon="12.1349858"><ele>357.0</ele><time>2026-04-11T15:15:31.635Z</time></trkpt><trkpt lat="44.0449098" lon="12.1351275"><ele>357.0</ele><time>2026-04-11T15:15:32.618Z</time></trkpt><trkpt lat="44.0448582" lon="12.1352475"><ele>356.14285714285717</ele><time>2026-04-11T15:15:33.623Z</time></trkpt><trkpt lat="44.044809" lon="12.1353406"><ele>355.2857142857143</ele><time>2026-04-11T15:15:34.621Z</time></trkpt><trkpt lat="44.04476" lon="12.1354203"><ele>354.42857142857144</ele><time>2026-04-11T15:15:35.614Z</time></trkpt><trkpt lat="44.0447125" lon="12.1354981"><ele>353.57142857142856</ele><time>2026-04-11T15:15:36.618Z</time></trkpt><trkpt lat="44.044665" lon="12.1355748"><ele>352.7142857142857</ele><time>2026-04-11T15:15:37.619Z</time></trkpt><trkpt lat="44.0446209" lon="12.1356473"><ele>351.8571428571429</ele><time>2026-04-11T15:15:38.622Z</time></trkpt><trkpt lat="44.0445756" lon="12.1357179"><ele>351.0</ele><time>2026-04-11T15:15:39.623Z</time></trkpt><trkpt lat="44.0444969" lon="12.1358486"><ele>351.0</ele><time>2026-04-11T15:15:41.617Z</time></trkpt><trkpt lat="44.0444296" lon="12.1359671"><ele>351.0</ele><time>2026-04-11T15:15:43.623Z</time></trkpt><trkpt lat="44.0443847" lon="12.1360343"><ele>351.0</ele><time>2026-04-11T15:16:27.626Z</time></trkpt><trkpt lat="44.0443178" lon="12.1361669"><ele>351.0</ele><time>2026-04-11T15:16:29.626Z</time></trkpt><trkpt lat="44.0442787" lon="12.1362464"><ele>351.0</ele><time>2026-04-11T15:16:30.619Z</time></trkpt><trkpt lat="44.0442315" lon="12.1363454"><ele>351.0</ele><time>2026-04-11T15:16:31.62Z</time></trkpt><trkpt lat="44.0441864" lon="12.1364438"><ele>351.0</ele><time>2026-04-11T15:16:32.617Z</time></trkpt><trkpt lat="44.0441324" lon="12.1365475"><ele>351.0</ele><time>2026-04-11T15:16:33.632Z</time></trkpt><trkpt lat="44.0440652" lon="12.1366348"><ele>351.0</ele><time>2026-04-11T15:16:34.616Z</time></trkpt><trkpt lat="44.043987" lon="12.1367241"><ele>351.0</ele><time>2026-04-11T15:16:35.622Z</time></trkpt><trkpt lat="44.0439007" lon="12.1368161"><ele>351.0</ele><time>2026-04-11T15:16:36.616Z</time></trkpt><trkpt lat="44.0438203" lon="12.1369181"><ele>350.75</ele><time>2026-04-11T15:16:37.611Z</time></trkpt><trkpt lat="44.0437419" lon="12.1370314"><ele>350.5</ele><time>2026-04-11T15:16:38.618Z</time></trkpt><trkpt lat="44.0436717" lon="12.1371569"><ele>350.25</ele><time>2026-04-11T15:16:39.62Z</time></trkpt><trkpt lat="44.0436218" lon="12.1373012"><ele>350.0</ele><time>2026-04-11T15:16:40.607Z</time></trkpt><trkpt lat="44.0435825" lon="12.1374593"><ele>351.6</ele><time>2026-04-11T15:16:41.622Z</time></trkpt><trkpt lat="44.043559" lon="12.1376142"><ele>353.2</ele><time>2026-04-11T15:16:42.612Z</time></trkpt><trkpt lat="44.0435399" lon="12.137758"><ele>354.79999999999995</ele><time>2026-04-11T15:16:43.613Z</time></trkpt><trkpt lat="44.0435137" lon="12.1378816"><ele>356.4</ele><time>2026-04-11T15:16:44.62Z</time></trkpt><trkpt lat="44.0434755" lon="12.138004"><ele>358.0</ele><time>2026-04-11T15:16:45.619Z</time></trkpt><trkpt lat="44.0434276" lon="12.1381153"><ele>357.4</ele><time>2026-04-11T15:16:46.612Z</time></trkpt><trkpt lat="44.0433712" lon="12.1382202"><ele>356.79999999999995</ele><time>2026-04-11T15:16:47.621Z</time></trkpt><trkpt lat="44.0433062" lon="12.1383218"><ele>356.2</ele><time>2026-04-11T15:16:48.612Z</time></trkpt><trkpt lat="44.0432419" lon="12.1384303"><ele>355.6</ele><time>2026-04-11T15:16:49.619Z</time></trkpt><trkpt lat="44.0431793" lon="12.1385376"><ele>355.0</ele><time>2026-04-11T15:16:50.62Z</time></trkpt><trkpt lat="44.0431187" lon="12.1386471"><ele>353.8</ele><time>2026-04-11T15:16:51.619Z</time></trkpt><trkpt lat="44.0430614" lon="12.1387602"><ele>352.6</ele><time>2026-04-11T15:16:52.613Z</time></trkpt><trkpt lat="44.0430062" lon="12.1388762"><ele>351.4</ele><time>2026-04-11T15:16:53.621Z</time></trkpt><trkpt lat="44.0429541" lon="12.1389891"><ele>350.2</ele><time>2026-04-11T15:16:54.612Z</time></trkpt><trkpt lat="44.0429069" lon="12.1390988"><ele>349.0</ele><time>2026-04-11T15:16:55.615Z</time></trkpt><trkpt lat="44.0428679" lon="12.139192"><ele>348.66666666666663</ele><time>2026-04-11T15:16:56.612Z</time></trkpt><trkpt lat="44.0428368" lon="12.1392935"><ele>348.3333333333333</ele><time>2026-04-11T15:16:58.615Z</time></trkpt><trkpt lat="44.0428109" lon="12.1394029"><ele>348.0</ele><time>2026-04-11T15:17:00.613Z</time></trkpt><trkpt lat="44.0427841" lon="12.1394898"><ele>347.6666666666667</ele><time>2026-04-11T15:17:01.617Z</time></trkpt><trkpt lat="44.0427534" lon="12.1395912"><ele>347.33333333333337</ele><time>2026-04-11T15:17:02.617Z</time></trkpt><trkpt lat="44.0427178" lon="12.1397019"><ele>347.0</ele><time>2026-04-11T15:17:03.62Z</time></trkpt><trkpt lat="44.0426813" lon="12.1398086"><ele>347.40000000000003</ele><time>2026-04-11T15:17:04.635Z</time></trkpt><trkpt lat="44.0426374" lon="12.1399275"><ele>347.8</ele><time>2026-04-11T15:17:05.618Z</time></trkpt><trkpt lat="44.0425927" lon="12.1400494"><ele>348.2</ele><time>2026-04-11T15:17:06.621Z</time></trkpt><trkpt lat="44.0425468" lon="12.140177"><ele>348.6</ele><time>2026-04-11T15:17:07.617Z</time></trkpt><trkpt lat="44.042499" lon="12.1403127"><ele>349.0</ele><time>2026-04-11T15:17:08.642Z</time></trkpt><trkpt lat="44.042455" lon="12.1404474"><ele>344.75</ele><time>2026-04-11T15:17:09.72Z</time></trkpt><trkpt lat="44.0424074" lon="12.1405896"><ele>340.5</ele><time>2026-04-11T15:17:10.715Z</time></trkpt><trkpt lat="44.0423577" lon="12.1407325"><ele>336.25</ele><time>2026-04-11T15:17:11.717Z</time></trkpt><trkpt lat="44.0423054" lon="12.1408758"><ele>332.0</ele><time>2026-04-11T15:17:12.72Z</time></trkpt><trkpt lat="44.0422564" lon="12.1410166"><ele>332.0</ele><time>2026-04-11T15:17:13.721Z</time></trkpt><trkpt lat="44.0422102" lon="12.1411507"><ele>332.0</ele><time>2026-04-11T15:17:14.722Z</time></trkpt><trkpt lat="44.0421658" lon="12.1412788"><ele>332.0</ele><time>2026-04-11T15:17:15.721Z</time></trkpt><trkpt lat="44.0421224" lon="12.1414057"><ele>332.0</ele><time>2026-04-11T15:17:16.717Z</time></trkpt><trkpt lat="44.0420823" lon="12.1415356"><ele>332.0</ele><time>2026-04-11T15:17:17.716Z</time></trkpt><trkpt lat="44.0420435" lon="12.141665"><ele>332.6</ele><time>2026-04-11T15:17:18.723Z</time></trkpt><trkpt lat="44.0420007" lon="12.1417921"><ele>333.20000000000005</ele><time>2026-04-11T15:17:19.726Z</time></trkpt><trkpt lat="44.0419532" lon="12.1419179"><ele>333.8</ele><time>2026-04-11T15:17:20.723Z</time></trkpt><trkpt lat="44.041905" lon="12.142035"><ele>334.4</ele><time>2026-04-11T15:17:21.726Z</time></trkpt><trkpt lat="44.0418493" lon="12.1421479"><ele>335.0</ele><time>2026-04-11T15:17:22.717Z</time></trkpt><trkpt lat="44.0417864" lon="12.1422501"><ele>335.0</ele><time>2026-04-11T15:17:23.721Z</time></trkpt><trkpt lat="44.041711" lon="12.1423375"><ele>335.0</ele><time>2026-04-11T15:17:24.715Z</time></trkpt><trkpt lat="44.0416298" lon="12.1424248"><ele>335.0</ele><time>2026-04-11T15:17:25.711Z</time></trkpt><trkpt lat="44.0415566" lon="12.1425196"><ele>335.0</ele><time>2026-04-11T15:17:26.703Z</time></trkpt><trkpt lat="44.0414925" lon="12.1426264"><ele>335.0</ele><time>2026-04-11T15:17:27.705Z</time></trkpt><trkpt lat="44.0414394" lon="12.1427444"><ele>332.33333333333337</ele><time>2026-04-11T15:17:28.729Z</time></trkpt><trkpt lat="44.0413988" lon="12.142862"><ele>329.6666666666667</ele><time>2026-04-11T15:17:29.725Z</time></trkpt><trkpt lat="44.0413802" lon="12.1429663"><ele>327.0</ele><time>2026-04-11T15:17:30.711Z</time></trkpt><trkpt lat="44.0413751" lon="12.1430683"><ele>324.3333333333333</ele><time>2026-04-11T15:17:31.711Z</time></trkpt><trkpt lat="44.0413916" lon="12.1431548"><ele>321.66666666666663</ele><time>2026-04-11T15:17:32.712Z</time></trkpt><trkpt lat="44.0414473" lon="12.1433045"><ele>319.0</ele><time>2026-04-11T15:17:34.724Z</time></trkpt><trkpt lat="44.0415138" lon="12.143447"><ele>317.8</ele><time>2026-04-11T15:17:36.707Z</time></trkpt><trkpt lat="44.0416135" lon="12.1435601"><ele>316.59999999999997</ele><time>2026-04-11T15:17:38.705Z</time></trkpt><trkpt lat="44.0416771" lon="12.1436091"><ele>315.4</ele><time>2026-04-11T15:17:39.706Z</time></trkpt><trkpt lat="44.0417499" lon="12.1436483"><ele>314.2</ele><time>2026-04-11T15:17:40.718Z</time></trkpt><trkpt lat="44.0418376" lon="12.1436785"><ele>313.0</ele><time>2026-04-11T15:17:41.72Z</time></trkpt><trkpt lat="44.0419315" lon="12.1437024"><ele>313.5</ele><time>2026-04-11T15:17:42.711Z</time></trkpt><trkpt lat="44.0420241" lon="12.143729"><ele>314.0</ele><time>2026-04-11T15:17:43.707Z</time></trkpt><trkpt lat="44.0421067" lon="12.1437741"><ele>314.5</ele><time>2026-04-11T15:17:44.702Z</time></trkpt><trkpt lat="44.0421671" lon="12.1438473"><ele>315.0</ele><time>2026-04-11T15:17:45.709Z</time></trkpt><trkpt lat="44.0422162" lon="12.1439351"><ele>315.5</ele><time>2026-04-11T15:17:46.715Z</time></trkpt><trkpt lat="44.0422486" lon="12.1440139"><ele>316.0</ele><time>2026-04-11T15:17:47.719Z</time></trkpt><trkpt lat="44.0422775" lon="12.1441152"><ele>316.0</ele><time>2026-04-11T15:17:48.705Z</time></trkpt><trkpt lat="44.0423139" lon="12.1442125"><ele>316.0</ele><time>2026-04-11T15:17:49.708Z</time></trkpt><trkpt lat="44.0423562" lon="12.1442923"><ele>316.0</ele><time>2026-04-11T15:17:50.705Z</time></trkpt><trkpt lat="44.0424288" lon="12.1443634"><ele>316.0</ele><time>2026-04-11T15:17:51.702Z</time></trkpt><trkpt lat="44.0424954" lon="12.1443819"><ele>316.0</ele><time>2026-04-11T15:17:52.712Z</time></trkpt><trkpt lat="44.0425659" lon="12.1443946"><ele>316.0</ele><time>2026-04-11T15:17:53.717Z</time></trkpt><trkpt lat="44.0426473" lon="12.1443675"><ele>315.6</ele><time>2026-04-11T15:17:54.707Z</time></trkpt><trkpt lat="44.0427301" lon="12.144313"><ele>315.20000000000005</ele><time>2026-04-11T15:17:55.71Z</time></trkpt><trkpt lat="44.0428094" lon="12.1442452"><ele>314.79999999999995</ele><time>2026-04-11T15:17:56.702Z</time></trkpt><trkpt lat="44.042886" lon="12.144165"><ele>314.4</ele><time>2026-04-11T15:17:57.699Z</time></trkpt><trkpt lat="44.0429581" lon="12.1440801"><ele>314.0</ele><time>2026-04-11T15:17:58.714Z</time></trkpt><trkpt lat="44.043031" lon="12.1439921"><ele>313.8</ele><time>2026-04-11T15:17:59.716Z</time></trkpt><trkpt lat="44.0431167" lon="12.1439012"><ele>313.59999999999997</ele><time>2026-04-11T15:18:00.707Z</time></trkpt><trkpt lat="44.0432076" lon="12.1438761"><ele>313.4</ele><time>2026-04-11T15:18:01.712Z</time></trkpt><trkpt lat="44.0433003" lon="12.1438812"><ele>313.2</ele><time>2026-04-11T15:18:02.717Z</time></trkpt><trkpt lat="44.0433854" lon="12.1439461"><ele>313.0</ele><time>2026-04-11T15:18:03.691Z</time></trkpt><trkpt lat="44.0434706" lon="12.143926"><ele>310.25</ele><time>2026-04-11T15:18:04.703Z</time></trkpt><trkpt lat="44.0436585" lon="12.1441449"><ele>307.5</ele><time>2026-04-11T15:18:06.629Z</time></trkpt><trkpt lat="44.043747" lon="12.1442226"><ele>304.75</ele><time>2026-04-11T15:18:07.61Z</time></trkpt><trkpt lat="44.0438323" lon="12.1442867"><ele>302.0</ele><time>2026-04-11T15:18:08.61Z</time></trkpt><trkpt lat="44.0439213" lon="12.144356"><ele>302.0</ele><time>2026-04-11T15:18:09.612Z</time></trkpt><trkpt lat="44.0440009" lon="12.1444263"><ele>302.0</ele><time>2026-04-11T15:18:10.613Z</time></trkpt><trkpt lat="44.0440752" lon="12.1445013"><ele>302.0</ele><time>2026-04-11T15:18:11.61Z</time></trkpt><trkpt lat="44.0441404" lon="12.1445781"><ele>302.0</ele><time>2026-04-11T15:18:12.615Z</time></trkpt><trkpt lat="44.0441817" lon="12.1446658"><ele>302.0</ele><time>2026-04-11T15:18:13.619Z</time></trkpt><trkpt lat="44.0441637" lon="12.1448122"><ele>302.0</ele><time>2026-04-11T15:18:15.613Z</time></trkpt><trkpt lat="44.044097" lon="12.1448565"><ele>302.0</ele><time>2026-04-11T15:18:16.605Z</time></trkpt><trkpt lat="44.0440092" lon="12.1448845"><ele>302.0</ele><time>2026-04-11T15:18:17.613Z</time></trkpt><trkpt lat="44.0439068" lon="12.1449266"><ele>302.0</ele><time>2026-04-11T15:18:18.615Z</time></trkpt><trkpt lat="44.0438047" lon="12.1449909"><ele>302.0</ele><time>2026-04-11T15:18:19.617Z</time></trkpt><trkpt lat="44.0437104" lon="12.1450568"><ele>299.8</ele><time>2026-04-11T15:18:20.609Z</time></trkpt><trkpt lat="44.0436164" lon="12.1451349"><ele>297.6</ele><time>2026-04-11T15:18:21.61Z</time></trkpt><trkpt lat="44.0435307" lon="12.1452263"><ele>295.40000000000003</ele><time>2026-04-11T15:18:22.611Z</time></trkpt><trkpt lat="44.0434669" lon="12.1453098"><ele>293.2</ele><time>2026-04-11T15:18:23.619Z</time></trkpt><trkpt lat="44.0434253" lon="12.1454019"><ele>291.0</ele><time>2026-04-11T15:18:24.601Z</time></trkpt><trkpt lat="44.0434093" lon="12.1454918"><ele>291.0</ele><time>2026-04-11T15:18:25.607Z</time></trkpt><trkpt lat="44.0434396" lon="12.1455755"><ele>291.0</ele><time>2026-04-11T15:18:26.609Z</time></trkpt><trkpt lat="44.0435048" lon="12.1456253"><ele>291.0</ele><time>2026-04-11T15:18:27.604Z</time></trkpt><trkpt lat="44.0436079" lon="12.1456478"><ele>291.0</ele><time>2026-04-11T15:18:28.608Z</time></trkpt><trkpt lat="44.043726" lon="12.1456668"><ele>291.0</ele><time>2026-04-11T15:18:29.607Z</time></trkpt><trkpt lat="44.0438481" lon="12.1456848"><ele>291.0</ele><time>2026-04-11T15:18:30.607Z</time></trkpt><trkpt lat="44.0439606" lon="12.1457094"><ele>291.0</ele><time>2026-04-11T15:18:31.603Z</time></trkpt><trkpt lat="44.044057" lon="12.1457467"><ele>291.0</ele><time>2026-04-11T15:18:32.605Z</time></trkpt><trkpt lat="44.0441413" lon="12.1457933"><ele>291.0</ele><time>2026-04-11T15:18:33.616Z</time></trkpt><trkpt lat="44.044212" lon="12.1458548"><ele>291.0</ele><time>2026-04-11T15:18:34.606Z</time></trkpt><trkpt lat="44.0442744" lon="12.1459222"><ele>288.6666666666667</ele><time>2026-04-11T15:18:35.613Z</time></trkpt><trkpt lat="44.0443325" lon="12.1459867"><ele>286.3333333333333</ele><time>2026-04-11T15:18:36.631Z</time></trkpt><trkpt lat="44.0443822" lon="12.1460414"><ele>284.0</ele><time>2026-04-11T15:18:37.614Z</time></trkpt><trkpt lat="44.0444658" lon="12.1461441"><ele>281.66666666666663</ele><time>2026-04-11T15:18:39.616Z</time></trkpt><trkpt lat="44.0445045" lon="12.1462232"><ele>279.3333333333333</ele><time>2026-04-11T15:18:41.616Z</time></trkpt><trkpt lat="44.0445392" lon="12.1463408"><ele>277.0</ele><time>2026-04-11T15:19:09.61Z</time></trkpt><trkpt lat="44.0445618" lon="12.1464333"><ele>277.0</ele><time>2026-04-11T15:19:10.616Z</time></trkpt><trkpt lat="44.0445837" lon="12.146521"><ele>277.0</ele><time>2026-04-11T15:19:11.599Z</time></trkpt><trkpt lat="44.0445928" lon="12.1466297"><ele>277.0</ele><time>2026-04-11T15:19:12.588Z</time></trkpt><trkpt lat="44.0445875" lon="12.1467378"><ele>277.0</ele><time>2026-04-11T15:19:13.596Z</time></trkpt><trkpt lat="44.0445591" lon="12.1468405"><ele>277.0</ele><time>2026-04-11T15:19:14.602Z</time></trkpt><trkpt lat="44.0445072" lon="12.146935"><ele>277.0</ele><time>2026-04-11T15:19:15.607Z</time></trkpt><trkpt lat="44.0444384" lon="12.1470309"><ele>275.6</ele><time>2026-04-11T15:19:16.613Z</time></trkpt><trkpt lat="44.0443571" lon="12.147126"><ele>274.2</ele><time>2026-04-11T15:19:17.615Z</time></trkpt><trkpt lat="44.0442707" lon="12.1472217"><ele>272.8</ele><time>2026-04-11T15:19:18.623Z</time></trkpt><trkpt lat="44.0441769" lon="12.1473165"><ele>271.4</ele><time>2026-04-11T15:19:19.623Z</time></trkpt><trkpt lat="44.0440839" lon="12.1474061"><ele>270.0</ele><time>2026-04-11T15:19:20.622Z</time></trkpt><trkpt lat="44.0439875" lon="12.1474981"><ele>268.0</ele><time>2026-04-11T15:19:21.622Z</time></trkpt><trkpt lat="44.0438959" lon="12.1475931"><ele>266.0</ele><time>2026-04-11T15:19:22.62Z</time></trkpt><trkpt lat="44.043806" lon="12.1476892"><ele>264.0</ele><time>2026-04-11T15:19:23.618Z</time></trkpt><trkpt lat="44.0437172" lon="12.1477869"><ele>262.0</ele><time>2026-04-11T15:19:24.622Z</time></trkpt><trkpt lat="44.0436303" lon="12.1478852"><ele>262.0</ele><time>2026-04-11T15:19:25.623Z</time></trkpt><trkpt lat="44.0435394" lon="12.1479782"><ele>262.0</ele><time>2026-04-11T15:19:26.612Z</time></trkpt><trkpt lat="44.0434465" lon="12.1480461"><ele>262.0</ele><time>2026-04-11T15:19:27.605Z</time></trkpt><trkpt lat="44.0433531" lon="12.1480924"><ele>262.0</ele><time>2026-04-11T15:19:28.624Z</time></trkpt><trkpt lat="44.043265" lon="12.1481221"><ele>262.0</ele><time>2026-04-11T15:19:29.623Z</time></trkpt><trkpt lat="44.0431872" lon="12.1481639"><ele>262.2</ele><time>2026-04-11T15:19:30.611Z</time></trkpt><trkpt lat="44.0431253" lon="12.148226"><ele>262.4</ele><time>2026-04-11T15:19:31.613Z</time></trkpt><trkpt lat="44.043104" lon="12.1483192"><ele>262.6</ele><time>2026-04-11T15:19:32.606Z</time></trkpt><trkpt lat="44.0431378" lon="12.1484377"><ele>262.8</ele><time>2026-04-11T15:19:33.62Z</time></trkpt><trkpt lat="44.0432198" lon="12.1485534"><ele>263.0</ele><time>2026-04-11T15:19:34.605Z</time></trkpt><trkpt lat="44.0433027" lon="12.1486595"><ele>261.6666666666667</ele><time>2026-04-11T15:19:35.61Z</time></trkpt><trkpt lat="44.0433715" lon="12.1487593"><ele>260.33333333333337</ele><time>2026-04-11T15:19:36.599Z</time></trkpt><trkpt lat="44.0434215" lon="12.1488595"><ele>259.0</ele><time>2026-04-11T15:19:37.611Z</time></trkpt><trkpt lat="44.0434587" lon="12.1489704"><ele>257.6666666666667</ele><time>2026-04-11T15:19:38.63Z</time></trkpt><trkpt lat="44.043459" lon="12.1490891"><ele>256.3333333333333</ele><time>2026-04-11T15:19:39.616Z</time></trkpt><trkpt lat="44.0434327" lon="12.1492021"><ele>255.0</ele><time>2026-04-11T15:19:40.614Z</time></trkpt><trkpt lat="44.0433763" lon="12.1493171"><ele>254.75</ele><time>2026-04-11T15:19:41.604Z</time></trkpt><trkpt lat="44.0433095" lon="12.1494338"><ele>254.5</ele><time>2026-04-11T15:19:42.614Z</time></trkpt><trkpt lat="44.0432295" lon="12.1495554"><ele>254.25</ele><time>2026-04-11T15:19:43.613Z</time></trkpt><trkpt lat="44.0431545" lon="12.1496816"><ele>254.0</ele><time>2026-04-11T15:19:44.622Z</time></trkpt><trkpt lat="44.0430903" lon="12.14981"><ele>252.0</ele><time>2026-04-11T15:19:45.617Z</time></trkpt><trkpt lat="44.0430379" lon="12.1499458"><ele>249.99999999999997</ele><time>2026-04-11T15:19:46.61Z</time></trkpt><trkpt lat="44.0430004" lon="12.1500834"><ele>247.99999999999997</ele><time>2026-04-11T15:19:47.611Z</time></trkpt><trkpt lat="44.0429743" lon="12.1502321"><ele>246.0</ele><time>2026-04-11T15:19:48.612Z</time></trkpt><trkpt lat="44.0429498" lon="12.1503758"><ele>244.0</ele><time>2026-04-11T15:19:49.613Z</time></trkpt><trkpt lat="44.042934" lon="12.1505168"><ele>244.0</ele><time>2026-04-11T15:19:50.613Z</time></trkpt><trkpt lat="44.0429231" lon="12.1506592"><ele>243.99999999999997</ele><time>2026-04-11T15:19:51.624Z</time></trkpt><trkpt lat="44.042911" lon="12.1508046"><ele>243.99999999999997</ele><time>2026-04-11T15:19:52.615Z</time></trkpt><trkpt lat="44.0429036" lon="12.1509534"><ele>244.0</ele><time>2026-04-11T15:19:53.62Z</time></trkpt><trkpt lat="44.042893" lon="12.1511052"><ele>244.0</ele><time>2026-04-11T15:19:54.619Z</time></trkpt><trkpt lat="44.0428853" lon="12.1512594"><ele>242.25</ele><time>2026-04-11T15:19:55.619Z</time></trkpt><trkpt lat="44.0428779" lon="12.1514152"><ele>240.5</ele><time>2026-04-11T15:19:56.618Z</time></trkpt><trkpt lat="44.0428718" lon="12.1515767"><ele>238.75</ele><time>2026-04-11T15:19:57.617Z</time></trkpt><trkpt lat="44.0428643" lon="12.151735"><ele>237.0</ele><time>2026-04-11T15:19:58.613Z</time></trkpt><trkpt lat="44.0428542" lon="12.1518887"><ele>236.0</ele><time>2026-04-11T15:19:59.614Z</time></trkpt><trkpt lat="44.0428474" lon="12.1520365"><ele>235.0</ele><time>2026-04-11T15:20:00.615Z</time></trkpt><trkpt lat="44.0428345" lon="12.1521819"><ele>234.0</ele><time>2026-04-11T15:20:01.604Z</time></trkpt><trkpt lat="44.0428151" lon="12.1523197"><ele>233.0</ele><time>2026-04-11T15:20:02.616Z</time></trkpt><trkpt lat="44.0427904" lon="12.1524609"><ele>232.0</ele><time>2026-04-11T15:20:03.606Z</time></trkpt><trkpt lat="44.0427625" lon="12.1526005"><ele>230.5</ele><time>2026-04-11T15:20:04.605Z</time></trkpt><trkpt lat="44.0427295" lon="12.1527456"><ele>229.0</ele><time>2026-04-11T15:20:05.615Z</time></trkpt><trkpt lat="44.0426931" lon="12.1529178"><ele>227.5</ele><time>2026-04-11T15:20:06.611Z</time></trkpt><trkpt lat="44.0426581" lon="12.1531013"><ele>226.0</ele><time>2026-04-11T15:20:07.617Z</time></trkpt><trkpt lat="44.0426266" lon="12.1532911"><ele>224.5</ele><time>2026-04-11T15:20:08.613Z</time></trkpt><trkpt lat="44.042604" lon="12.1534731"><ele>223.0</ele><time>2026-04-11T15:20:09.628Z</time></trkpt><trkpt lat="44.0425815" lon="12.1536534"><ele>221.5</ele><time>2026-04-11T15:20:10.621Z</time></trkpt><trkpt lat="44.0425543" lon="12.1538268"><ele>220.0</ele><time>2026-04-11T15:20:11.613Z</time></trkpt><trkpt lat="44.0425219" lon="12.154003"><ele>221.25</ele><time>2026-04-11T15:20:12.613Z</time></trkpt><trkpt lat="44.0424824" lon="12.1541749"><ele>222.5</ele><time>2026-04-11T15:20:13.613Z</time></trkpt><trkpt lat="44.042429" lon="12.1543411"><ele>223.75</ele><time>2026-04-11T15:20:14.616Z</time></trkpt><trkpt lat="44.0423746" lon="12.1544965"><ele>225.0</ele><time>2026-04-11T15:20:15.597Z</time></trkpt><trkpt lat="44.0423278" lon="12.1546325"><ele>224.0</ele><time>2026-04-11T15:20:16.597Z</time></trkpt><trkpt lat="44.0422986" lon="12.1547645"><ele>223.0</ele><time>2026-04-11T15:20:17.609Z</time></trkpt><trkpt lat="44.0423055" lon="12.1548868"><ele>222.0</ele><time>2026-04-11T15:20:18.611Z</time></trkpt><trkpt lat="44.0423456" lon="12.1549877"><ele>221.0</ele><time>2026-04-11T15:20:19.606Z</time></trkpt><trkpt lat="44.0424035" lon="12.1550844"><ele>220.0</ele><time>2026-04-11T15:20:20.603Z</time></trkpt><trkpt lat="44.0424764" lon="12.1551679"><ele>220.0</ele><time>2026-04-11T15:20:21.61Z</time></trkpt><trkpt lat="44.0425722" lon="12.1552237"><ele>220.0</ele><time>2026-04-11T15:20:22.594Z</time></trkpt><trkpt lat="44.0426707" lon="12.15526"><ele>220.0</ele><time>2026-04-11T15:20:23.597Z</time></trkpt><trkpt lat="44.0427823" lon="12.1552748"><ele>220.0</ele><time>2026-04-11T15:20:24.628Z</time></trkpt><trkpt lat="44.0429089" lon="12.1552651"><ele>220.0</ele><time>2026-04-11T15:20:25.624Z</time></trkpt><trkpt lat="44.0430286" lon="12.1552556"><ele>220.0</ele><time>2026-04-11T15:20:26.618Z</time></trkpt><trkpt lat="44.0431372" lon="12.155258"><ele>220.0</ele><time>2026-04-11T15:20:27.607Z</time></trkpt><trkpt lat="44.0432383" lon="12.1552798"><ele>220.0</ele><time>2026-04-11T15:20:28.617Z</time></trkpt><trkpt lat="44.0433289" lon="12.1553276"><ele>220.0</ele><time>2026-04-11T15:20:29.619Z</time></trkpt><trkpt lat="44.0433936" lon="12.1554148"><ele>220.0</ele><time>2026-04-11T15:20:30.616Z</time></trkpt><trkpt lat="44.0434382" lon="12.1555264"><ele>219.49999999999997</ele><time>2026-04-11T15:20:31.596Z</time></trkpt><trkpt lat="44.0434584" lon="12.1556498"><ele>219.0</ele><time>2026-04-11T15:20:32.604Z</time></trkpt><trkpt lat="44.043452" lon="12.1557654"><ele>218.5</ele><time>2026-04-11T15:20:33.608Z</time></trkpt><trkpt lat="44.0434168" lon="12.1558609"><ele>218.0</ele><time>2026-04-11T15:20:34.615Z</time></trkpt><trkpt lat="44.0433448" lon="12.1559254"><ele>217.49999999999997</ele><time>2026-04-11T15:20:35.611Z</time></trkpt><trkpt lat="44.0432776" lon="12.1559785"><ele>217.0</ele><time>2026-04-11T15:20:36.601Z</time></trkpt><trkpt lat="44.0432228" lon="12.1560997"><ele>217.0</ele><time>2026-04-11T15:20:38.615Z</time></trkpt><trkpt lat="44.0432933" lon="12.1561362"><ele>217.0</ele><time>2026-04-11T15:20:40.64Z</time></trkpt><trkpt lat="44.0433645" lon="12.1560918"><ele>217.0</ele><time>2026-04-11T15:20:41.616Z</time></trkpt><trkpt lat="44.0434516" lon="12.1560102"><ele>217.0</ele><time>2026-04-11T15:20:42.606Z</time></trkpt><trkpt lat="44.0435403" lon="12.1559168"><ele>217.0</ele><time>2026-04-11T15:20:43.627Z</time></trkpt><trkpt lat="44.0436225" lon="12.1558281"><ele>216.99999999999997</ele><time>2026-04-11T15:20:44.605Z</time></trkpt><trkpt lat="44.0436957" lon="12.1557703"><ele>217.0</ele><time>2026-04-11T15:20:45.618Z</time></trkpt><trkpt lat="44.0437625" lon="12.1557676"><ele>217.0</ele><time>2026-04-11T15:20:46.611Z</time></trkpt><trkpt lat="44.0438139" lon="12.1558426"><ele>217.0</ele><time>2026-04-11T15:20:47.613Z</time></trkpt><trkpt lat="44.0438306" lon="12.1559402"><ele>216.99999999999997</ele><time>2026-04-11T15:20:48.604Z</time></trkpt><trkpt lat="44.043787" lon="12.156038"><ele>217.0</ele><time>2026-04-11T15:20:49.608Z</time></trkpt><trkpt lat="44.0436868" lon="12.1561255"><ele>217.0</ele><time>2026-04-11T15:20:50.599Z</time></trkpt><trkpt lat="44.0435597" lon="12.1562286"><ele>217.0</ele><time>2026-04-11T15:20:51.598Z</time></trkpt><trkpt lat="44.0434314" lon="12.1563111"><ele>217.0</ele><time>2026-04-11T15:20:52.607Z</time></trkpt><trkpt lat="44.0433198" lon="12.1564054"><ele>217.0</ele><time>2026-04-11T15:20:53.608Z</time></trkpt><trkpt lat="44.0432195" lon="12.1565103"><ele>213.25</ele><time>2026-04-11T15:20:54.61Z</time></trkpt><trkpt lat="44.0431188" lon="12.1566415"><ele>209.5</ele><time>2026-04-11T15:20:55.611Z</time></trkpt><trkpt lat="44.0430246" lon="12.1567848"><ele>205.75</ele><time>2026-04-11T15:20:56.612Z</time></trkpt><trkpt lat="44.0429323" lon="12.1569219"><ele>202.0</ele><time>2026-04-11T15:20:57.619Z</time></trkpt><trkpt lat="44.0428418" lon="12.1570472"><ele>202.0</ele><time>2026-04-11T15:20:58.603Z</time></trkpt><trkpt lat="44.0427498" lon="12.1571406"><ele>202.0</ele><time>2026-04-11T15:20:59.615Z</time></trkpt><trkpt lat="44.0426526" lon="12.1571995"><ele>202.0</ele><time>2026-04-11T15:21:00.616Z</time></trkpt><trkpt lat="44.0425521" lon="12.1571991"><ele>202.0</ele><time>2026-04-11T15:21:01.607Z</time></trkpt><trkpt lat="44.0424597" lon="12.1571553"><ele>202.0</ele><time>2026-04-11T15:21:02.603Z</time></trkpt><trkpt lat="44.0423787" lon="12.1571117"><ele>199.6</ele><time>2026-04-11T15:21:03.617Z</time></trkpt><trkpt lat="44.0423143" lon="12.1571105"><ele>197.2</ele><time>2026-04-11T15:21:04.603Z</time></trkpt><trkpt lat="44.0422867" lon="12.1571962"><ele>194.8</ele><time>2026-04-11T15:21:06.615Z</time></trkpt><trkpt lat="44.042347" lon="12.1572531"><ele>192.4</ele><time>2026-04-11T15:21:07.618Z</time></trkpt><trkpt lat="44.0424475" lon="12.1573295"><ele>190.0</ele><time>2026-04-11T15:21:08.622Z</time></trkpt><trkpt lat="44.0425665" lon="12.1574085"><ele>190.0</ele><time>2026-04-11T15:21:09.612Z</time></trkpt><trkpt lat="44.0426804" lon="12.1575079"><ele>190.0</ele><time>2026-04-11T15:21:10.612Z</time></trkpt><trkpt lat="44.0427862" lon="12.1576129"><ele>190.0</ele><time>2026-04-11T15:21:11.632Z</time></trkpt><trkpt lat="44.0428735" lon="12.157716"><ele>190.0</ele><time>2026-04-11T15:21:12.607Z</time></trkpt><trkpt lat="44.0429459" lon="12.157809"><ele>190.0</ele><time>2026-04-11T15:21:13.615Z</time></trkpt><trkpt lat="44.0430187" lon="12.1578621"><ele>190.0</ele><time>2026-04-11T15:21:14.624Z</time></trkpt><trkpt lat="44.0430982" lon="12.1578474"><ele>190.0</ele><time>2026-04-11T15:21:15.609Z</time></trkpt><trkpt lat="44.0431624" lon="12.1578218"><ele>190.0</ele><time>2026-04-11T15:21:16.607Z</time></trkpt><trkpt lat="44.0432351" lon="12.1578317"><ele>190.0</ele><time>2026-04-11T15:21:17.611Z</time></trkpt><trkpt lat="44.0433051" lon="12.157881"><ele>190.0</ele><time>2026-04-11T15:21:18.612Z</time></trkpt><trkpt lat="44.0433273" lon="12.1579818"><ele>190.5</ele><time>2026-04-11T15:21:19.614Z</time></trkpt><trkpt lat="44.0433094" lon="12.1581239"><ele>191.0</ele><time>2026-04-11T15:21:20.6Z</time></trkpt><trkpt lat="44.0432397" lon="12.158264"><ele>191.5</ele><time>2026-04-11T15:21:21.588Z</time></trkpt><trkpt lat="44.0431463" lon="12.1583805"><ele>192.0</ele><time>2026-04-11T15:21:22.602Z</time></trkpt><trkpt lat="44.0430351" lon="12.158457"><ele>189.5</ele><time>2026-04-11T15:21:23.598Z</time></trkpt><trkpt lat="44.0429306" lon="12.158469"><ele>187.0</ele><time>2026-04-11T15:21:24.618Z</time></trkpt><trkpt lat="44.0428407" lon="12.1584203"><ele>184.5</ele><time>2026-04-11T15:21:25.605Z</time></trkpt><trkpt lat="44.0427656" lon="12.1583529"><ele>182.0</ele><time>2026-04-11T15:21:26.596Z</time></trkpt><trkpt lat="44.0427026" lon="12.1582734"><ele>179.5</ele><time>2026-04-11T15:21:27.601Z</time></trkpt><trkpt lat="44.0426353" lon="12.1582433"><ele>177.0</ele><time>2026-04-11T15:21:28.608Z</time></trkpt><trkpt lat="44.0425479" lon="12.1583812"><ele>177.0</ele><time>2026-04-11T15:21:30.589Z</time></trkpt><trkpt lat="44.0425263" lon="12.1584887"><ele>177.0</ele><time>2026-04-11T15:21:31.592Z</time></trkpt><trkpt lat="44.0425051" lon="12.158615"><ele>177.0</ele><time>2026-04-11T15:21:32.586Z</time></trkpt><trkpt lat="44.0424966" lon="12.1587406"><ele>177.0</ele><time>2026-04-11T15:21:33.595Z</time></trkpt><trkpt lat="44.0425145" lon="12.1588769"><ele>177.0</ele><time>2026-04-11T15:21:34.588Z</time></trkpt><trkpt lat="44.0425367" lon="12.159031"><ele>174.39999999999998</ele><time>2026-04-11T15:21:35.595Z</time></trkpt><trkpt lat="44.0425681" lon="12.1591795"><ele>171.79999999999998</ele><time>2026-04-11T15:21:36.599Z</time></trkpt><trkpt lat="44.0425903" lon="12.1593324"><ele>169.2</ele><time>2026-04-11T15:21:37.601Z</time></trkpt><trkpt lat="44.0426064" lon="12.1594773"><ele>166.6</ele><time>2026-04-11T15:21:38.601Z</time></trkpt><trkpt lat="44.0426342" lon="12.1596189"><ele>164.0</ele><time>2026-04-11T15:21:39.612Z</time></trkpt><trkpt lat="44.0426866" lon="12.1597445"><ele>164.0</ele><time>2026-04-11T15:21:40.603Z</time></trkpt><trkpt lat="44.0427713" lon="12.1598341"><ele>164.0</ele><time>2026-04-11T15:21:41.62Z</time></trkpt><trkpt lat="44.0428693" lon="12.1598808"><ele>164.0</ele><time>2026-04-11T15:21:42.628Z</time></trkpt><trkpt lat="44.042972" lon="12.1599059"><ele>164.0</ele><time>2026-04-11T15:21:43.604Z</time></trkpt><trkpt lat="44.0430659" lon="12.1599412"><ele>164.0</ele><time>2026-04-11T15:21:44.598Z</time></trkpt><trkpt lat="44.043144" lon="12.1599933"><ele>161.5</ele><time>2026-04-11T15:21:45.608Z</time></trkpt><trkpt lat="44.0431912" lon="12.1600575"><ele>159.0</ele><time>2026-04-11T15:21:46.609Z</time></trkpt><trkpt lat="44.0431383" lon="12.1601764"><ele>156.5</ele><time>2026-04-11T15:21:48.612Z</time></trkpt><trkpt lat="44.043062" lon="12.1602047"><ele>154.0</ele><time>2026-04-11T15:21:49.613Z</time></trkpt><trkpt lat="44.0429706" lon="12.1602204"><ele>151.5</ele><time>2026-04-11T15:21:50.604Z</time></trkpt><trkpt lat="44.0428962" lon="12.1602634"><ele>149.0</ele><time>2026-04-11T15:21:51.621Z</time></trkpt><trkpt lat="44.0428463" lon="12.1603341"><ele>149.0</ele><time>2026-04-11T15:21:52.616Z</time></trkpt><trkpt lat="44.0428801" lon="12.1604844"><ele>149.0</ele><time>2026-04-11T15:21:54.618Z</time></trkpt><trkpt lat="44.0429438" lon="12.1605043"><ele>149.0</ele><time>2026-04-11T15:21:55.618Z</time></trkpt><trkpt lat="44.0430245" lon="12.1604646"><ele>149.0</ele><time>2026-04-11T15:21:56.62Z</time></trkpt><trkpt lat="44.0430998" lon="12.1604481"><ele>149.0</ele><time>2026-04-11T15:21:57.614Z</time></trkpt><trkpt lat="44.0431592" lon="12.1604834"><ele>149.0</ele><time>2026-04-11T15:21:58.62Z</time></trkpt><trkpt lat="44.0431717" lon="12.1606071"><ele>149.0</ele><time>2026-04-11T15:22:00.614Z</time></trkpt><trkpt lat="44.0431067" lon="12.1606678"><ele>149.0</ele><time>2026-04-11T15:22:01.592Z</time></trkpt><trkpt lat="44.043026" lon="12.1607187"><ele>149.0</ele><time>2026-04-11T15:22:02.594Z</time></trkpt><trkpt lat="44.0429386" lon="12.1607916"><ele>149.0</ele><time>2026-04-11T15:22:03.604Z</time></trkpt><trkpt lat="44.0428552" lon="12.1608745"><ele>149.0</ele><time>2026-04-11T15:22:04.595Z</time></trkpt><trkpt lat="44.0427714" lon="12.1609484"><ele>147.0</ele><time>2026-04-11T15:22:05.602Z</time></trkpt><trkpt lat="44.0426916" lon="12.1610274"><ele>145.0</ele><time>2026-04-11T15:22:06.613Z</time></trkpt><trkpt lat="44.0426227" lon="12.1611113"><ele>143.0</ele><time>2026-04-11T15:22:07.591Z</time></trkpt><trkpt lat="44.0425682" lon="12.1611979"><ele>141.0</ele><time>2026-04-11T15:22:08.605Z</time></trkpt><trkpt lat="44.0425378" lon="12.1612928"><ele>139.0</ele><time>2026-04-11T15:22:09.591Z</time></trkpt><trkpt lat="44.0425248" lon="12.1613872"><ele>137.0</ele><time>2026-04-11T15:22:10.606Z</time></trkpt><trkpt lat="44.0426063" lon="12.1614703"><ele>137.0</ele><time>2026-04-11T15:22:12.599Z</time></trkpt><trkpt lat="44.0426782" lon="12.1614354"><ele>137.0</ele><time>2026-04-11T15:22:13.612Z</time></trkpt><trkpt lat="44.0427658" lon="12.1613814"><ele>137.0</ele><time>2026-04-11T15:22:14.606Z</time></trkpt><trkpt lat="44.0428775" lon="12.1613057"><ele>137.0</ele><time>2026-04-11T15:22:15.604Z</time></trkpt><trkpt lat="44.0429873" lon="12.1612548"><ele>137.0</ele><time>2026-04-11T15:22:16.606Z</time></trkpt><trkpt lat="44.0430908" lon="12.1612054"><ele>137.0</ele><time>2026-04-11T15:22:17.605Z</time></trkpt><trkpt lat="44.0431818" lon="12.1611599"><ele>137.0</ele><time>2026-04-11T15:22:18.616Z</time></trkpt><trkpt lat="44.0432708" lon="12.1611267"><ele>137.0</ele><time>2026-04-11T15:22:19.603Z</time></trkpt><trkpt lat="44.0433514" lon="12.1611103"><ele>137.0</ele><time>2026-04-11T15:22:20.602Z</time></trkpt><trkpt lat="44.0434232" lon="12.1611287"><ele>137.0</ele><time>2026-04-11T15:22:21.59Z</time></trkpt><trkpt lat="44.0434806" lon="12.161166"><ele>137.0</ele><time>2026-04-11T15:22:22.601Z</time></trkpt><trkpt lat="44.0434344" lon="12.1612632"><ele>137.0</ele><time>2026-04-11T15:22:24.614Z</time></trkpt><trkpt lat="44.043347" lon="12.16134"><ele>137.0</ele><time>2026-04-11T15:22:25.616Z</time></trkpt><trkpt lat="44.043279" lon="12.1614438"><ele>137.0</ele><time>2026-04-11T15:22:26.605Z</time></trkpt><trkpt lat="44.0432521" lon="12.1615503"><ele>137.0</ele><time>2026-04-11T15:22:27.619Z</time></trkpt><trkpt lat="44.0432631" lon="12.161637"><ele>137.0</ele><time>2026-04-11T15:22:28.621Z</time></trkpt><trkpt lat="44.0433879" lon="12.161649"><ele>135.66666666666666</ele><time>2026-04-11T15:22:30.598Z</time></trkpt><trkpt lat="44.0434646" lon="12.1616412"><ele>134.33333333333331</ele><time>2026-04-11T15:22:31.599Z</time></trkpt><trkpt lat="44.0435336" lon="12.1616589"><ele>133.0</ele><time>2026-04-11T15:22:32.604Z</time></trkpt><trkpt lat="44.0435889" lon="12.1617251"><ele>131.66666666666666</ele><time>2026-04-11T15:22:33.6Z</time></trkpt><trkpt lat="44.0435588" lon="12.1618864"><ele>130.33333333333334</ele><time>2026-04-11T15:22:35.605Z</time></trkpt><trkpt lat="44.0434891" lon="12.1619767"><ele>129.0</ele><time>2026-04-11T15:22:36.598Z</time></trkpt><trkpt lat="44.0434477" lon="12.1620713"><ele>129.0</ele><time>2026-04-11T15:22:37.605Z</time></trkpt><trkpt lat="44.0434556" lon="12.1621676"><ele>129.0</ele><time>2026-04-11T15:22:38.608Z</time></trkpt><trkpt lat="44.0435098" lon="12.1622405"><ele>129.0</ele><time>2026-04-11T15:22:39.607Z</time></trkpt><trkpt lat="44.0435869" lon="12.1622866"><ele>129.0</ele><time>2026-04-11T15:22:40.612Z</time></trkpt><trkpt lat="44.0436712" lon="12.16232"><ele>129.0</ele><time>2026-04-11T15:22:41.616Z</time></trkpt><trkpt lat="44.0437537" lon="12.1623678"><ele>129.0</ele><time>2026-04-11T15:22:42.612Z</time></trkpt><trkpt lat="44.0438206" lon="12.1624322"><ele>126.66666666666667</ele><time>2026-04-11T15:22:43.623Z</time></trkpt><trkpt lat="44.0438625" lon="12.1625181"><ele>124.33333333333334</ele><time>2026-04-11T15:22:44.633Z</time></trkpt><trkpt lat="44.0438744" lon="12.1626229"><ele>122.0</ele><time>2026-04-11T15:22:45.606Z</time></trkpt><trkpt lat="44.0438725" lon="12.1627376"><ele>119.66666666666667</ele><time>2026-04-11T15:22:46.6Z</time></trkpt><trkpt lat="44.0438551" lon="12.1628613"><ele>117.33333333333334</ele><time>2026-04-11T15:22:47.603Z</time></trkpt><trkpt lat="44.043826" lon="12.162992"><ele>115.0</ele><time>2026-04-11T15:22:48.604Z</time></trkpt><trkpt lat="44.0437917" lon="12.163119"><ele>113.50000000000001</ele><time>2026-04-11T15:22:49.606Z</time></trkpt><trkpt lat="44.0437541" lon="12.1632372"><ele>112.0</ele><time>2026-04-11T15:22:50.609Z</time></trkpt><trkpt lat="44.0437193" lon="12.1633438"><ele>110.5</ele><time>2026-04-11T15:22:51.608Z</time></trkpt><trkpt lat="44.043691" lon="12.1634552"><ele>109.0</ele><time>2026-04-11T15:22:52.611Z</time></trkpt><trkpt lat="44.043692" lon="12.1635622"><ele>107.50000000000001</ele><time>2026-04-11T15:22:53.609Z</time></trkpt><trkpt lat="44.043711" lon="12.1636644"><ele>106.0</ele><time>2026-04-11T15:22:54.604Z</time></trkpt><trkpt lat="44.043747" lon="12.1637454"><ele>106.00000000000001</ele><time>2026-04-11T15:22:55.607Z</time></trkpt><trkpt lat="44.0438097" lon="12.1638033"><ele>106.0</ele><time>2026-04-11T15:22:56.607Z</time></trkpt><trkpt lat="44.0438847" lon="12.1638341"><ele>106.0</ele><time>2026-04-11T15:22:57.603Z</time></trkpt><trkpt lat="44.0439702" lon="12.1638413"><ele>106.0</ele><time>2026-04-11T15:22:58.598Z</time></trkpt><trkpt lat="44.0440621" lon="12.1638308"><ele>106.00000000000001</ele><time>2026-04-11T15:22:59.608Z</time></trkpt><trkpt lat="44.044145" lon="12.1638339"><ele>106.0</ele><time>2026-04-11T15:23:00.608Z</time></trkpt><trkpt lat="44.0442131" lon="12.1638588"><ele>106.25</ele><time>2026-04-11T15:23:01.602Z</time></trkpt><trkpt lat="44.0442871" lon="12.1639728"><ele>106.5</ele><time>2026-04-11T15:23:03.601Z</time></trkpt><trkpt lat="44.0442134" lon="12.1641496"><ele>106.75</ele><time>2026-04-11T15:23:05.596Z</time></trkpt><trkpt lat="44.0441394" lon="12.1642545"><ele>107.0</ele><time>2026-04-11T15:23:06.603Z</time></trkpt><trkpt lat="44.0440694" lon="12.1643606"><ele>104.39999999999999</ele><time>2026-04-11T15:23:07.596Z</time></trkpt><trkpt lat="44.0439976" lon="12.1644566"><ele>101.79999999999998</ele><time>2026-04-11T15:23:08.611Z</time></trkpt><trkpt lat="44.0439327" lon="12.1645348"><ele>99.2</ele><time>2026-04-11T15:23:09.609Z</time></trkpt><trkpt lat="44.043879" lon="12.1646041"><ele>96.6</ele><time>2026-04-11T15:23:10.591Z</time></trkpt><trkpt lat="44.0438553" lon="12.1647272"><ele>94.0</ele><time>2026-04-11T15:23:12.621Z</time></trkpt><trkpt lat="44.0439765" lon="12.1647404"><ele>94.0</ele><time>2026-04-11T15:23:14.621Z</time></trkpt><trkpt lat="44.0440506" lon="12.1646974"><ele>94.0</ele><time>2026-04-11T15:23:15.626Z</time></trkpt><trkpt lat="44.0441234" lon="12.1646434"><ele>94.0</ele><time>2026-04-11T15:23:16.608Z</time></trkpt><trkpt lat="44.044195" lon="12.1645813"><ele>94.0</ele><time>2026-04-11T15:23:17.607Z</time></trkpt><trkpt lat="44.0442621" lon="12.1645318"><ele>94.0</ele><time>2026-04-11T15:23:18.609Z</time></trkpt><trkpt lat="44.0443281" lon="12.1645124"><ele>94.0</ele><time>2026-04-11T15:23:19.605Z</time></trkpt><trkpt lat="44.0443921" lon="12.1645252"><ele>94.6</ele><time>2026-04-11T15:23:20.604Z</time></trkpt><trkpt lat="44.0444547" lon="12.1645436"><ele>95.2</ele><time>2026-04-11T15:23:21.6Z</time></trkpt><trkpt lat="44.0445554" lon="12.1646392"><ele>95.8</ele><time>2026-04-11T15:23:23.601Z</time></trkpt><trkpt lat="44.0445951" lon="12.1647089"><ele>96.39999999999999</ele><time>2026-04-11T15:23:24.603Z</time></trkpt><trkpt lat="44.0446025" lon="12.1648596"><ele>97.0</ele><time>2026-04-11T15:23:26.596Z</time></trkpt><trkpt lat="44.0445116" lon="12.1649917"><ele>95.66666666666667</ele><time>2026-04-11T15:23:28.604Z</time></trkpt><trkpt lat="44.0444547" lon="12.1650424"><ele>94.33333333333334</ele><time>2026-04-11T15:23:29.607Z</time></trkpt><trkpt lat="44.044353" lon="12.1651159"><ele>93.0</ele><time>2026-04-11T15:23:31.602Z</time></trkpt><trkpt lat="44.0442781" lon="12.1651747"><ele>91.66666666666667</ele><time>2026-04-11T15:23:33.633Z</time></trkpt><trkpt lat="44.0442192" lon="12.1652208"><ele>90.33333333333334</ele><time>2026-04-11T15:23:35.632Z</time></trkpt><trkpt lat="44.0442345" lon="12.1653346"><ele>89.0</ele><time>2026-04-11T15:23:39.627Z</time></trkpt><trkpt lat="44.0443489" lon="12.1654353"><ele>89.0</ele><time>2026-04-11T15:23:41.617Z</time></trkpt><trkpt lat="44.0444126" lon="12.1654907"><ele>89.0</ele><time>2026-04-11T15:23:42.619Z</time></trkpt><trkpt lat="44.0444727" lon="12.1655529"><ele>89.0</ele><time>2026-04-11T15:23:43.611Z</time></trkpt><trkpt lat="44.0445395" lon="12.1656192"><ele>89.0</ele><time>2026-04-11T15:23:44.611Z</time></trkpt><trkpt lat="44.0446055" lon="12.1656773"><ele>89.0</ele><time>2026-04-11T15:23:45.62Z</time></trkpt><trkpt lat="44.0446749" lon="12.1657351"><ele>89.0</ele><time>2026-04-11T15:23:46.632Z</time></trkpt><trkpt lat="44.0447487" lon="12.1658016"><ele>88.66666666666667</ele><time>2026-04-11T15:23:47.623Z</time></trkpt><trkpt lat="44.0448209" lon="12.1658728"><ele>88.33333333333334</ele><time>2026-04-11T15:23:48.619Z</time></trkpt><trkpt lat="44.0448887" lon="12.1659364"><ele>88.0</ele><time>2026-04-11T15:23:49.625Z</time></trkpt><trkpt lat="44.0449541" lon="12.1659948"><ele>87.66666666666667</ele><time>2026-04-11T15:23:50.618Z</time></trkpt><trkpt lat="44.0450123" lon="12.1660605"><ele>87.33333333333333</ele><time>2026-04-11T15:23:51.624Z</time></trkpt><trkpt lat="44.045056" lon="12.1661238"><ele>87.0</ele><time>2026-04-11T15:23:52.61Z</time></trkpt><trkpt lat="44.0450846" lon="12.1662089"><ele>87.0</ele><time>2026-04-11T15:23:53.62Z</time></trkpt><trkpt lat="44.045107" lon="12.1662974"><ele>87.0</ele><time>2026-04-11T15:23:54.619Z</time></trkpt><trkpt lat="44.0451232" lon="12.1664033"><ele>87.0</ele><time>2026-04-11T15:23:55.615Z</time></trkpt><trkpt lat="44.0451359" lon="12.1665113"><ele>87.0</ele><time>2026-04-11T15:23:56.616Z</time></trkpt><trkpt lat="44.0451373" lon="12.1666124"><ele>87.0</ele><time>2026-04-11T15:23:57.616Z</time></trkpt><trkpt lat="44.0451385" lon="12.1667206"><ele>87.0</ele><time>2026-04-11T15:23:58.616Z</time></trkpt><trkpt lat="44.0451453" lon="12.1668249"><ele>86.83333333333333</ele><time>2026-04-11T15:23:59.62Z</time></trkpt><trkpt lat="44.0451558" lon="12.1669286"><ele>86.66666666666667</ele><time>2026-04-11T15:24:00.619Z</time></trkpt><trkpt lat="44.0451674" lon="12.16702"><ele>86.5</ele><time>2026-04-11T15:24:01.616Z</time></trkpt><trkpt lat="44.0451909" lon="12.1671407"><ele>86.33333333333334</ele><time>2026-04-11T15:24:03.608Z</time></trkpt><trkpt lat="44.0452149" lon="12.1672293"><ele>86.16666666666667</ele><time>2026-04-11T15:24:07.613Z</time></trkpt><trkpt lat="44.0452752" lon="12.1672933"><ele>86.0</ele><time>2026-04-11T15:24:09.628Z</time></trkpt><trkpt lat="44.0453473" lon="12.1673302"><ele>86.0</ele><time>2026-04-11T15:24:10.606Z</time></trkpt><trkpt lat="44.0454342" lon="12.1673584"><ele>86.0</ele><time>2026-04-11T15:24:11.617Z</time></trkpt><trkpt lat="44.0455328" lon="12.1673806"><ele>86.0</ele><time>2026-04-11T15:24:12.618Z</time></trkpt><trkpt lat="44.0456333" lon="12.1673889"><ele>86.0</ele><time>2026-04-11T15:24:13.623Z</time></trkpt><trkpt lat="44.0457366" lon="12.1674013"><ele>86.0</ele><time>2026-04-11T15:24:14.628Z</time></trkpt><trkpt lat="44.0458357" lon="12.1674218"><ele>84.8</ele><time>2026-04-11T15:24:15.704Z</time></trkpt><trkpt lat="44.0459428" lon="12.1674463"><ele>83.6</ele><time>2026-04-11T15:24:16.712Z</time></trkpt><trkpt lat="44.0460511" lon="12.1674729"><ele>82.4</ele><time>2026-04-11T15:24:17.734Z</time></trkpt><trkpt lat="44.0461607" lon="12.1674985"><ele>81.2</ele><time>2026-04-11T15:24:18.718Z</time></trkpt><trkpt lat="44.0462776" lon="12.167527"><ele>80.0</ele><time>2026-04-11T15:24:19.72Z</time></trkpt><trkpt lat="44.0463924" lon="12.1675579"><ele>80.0</ele><time>2026-04-11T15:24:20.709Z</time></trkpt><trkpt lat="44.0465" lon="12.1675944"><ele>80.0</ele><time>2026-04-11T15:24:21.71Z</time></trkpt><trkpt lat="44.0466063" lon="12.1676447"><ele>80.0</ele><time>2026-04-11T15:24:22.704Z</time></trkpt><trkpt lat="44.0467131" lon="12.1677131"><ele>80.0</ele><time>2026-04-11T15:24:23.697Z</time></trkpt><trkpt lat="44.0468158" lon="12.1678021"><ele>79.25</ele><time>2026-04-11T15:24:24.687Z</time></trkpt><trkpt lat="44.0469095" lon="12.1679092"><ele>78.5</ele><time>2026-04-11T15:24:25.68Z</time></trkpt><trkpt lat="44.0469955" lon="12.168029"><ele>77.75</ele><time>2026-04-11T15:24:26.68Z</time></trkpt><trkpt lat="44.0470834" lon="12.1681571"><ele>77.0</ele><time>2026-04-11T15:24:27.684Z</time></trkpt><trkpt lat="44.0471744" lon="12.1682834"><ele>77.0</ele><time>2026-04-11T15:24:28.697Z</time></trkpt><trkpt lat="44.0472647" lon="12.1684114"><ele>77.0</ele><time>2026-04-11T15:24:29.696Z</time></trkpt><trkpt lat="44.0473464" lon="12.1685349"><ele>77.0</ele><time>2026-04-11T15:24:30.697Z</time></trkpt><trkpt lat="44.0474198" lon="12.1686678"><ele>77.0</ele><time>2026-04-11T15:24:31.689Z</time></trkpt><trkpt lat="44.0474833" lon="12.1688159"><ele>77.5</ele><time>2026-04-11T15:24:32.691Z</time></trkpt><trkpt lat="44.0475452" lon="12.1689745"><ele>78.0</ele><time>2026-04-11T15:24:33.688Z</time></trkpt><trkpt lat="44.0476048" lon="12.1691304"><ele>78.5</ele><time>2026-04-11T15:24:34.691Z</time></trkpt><trkpt lat="44.0476701" lon="12.1692952"><ele>79.0</ele><time>2026-04-11T15:24:35.69Z</time></trkpt><trkpt lat="44.0477324" lon="12.1694596"><ele>79.0</ele><time>2026-04-11T15:24:36.685Z</time></trkpt><trkpt lat="44.0477973" lon="12.1696215"><ele>79.0</ele><time>2026-04-11T15:24:37.696Z</time></trkpt><trkpt lat="44.0478599" lon="12.16978"><ele>79.0</ele><time>2026-04-11T15:24:38.698Z</time></trkpt><trkpt lat="44.0479222" lon="12.169943"><ele>79.0</ele><time>2026-04-11T15:24:39.703Z</time></trkpt><trkpt lat="44.0479841" lon="12.1701087"><ele>78.25</ele><time>2026-04-11T15:24:40.703Z</time></trkpt><trkpt lat="44.0480428" lon="12.1702748"><ele>77.5</ele><time>2026-04-11T15:24:41.7Z</time></trkpt><trkpt lat="44.0481009" lon="12.1704458"><ele>76.75</ele><time>2026-04-11T15:24:42.701Z</time></trkpt><trkpt lat="44.0481605" lon="12.1706141"><ele>76.0</ele><time>2026-04-11T15:24:43.7Z</time></trkpt><trkpt lat="44.0482231" lon="12.1707771"><ele>75.75</ele><time>2026-04-11T15:24:44.716Z</time></trkpt><trkpt lat="44.0482785" lon="12.1709406"><ele>75.5</ele><time>2026-04-11T15:24:45.699Z</time></trkpt><trkpt lat="44.04832" lon="12.1711069"><ele>75.25</ele><time>2026-04-11T15:24:46.694Z</time></trkpt><trkpt lat="44.0483475" lon="12.1712776"><ele>75.0</ele><time>2026-04-11T15:24:47.696Z</time></trkpt><trkpt lat="44.0483666" lon="12.1714499"><ele>76.25</ele><time>2026-04-11T15:24:48.708Z</time></trkpt><trkpt lat="44.0483811" lon="12.1716198"><ele>77.5</ele><time>2026-04-11T15:24:49.691Z</time></trkpt><trkpt lat="44.0483978" lon="12.1717915"><ele>78.75</ele><time>2026-04-11T15:24:50.691Z</time></trkpt><trkpt lat="44.0484208" lon="12.1719618"><ele>80.0</ele><time>2026-04-11T15:24:51.691Z</time></trkpt><trkpt lat="44.048451" lon="12.1721227"><ele>80.0</ele><time>2026-04-11T15:24:52.699Z</time></trkpt><trkpt lat="44.0484929" lon="12.1722756"><ele>80.0</ele><time>2026-04-11T15:24:53.703Z</time></trkpt><trkpt lat="44.0485539" lon="12.1724101"><ele>80.0</ele><time>2026-04-11T15:24:54.699Z</time></trkpt><trkpt lat="44.0486289" lon="12.1725293"><ele>80.0</ele><time>2026-04-11T15:24:55.69Z</time></trkpt><trkpt lat="44.0487203" lon="12.1726312"><ele>80.0</ele><time>2026-04-11T15:24:56.694Z</time></trkpt><trkpt lat="44.0488186" lon="12.1727263"><ele>80.0</ele><time>2026-04-11T15:24:57.691Z</time></trkpt><trkpt lat="44.0489182" lon="12.1728201"><ele>80.0</ele><time>2026-04-11T15:24:58.711Z</time></trkpt><trkpt lat="44.0490156" lon="12.1729156"><ele>80.0</ele><time>2026-04-11T15:24:59.713Z</time></trkpt><trkpt lat="44.0491149" lon="12.1730108"><ele>79.75</ele><time>2026-04-11T15:25:00.714Z</time></trkpt><trkpt lat="44.0492181" lon="12.1731074"><ele>79.5</ele><time>2026-04-11T15:25:01.708Z</time></trkpt><trkpt lat="44.0493198" lon="12.173202"><ele>79.25</ele><time>2026-04-11T15:25:02.719Z</time></trkpt><trkpt lat="44.0494232" lon="12.1732975"><ele>79.0</ele><time>2026-04-11T15:25:03.718Z</time></trkpt><trkpt lat="44.0495291" lon="12.1733894"><ele>79.0</ele><time>2026-04-11T15:25:04.711Z</time></trkpt><trkpt lat="44.0496361" lon="12.1734761"><ele>79.0</ele><time>2026-04-11T15:25:05.706Z</time></trkpt><trkpt lat="44.0497411" lon="12.1735336"><ele>79.0</ele><time>2026-04-11T15:25:06.703Z</time></trkpt><trkpt lat="44.0498531" lon="12.1735775"><ele>79.0</ele><time>2026-04-11T15:25:07.706Z</time></trkpt><trkpt lat="44.0499751" lon="12.1736361"><ele>78.75</ele><time>2026-04-11T15:25:08.694Z</time></trkpt><trkpt lat="44.0501066" lon="12.1736692"><ele>78.5</ele><time>2026-04-11T15:25:09.7Z</time></trkpt><trkpt lat="44.0502304" lon="12.1736967"><ele>78.25</ele><time>2026-04-11T15:25:10.709Z</time></trkpt><trkpt lat="44.0503451" lon="12.1737257"><ele>78.0</ele><time>2026-04-11T15:25:11.707Z</time></trkpt><trkpt lat="44.050447" lon="12.1737559"><ele>78.0</ele><time>2026-04-11T15:25:12.72Z</time></trkpt><trkpt lat="44.0505483" lon="12.1737915"><ele>78.0</ele><time>2026-04-11T15:25:13.721Z</time></trkpt><trkpt lat="44.0506435" lon="12.1738449"><ele>78.0</ele><time>2026-04-11T15:25:14.712Z</time></trkpt><trkpt lat="44.0507378" lon="12.1739182"><ele>78.0</ele><time>2026-04-11T15:25:15.717Z</time></trkpt><trkpt lat="44.0508283" lon="12.1740096"><ele>78.0</ele><time>2026-04-11T15:25:16.702Z</time></trkpt><trkpt lat="44.0508995" lon="12.17412"><ele>77.2</ele><time>2026-04-11T15:25:17.709Z</time></trkpt><trkpt lat="44.050969" lon="12.1742415"><ele>76.4</ele><time>2026-04-11T15:25:18.698Z</time></trkpt><trkpt lat="44.0510466" lon="12.1743648"><ele>75.60000000000001</ele><time>2026-04-11T15:25:19.718Z</time></trkpt><trkpt lat="44.0511138" lon="12.174482"><ele>74.8</ele><time>2026-04-11T15:25:20.71Z</time></trkpt><trkpt lat="44.0511832" lon="12.1746028"><ele>74.0</ele><time>2026-04-11T15:25:21.708Z</time></trkpt><trkpt lat="44.0512496" lon="12.1747217"><ele>73.75</ele><time>2026-04-11T15:25:22.708Z</time></trkpt><trkpt lat="44.0513261" lon="12.1748607"><ele>73.5</ele><time>2026-04-11T15:25:23.709Z</time></trkpt><trkpt lat="44.0514059" lon="12.1750057"><ele>73.25</ele><time>2026-04-11T15:25:24.714Z</time></trkpt><trkpt lat="44.0514735" lon="12.1751292"><ele>73.0</ele><time>2026-04-11T15:25:25.711Z</time></trkpt><trkpt lat="44.0515387" lon="12.1752488"><ele>73.0</ele><time>2026-04-11T15:25:26.714Z</time></trkpt><trkpt lat="44.0515989" lon="12.1753643"><ele>73.0</ele><time>2026-04-11T15:25:27.713Z</time></trkpt><trkpt lat="44.0516483" lon="12.1754675"><ele>73.0</ele><time>2026-04-11T15:25:28.713Z</time></trkpt><trkpt lat="44.0516843" lon="12.1755594"><ele>73.0</ele><time>2026-04-11T15:25:29.718Z</time></trkpt><trkpt lat="44.051694" lon="12.1756876"><ele>73.0</ele><time>2026-04-11T15:25:31.697Z</time></trkpt><trkpt lat="44.0516835" lon="12.1757954"><ele>73.0</ele><time>2026-04-11T15:25:33.688Z</time></trkpt><trkpt lat="44.0517295" lon="12.1758563"><ele>72.83333333333333</ele><time>2026-04-11T15:25:35.721Z</time></trkpt><trkpt lat="44.0517881" lon="12.1760003"><ele>72.66666666666666</ele><time>2026-04-11T15:25:36.714Z</time></trkpt><trkpt lat="44.0518949" lon="12.1760756"><ele>72.5</ele><time>2026-04-11T15:25:38.597Z</time></trkpt><trkpt lat="44.051949" lon="12.1761288"><ele>72.33333333333333</ele><time>2026-04-11T15:25:39.595Z</time></trkpt><trkpt lat="44.0520006" lon="12.1761921"><ele>72.16666666666667</ele><time>2026-04-11T15:25:40.596Z</time></trkpt><trkpt lat="44.0520518" lon="12.17626"><ele>72.0</ele><time>2026-04-11T15:25:41.596Z</time></trkpt><trkpt lat="44.0521023" lon="12.1763318"><ele>72.00000000000001</ele><time>2026-04-11T15:25:42.593Z</time></trkpt><trkpt lat="44.0521521" lon="12.1764013"><ele>72.0</ele><time>2026-04-11T15:25:43.592Z</time></trkpt><trkpt lat="44.0522003" lon="12.176467"><ele>72.0</ele><time>2026-04-11T15:25:44.591Z</time></trkpt><trkpt lat="44.0522457" lon="12.1765401"><ele>72.0</ele><time>2026-04-11T15:25:45.601Z</time></trkpt><trkpt lat="44.0522915" lon="12.1766143"><ele>72.0</ele><time>2026-04-11T15:25:46.601Z</time></trkpt><trkpt lat="44.0523324" lon="12.1766866"><ele>72.00000000000001</ele><time>2026-04-11T15:25:47.6Z</time></trkpt><trkpt lat="44.0523699" lon="12.176758"><ele>72.0</ele><time>2026-04-11T15:25:48.594Z</time></trkpt><trkpt lat="44.0524049" lon="12.1768311"><ele>72.00000000000001</ele><time>2026-04-11T15:25:49.596Z</time></trkpt><trkpt lat="44.0524417" lon="12.1769034"><ele>72.0</ele><time>2026-04-11T15:25:50.617Z</time></trkpt><trkpt lat="44.0524772" lon="12.1769789"><ele>72.0</ele><time>2026-04-11T15:25:51.599Z</time></trkpt><trkpt lat="44.0525194" lon="12.1770601"><ele>72.0</ele><time>2026-04-11T15:25:52.604Z</time></trkpt><trkpt lat="44.0525666" lon="12.1771435"><ele>72.0</ele><time>2026-04-11T15:25:53.596Z</time></trkpt><trkpt lat="44.0526105" lon="12.1772339"><ele>72.00000000000001</ele><time>2026-04-11T15:25:54.596Z</time></trkpt><trkpt lat="44.0526567" lon="12.1773294"><ele>72.0</ele><time>2026-04-11T15:25:55.592Z</time></trkpt><trkpt lat="44.0527052" lon="12.1774272"><ele>71.85714285714286</ele><time>2026-04-11T15:25:56.581Z</time></trkpt><trkpt lat="44.0527526" lon="12.177515"><ele>71.71428571428572</ele><time>2026-04-11T15:25:57.58Z</time></trkpt><trkpt lat="44.0528007" lon="12.1775937"><ele>71.57142857142857</ele><time>2026-04-11T15:25:58.58Z</time></trkpt><trkpt lat="44.0528601" lon="12.1776595"><ele>71.42857142857143</ele><time>2026-04-11T15:25:59.587Z</time></trkpt><trkpt lat="44.0529172" lon="12.1777239"><ele>71.28571428571428</ele><time>2026-04-11T15:26:00.583Z</time></trkpt><trkpt lat="44.0529751" lon="12.1777815"><ele>71.14285714285714</ele><time>2026-04-11T15:26:01.592Z</time></trkpt><trkpt lat="44.0530326" lon="12.1778366"><ele>71.0</ele><time>2026-04-11T15:26:02.588Z</time></trkpt><trkpt lat="44.0530916" lon="12.1778844"><ele>71.0</ele><time>2026-04-11T15:26:03.588Z</time></trkpt><trkpt lat="44.0531553" lon="12.1779374"><ele>71.0</ele><time>2026-04-11T15:26:04.588Z</time></trkpt><trkpt lat="44.0532242" lon="12.1779901"><ele>71.0</ele><time>2026-04-11T15:26:05.588Z</time></trkpt><trkpt lat="44.0532963" lon="12.1780491"><ele>71.0</ele><time>2026-04-11T15:26:06.587Z</time></trkpt><trkpt lat="44.0533733" lon="12.1781105"><ele>71.0</ele><time>2026-04-11T15:26:07.595Z</time></trkpt><trkpt lat="44.053456" lon="12.1781752"><ele>71.0</ele><time>2026-04-11T15:26:08.592Z</time></trkpt><trkpt lat="44.0535426" lon="12.1782423"><ele>71.6</ele><time>2026-04-11T15:26:09.594Z</time></trkpt><trkpt lat="44.0536305" lon="12.1783102"><ele>72.19999999999999</ele><time>2026-04-11T15:26:10.598Z</time></trkpt><trkpt lat="44.0537112" lon="12.1783785"><ele>72.80000000000001</ele><time>2026-04-11T15:26:11.594Z</time></trkpt><trkpt lat="44.0537917" lon="12.1784444"><ele>73.4</ele><time>2026-04-11T15:26:12.597Z</time></trkpt><trkpt lat="44.053877" lon="12.1785103"><ele>74.0</ele><time>2026-04-11T15:26:13.607Z</time></trkpt><trkpt lat="44.053962" lon="12.1785839"><ele>74.0</ele><time>2026-04-11T15:26:14.599Z</time></trkpt><trkpt lat="44.0540505" lon="12.1786586"><ele>74.0</ele><time>2026-04-11T15:26:15.597Z</time></trkpt><trkpt lat="44.0541395" lon="12.1787289"><ele>74.0</ele><time>2026-04-11T15:26:16.597Z</time></trkpt><trkpt lat="44.0542336" lon="12.1788024"><ele>74.0</ele><time>2026-04-11T15:26:17.607Z</time></trkpt><trkpt lat="44.0543251" lon="12.1788813"><ele>74.0</ele><time>2026-04-11T15:26:18.601Z</time></trkpt><trkpt lat="44.0544182" lon="12.1789556"><ele>74.0</ele><time>2026-04-11T15:26:19.609Z</time></trkpt><trkpt lat="44.0545108" lon="12.1790328"><ele>74.0</ele><time>2026-04-11T15:26:20.606Z</time></trkpt><trkpt lat="44.0546041" lon="12.1791103"><ele>74.0</ele><time>2026-04-11T15:26:21.622Z</time></trkpt><trkpt lat="44.0547006" lon="12.1791863"><ele>74.0</ele><time>2026-04-11T15:26:22.597Z</time></trkpt><trkpt lat="44.0547973" lon="12.1792691"><ele>74.0</ele><time>2026-04-11T15:26:23.6Z</time></trkpt><trkpt lat="44.0548957" lon="12.179358"><ele>75.75</ele><time>2026-04-11T15:26:24.598Z</time></trkpt><trkpt lat="44.0549959" lon="12.1794416"><ele>77.5</ele><time>2026-04-11T15:26:25.597Z</time></trkpt><trkpt lat="44.0550946" lon="12.1795221"><ele>79.25</ele><time>2026-04-11T15:26:26.607Z</time></trkpt><trkpt lat="44.0551934" lon="12.1795999"><ele>81.0</ele><time>2026-04-11T15:26:27.6Z</time></trkpt><trkpt lat="44.0552978" lon="12.1796741"><ele>81.0</ele><time>2026-04-11T15:26:28.6Z</time></trkpt><trkpt lat="44.0554057" lon="12.1797423"><ele>81.0</ele><time>2026-04-11T15:26:29.611Z</time></trkpt><trkpt lat="44.0555137" lon="12.1798045"><ele>81.0</ele><time>2026-04-11T15:26:30.602Z</time></trkpt><trkpt lat="44.0556186" lon="12.1798709"><ele>81.0</ele><time>2026-04-11T15:26:31.609Z</time></trkpt><trkpt lat="44.055728" lon="12.1799259"><ele>80.8</ele><time>2026-04-11T15:26:32.608Z</time></trkpt><trkpt lat="44.0558346" lon="12.1799812"><ele>80.6</ele><time>2026-04-11T15:26:33.608Z</time></trkpt><trkpt lat="44.0559408" lon="12.1800376"><ele>80.4</ele><time>2026-04-11T15:26:34.612Z</time></trkpt><trkpt lat="44.0560446" lon="12.1800886"><ele>80.2</ele><time>2026-04-11T15:26:35.616Z</time></trkpt><trkpt lat="44.0561495" lon="12.1801416"><ele>80.0</ele><time>2026-04-11T15:26:36.604Z</time></trkpt><trkpt lat="44.056257" lon="12.1801936"><ele>80.0</ele><time>2026-04-11T15:26:37.608Z</time></trkpt><trkpt lat="44.0563689" lon="12.1802487"><ele>80.0</ele><time>2026-04-11T15:26:38.609Z</time></trkpt><trkpt lat="44.0564803" lon="12.1802983"><ele>80.0</ele><time>2026-04-11T15:26:39.603Z</time></trkpt><trkpt lat="44.056587" lon="12.1803365"><ele>80.0</ele><time>2026-04-11T15:26:40.599Z</time></trkpt><trkpt lat="44.0566936" lon="12.180363"><ele>81.16666666666667</ele><time>2026-04-11T15:26:41.595Z</time></trkpt><trkpt lat="44.0567884" lon="12.1803811"><ele>82.33333333333334</ele><time>2026-04-11T15:26:42.593Z</time></trkpt><trkpt lat="44.0568808" lon="12.1803946"><ele>83.5</ele><time>2026-04-11T15:26:43.593Z</time></trkpt><trkpt lat="44.0569703" lon="12.1804059"><ele>84.66666666666667</ele><time>2026-04-11T15:26:44.595Z</time></trkpt><trkpt lat="44.0570524" lon="12.1804089"><ele>85.83333333333333</ele><time>2026-04-11T15:26:45.598Z</time></trkpt><trkpt lat="44.0571258" lon="12.1804139"><ele>87.0</ele><time>2026-04-11T15:26:46.601Z</time></trkpt><trkpt lat="44.0571921" lon="12.1804272"><ele>87.0</ele><time>2026-04-11T15:26:47.6Z</time></trkpt><trkpt lat="44.0572553" lon="12.1804369"><ele>87.0</ele><time>2026-04-11T15:26:48.603Z</time></trkpt><trkpt lat="44.0573182" lon="12.1804492"><ele>87.0</ele><time>2026-04-11T15:26:49.603Z</time></trkpt><trkpt lat="44.0573833" lon="12.1804647"><ele>87.0</ele><time>2026-04-11T15:26:50.607Z</time></trkpt><trkpt lat="44.057459" lon="12.1804785"><ele>87.0</ele><time>2026-04-11T15:26:51.601Z</time></trkpt><trkpt lat="44.0575466" lon="12.1804879"><ele>87.0</ele><time>2026-04-11T15:26:52.619Z</time></trkpt><trkpt lat="44.0576372" lon="12.1804952"><ele>87.0</ele><time>2026-04-11T15:26:53.599Z</time></trkpt><trkpt lat="44.0577271" lon="12.1805033"><ele>88.33333333333333</ele><time>2026-04-11T15:26:54.599Z</time></trkpt><trkpt lat="44.0578126" lon="12.1805157"><ele>89.66666666666667</ele><time>2026-04-11T15:26:55.605Z</time></trkpt><trkpt lat="44.0578909" lon="12.180525"><ele>91.0</ele><time>2026-04-11T15:26:56.6Z</time></trkpt><trkpt lat="44.0579592" lon="12.1805362"><ele>92.33333333333334</ele><time>2026-04-11T15:26:57.607Z</time></trkpt><trkpt lat="44.0580642" lon="12.1805485"><ele>93.66666666666667</ele><time>2026-04-11T15:26:59.601Z</time></trkpt><trkpt lat="44.058148" lon="12.1805542"><ele>95.0</ele><time>2026-04-11T15:27:01.604Z</time></trkpt><trkpt lat="44.0582465" lon="12.1805704"><ele>95.16666666666667</ele><time>2026-04-11T15:27:03.604Z</time></trkpt><trkpt lat="44.0583112" lon="12.1805787"><ele>95.33333333333334</ele><time>2026-04-11T15:27:04.599Z</time></trkpt><trkpt lat="44.0583893" lon="12.180595"><ele>95.5</ele><time>2026-04-11T15:27:05.598Z</time></trkpt><trkpt lat="44.0584765" lon="12.1806157"><ele>95.66666666666667</ele><time>2026-04-11T15:27:06.6Z</time></trkpt><trkpt lat="44.0585676" lon="12.1806343"><ele>95.83333333333333</ele><time>2026-04-11T15:27:07.6Z</time></trkpt><trkpt lat="44.0586653" lon="12.1806565"><ele>96.0</ele><time>2026-04-11T15:27:08.604Z</time></trkpt><trkpt lat="44.0587644" lon="12.1806738"><ele>95.19999999999999</ele><time>2026-04-11T15:27:09.604Z</time></trkpt><trkpt lat="44.0588673" lon="12.1806944"><ele>94.39999999999999</ele><time>2026-04-11T15:27:10.602Z</time></trkpt><trkpt lat="44.0589698" lon="12.180723"><ele>93.6</ele><time>2026-04-11T15:27:11.606Z</time></trkpt><trkpt lat="44.0590815" lon="12.1807496"><ele>92.8</ele><time>2026-04-11T15:27:12.604Z</time></trkpt><trkpt lat="44.0591939" lon="12.1807816"><ele>92.0</ele><time>2026-04-11T15:27:13.601Z</time></trkpt><trkpt lat="44.0593097" lon="12.1808121"><ele>91.75</ele><time>2026-04-11T15:27:14.607Z</time></trkpt><trkpt lat="44.0594202" lon="12.1808381"><ele>91.5</ele><time>2026-04-11T15:27:15.604Z</time></trkpt><trkpt lat="44.0595295" lon="12.1808671"><ele>91.25</ele><time>2026-04-11T15:27:16.608Z</time></trkpt><trkpt lat="44.0596392" lon="12.1808982"><ele>91.0</ele><time>2026-04-11T15:27:17.604Z</time></trkpt><trkpt lat="44.0597584" lon="12.1809264"><ele>91.0</ele><time>2026-04-11T15:27:18.603Z</time></trkpt><trkpt lat="44.059878" lon="12.1809574"><ele>91.0</ele><time>2026-04-11T15:27:19.61Z</time></trkpt><trkpt lat="44.0600018" lon="12.1809887"><ele>91.0</ele><time>2026-04-11T15:27:20.603Z</time></trkpt><trkpt lat="44.0601272" lon="12.1810234"><ele>91.0</ele><time>2026-04-11T15:27:21.606Z</time></trkpt><trkpt lat="44.0602549" lon="12.1810573"><ele>91.5</ele><time>2026-04-11T15:27:22.604Z</time></trkpt><trkpt lat="44.0603849" lon="12.1810951"><ele>92.0</ele><time>2026-04-11T15:27:23.64Z</time></trkpt><trkpt lat="44.0605124" lon="12.1811382"><ele>92.5</ele><time>2026-04-11T15:27:24.607Z</time></trkpt><trkpt lat="44.0606367" lon="12.1811754"><ele>93.0</ele><time>2026-04-11T15:27:25.609Z</time></trkpt><trkpt lat="44.0607517" lon="12.1812142"><ele>92.80000000000001</ele><time>2026-04-11T15:27:26.602Z</time></trkpt><trkpt lat="44.0608606" lon="12.1812547"><ele>92.6</ele><time>2026-04-11T15:27:27.608Z</time></trkpt><trkpt lat="44.0609618" lon="12.181297"><ele>92.4</ele><time>2026-04-11T15:27:28.609Z</time></trkpt><trkpt lat="44.061066" lon="12.1813316"><ele>92.19999999999999</ele><time>2026-04-11T15:27:29.605Z</time></trkpt><trkpt lat="44.0611689" lon="12.1813681"><ele>92.0</ele><time>2026-04-11T15:27:30.605Z</time></trkpt><trkpt lat="44.0612709" lon="12.1814053"><ele>92.0</ele><time>2026-04-11T15:27:31.602Z</time></trkpt><trkpt lat="44.0613736" lon="12.181454"><ele>92.0</ele><time>2026-04-11T15:27:32.595Z</time></trkpt><trkpt lat="44.0614726" lon="12.1815064"><ele>92.0</ele><time>2026-04-11T15:27:33.595Z</time></trkpt><trkpt lat="44.0615732" lon="12.1815596"><ele>92.0</ele><time>2026-04-11T15:27:34.586Z</time></trkpt><trkpt lat="44.0616742" lon="12.1816201"><ele>92.0</ele><time>2026-04-11T15:27:35.598Z</time></trkpt><trkpt lat="44.0617831" lon="12.1816815"><ele>91.25</ele><time>2026-04-11T15:27:36.597Z</time></trkpt><trkpt lat="44.0618946" lon="12.1817444"><ele>90.5</ele><time>2026-04-11T15:27:37.608Z</time></trkpt><trkpt lat="44.0620154" lon="12.1818088"><ele>89.75</ele><time>2026-04-11T15:27:38.599Z</time></trkpt><trkpt lat="44.0621394" lon="12.1818756"><ele>89.0</ele><time>2026-04-11T15:27:39.598Z</time></trkpt><trkpt lat="44.0622621" lon="12.181949"><ele>89.0</ele><time>2026-04-11T15:27:40.602Z</time></trkpt><trkpt lat="44.062387" lon="12.1820229"><ele>89.0</ele><time>2026-04-11T15:27:41.6Z</time></trkpt><trkpt lat="44.0625161" lon="12.1821002"><ele>89.0</ele><time>2026-04-11T15:27:42.601Z</time></trkpt><trkpt lat="44.0626505" lon="12.1821685"><ele>89.0</ele><time>2026-04-11T15:27:43.609Z</time></trkpt><trkpt lat="44.0627902" lon="12.1822307"><ele>89.0</ele><time>2026-04-11T15:27:44.598Z</time></trkpt><trkpt lat="44.0629204" lon="12.1823146"><ele>89.0</ele><time>2026-04-11T15:27:45.599Z</time></trkpt><trkpt lat="44.0630562" lon="12.1823928"><ele>89.0</ele><time>2026-04-11T15:27:46.603Z</time></trkpt><trkpt lat="44.0631923" lon="12.1824596"><ele>89.0</ele><time>2026-04-11T15:27:47.601Z</time></trkpt><trkpt lat="44.0633192" lon="12.1825204"><ele>89.25</ele><time>2026-04-11T15:27:48.608Z</time></trkpt><trkpt lat="44.0634497" lon="12.1825791"><ele>89.5</ele><time>2026-04-11T15:27:49.609Z</time></trkpt><trkpt lat="44.0635743" lon="12.1826376"><ele>89.75</ele><time>2026-04-11T15:27:50.611Z</time></trkpt><trkpt lat="44.0636897" lon="12.1826966"><ele>90.0</ele><time>2026-04-11T15:27:51.607Z</time></trkpt><trkpt lat="44.0638094" lon="12.1827574"><ele>90.0</ele><time>2026-04-11T15:27:52.606Z</time></trkpt><trkpt lat="44.0639309" lon="12.1828164"><ele>90.0</ele><time>2026-04-11T15:27:53.621Z</time></trkpt><trkpt lat="44.0640502" lon="12.1828781"><ele>90.0</ele><time>2026-04-11T15:27:54.606Z</time></trkpt><trkpt lat="44.0641594" lon="12.1829354"><ele>90.0</ele><time>2026-04-11T15:27:55.616Z</time></trkpt><trkpt lat="44.0642802" lon="12.1829824"><ele>90.0</ele><time>2026-04-11T15:27:56.608Z</time></trkpt><trkpt lat="44.0643962" lon="12.1830185"><ele>90.0</ele><time>2026-04-11T15:27:57.607Z</time></trkpt><trkpt lat="44.0645099" lon="12.1830463"><ele>90.0</ele><time>2026-04-11T15:27:58.601Z</time></trkpt><trkpt lat="44.0646195" lon="12.1830624"><ele>90.0</ele><time>2026-04-11T15:27:59.601Z</time></trkpt><trkpt lat="44.0647221" lon="12.1830421"><ele>90.0</ele><time>2026-04-11T15:28:00.605Z</time></trkpt><trkpt lat="44.0648131" lon="12.1829845"><ele>90.0</ele><time>2026-04-11T15:28:01.609Z</time></trkpt><trkpt lat="44.0648953" lon="12.1829032"><ele>90.0</ele><time>2026-04-11T15:28:02.606Z</time></trkpt><trkpt lat="44.0649675" lon="12.1828022"><ele>90.0</ele><time>2026-04-11T15:28:03.601Z</time></trkpt><trkpt lat="44.0650324" lon="12.1826856"><ele>90.0</ele><time>2026-04-11T15:28:04.599Z</time></trkpt><trkpt lat="44.0650909" lon="12.1825577"><ele>90.0</ele><time>2026-04-11T15:28:05.6Z</time></trkpt><trkpt lat="44.0651487" lon="12.1824286"><ele>89.0</ele><time>2026-04-11T15:28:06.609Z</time></trkpt><trkpt lat="44.0652099" lon="12.1823055"><ele>88.0</ele><time>2026-04-11T15:28:07.599Z</time></trkpt><trkpt lat="44.0652762" lon="12.182212"><ele>87.0</ele><time>2026-04-11T15:28:08.608Z</time></trkpt><trkpt lat="44.0653448" lon="12.1821315"><ele>86.0</ele><time>2026-04-11T15:28:09.603Z</time></trkpt><trkpt lat="44.0654142" lon="12.1820556"><ele>85.0</ele><time>2026-04-11T15:28:10.614Z</time></trkpt><trkpt lat="44.0654803" lon="12.1819927"><ele>85.0</ele><time>2026-04-11T15:28:11.606Z</time></trkpt><trkpt lat="44.0655483" lon="12.1819414"><ele>85.0</ele><time>2026-04-11T15:28:12.6Z</time></trkpt><trkpt lat="44.0656236" lon="12.1819131"><ele>85.0</ele><time>2026-04-11T15:28:13.602Z</time></trkpt><trkpt lat="44.0657037" lon="12.1819198"><ele>85.0</ele><time>2026-04-11T15:28:14.599Z</time></trkpt><trkpt lat="44.0657978" lon="12.1819758"><ele>85.0</ele><time>2026-04-11T15:28:15.604Z</time></trkpt><trkpt lat="44.0658832" lon="12.1820743"><ele>85.0</ele><time>2026-04-11T15:28:16.597Z</time></trkpt><trkpt lat="44.0659606" lon="12.1821956"><ele>84.8</ele><time>2026-04-11T15:28:17.601Z</time></trkpt><trkpt lat="44.0660297" lon="12.1823223"><ele>84.6</ele><time>2026-04-11T15:28:18.633Z</time></trkpt><trkpt lat="44.0660913" lon="12.1824266"><ele>84.4</ele><time>2026-04-11T15:28:19.709Z</time></trkpt><trkpt lat="44.0661485" lon="12.1825198"><ele>84.2</ele><time>2026-04-11T15:28:20.708Z</time></trkpt><trkpt lat="44.0661992" lon="12.1826074"><ele>84.0</ele><time>2026-04-11T15:28:21.704Z</time></trkpt><trkpt lat="44.0662461" lon="12.1826885"><ele>83.66666666666667</ele><time>2026-04-11T15:28:22.711Z</time></trkpt><trkpt lat="44.0663296" lon="12.1827845"><ele>83.33333333333333</ele><time>2026-04-11T15:28:24.737Z</time></trkpt><trkpt lat="44.0664374" lon="12.1828049"><ele>83.0</ele><time>2026-04-11T15:28:27.614Z</time></trkpt><trkpt lat="44.0664704" lon="12.1827218"><ele>82.66666666666666</ele><time>2026-04-11T15:28:28.6Z</time></trkpt><trkpt lat="44.0665003" lon="12.1826191"><ele>82.33333333333333</ele><time>2026-04-11T15:28:29.602Z</time></trkpt><trkpt lat="44.0665308" lon="12.1825119"><ele>82.0</ele><time>2026-04-11T15:28:30.605Z</time></trkpt><trkpt lat="44.0665617" lon="12.1823933"><ele>82.39999999999999</ele><time>2026-04-11T15:28:31.603Z</time></trkpt><trkpt lat="44.0665981" lon="12.1822714"><ele>82.8</ele><time>2026-04-11T15:28:32.609Z</time></trkpt><trkpt lat="44.0666415" lon="12.1821438"><ele>83.2</ele><time>2026-04-11T15:28:33.607Z</time></trkpt><trkpt lat="44.0666905" lon="12.1820023"><ele>83.6</ele><time>2026-04-11T15:28:34.601Z</time></trkpt><trkpt lat="44.0667424" lon="12.1818491"><ele>84.0</ele><time>2026-04-11T15:28:35.608Z</time></trkpt><trkpt lat="44.0667964" lon="12.1816861"><ele>86.75</ele><time>2026-04-11T15:28:36.606Z</time></trkpt><trkpt lat="44.0668508" lon="12.1815159"><ele>89.5</ele><time>2026-04-11T15:28:37.605Z</time></trkpt><trkpt lat="44.0669072" lon="12.1813417"><ele>92.25</ele><time>2026-04-11T15:28:38.597Z</time></trkpt><trkpt lat="44.0669649" lon="12.1811702"><ele>95.0</ele><time>2026-04-11T15:28:39.6Z</time></trkpt><trkpt lat="44.0670203" lon="12.1810046"><ele>97.25</ele><time>2026-04-11T15:28:40.608Z</time></trkpt><trkpt lat="44.0670762" lon="12.1808466"><ele>99.5</ele><time>2026-04-11T15:28:41.611Z</time></trkpt><trkpt lat="44.0671313" lon="12.1806941"><ele>101.75</ele><time>2026-04-11T15:28:42.605Z</time></trkpt><trkpt lat="44.0671861" lon="12.1805345"><ele>104.0</ele><time>2026-04-11T15:28:43.604Z</time></trkpt><trkpt lat="44.0672427" lon="12.1803768"><ele>104.75</ele><time>2026-04-11T15:28:44.602Z</time></trkpt><trkpt lat="44.0672959" lon="12.1802194"><ele>105.5</ele><time>2026-04-11T15:28:45.608Z</time></trkpt><trkpt lat="44.0673526" lon="12.1800605"><ele>106.25</ele><time>2026-04-11T15:28:46.598Z</time></trkpt><trkpt lat="44.067411" lon="12.1798985"><ele>107.0</ele><time>2026-04-11T15:28:47.605Z</time></trkpt><trkpt lat="44.0674652" lon="12.1797419"><ele>111.0</ele><time>2026-04-11T15:28:48.599Z</time></trkpt><trkpt lat="44.0675229" lon="12.179579"><ele>115.0</ele><time>2026-04-11T15:28:49.6Z</time></trkpt><trkpt lat="44.0675819" lon="12.1794171"><ele>119.0</ele><time>2026-04-11T15:28:50.608Z</time></trkpt><trkpt lat="44.0676418" lon="12.1792568"><ele>123.0</ele><time>2026-04-11T15:28:51.612Z</time></trkpt><trkpt lat="44.0677073" lon="12.1790984"><ele>123.75</ele><time>2026-04-11T15:28:52.611Z</time></trkpt><trkpt lat="44.0677766" lon="12.1789434"><ele>124.5</ele><time>2026-04-11T15:28:53.608Z</time></trkpt><trkpt lat="44.0678507" lon="12.1787953"><ele>125.25</ele><time>2026-04-11T15:28:54.615Z</time></trkpt><trkpt lat="44.0679301" lon="12.1786509"><ele>126.0</ele><time>2026-04-11T15:28:55.623Z</time></trkpt><trkpt lat="44.0680074" lon="12.1785056"><ele>126.0</ele><time>2026-04-11T15:28:56.6Z</time></trkpt><trkpt lat="44.0680821" lon="12.1783586"><ele>126.0</ele><time>2026-04-11T15:28:57.608Z</time></trkpt><trkpt lat="44.0681478" lon="12.1782022"><ele>126.0</ele><time>2026-04-11T15:28:58.609Z</time></trkpt><trkpt lat="44.068201" lon="12.1780378"><ele>126.0</ele><time>2026-04-11T15:28:59.606Z</time></trkpt><trkpt lat="44.0682454" lon="12.1778619"><ele>130.0</ele><time>2026-04-11T15:29:00.609Z</time></trkpt><trkpt lat="44.0682871" lon="12.1776713"><ele>134.0</ele><time>2026-04-11T15:29:01.611Z</time></trkpt><trkpt lat="44.06832" lon="12.1774525"><ele>138.0</ele><time>2026-04-11T15:29:02.602Z</time></trkpt><trkpt lat="44.0683413" lon="12.1772139"><ele>140.66666666666666</ele><time>2026-04-11T15:29:03.616Z</time></trkpt><trkpt lat="44.0683802" lon="12.1769949"><ele>143.33333333333331</ele><time>2026-04-11T15:29:04.609Z</time></trkpt><trkpt lat="44.0684138" lon="12.1767688"><ele>146.0</ele><time>2026-04-11T15:29:05.602Z</time></trkpt><trkpt lat="44.0684378" lon="12.1765265"><ele>149.33333333333331</ele><time>2026-04-11T15:29:06.608Z</time></trkpt><trkpt lat="44.0684422" lon="12.176273"><ele>152.66666666666666</ele><time>2026-04-11T15:29:07.598Z</time></trkpt><trkpt lat="44.0684361" lon="12.176001"><ele>156.0</ele><time>2026-04-11T15:29:08.609Z</time></trkpt><trkpt lat="44.0684262" lon="12.1757476"><ele>159.33333333333334</ele><time>2026-04-11T15:29:09.604Z</time></trkpt><trkpt lat="44.0684219" lon="12.1755133"><ele>162.66666666666669</ele><time>2026-04-11T15:29:10.601Z</time></trkpt><trkpt lat="44.0684271" lon="12.1752823"><ele>166.0</ele><time>2026-04-11T15:29:11.611Z</time></trkpt><trkpt lat="44.0684411" lon="12.1750458"><ele>168.66666666666669</ele><time>2026-04-11T15:29:12.61Z</time></trkpt><trkpt lat="44.0684764" lon="12.1748155"><ele>171.33333333333334</ele><time>2026-04-11T15:29:13.607Z</time></trkpt><trkpt lat="44.0685098" lon="12.1746044"><ele>174.0</ele><time>2026-04-11T15:29:14.613Z</time></trkpt><trkpt lat="44.0685393" lon="12.1743988"><ele>174.0</ele><time>2026-04-11T15:29:15.601Z</time></trkpt><trkpt lat="44.0685648" lon="12.1741955"><ele>174.0</ele><time>2026-04-11T15:29:16.601Z</time></trkpt><trkpt lat="44.0685924" lon="12.174003"><ele>174.0</ele><time>2026-04-11T15:29:17.59Z</time></trkpt><trkpt lat="44.0686224" lon="12.1738102"><ele>174.0</ele><time>2026-04-11T15:29:18.597Z</time></trkpt><trkpt lat="44.068658" lon="12.1736136"><ele>176.33333333333334</ele><time>2026-04-11T15:29:19.598Z</time></trkpt><trkpt lat="44.0686897" lon="12.1734085"><ele>178.66666666666669</ele><time>2026-04-11T15:29:20.596Z</time></trkpt><trkpt lat="44.0687135" lon="12.1731764"><ele>181.0</ele><time>2026-04-11T15:29:21.587Z</time></trkpt><trkpt lat="44.0687411" lon="12.1729974"><ele>180.5</ele><time>2026-04-11T15:29:22.602Z</time></trkpt><trkpt lat="44.0687912" lon="12.1728361"><ele>180.0</ele><time>2026-04-11T15:29:23.602Z</time></trkpt><trkpt lat="44.0688733" lon="12.1726708"><ele>179.5</ele><time>2026-04-11T15:29:24.608Z</time></trkpt><trkpt lat="44.0689643" lon="12.1725048"><ele>179.0</ele><time>2026-04-11T15:29:25.606Z</time></trkpt><trkpt lat="44.0690493" lon="12.1723551"><ele>183.0</ele><time>2026-04-11T15:29:26.624Z</time></trkpt><trkpt lat="44.0691301" lon="12.1722116"><ele>187.0</ele><time>2026-04-11T15:29:27.607Z</time></trkpt><trkpt lat="44.0692158" lon="12.1720625"><ele>191.0</ele><time>2026-04-11T15:29:28.595Z</time></trkpt><trkpt lat="44.0693016" lon="12.1719238"><ele>195.0</ele><time>2026-04-11T15:29:29.607Z</time></trkpt><trkpt lat="44.0694014" lon="12.1717773"><ele>195.0</ele><time>2026-04-11T15:29:30.603Z</time></trkpt><trkpt lat="44.0694955" lon="12.1716255"><ele>195.0</ele><time>2026-04-11T15:29:31.609Z</time></trkpt><trkpt lat="44.0696004" lon="12.1714706"><ele>195.0</ele><time>2026-04-11T15:29:32.61Z</time></trkpt><trkpt lat="44.0697087" lon="12.1713178"><ele>193.5</ele><time>2026-04-11T15:29:33.605Z</time></trkpt><trkpt lat="44.0698032" lon="12.1711667"><ele>192.0</ele><time>2026-04-11T15:29:34.606Z</time></trkpt><trkpt lat="44.0698915" lon="12.1710329"><ele>190.5</ele><time>2026-04-11T15:29:35.604Z</time></trkpt><trkpt lat="44.0699719" lon="12.1708954"><ele>189.0</ele><time>2026-04-11T15:29:36.612Z</time></trkpt><trkpt lat="44.0700513" lon="12.1707693"><ele>191.25</ele><time>2026-04-11T15:29:37.603Z</time></trkpt><trkpt lat="44.0701293" lon="12.1706379"><ele>193.5</ele><time>2026-04-11T15:29:38.608Z</time></trkpt><trkpt lat="44.0702087" lon="12.1705044"><ele>195.75</ele><time>2026-04-11T15:29:39.602Z</time></trkpt><trkpt lat="44.0702802" lon="12.1703681"><ele>198.0</ele><time>2026-04-11T15:29:40.607Z</time></trkpt><trkpt lat="44.0703444" lon="12.1702385"><ele>198.0</ele><time>2026-04-11T15:29:41.603Z</time></trkpt><trkpt lat="44.0704072" lon="12.1701107"><ele>198.0</ele><time>2026-04-11T15:29:42.611Z</time></trkpt><trkpt lat="44.0704673" lon="12.16999"><ele>198.0</ele><time>2026-04-11T15:29:43.604Z</time></trkpt><trkpt lat="44.0705202" lon="12.1698719"><ele>198.0</ele><time>2026-04-11T15:29:44.599Z</time></trkpt><trkpt lat="44.0705628" lon="12.1697659"><ele>198.0</ele><time>2026-04-11T15:29:45.615Z</time></trkpt><trkpt lat="44.0705981" lon="12.169686"><ele>199.5</ele><time>2026-04-11T15:29:46.604Z</time></trkpt><trkpt lat="44.0706582" lon="12.1695476"><ele>201.0</ele><time>2026-04-11T15:29:48.603Z</time></trkpt><trkpt lat="44.0707193" lon="12.1694215"><ele>202.5</ele><time>2026-04-11T15:29:50.601Z</time></trkpt><trkpt lat="44.0707846" lon="12.1692901"><ele>204.0</ele><time>2026-04-11T15:29:52.612Z</time></trkpt><trkpt lat="44.0708554" lon="12.1691343"><ele>204.0</ele><time>2026-04-11T15:29:54.615Z</time></trkpt><trkpt lat="44.070893" lon="12.1690502"><ele>204.0</ele><time>2026-04-11T15:29:55.614Z</time></trkpt><trkpt lat="44.0709325" lon="12.1689608"><ele>204.0</ele><time>2026-04-11T15:29:56.607Z</time></trkpt><trkpt lat="44.0709763" lon="12.1688677"><ele>204.0</ele><time>2026-04-11T15:29:57.623Z</time></trkpt><trkpt lat="44.071022" lon="12.1687678"><ele>204.0</ele><time>2026-04-11T15:29:58.605Z</time></trkpt><trkpt lat="44.0710681" lon="12.1686686"><ele>204.0</ele><time>2026-04-11T15:29:59.62Z</time></trkpt><trkpt lat="44.0711092" lon="12.168576"><ele>202.66666666666666</ele><time>2026-04-11T15:30:00.61Z</time></trkpt><trkpt lat="44.0711478" lon="12.1685012"><ele>201.33333333333331</ele><time>2026-04-11T15:30:01.599Z</time></trkpt><trkpt lat="44.071206" lon="12.1684083"><ele>200.0</ele><time>2026-04-11T15:30:03.603Z</time></trkpt><trkpt lat="44.0712423" lon="12.1683204"><ele>198.66666666666666</ele><time>2026-04-11T15:31:38.62Z</time></trkpt><trkpt lat="44.0712831" lon="12.1682273"><ele>197.33333333333331</ele><time>2026-04-11T15:31:46.627Z</time></trkpt><trkpt lat="44.0713116" lon="12.1681415"><ele>196.0</ele><time>2026-04-11T15:31:47.624Z</time></trkpt><trkpt lat="44.0713472" lon="12.1680482"><ele>196.83333333333331</ele><time>2026-04-11T15:31:48.617Z</time></trkpt><trkpt lat="44.0713893" lon="12.1679512"><ele>197.66666666666666</ele><time>2026-04-11T15:31:49.624Z</time></trkpt><trkpt lat="44.0714304" lon="12.1678534"><ele>198.5</ele><time>2026-04-11T15:31:50.616Z</time></trkpt><trkpt lat="44.07147" lon="12.167761"><ele>199.33333333333331</ele><time>2026-04-11T15:31:51.61Z</time></trkpt><trkpt lat="44.0715078" lon="12.1676778"><ele>200.16666666666666</ele><time>2026-04-11T15:31:52.614Z</time></trkpt><trkpt lat="44.0715679" lon="12.1675429"><ele>201.0</ele><time>2026-04-11T15:31:54.618Z</time></trkpt><trkpt lat="44.071615" lon="12.1674317"><ele>201.0</ele><time>2026-04-11T15:31:56.62Z</time></trkpt><trkpt lat="44.0716681" lon="12.1673839"><ele>201.0</ele><time>2026-04-11T15:31:59.628Z</time></trkpt><trkpt lat="44.0717394" lon="12.1674182"><ele>201.0</ele><time>2026-04-11T15:32:01.649Z</time></trkpt><trkpt lat="44.071825" lon="12.1674296"><ele>201.0</ele><time>2026-04-11T15:32:03.62Z</time></trkpt><trkpt lat="44.0718997" lon="12.1674435"><ele>201.0</ele><time>2026-04-11T15:32:05.618Z</time></trkpt><trkpt lat="44.0719851" lon="12.1674344"><ele>201.0</ele><time>2026-04-11T15:32:07.62Z</time></trkpt><trkpt lat="44.0720884" lon="12.1673824"><ele>201.0</ele><time>2026-04-11T15:32:09.606Z</time></trkpt><trkpt lat="44.0721786" lon="12.167383"><ele>201.0</ele><time>2026-04-11T15:32:11.61Z</time></trkpt><trkpt lat="44.0722374" lon="12.1674747"><ele>201.0</ele><time>2026-04-11T15:32:13.612Z</time></trkpt><trkpt lat="44.0722626" lon="12.1676092"><ele>201.0</ele><time>2026-04-11T15:32:15.617Z</time></trkpt><trkpt lat="44.0722622" lon="12.1677216"><ele>201.0</ele><time>2026-04-11T15:32:17.615Z</time></trkpt><trkpt lat="44.0722673" lon="12.1676228"><ele>201.0</ele><time>2026-04-11T15:32:35.618Z</time></trkpt><trkpt lat="44.0722334" lon="12.1675048"><ele>201.0</ele><time>2026-04-11T15:32:37.622Z</time></trkpt><trkpt lat="44.0722026" lon="12.1674062"><ele>201.0</ele><time>2026-04-11T15:32:39.615Z</time></trkpt><trkpt lat="44.0721538" lon="12.1673377"><ele>201.0</ele><time>2026-04-11T15:32:42.611Z</time></trkpt><trkpt lat="44.0720846" lon="12.1673143"><ele>201.0</ele><time>2026-04-11T15:32:56.62Z</time></trkpt><trkpt lat="44.071994" lon="12.1673711"><ele>201.0</ele><time>2026-04-11T15:32:58.616Z</time></trkpt><trkpt lat="44.0719363" lon="12.1674078"><ele>201.0</ele><time>2026-04-11T15:32:59.628Z</time></trkpt><trkpt lat="44.0718178" lon="12.1674411"><ele>201.0</ele><time>2026-04-11T15:33:01.616Z</time></trkpt><trkpt lat="44.0716947" lon="12.1674584"><ele>201.0</ele><time>2026-04-11T15:33:03.619Z</time></trkpt><trkpt lat="44.0716031" lon="12.1674703"><ele>201.0</ele><time>2026-04-11T15:33:05.617Z</time></trkpt><trkpt lat="44.071587" lon="12.1673325"><ele>201.0</ele><time>2026-04-11T15:33:08.613Z</time></trkpt><trkpt lat="44.0715789" lon="12.1672333"><ele>201.0</ele><time>2026-04-11T15:33:09.607Z</time></trkpt><trkpt lat="44.0715551" lon="12.1671434"><ele>200.83333333333334</ele><time>2026-04-11T15:33:10.604Z</time></trkpt><trkpt lat="44.0715195" lon="12.1670616"><ele>200.66666666666669</ele><time>2026-04-11T15:33:11.597Z</time></trkpt><trkpt lat="44.0714636" lon="12.1669796"><ele>200.5</ele><time>2026-04-11T15:33:12.6Z</time></trkpt><trkpt lat="44.0713914" lon="12.1668952"><ele>200.33333333333334</ele><time>2026-04-11T15:33:13.602Z</time></trkpt><trkpt lat="44.0713183" lon="12.1668082"><ele>200.16666666666669</ele><time>2026-04-11T15:33:14.596Z</time></trkpt><trkpt lat="44.0712376" lon="12.1667259"><ele>200.0</ele><time>2026-04-11T15:33:15.608Z</time></trkpt><trkpt lat="44.0711483" lon="12.1666313"><ele>200.0</ele><time>2026-04-11T15:33:16.608Z</time></trkpt><trkpt lat="44.0710603" lon="12.1665375"><ele>200.0</ele><time>2026-04-11T15:33:17.591Z</time></trkpt><trkpt lat="44.0709857" lon="12.1664442"><ele>200.0</ele><time>2026-04-11T15:33:18.6Z</time></trkpt><trkpt lat="44.070932" lon="12.1663508"><ele>200.0</ele><time>2026-04-11T15:33:19.598Z</time></trkpt><trkpt lat="44.0709081" lon="12.1662439"><ele>200.0</ele><time>2026-04-11T15:33:20.607Z</time></trkpt><trkpt lat="44.0709236" lon="12.1661186"><ele>201.8</ele><time>2026-04-11T15:33:21.606Z</time></trkpt><trkpt lat="44.0709605" lon="12.1660003"><ele>203.6</ele><time>2026-04-11T15:33:22.588Z</time></trkpt><trkpt lat="44.0710094" lon="12.1659006"><ele>205.39999999999998</ele><time>2026-04-11T15:33:23.599Z</time></trkpt><trkpt lat="44.0710351" lon="12.1658108"><ele>207.2</ele><time>2026-04-11T15:33:24.581Z</time></trkpt><trkpt lat="44.071026" lon="12.1656515"><ele>209.0</ele><time>2026-04-11T15:33:26.578Z</time></trkpt><trkpt lat="44.0709619" lon="12.165504"><ele>209.00000000000003</ele><time>2026-04-11T15:33:28.59Z</time></trkpt><trkpt lat="44.0709431" lon="12.1654158"><ele>209.0</ele><time>2026-04-11T15:33:29.591Z</time></trkpt><trkpt lat="44.0709342" lon="12.1653153"><ele>209.0</ele><time>2026-04-11T15:33:30.596Z</time></trkpt><trkpt lat="44.0709525" lon="12.1652071"><ele>209.0</ele><time>2026-04-11T15:33:31.591Z</time></trkpt><trkpt lat="44.0709946" lon="12.1651073"><ele>209.00000000000003</ele><time>2026-04-11T15:33:32.603Z</time></trkpt><trkpt lat="44.0710735" lon="12.1650228"><ele>209.0</ele><time>2026-04-11T15:33:33.6Z</time></trkpt><trkpt lat="44.0711646" lon="12.1649588"><ele>209.0</ele><time>2026-04-11T15:33:34.586Z</time></trkpt><trkpt lat="44.0712658" lon="12.1649106"><ele>209.0</ele><time>2026-04-11T15:33:35.593Z</time></trkpt><trkpt lat="44.0713644" lon="12.1648646"><ele>209.0</ele><time>2026-04-11T15:33:36.591Z</time></trkpt><trkpt lat="44.071462" lon="12.1648167"><ele>209.0</ele><time>2026-04-11T15:33:37.59Z</time></trkpt><trkpt lat="44.0715597" lon="12.1647762"><ele>209.0</ele><time>2026-04-11T15:33:38.583Z</time></trkpt><trkpt lat="44.0716509" lon="12.1647297"><ele>211.0</ele><time>2026-04-11T15:33:39.589Z</time></trkpt><trkpt lat="44.0717361" lon="12.1646763"><ele>213.0</ele><time>2026-04-11T15:33:40.587Z</time></trkpt><trkpt lat="44.0718169" lon="12.1646093"><ele>214.99999999999997</ele><time>2026-04-11T15:33:41.593Z</time></trkpt><trkpt lat="44.0718891" lon="12.164538"><ele>217.0</ele><time>2026-04-11T15:33:42.592Z</time></trkpt><trkpt lat="44.0719583" lon="12.1644457"><ele>219.0</ele><time>2026-04-11T15:33:43.588Z</time></trkpt><trkpt lat="44.0720264" lon="12.1643459"><ele>219.0</ele><time>2026-04-11T15:33:44.599Z</time></trkpt><trkpt lat="44.0721009" lon="12.1642535"><ele>218.99999999999997</ele><time>2026-04-11T15:33:45.581Z</time></trkpt><trkpt lat="44.0721803" lon="12.1641746"><ele>218.99999999999997</ele><time>2026-04-11T15:33:46.59Z</time></trkpt><trkpt lat="44.0722653" lon="12.1640975"><ele>219.0</ele><time>2026-04-11T15:33:47.587Z</time></trkpt><trkpt lat="44.0723439" lon="12.1640169"><ele>219.0</ele><time>2026-04-11T15:33:48.582Z</time></trkpt><trkpt lat="44.0724125" lon="12.1639222"><ele>224.39999999999998</ele><time>2026-04-11T15:33:49.59Z</time></trkpt><trkpt lat="44.0724723" lon="12.1638106"><ele>229.79999999999998</ele><time>2026-04-11T15:33:50.585Z</time></trkpt><trkpt lat="44.0725154" lon="12.1636802"><ele>235.20000000000002</ele><time>2026-04-11T15:33:51.592Z</time></trkpt><trkpt lat="44.0725525" lon="12.1635423"><ele>240.60000000000002</ele><time>2026-04-11T15:33:52.584Z</time></trkpt><trkpt lat="44.0725662" lon="12.1634007"><ele>246.0</ele><time>2026-04-11T15:33:53.586Z</time></trkpt><trkpt lat="44.0725626" lon="12.1632565"><ele>245.4</ele><time>2026-04-11T15:33:54.592Z</time></trkpt><trkpt lat="44.0725204" lon="12.1631258"><ele>244.8</ele><time>2026-04-11T15:33:55.579Z</time></trkpt><trkpt lat="44.0724648" lon="12.163008"><ele>244.20000000000002</ele><time>2026-04-11T15:33:56.593Z</time></trkpt><trkpt lat="44.072413" lon="12.1628908"><ele>243.60000000000002</ele><time>2026-04-11T15:33:57.587Z</time></trkpt><trkpt lat="44.0723931" lon="12.1627612"><ele>243.0</ele><time>2026-04-11T15:33:58.594Z</time></trkpt><trkpt lat="44.0724189" lon="12.1626307"><ele>243.0</ele><time>2026-04-11T15:33:59.589Z</time></trkpt><trkpt lat="44.0724638" lon="12.162516"><ele>243.0</ele><time>2026-04-11T15:34:00.593Z</time></trkpt><trkpt lat="44.0725279" lon="12.1624171"><ele>243.0</ele><time>2026-04-11T15:34:01.591Z</time></trkpt><trkpt lat="44.072609" lon="12.1623166"><ele>243.0</ele><time>2026-04-11T15:34:02.583Z</time></trkpt><trkpt lat="44.0726976" lon="12.1622199"><ele>243.0</ele><time>2026-04-11T15:34:03.584Z</time></trkpt><trkpt lat="44.0727891" lon="12.1621211"><ele>238.75</ele><time>2026-04-11T15:34:04.603Z</time></trkpt><trkpt lat="44.0728852" lon="12.1620213"><ele>234.5</ele><time>2026-04-11T15:34:05.589Z</time></trkpt><trkpt lat="44.0729846" lon="12.161913"><ele>230.25</ele><time>2026-04-11T15:34:06.579Z</time></trkpt><trkpt lat="44.0730864" lon="12.1618136"><ele>226.0</ele><time>2026-04-11T15:34:07.583Z</time></trkpt><trkpt lat="44.0731827" lon="12.1617323"><ele>229.75</ele><time>2026-04-11T15:34:08.582Z</time></trkpt><trkpt lat="44.0732816" lon="12.1616528"><ele>233.5</ele><time>2026-04-11T15:34:09.584Z</time></trkpt><trkpt lat="44.0733801" lon="12.1615726"><ele>237.25</ele><time>2026-04-11T15:34:10.583Z</time></trkpt><trkpt lat="44.0734836" lon="12.1614954"><ele>241.0</ele><time>2026-04-11T15:34:11.583Z</time></trkpt><trkpt lat="44.0735803" lon="12.1614131"><ele>241.0</ele><time>2026-04-11T15:34:12.585Z</time></trkpt><trkpt lat="44.0736743" lon="12.1613415"><ele>241.00000000000003</ele><time>2026-04-11T15:34:13.579Z</time></trkpt><trkpt lat="44.0737605" lon="12.1612696"><ele>241.00000000000003</ele><time>2026-04-11T15:34:14.588Z</time></trkpt><trkpt lat="44.0738304" lon="12.1611992"><ele>241.0</ele><time>2026-04-11T15:34:15.577Z</time></trkpt><trkpt lat="44.0738869" lon="12.1611349"><ele>241.0</ele><time>2026-04-11T15:34:16.576Z</time></trkpt><trkpt lat="44.073974" lon="12.1610287"><ele>240.99999999999997</ele><time>2026-04-11T15:34:18.58Z</time></trkpt><trkpt lat="44.0740282" lon="12.160911"><ele>241.0</ele><time>2026-04-11T15:34:20.582Z</time></trkpt><trkpt lat="44.0740473" lon="12.160791"><ele>241.0</ele><time>2026-04-11T15:34:22.584Z</time></trkpt><trkpt lat="44.0740595" lon="12.1606851"><ele>241.0</ele><time>2026-04-11T15:34:24.587Z</time></trkpt><trkpt lat="44.074081" lon="12.1605522"><ele>240.99999999999997</ele><time>2026-04-11T15:34:26.577Z</time></trkpt><trkpt lat="44.0741028" lon="12.1604677"><ele>241.0</ele><time>2026-04-11T15:34:27.582Z</time></trkpt><trkpt lat="44.0741332" lon="12.1603684"><ele>243.49999999999997</ele><time>2026-04-11T15:34:28.59Z</time></trkpt><trkpt lat="44.0741797" lon="12.1602743"><ele>246.0</ele><time>2026-04-11T15:34:29.594Z</time></trkpt><trkpt lat="44.074237" lon="12.1601847"><ele>248.5</ele><time>2026-04-11T15:34:30.59Z</time></trkpt><trkpt lat="44.0743043" lon="12.1601024"><ele>251.0</ele><time>2026-04-11T15:34:31.593Z</time></trkpt><trkpt lat="44.074375" lon="12.1600273"><ele>253.49999999999997</ele><time>2026-04-11T15:34:32.594Z</time></trkpt><trkpt lat="44.0744569" lon="12.159963"><ele>256.0</ele><time>2026-04-11T15:34:33.597Z</time></trkpt><trkpt lat="44.0745436" lon="12.1598918"><ele>258.40000000000003</ele><time>2026-04-11T15:34:34.588Z</time></trkpt><trkpt lat="44.0746372" lon="12.1598176"><ele>260.8</ele><time>2026-04-11T15:34:35.605Z</time></trkpt><trkpt lat="44.0747275" lon="12.1597445"><ele>263.20000000000005</ele><time>2026-04-11T15:34:36.587Z</time></trkpt><trkpt lat="44.0748177" lon="12.1596723"><ele>265.6</ele><time>2026-04-11T15:34:37.596Z</time></trkpt><trkpt lat="44.0749048" lon="12.1595976"><ele>268.0</ele><time>2026-04-11T15:34:38.59Z</time></trkpt><trkpt lat="44.0749916" lon="12.1595177"><ele>268.0</ele><time>2026-04-11T15:34:39.592Z</time></trkpt><trkpt lat="44.0750769" lon="12.1594369"><ele>268.0</ele><time>2026-04-11T15:34:40.594Z</time></trkpt><trkpt lat="44.0751633" lon="12.1593526"><ele>268.0</ele><time>2026-04-11T15:34:41.589Z</time></trkpt><trkpt lat="44.0752516" lon="12.1592642"><ele>268.0</ele><time>2026-04-11T15:34:42.594Z</time></trkpt><trkpt lat="44.0753348" lon="12.1591741"><ele>268.0</ele><time>2026-04-11T15:34:43.592Z</time></trkpt><trkpt lat="44.0754167" lon="12.1590883"><ele>268.8</ele><time>2026-04-11T15:34:44.6Z</time></trkpt><trkpt lat="44.0754973" lon="12.1590044"><ele>269.6</ele><time>2026-04-11T15:34:45.589Z</time></trkpt><trkpt lat="44.0755787" lon="12.1589265"><ele>270.4</ele><time>2026-04-11T15:34:46.587Z</time></trkpt><trkpt lat="44.0756574" lon="12.1588767"><ele>271.2</ele><time>2026-04-11T15:34:47.581Z</time></trkpt><trkpt lat="44.07574" lon="12.158853"><ele>272.0</ele><time>2026-04-11T15:34:48.586Z</time></trkpt><trkpt lat="44.07582" lon="12.1588454"><ele>272.0</ele><time>2026-04-11T15:34:49.593Z</time></trkpt><trkpt lat="44.0758958" lon="12.1588365"><ele>272.0</ele><time>2026-04-11T15:34:50.592Z</time></trkpt><trkpt lat="44.0759652" lon="12.1588321"><ele>272.0</ele><time>2026-04-11T15:34:51.592Z</time></trkpt><trkpt lat="44.0760753" lon="12.1587743"><ele>272.0</ele><time>2026-04-11T15:34:53.595Z</time></trkpt><trkpt lat="44.0761593" lon="12.158678"><ele>272.0</ele><time>2026-04-11T15:34:55.587Z</time></trkpt><trkpt lat="44.076201" lon="12.1586034"><ele>272.0</ele><time>2026-04-11T15:34:56.597Z</time></trkpt><trkpt lat="44.076242" lon="12.1585228"><ele>272.0</ele><time>2026-04-11T15:34:57.59Z</time></trkpt><trkpt lat="44.0762844" lon="12.1584321"><ele>272.0</ele><time>2026-04-11T15:34:58.591Z</time></trkpt><trkpt lat="44.0763329" lon="12.1583423"><ele>272.0</ele><time>2026-04-11T15:34:59.602Z</time></trkpt><trkpt lat="44.0763826" lon="12.1582503"><ele>272.0</ele><time>2026-04-11T15:35:00.599Z</time></trkpt><trkpt lat="44.0764315" lon="12.1581539"><ele>272.0</ele><time>2026-04-11T15:35:01.597Z</time></trkpt><trkpt lat="44.0764873" lon="12.1580593"><ele>272.0</ele><time>2026-04-11T15:35:02.598Z</time></trkpt><trkpt lat="44.076546" lon="12.157965"><ele>270.33333333333337</ele><time>2026-04-11T15:35:03.594Z</time></trkpt><trkpt lat="44.0765973" lon="12.1578768"><ele>268.6666666666667</ele><time>2026-04-11T15:35:04.602Z</time></trkpt><trkpt lat="44.0766461" lon="12.1578024"><ele>267.0</ele><time>2026-04-11T15:35:05.592Z</time></trkpt><trkpt lat="44.0766913" lon="12.157733"><ele>265.3333333333333</ele><time>2026-04-11T15:35:06.618Z</time></trkpt><trkpt lat="44.0767705" lon="12.1576138"><ele>263.66666666666663</ele><time>2026-04-11T15:35:08.613Z</time></trkpt><trkpt lat="44.0768298" lon="12.157517"><ele>262.0</ele><time>2026-04-11T15:35:10.607Z</time></trkpt><trkpt lat="44.0769053" lon="12.1574355"><ele>266.4</ele><time>2026-04-11T15:35:12.614Z</time></trkpt><trkpt lat="44.0769682" lon="12.1573568"><ele>270.79999999999995</ele><time>2026-04-11T15:35:14.627Z</time></trkpt><trkpt lat="44.0770325" lon="12.157303"><ele>275.2</ele><time>2026-04-11T15:35:17.62Z</time></trkpt><trkpt lat="44.0771225" lon="12.1573407"><ele>279.59999999999997</ele><time>2026-04-11T15:35:21.623Z</time></trkpt><trkpt lat="44.0771885" lon="12.1574503"><ele>284.0</ele><time>2026-04-11T15:35:23.632Z</time></trkpt><trkpt lat="44.0772528" lon="12.1575751"><ele>284.2</ele><time>2026-04-11T15:35:25.624Z</time></trkpt><trkpt lat="44.0773199" lon="12.1577082"><ele>284.4</ele><time>2026-04-11T15:35:27.62Z</time></trkpt><trkpt lat="44.0773927" lon="12.1578488"><ele>284.6</ele><time>2026-04-11T15:35:29.62Z</time></trkpt><trkpt lat="44.077441" lon="12.1579073"><ele>284.8</ele><time>2026-04-11T15:35:30.619Z</time></trkpt><trkpt lat="44.0775033" lon="12.1579619"><ele>285.0</ele><time>2026-04-11T15:35:31.624Z</time></trkpt><trkpt lat="44.0775731" lon="12.1580075"><ele>284.4</ele><time>2026-04-11T15:35:32.617Z</time></trkpt><trkpt lat="44.077658" lon="12.1580619"><ele>283.8</ele><time>2026-04-11T15:35:33.612Z</time></trkpt><trkpt lat="44.0777408" lon="12.1581282"><ele>283.2</ele><time>2026-04-11T15:35:34.624Z</time></trkpt><trkpt lat="44.0778176" lon="12.1582206"><ele>282.6</ele><time>2026-04-11T15:35:35.613Z</time></trkpt><trkpt lat="44.0778835" lon="12.1583125"><ele>282.0</ele><time>2026-04-11T15:35:36.609Z</time></trkpt><trkpt lat="44.0779315" lon="12.1584073"><ele>283.8571428571429</ele><time>2026-04-11T15:35:37.629Z</time></trkpt><trkpt lat="44.0779628" lon="12.1585079"><ele>285.7142857142857</ele><time>2026-04-11T15:35:38.609Z</time></trkpt><trkpt lat="44.0779733" lon="12.158609"><ele>287.57142857142856</ele><time>2026-04-11T15:35:39.607Z</time></trkpt><trkpt lat="44.077965" lon="12.158714"><ele>289.42857142857144</ele><time>2026-04-11T15:35:40.604Z</time></trkpt><trkpt lat="44.0779451" lon="12.1588118"><ele>291.2857142857143</ele><time>2026-04-11T15:35:41.617Z</time></trkpt><trkpt lat="44.0779197" lon="12.1589064"><ele>293.14285714285717</ele><time>2026-04-11T15:35:42.611Z</time></trkpt><trkpt lat="44.0778903" lon="12.1589996"><ele>295.0</ele><time>2026-04-11T15:35:43.612Z</time></trkpt><trkpt lat="44.0778504" lon="12.1590788"><ele>296.0</ele><time>2026-04-11T15:35:44.617Z</time></trkpt><trkpt lat="44.0778025" lon="12.1591517"><ele>297.0</ele><time>2026-04-11T15:35:45.619Z</time></trkpt><trkpt lat="44.0777483" lon="12.1592139"><ele>298.0</ele><time>2026-04-11T15:35:46.619Z</time></trkpt><trkpt lat="44.0776963" lon="12.159278"><ele>299.0</ele><time>2026-04-11T15:35:47.628Z</time></trkpt><trkpt lat="44.0776171" lon="12.1593962"><ele>300.0</ele><time>2026-04-11T15:35:49.619Z</time></trkpt><trkpt lat="44.0775683" lon="12.159497"><ele>301.0</ele><time>2026-04-11T15:35:51.609Z</time></trkpt><trkpt lat="44.0775388" lon="12.1595825"><ele>301.0</ele><time>2026-04-11T15:35:53.612Z</time></trkpt><trkpt lat="44.0775024" lon="12.1596696"><ele>301.0</ele><time>2026-04-11T15:36:18.604Z</time></trkpt><trkpt lat="44.0774564" lon="12.1598287"><ele>301.0</ele><time>2026-04-11T15:36:20.592Z</time></trkpt><trkpt lat="44.0774202" lon="12.1599408"><ele>301.0</ele><time>2026-04-11T15:36:21.592Z</time></trkpt><trkpt lat="44.0773704" lon="12.1600701"><ele>301.0</ele><time>2026-04-11T15:36:22.596Z</time></trkpt><trkpt lat="44.0773082" lon="12.1602308"><ele>304.75</ele><time>2026-04-11T15:36:23.592Z</time></trkpt><trkpt lat="44.0772494" lon="12.1604109"><ele>308.5</ele><time>2026-04-11T15:36:24.587Z</time></trkpt><trkpt lat="44.0771981" lon="12.1606003"><ele>312.25</ele><time>2026-04-11T15:36:25.595Z</time></trkpt><trkpt lat="44.0771554" lon="12.1608096"><ele>316.0</ele><time>2026-04-11T15:36:26.586Z</time></trkpt><trkpt lat="44.0771375" lon="12.1610522"><ele>316.75</ele><time>2026-04-11T15:36:27.596Z</time></trkpt><trkpt lat="44.0771153" lon="12.1612594"><ele>317.5</ele><time>2026-04-11T15:36:28.595Z</time></trkpt><trkpt lat="44.0771096" lon="12.161442"><ele>318.25</ele><time>2026-04-11T15:36:29.6Z</time></trkpt><trkpt lat="44.0770927" lon="12.1615901"><ele>319.0</ele><time>2026-04-11T15:36:30.596Z</time></trkpt><trkpt lat="44.0770812" lon="12.1617315"><ele>319.0</ele><time>2026-04-11T15:36:31.598Z</time></trkpt><trkpt lat="44.07706" lon="12.1618551"><ele>319.0</ele><time>2026-04-11T15:36:32.597Z</time></trkpt><trkpt lat="44.0770441" lon="12.1619747"><ele>319.0</ele><time>2026-04-11T15:36:33.594Z</time></trkpt><trkpt lat="44.0770307" lon="12.1620785"><ele>319.0</ele><time>2026-04-11T15:36:34.595Z</time></trkpt><trkpt lat="44.0770153" lon="12.1621771"><ele>319.0</ele><time>2026-04-11T15:36:35.593Z</time></trkpt><trkpt lat="44.0770007" lon="12.1622771"><ele>319.0</ele><time>2026-04-11T15:36:36.596Z</time></trkpt><trkpt lat="44.0769909" lon="12.1623748"><ele>317.0</ele><time>2026-04-11T15:36:37.594Z</time></trkpt><trkpt lat="44.0769862" lon="12.162469"><ele>315.0</ele><time>2026-04-11T15:36:38.597Z</time></trkpt><trkpt lat="44.0769861" lon="12.1625627"><ele>313.0</ele><time>2026-04-11T15:36:39.632Z</time></trkpt><trkpt lat="44.0769819" lon="12.1626543"><ele>311.0</ele><time>2026-04-11T15:36:40.604Z</time></trkpt><trkpt lat="44.0769797" lon="12.1627451"><ele>309.0</ele><time>2026-04-11T15:36:41.6Z</time></trkpt><trkpt lat="44.0769882" lon="12.1629197"><ele>307.0</ele><time>2026-04-11T15:36:43.605Z</time></trkpt><trkpt lat="44.0770016" lon="12.163085"><ele>305.3333333333333</ele><time>2026-04-11T15:36:45.598Z</time></trkpt><trkpt lat="44.0770123" lon="12.1632176"><ele>303.66666666666663</ele><time>2026-04-11T15:36:47.603Z</time></trkpt><trkpt lat="44.0770308" lon="12.1633197"><ele>302.0</ele><time>2026-04-11T15:36:49.606Z</time></trkpt><trkpt lat="44.0770548" lon="12.1634238"><ele>300.3333333333333</ele><time>2026-04-11T15:36:51.599Z</time></trkpt><trkpt lat="44.0770793" lon="12.1635324"><ele>298.6666666666667</ele><time>2026-04-11T15:36:53.601Z</time></trkpt><trkpt lat="44.0771091" lon="12.1636577"><ele>297.0</ele><time>2026-04-11T15:36:55.605Z</time></trkpt><trkpt lat="44.0771496" lon="12.1638019"><ele>297.0</ele><time>2026-04-11T15:36:57.598Z</time></trkpt><trkpt lat="44.0771835" lon="12.1639528"><ele>297.0</ele><time>2026-04-11T15:36:59.599Z</time></trkpt><trkpt lat="44.077221" lon="12.1641127"><ele>297.0</ele><time>2026-04-11T15:37:01.602Z</time></trkpt><trkpt lat="44.0772513" lon="12.1642867"><ele>297.0</ele><time>2026-04-11T15:37:03.607Z</time></trkpt><trkpt lat="44.0772666" lon="12.164381"><ele>297.0</ele><time>2026-04-11T15:37:04.604Z</time></trkpt><trkpt lat="44.07728" lon="12.1644771"><ele>296.5</ele><time>2026-04-11T15:37:05.601Z</time></trkpt><trkpt lat="44.0772887" lon="12.1645783"><ele>296.0</ele><time>2026-04-11T15:37:06.589Z</time></trkpt><trkpt lat="44.0772922" lon="12.1646841"><ele>295.5</ele><time>2026-04-11T15:37:07.606Z</time></trkpt><trkpt lat="44.0772958" lon="12.1647927"><ele>295.0</ele><time>2026-04-11T15:37:08.613Z</time></trkpt><trkpt lat="44.0773028" lon="12.1649017"><ele>294.5</ele><time>2026-04-11T15:37:09.62Z</time></trkpt><trkpt lat="44.0773084" lon="12.1650137"><ele>294.0</ele><time>2026-04-11T15:37:10.606Z</time></trkpt><trkpt lat="44.0773126" lon="12.1651214"><ele>293.14285714285717</ele><time>2026-04-11T15:37:11.61Z</time></trkpt><trkpt lat="44.0773161" lon="12.165227"><ele>292.2857142857143</ele><time>2026-04-11T15:37:12.611Z</time></trkpt><trkpt lat="44.0773183" lon="12.1653328"><ele>291.42857142857144</ele><time>2026-04-11T15:37:13.608Z</time></trkpt><trkpt lat="44.0773219" lon="12.1654395"><ele>290.57142857142856</ele><time>2026-04-11T15:37:14.609Z</time></trkpt><trkpt lat="44.0773264" lon="12.1655447"><ele>289.7142857142857</ele><time>2026-04-11T15:37:15.605Z</time></trkpt><trkpt lat="44.077333" lon="12.1656412"><ele>288.8571428571429</ele><time>2026-04-11T15:37:16.611Z</time></trkpt><trkpt lat="44.0773395" lon="12.1657285"><ele>288.0</ele><time>2026-04-11T15:37:17.604Z</time></trkpt><trkpt lat="44.0773525" lon="12.1658747"><ele>285.6666666666667</ele><time>2026-04-11T15:37:19.605Z</time></trkpt><trkpt lat="44.0773648" lon="12.1659816"><ele>283.3333333333333</ele><time>2026-04-11T15:37:21.608Z</time></trkpt><trkpt lat="44.0774072" lon="12.166062"><ele>281.0</ele><time>2026-04-11T15:37:26.605Z</time></trkpt><trkpt lat="44.0774974" lon="12.1660124"><ele>278.66666666666663</ele><time>2026-04-11T15:37:29.616Z</time></trkpt><trkpt lat="44.0775936" lon="12.1659484"><ele>276.3333333333333</ele><time>2026-04-11T15:37:31.618Z</time></trkpt><trkpt lat="44.0776529" lon="12.1659162"><ele>274.0</ele><time>2026-04-11T15:37:32.603Z</time></trkpt><trkpt lat="44.0777182" lon="12.1658843"><ele>274.00000000000006</ele><time>2026-04-11T15:37:33.603Z</time></trkpt><trkpt lat="44.0777811" lon="12.1658568"><ele>274.0</ele><time>2026-04-11T15:37:34.612Z</time></trkpt><trkpt lat="44.0778451" lon="12.1658336"><ele>274.0</ele><time>2026-04-11T15:37:35.607Z</time></trkpt><trkpt lat="44.0779068" lon="12.1658051"><ele>274.0</ele><time>2026-04-11T15:37:36.602Z</time></trkpt><trkpt lat="44.0779698" lon="12.1657734"><ele>274.0</ele><time>2026-04-11T15:37:37.605Z</time></trkpt><trkpt lat="44.0780387" lon="12.1657383"><ele>274.00000000000006</ele><time>2026-04-11T15:37:38.604Z</time></trkpt><trkpt lat="44.078114" lon="12.165703"><ele>274.0</ele><time>2026-04-11T15:37:39.603Z</time></trkpt><trkpt lat="44.0781926" lon="12.1656619"><ele>271.66666666666663</ele><time>2026-04-11T15:37:40.626Z</time></trkpt><trkpt lat="44.0782791" lon="12.1656189"><ele>269.3333333333333</ele><time>2026-04-11T15:37:41.602Z</time></trkpt><trkpt lat="44.0783661" lon="12.1655793"><ele>267.0</ele><time>2026-04-11T15:37:42.616Z</time></trkpt><trkpt lat="44.0784505" lon="12.165542"><ele>264.6666666666667</ele><time>2026-04-11T15:37:43.604Z</time></trkpt><trkpt lat="44.0785313" lon="12.1655038"><ele>262.33333333333337</ele><time>2026-04-11T15:37:44.603Z</time></trkpt><trkpt lat="44.078602" lon="12.1654705"><ele>260.0</ele><time>2026-04-11T15:37:45.6Z</time></trkpt><trkpt lat="44.0786766" lon="12.1654406"><ele>260.00000000000006</ele><time>2026-04-11T15:37:46.616Z</time></trkpt><trkpt lat="44.0787491" lon="12.1654234"><ele>260.0</ele><time>2026-04-11T15:37:47.599Z</time></trkpt><trkpt lat="44.0788207" lon="12.1654128"><ele>260.0</ele><time>2026-04-11T15:37:48.618Z</time></trkpt><trkpt lat="44.0788869" lon="12.1654102"><ele>260.0</ele><time>2026-04-11T15:37:49.623Z</time></trkpt><trkpt lat="44.0789557" lon="12.1654062"><ele>260.0</ele><time>2026-04-11T15:37:50.611Z</time></trkpt><trkpt lat="44.0790266" lon="12.1654069"><ele>260.00000000000006</ele><time>2026-04-11T15:37:51.62Z</time></trkpt><trkpt lat="44.0790971" lon="12.1654071"><ele>260.0</ele><time>2026-04-11T15:37:52.616Z</time></trkpt><trkpt lat="44.0791724" lon="12.1654072"><ele>257.6666666666667</ele><time>2026-04-11T15:37:53.613Z</time></trkpt><trkpt lat="44.0792497" lon="12.1654071"><ele>255.33333333333334</ele><time>2026-04-11T15:37:54.619Z</time></trkpt><trkpt lat="44.0793316" lon="12.1654048"><ele>253.0</ele><time>2026-04-11T15:37:55.624Z</time></trkpt><trkpt lat="44.0794173" lon="12.1654024"><ele>250.66666666666669</ele><time>2026-04-11T15:37:56.616Z</time></trkpt><trkpt lat="44.0795014" lon="12.1653966"><ele>248.33333333333334</ele><time>2026-04-11T15:37:57.621Z</time></trkpt><trkpt lat="44.0795873" lon="12.1653955"><ele>246.0</ele><time>2026-04-11T15:37:58.617Z</time></trkpt><trkpt lat="44.079669" lon="12.1653942"><ele>246.0</ele><time>2026-04-11T15:37:59.624Z</time></trkpt><trkpt lat="44.0797498" lon="12.1653902"><ele>246.0</ele><time>2026-04-11T15:38:00.62Z</time></trkpt><trkpt lat="44.0798269" lon="12.1653875"><ele>246.0</ele><time>2026-04-11T15:38:01.617Z</time></trkpt><trkpt lat="44.079905" lon="12.1653815"><ele>246.0</ele><time>2026-04-11T15:38:02.629Z</time></trkpt><trkpt lat="44.0799785" lon="12.1653721"><ele>246.0</ele><time>2026-04-11T15:38:03.619Z</time></trkpt><trkpt lat="44.0800417" lon="12.1653645"><ele>246.0</ele><time>2026-04-11T15:38:04.62Z</time></trkpt><trkpt lat="44.0801359" lon="12.1653557"><ele>243.16666666666666</ele><time>2026-04-11T15:38:06.617Z</time></trkpt><trkpt lat="44.080208" lon="12.1653477"><ele>240.33333333333331</ele><time>2026-04-11T15:38:08.632Z</time></trkpt><trkpt lat="44.0802991" lon="12.1653684"><ele>237.5</ele><time>2026-04-11T15:38:10.634Z</time></trkpt><trkpt lat="44.0803827" lon="12.1654258"><ele>234.66666666666666</ele><time>2026-04-11T15:38:12.62Z</time></trkpt><trkpt lat="44.0804468" lon="12.1654916"><ele>231.83333333333331</ele><time>2026-04-11T15:38:14.633Z</time></trkpt><trkpt lat="44.0805328" lon="12.1655369"><ele>229.0</ele><time>2026-04-11T15:38:16.629Z</time></trkpt><trkpt lat="44.0806044" lon="12.1655676"><ele>228.99999999999997</ele><time>2026-04-11T15:38:18.627Z</time></trkpt><trkpt lat="44.0806734" lon="12.1655521"><ele>229.0</ele><time>2026-04-11T15:38:20.625Z</time></trkpt><trkpt lat="44.0807513" lon="12.1655003"><ele>229.0</ele><time>2026-04-11T15:38:22.632Z</time></trkpt><trkpt lat="44.0808325" lon="12.1654785"><ele>229.0</ele><time>2026-04-11T15:38:24.632Z</time></trkpt><trkpt lat="44.080914" lon="12.1654608"><ele>228.99999999999997</ele><time>2026-04-11T15:38:26.623Z</time></trkpt><trkpt lat="44.0810261" lon="12.1654339"><ele>229.0</ele><time>2026-04-11T15:38:28.621Z</time></trkpt><trkpt lat="44.0810932" lon="12.1654235"><ele>226.57142857142856</ele><time>2026-04-11T15:38:29.623Z</time></trkpt><trkpt lat="44.0811651" lon="12.1654129"><ele>224.14285714285717</ele><time>2026-04-11T15:38:30.618Z</time></trkpt><trkpt lat="44.0812396" lon="12.1654014"><ele>221.71428571428572</ele><time>2026-04-11T15:38:31.617Z</time></trkpt><trkpt lat="44.081308" lon="12.1653863"><ele>219.28571428571428</ele><time>2026-04-11T15:38:32.616Z</time></trkpt><trkpt lat="44.0813784" lon="12.1653758"><ele>216.85714285714283</ele><time>2026-04-11T15:38:33.614Z</time></trkpt><trkpt lat="44.0814469" lon="12.1653634"><ele>214.42857142857144</ele><time>2026-04-11T15:38:34.623Z</time></trkpt><trkpt lat="44.0815136" lon="12.1653486"><ele>212.0</ele><time>2026-04-11T15:38:35.622Z</time></trkpt><trkpt lat="44.0815769" lon="12.1653335"><ele>209.8</ele><time>2026-04-11T15:38:36.623Z</time></trkpt><trkpt lat="44.0816834" lon="12.1653113"><ele>207.6</ele><time>2026-04-11T15:38:38.622Z</time></trkpt><trkpt lat="44.0817826" lon="12.1652904"><ele>205.4</ele><time>2026-04-11T15:38:40.632Z</time></trkpt><trkpt lat="44.0818777" lon="12.1652696"><ele>203.20000000000002</ele><time>2026-04-11T15:38:42.649Z</time></trkpt><trkpt lat="44.0819862" lon="12.1652494"><ele>201.0</ele><time>2026-04-11T15:38:44.627Z</time></trkpt><trkpt lat="44.0820906" lon="12.1652303"><ele>201.0</ele><time>2026-04-11T15:38:46.628Z</time></trkpt><trkpt lat="44.0821856" lon="12.1652059"><ele>201.0</ele><time>2026-04-11T15:38:48.627Z</time></trkpt><trkpt lat="44.0822695" lon="12.1651907"><ele>201.0</ele><time>2026-04-11T15:38:50.637Z</time></trkpt><trkpt lat="44.0823365" lon="12.1651964"><ele>201.0</ele><time>2026-04-11T15:38:52.631Z</time></trkpt><trkpt lat="44.0823905" lon="12.1653075"><ele>201.0</ele><time>2026-04-11T15:38:55.639Z</time></trkpt><trkpt lat="44.0824239" lon="12.1654125"><ele>201.0</ele><time>2026-04-11T15:38:57.635Z</time></trkpt><trkpt lat="44.0824662" lon="12.1655182"><ele>199.8</ele><time>2026-04-11T15:38:59.639Z</time></trkpt><trkpt lat="44.0825204" lon="12.1656317"><ele>198.60000000000002</ele><time>2026-04-11T15:39:01.624Z</time></trkpt><trkpt lat="44.0825822" lon="12.1657514"><ele>197.4</ele><time>2026-04-11T15:39:03.624Z</time></trkpt><trkpt lat="44.0826454" lon="12.1658683"><ele>196.2</ele><time>2026-04-11T15:39:05.625Z</time></trkpt><trkpt lat="44.0827104" lon="12.1659887"><ele>195.0</ele><time>2026-04-11T15:39:07.621Z</time></trkpt><trkpt lat="44.0827786" lon="12.1661245"><ele>194.4</ele><time>2026-04-11T15:39:09.625Z</time></trkpt><trkpt lat="44.0828517" lon="12.1662502"><ele>193.8</ele><time>2026-04-11T15:39:11.619Z</time></trkpt><trkpt lat="44.0829221" lon="12.1663558"><ele>193.2</ele><time>2026-04-11T15:39:13.639Z</time></trkpt><trkpt lat="44.0829777" lon="12.16644"><ele>192.6</ele><time>2026-04-11T15:39:15.637Z</time></trkpt><trkpt lat="44.0829867" lon="12.1665503"><ele>192.0</ele><time>2026-04-11T15:39:18.631Z</time></trkpt><trkpt lat="44.0829235" lon="12.1665911"><ele>189.16666666666666</ele><time>2026-04-11T15:39:20.631Z</time></trkpt><trkpt lat="44.0828422" lon="12.1666281"><ele>186.33333333333334</ele><time>2026-04-11T15:39:23.637Z</time></trkpt><trkpt lat="44.0827604" lon="12.16669"><ele>183.5</ele><time>2026-04-11T15:39:27.63Z</time></trkpt><trkpt lat="44.0826853" lon="12.1667402"><ele>180.66666666666669</ele><time>2026-04-11T15:39:29.635Z</time></trkpt><trkpt lat="44.0826075" lon="12.1667954"><ele>177.83333333333334</ele><time>2026-04-11T15:39:31.629Z</time></trkpt><trkpt lat="44.0825444" lon="12.1668341"><ele>175.0</ele><time>2026-04-11T15:39:33.616Z</time></trkpt><trkpt lat="44.0824778" lon="12.1668838"><ele>175.0</ele><time>2026-04-11T15:40:01.619Z</time></trkpt><trkpt lat="44.0825029" lon="12.1669755"><ele>175.0</ele><time>2026-04-11T15:40:05.605Z</time></trkpt><trkpt lat="44.0825838" lon="12.1669928"><ele>175.0</ele><time>2026-04-11T15:40:08.613Z</time></trkpt><trkpt lat="44.0826524" lon="12.1669988"><ele>175.0</ele><time>2026-04-11T15:40:10.612Z</time></trkpt><trkpt lat="44.0827368" lon="12.1670325"><ele>175.0</ele><time>2026-04-11T15:40:13.615Z</time></trkpt><trkpt lat="44.0828092" lon="12.167077"><ele>175.0</ele><time>2026-04-11T15:40:16.61Z</time></trkpt><trkpt lat="44.0828732" lon="12.167155"><ele>175.0</ele><time>2026-04-11T15:40:19.613Z</time></trkpt><trkpt lat="44.082798" lon="12.167066"><ele>175.0</ele><time>2026-04-11T15:40:43.616Z</time></trkpt><trkpt lat="44.0827169" lon="12.1670199"><ele>175.0</ele><time>2026-04-11T15:40:45.612Z</time></trkpt><trkpt lat="44.0826312" lon="12.1669825"><ele>175.0</ele><time>2026-04-11T15:40:47.614Z</time></trkpt><trkpt lat="44.082551" lon="12.1669492"><ele>175.0</ele><time>2026-04-11T15:40:49.613Z</time></trkpt><trkpt lat="44.0824765" lon="12.1669035"><ele>175.0</ele><time>2026-04-11T15:40:51.614Z</time></trkpt><trkpt lat="44.0824853" lon="12.1668071"><ele>175.0</ele><time>2026-04-11T15:40:55.609Z</time></trkpt><trkpt lat="44.0825751" lon="12.166763"><ele>175.0</ele><time>2026-04-11T15:40:58.615Z</time></trkpt><trkpt lat="44.082676" lon="12.1667271"><ele>175.0</ele><time>2026-04-11T15:41:00.611Z</time></trkpt><trkpt lat="44.0827448" lon="12.1666935"><ele>175.0</ele><time>2026-04-11T15:41:01.627Z</time></trkpt><trkpt lat="44.0828028" lon="12.1666566"><ele>175.0</ele><time>2026-04-11T15:41:02.622Z</time></trkpt><trkpt lat="44.0828634" lon="12.1666208"><ele>175.0</ele><time>2026-04-11T15:41:03.62Z</time></trkpt><trkpt lat="44.0829545" lon="12.1665636"><ele>178.4</ele><time>2026-04-11T15:41:05.62Z</time></trkpt><trkpt lat="44.083014" lon="12.166508"><ele>181.8</ele><time>2026-04-11T15:41:08.628Z</time></trkpt><trkpt lat="44.0830046" lon="12.166396"><ele>185.2</ele><time>2026-04-11T15:41:11.632Z</time></trkpt><trkpt lat="44.0829464" lon="12.166299"><ele>188.6</ele><time>2026-04-11T15:41:13.623Z</time></trkpt><trkpt lat="44.0828712" lon="12.1661965"><ele>192.0</ele><time>2026-04-11T15:41:15.628Z</time></trkpt><trkpt lat="44.0827945" lon="12.1660791"><ele>192.0</ele><time>2026-04-11T15:41:17.633Z</time></trkpt><trkpt lat="44.0827167" lon="12.1659531"><ele>192.0</ele><time>2026-04-11T15:41:19.62Z</time></trkpt><trkpt lat="44.0826402" lon="12.1658253"><ele>192.0</ele><time>2026-04-11T15:41:21.623Z</time></trkpt><trkpt lat="44.0825776" lon="12.1657005"><ele>192.0</ele><time>2026-04-11T15:41:23.621Z</time></trkpt><trkpt lat="44.0825094" lon="12.1655819"><ele>192.6</ele><time>2026-04-11T15:41:25.621Z</time></trkpt><trkpt lat="44.0824392" lon="12.16546"><ele>193.2</ele><time>2026-04-11T15:41:27.618Z</time></trkpt><trkpt lat="44.0823659" lon="12.1653222"><ele>193.8</ele><time>2026-04-11T15:41:29.615Z</time></trkpt><trkpt lat="44.0823029" lon="12.1651975"><ele>194.4</ele><time>2026-04-11T15:41:31.62Z</time></trkpt><trkpt lat="44.0822415" lon="12.1651353"><ele>195.0</ele><time>2026-04-11T15:41:33.618Z</time></trkpt><trkpt lat="44.0821741" lon="12.1651543"><ele>196.0</ele><time>2026-04-11T15:41:35.618Z</time></trkpt><trkpt lat="44.0820798" lon="12.1652069"><ele>197.0</ele><time>2026-04-11T15:41:37.622Z</time></trkpt><trkpt lat="44.0819577" lon="12.1652419"><ele>198.0</ele><time>2026-04-11T15:41:39.623Z</time></trkpt><trkpt lat="44.0818899" lon="12.1652626"><ele>199.0</ele><time>2026-04-11T15:41:40.622Z</time></trkpt><trkpt lat="44.0818236" lon="12.1652817"><ele>200.0</ele><time>2026-04-11T15:41:41.617Z</time></trkpt><trkpt lat="44.0817553" lon="12.1652895"><ele>201.0</ele><time>2026-04-11T15:41:42.623Z</time></trkpt><trkpt lat="44.0816853" lon="12.1653028"><ele>201.0</ele><time>2026-04-11T15:41:43.622Z</time></trkpt><trkpt lat="44.0816172" lon="12.1653141"><ele>201.0</ele><time>2026-04-11T15:41:44.628Z</time></trkpt><trkpt lat="44.0815479" lon="12.165326"><ele>201.0</ele><time>2026-04-11T15:41:45.623Z</time></trkpt><trkpt lat="44.0814745" lon="12.1653376"><ele>201.0</ele><time>2026-04-11T15:41:46.622Z</time></trkpt><trkpt lat="44.0813989" lon="12.1653554"><ele>201.0</ele><time>2026-04-11T15:41:47.628Z</time></trkpt><trkpt lat="44.0813255" lon="12.1653735"><ele>201.0</ele><time>2026-04-11T15:41:48.639Z</time></trkpt><trkpt lat="44.0812601" lon="12.1653855"><ele>201.0</ele><time>2026-04-11T15:41:49.628Z</time></trkpt><trkpt lat="44.0811963" lon="12.1653983"><ele>203.75</ele><time>2026-04-11T15:41:50.626Z</time></trkpt><trkpt lat="44.081073" lon="12.1654277"><ele>206.5</ele><time>2026-04-11T15:41:52.63Z</time></trkpt><trkpt lat="44.0809514" lon="12.165446"><ele>209.25</ele><time>2026-04-11T15:41:54.628Z</time></trkpt><trkpt lat="44.0808403" lon="12.1654627"><ele>212.0</ele><time>2026-04-11T15:41:56.625Z</time></trkpt><trkpt lat="44.0807343" lon="12.1654843"><ele>215.39999999999998</ele><time>2026-04-11T15:41:58.63Z</time></trkpt><trkpt lat="44.0806356" lon="12.1655105"><ele>218.79999999999998</ele><time>2026-04-11T15:42:00.614Z</time></trkpt><trkpt lat="44.0805419" lon="12.1655487"><ele>222.2</ele><time>2026-04-11T15:42:02.612Z</time></trkpt><trkpt lat="44.0804479" lon="12.1655441"><ele>225.6</ele><time>2026-04-11T15:42:04.618Z</time></trkpt><trkpt lat="44.0803417" lon="12.1654701"><ele>229.0</ele><time>2026-04-11T15:42:06.611Z</time></trkpt><trkpt lat="44.0802328" lon="12.1653968"><ele>228.99999999999997</ele><time>2026-04-11T15:42:08.62Z</time></trkpt><trkpt lat="44.0801696" lon="12.1653682"><ele>229.0</ele><time>2026-04-11T15:42:09.611Z</time></trkpt><trkpt lat="44.0800892" lon="12.1653477"><ele>229.0</ele><time>2026-04-11T15:42:10.614Z</time></trkpt><trkpt lat="44.0800023" lon="12.165345"><ele>229.0</ele><time>2026-04-11T15:42:11.613Z</time></trkpt><trkpt lat="44.0799068" lon="12.1653557"><ele>228.99999999999997</ele><time>2026-04-11T15:42:12.611Z</time></trkpt><trkpt lat="44.0798053" lon="12.1653665"><ele>229.0</ele><time>2026-04-11T15:42:13.726Z</time></trkpt><trkpt lat="44.0796953" lon="12.1653692"><ele>233.25</ele><time>2026-04-11T15:42:14.713Z</time></trkpt><trkpt lat="44.0795722" lon="12.1653776"><ele>237.5</ele><time>2026-04-11T15:42:15.717Z</time></trkpt><trkpt lat="44.0794424" lon="12.1653831"><ele>241.75</ele><time>2026-04-11T15:42:16.71Z</time></trkpt><trkpt lat="44.0793153" lon="12.1653894"><ele>246.0</ele><time>2026-04-11T15:42:17.711Z</time></trkpt><trkpt lat="44.0791862" lon="12.1653931"><ele>249.5</ele><time>2026-04-11T15:42:18.716Z</time></trkpt><trkpt lat="44.079059" lon="12.1653927"><ele>253.0</ele><time>2026-04-11T15:42:19.737Z</time></trkpt><trkpt lat="44.0789373" lon="12.165396"><ele>256.5</ele><time>2026-04-11T15:42:20.708Z</time></trkpt><trkpt lat="44.0788409" lon="12.1653979"><ele>260.0</ele><time>2026-04-11T15:42:21.705Z</time></trkpt><trkpt lat="44.0787343" lon="12.1654043"><ele>260.0</ele><time>2026-04-11T15:42:22.715Z</time></trkpt><trkpt lat="44.0786675" lon="12.1654295"><ele>260.0</ele><time>2026-04-11T15:42:23.707Z</time></trkpt><trkpt lat="44.078561" lon="12.1654604"><ele>260.0</ele><time>2026-04-11T15:42:24.708Z</time></trkpt><trkpt lat="44.0784636" lon="12.1654937"><ele>260.0</ele><time>2026-04-11T15:42:25.712Z</time></trkpt><trkpt lat="44.0783616" lon="12.1655421"><ele>260.0</ele><time>2026-04-11T15:42:26.695Z</time></trkpt><trkpt lat="44.0782481" lon="12.1655956"><ele>263.5</ele><time>2026-04-11T15:42:27.699Z</time></trkpt><trkpt lat="44.0781233" lon="12.1656593"><ele>267.0</ele><time>2026-04-11T15:42:28.706Z</time></trkpt><trkpt lat="44.0779996" lon="12.1657244"><ele>270.5</ele><time>2026-04-11T15:42:29.709Z</time></trkpt><trkpt lat="44.0778758" lon="12.1657901"><ele>274.0</ele><time>2026-04-11T15:42:30.716Z</time></trkpt><trkpt lat="44.0777561" lon="12.1658543"><ele>274.0</ele><time>2026-04-11T15:42:31.72Z</time></trkpt><trkpt lat="44.0776437" lon="12.1659139"><ele>274.0</ele><time>2026-04-11T15:42:32.712Z</time></trkpt><trkpt lat="44.0775512" lon="12.1659634"><ele>274.0</ele><time>2026-04-11T15:42:33.706Z</time></trkpt><trkpt lat="44.077476" lon="12.165997"><ele>274.0</ele><time>2026-04-11T15:42:34.701Z</time></trkpt><trkpt lat="44.07739" lon="12.1660341"><ele>274.0</ele><time>2026-04-11T15:42:36.705Z</time></trkpt><trkpt lat="44.0773951" lon="12.1661475"><ele>273.0</ele><time>2026-04-11T15:42:39.72Z</time></trkpt><trkpt lat="44.0774479" lon="12.1665335"><ele>272.0</ele><time>2026-04-11T15:42:42.603Z</time></trkpt><trkpt lat="44.0774856" lon="12.1667514"><ele>271.0</ele><time>2026-04-11T15:42:43.603Z</time></trkpt><trkpt lat="44.0775156" lon="12.166961"><ele>271.0</ele><time>2026-04-11T15:42:44.601Z</time></trkpt><trkpt lat="44.0775365" lon="12.1671516"><ele>271.0</ele><time>2026-04-11T15:42:45.614Z</time></trkpt><trkpt lat="44.0775433" lon="12.1673082"><ele>271.0</ele><time>2026-04-11T15:42:46.613Z</time></trkpt><trkpt lat="44.0775335" lon="12.1674367"><ele>271.0</ele><time>2026-04-11T15:42:47.614Z</time></trkpt><trkpt lat="44.0774834" lon="12.1675412"><ele>271.0</ele><time>2026-04-11T15:42:48.602Z</time></trkpt><trkpt lat="44.0774055" lon="12.1676664"><ele>268.25</ele><time>2026-04-11T15:42:49.615Z</time></trkpt><trkpt lat="44.0773154" lon="12.1677869"><ele>265.5</ele><time>2026-04-11T15:42:50.622Z</time></trkpt><trkpt lat="44.0772353" lon="12.1678967"><ele>262.75</ele><time>2026-04-11T15:42:51.601Z</time></trkpt><trkpt lat="44.0771519" lon="12.1680014"><ele>260.0</ele><time>2026-04-11T15:42:52.6Z</time></trkpt><trkpt lat="44.0770628" lon="12.1680923"><ele>260.0</ele><time>2026-04-11T15:42:53.604Z</time></trkpt><trkpt lat="44.0769747" lon="12.1681712"><ele>260.0</ele><time>2026-04-11T15:42:54.598Z</time></trkpt><trkpt lat="44.0768814" lon="12.1682497"><ele>260.0</ele><time>2026-04-11T15:42:55.604Z</time></trkpt><trkpt lat="44.0767887" lon="12.1683244"><ele>260.0</ele><time>2026-04-11T15:42:56.597Z</time></trkpt><trkpt lat="44.076699" lon="12.1683938"><ele>260.0</ele><time>2026-04-11T15:42:57.593Z</time></trkpt><trkpt lat="44.0766143" lon="12.1684667"><ele>256.6</ele><time>2026-04-11T15:42:58.597Z</time></trkpt><trkpt lat="44.0765334" lon="12.1685395"><ele>253.2</ele><time>2026-04-11T15:42:59.599Z</time></trkpt><trkpt lat="44.0764641" lon="12.1686113"><ele>249.8</ele><time>2026-04-11T15:43:00.609Z</time></trkpt><trkpt lat="44.0764058" lon="12.1687042"><ele>246.4</ele><time>2026-04-11T15:43:01.603Z</time></trkpt><trkpt lat="44.0763633" lon="12.1688123"><ele>243.0</ele><time>2026-04-11T15:43:02.602Z</time></trkpt><trkpt lat="44.0763333" lon="12.1689438"><ele>243.60000000000002</ele><time>2026-04-11T15:43:03.613Z</time></trkpt><trkpt lat="44.0763208" lon="12.1690905"><ele>244.20000000000002</ele><time>2026-04-11T15:43:04.603Z</time></trkpt><trkpt lat="44.076315" lon="12.1692491"><ele>244.8</ele><time>2026-04-11T15:43:05.614Z</time></trkpt><trkpt lat="44.0763137" lon="12.1694117"><ele>245.4</ele><time>2026-04-11T15:43:06.603Z</time></trkpt><trkpt lat="44.0763138" lon="12.1695654"><ele>246.0</ele><time>2026-04-11T15:43:07.604Z</time></trkpt><trkpt lat="44.0763146" lon="12.169712"><ele>245.60000000000002</ele><time>2026-04-11T15:43:08.606Z</time></trkpt><trkpt lat="44.0763229" lon="12.1698595"><ele>245.20000000000002</ele><time>2026-04-11T15:43:09.61Z</time></trkpt><trkpt lat="44.0763505" lon="12.1699934"><ele>244.79999999999998</ele><time>2026-04-11T15:43:10.61Z</time></trkpt><trkpt lat="44.0763923" lon="12.1701239"><ele>244.39999999999998</ele><time>2026-04-11T15:43:11.609Z</time></trkpt><trkpt lat="44.0764483" lon="12.1702432"><ele>244.0</ele><time>2026-04-11T15:43:12.602Z</time></trkpt><trkpt lat="44.0765221" lon="12.1703483"><ele>249.25</ele><time>2026-04-11T15:43:13.62Z</time></trkpt><trkpt lat="44.076621" lon="12.1704165"><ele>254.5</ele><time>2026-04-11T15:43:14.607Z</time></trkpt><trkpt lat="44.0767347" lon="12.1704588"><ele>259.75</ele><time>2026-04-11T15:43:15.595Z</time></trkpt><trkpt lat="44.0768526" lon="12.1705037"><ele>265.0</ele><time>2026-04-11T15:43:16.606Z</time></trkpt><trkpt lat="44.0769714" lon="12.1705518"><ele>265.0</ele><time>2026-04-11T15:43:17.6Z</time></trkpt><trkpt lat="44.0770883" lon="12.1706173"><ele>265.0</ele><time>2026-04-11T15:43:18.593Z</time></trkpt><trkpt lat="44.077197" lon="12.170703"><ele>265.0</ele><time>2026-04-11T15:43:19.596Z</time></trkpt><trkpt lat="44.0772952" lon="12.170803"><ele>265.0</ele><time>2026-04-11T15:43:20.596Z</time></trkpt><trkpt lat="44.077395" lon="12.1709126"><ele>261.75</ele><time>2026-04-11T15:43:21.611Z</time></trkpt><trkpt lat="44.0774962" lon="12.1710297"><ele>258.5</ele><time>2026-04-11T15:43:22.609Z</time></trkpt><trkpt lat="44.0776028" lon="12.1711491"><ele>255.25</ele><time>2026-04-11T15:43:23.609Z</time></trkpt><trkpt lat="44.0777088" lon="12.1712696"><ele>252.0</ele><time>2026-04-11T15:43:24.606Z</time></trkpt><trkpt lat="44.0778187" lon="12.1713846"><ele>252.0</ele><time>2026-04-11T15:43:25.617Z</time></trkpt><trkpt lat="44.0779252" lon="12.1714986"><ele>252.0</ele><time>2026-04-11T15:43:26.617Z</time></trkpt><trkpt lat="44.0780265" lon="12.1716075"><ele>252.0</ele><time>2026-04-11T15:43:27.613Z</time></trkpt><trkpt lat="44.0781248" lon="12.171712"><ele>252.0</ele><time>2026-04-11T15:43:28.627Z</time></trkpt><trkpt lat="44.0782172" lon="12.171812"><ele>250.6</ele><time>2026-04-11T15:43:29.622Z</time></trkpt><trkpt lat="44.0783013" lon="12.1719125"><ele>249.2</ele><time>2026-04-11T15:43:30.617Z</time></trkpt><trkpt lat="44.0783715" lon="12.1720155"><ele>247.8</ele><time>2026-04-11T15:43:31.619Z</time></trkpt><trkpt lat="44.0784216" lon="12.1721304"><ele>246.4</ele><time>2026-04-11T15:43:32.603Z</time></trkpt><trkpt lat="44.0784521" lon="12.1722578"><ele>245.0</ele><time>2026-04-11T15:43:33.605Z</time></trkpt><trkpt lat="44.0784789" lon="12.1724069"><ele>245.0</ele><time>2026-04-11T15:43:34.606Z</time></trkpt><trkpt lat="44.0784931" lon="12.1725556"><ele>245.0</ele><time>2026-04-11T15:43:35.608Z</time></trkpt><trkpt lat="44.0785013" lon="12.1726911"><ele>245.0</ele><time>2026-04-11T15:43:36.605Z</time></trkpt><trkpt lat="44.0785135" lon="12.1728134"><ele>245.0</ele><time>2026-04-11T15:43:37.6Z</time></trkpt><trkpt lat="44.0785353" lon="12.1729354"><ele>245.0</ele><time>2026-04-11T15:43:38.6Z</time></trkpt><trkpt lat="44.0785694" lon="12.173048"><ele>245.0</ele><time>2026-04-11T15:43:39.598Z</time></trkpt><trkpt lat="44.0786174" lon="12.1731506"><ele>245.0</ele><time>2026-04-11T15:43:40.607Z</time></trkpt><trkpt lat="44.0786776" lon="12.1732447"><ele>245.0</ele><time>2026-04-11T15:43:41.601Z</time></trkpt><trkpt lat="44.0787408" lon="12.1733335"><ele>245.0</ele><time>2026-04-11T15:43:42.607Z</time></trkpt><trkpt lat="44.0788092" lon="12.1734201"><ele>245.0</ele><time>2026-04-11T15:43:43.605Z</time></trkpt><trkpt lat="44.0788782" lon="12.1735098"><ele>245.8</ele><time>2026-04-11T15:43:44.6Z</time></trkpt><trkpt lat="44.0789503" lon="12.1735928"><ele>246.6</ele><time>2026-04-11T15:43:45.6Z</time></trkpt><trkpt lat="44.0790243" lon="12.1736794"><ele>247.39999999999998</ele><time>2026-04-11T15:43:46.601Z</time></trkpt><trkpt lat="44.0790844" lon="12.173775"><ele>248.2</ele><time>2026-04-11T15:43:47.598Z</time></trkpt><trkpt lat="44.0791458" lon="12.1738792"><ele>249.0</ele><time>2026-04-11T15:43:48.609Z</time></trkpt><trkpt lat="44.0792029" lon="12.1739909"><ele>245.75</ele><time>2026-04-11T15:43:49.607Z</time></trkpt><trkpt lat="44.0792605" lon="12.1741159"><ele>242.5</ele><time>2026-04-11T15:43:50.6Z</time></trkpt><trkpt lat="44.0793085" lon="12.1742556"><ele>239.25</ele><time>2026-04-11T15:43:51.605Z</time></trkpt><trkpt lat="44.0793631" lon="12.1744012"><ele>236.0</ele><time>2026-04-11T15:43:52.62Z</time></trkpt><trkpt lat="44.0794173" lon="12.174544"><ele>236.0</ele><time>2026-04-11T15:43:53.605Z</time></trkpt><trkpt lat="44.0794707" lon="12.1746824"><ele>236.00000000000003</ele><time>2026-04-11T15:43:54.605Z</time></trkpt><trkpt lat="44.079521" lon="12.1748152"><ele>236.00000000000003</ele><time>2026-04-11T15:43:55.603Z</time></trkpt><trkpt lat="44.0795636" lon="12.1749511"><ele>236.0</ele><time>2026-04-11T15:43:56.602Z</time></trkpt><trkpt lat="44.0795817" lon="12.17509"><ele>236.0</ele><time>2026-04-11T15:43:57.601Z</time></trkpt><trkpt lat="44.079585" lon="12.1752283"><ele>235.4</ele><time>2026-04-11T15:43:58.607Z</time></trkpt><trkpt lat="44.0795617" lon="12.1753652"><ele>234.8</ele><time>2026-04-11T15:43:59.607Z</time></trkpt><trkpt lat="44.0795177" lon="12.1754979"><ele>234.20000000000002</ele><time>2026-04-11T15:44:00.606Z</time></trkpt><trkpt lat="44.0794554" lon="12.1756171"><ele>233.60000000000002</ele><time>2026-04-11T15:44:01.607Z</time></trkpt><trkpt lat="44.079374" lon="12.1757362"><ele>233.0</ele><time>2026-04-11T15:44:02.614Z</time></trkpt><trkpt lat="44.0792871" lon="12.1758353"><ele>229.0</ele><time>2026-04-11T15:44:03.607Z</time></trkpt><trkpt lat="44.0791835" lon="12.1759263"><ele>225.0</ele><time>2026-04-11T15:44:04.603Z</time></trkpt><trkpt lat="44.0790769" lon="12.1760038"><ele>221.0</ele><time>2026-04-11T15:44:05.605Z</time></trkpt><trkpt lat="44.0789709" lon="12.1760752"><ele>217.0</ele><time>2026-04-11T15:44:06.61Z</time></trkpt><trkpt lat="44.0788732" lon="12.1761537"><ele>217.0</ele><time>2026-04-11T15:44:07.613Z</time></trkpt><trkpt lat="44.0787735" lon="12.1762267"><ele>217.0</ele><time>2026-04-11T15:44:08.605Z</time></trkpt><trkpt lat="44.0786846" lon="12.1762966"><ele>217.0</ele><time>2026-04-11T15:44:09.604Z</time></trkpt><trkpt lat="44.0785975" lon="12.1763662"><ele>217.0</ele><time>2026-04-11T15:44:10.605Z</time></trkpt><trkpt lat="44.0785064" lon="12.1764213"><ele>217.0</ele><time>2026-04-11T15:44:11.607Z</time></trkpt><trkpt lat="44.0784162" lon="12.1764501"><ele>217.0</ele><time>2026-04-11T15:44:12.607Z</time></trkpt><trkpt lat="44.078328" lon="12.1764208"><ele>217.0</ele><time>2026-04-11T15:44:13.604Z</time></trkpt><trkpt lat="44.0782337" lon="12.1763401"><ele>217.0</ele><time>2026-04-11T15:44:14.593Z</time></trkpt><trkpt lat="44.0781399" lon="12.1762482"><ele>217.0</ele><time>2026-04-11T15:44:15.601Z</time></trkpt><trkpt lat="44.0780481" lon="12.1761556"><ele>217.0</ele><time>2026-04-11T15:44:16.595Z</time></trkpt><trkpt lat="44.0779568" lon="12.1760526"><ele>217.0</ele><time>2026-04-11T15:44:17.597Z</time></trkpt><trkpt lat="44.0778768" lon="12.1759443"><ele>217.0</ele><time>2026-04-11T15:44:18.613Z</time></trkpt><trkpt lat="44.0778051" lon="12.1758272"><ele>217.0</ele><time>2026-04-11T15:44:19.602Z</time></trkpt><trkpt lat="44.0777387" lon="12.1757109"><ele>217.0</ele><time>2026-04-11T15:44:20.597Z</time></trkpt><trkpt lat="44.0776817" lon="12.1755996"><ele>217.0</ele><time>2026-04-11T15:44:21.596Z</time></trkpt><trkpt lat="44.0776199" lon="12.175507"><ele>216.99999999999997</ele><time>2026-04-11T15:44:22.609Z</time></trkpt><trkpt lat="44.0775619" lon="12.1754462"><ele>217.0</ele><time>2026-04-11T15:44:23.621Z</time></trkpt><trkpt lat="44.077463" lon="12.1754889"><ele>217.0</ele><time>2026-04-11T15:44:25.6Z</time></trkpt><trkpt lat="44.0774555" lon="12.1755901"><ele>217.0</ele><time>2026-04-11T15:44:26.599Z</time></trkpt><trkpt lat="44.0774851" lon="12.1757021"><ele>216.99999999999997</ele><time>2026-04-11T15:44:27.597Z</time></trkpt><trkpt lat="44.0775358" lon="12.1758109"><ele>217.0</ele><time>2026-04-11T15:44:28.596Z</time></trkpt><trkpt lat="44.0776096" lon="12.1759034"><ele>214.2</ele><time>2026-04-11T15:44:29.601Z</time></trkpt><trkpt lat="44.0776906" lon="12.1759803"><ele>211.39999999999998</ele><time>2026-04-11T15:44:30.596Z</time></trkpt><trkpt lat="44.0777614" lon="12.1760647"><ele>208.60000000000002</ele><time>2026-04-11T15:44:31.596Z</time></trkpt><trkpt lat="44.0778298" lon="12.1761616"><ele>205.8</ele><time>2026-04-11T15:44:32.592Z</time></trkpt><trkpt lat="44.0778911" lon="12.1762683"><ele>203.0</ele><time>2026-04-11T15:44:33.598Z</time></trkpt><trkpt lat="44.0779452" lon="12.176382"><ele>203.0</ele><time>2026-04-11T15:44:34.592Z</time></trkpt><trkpt lat="44.0779966" lon="12.1764965"><ele>203.0</ele><time>2026-04-11T15:44:35.595Z</time></trkpt><trkpt lat="44.0780454" lon="12.1766188"><ele>203.0</ele><time>2026-04-11T15:44:36.593Z</time></trkpt><trkpt lat="44.0780862" lon="12.1767485"><ele>203.0</ele><time>2026-04-11T15:44:37.592Z</time></trkpt><trkpt lat="44.0781149" lon="12.1768841"><ele>203.0</ele><time>2026-04-11T15:44:38.592Z</time></trkpt><trkpt lat="44.0781282" lon="12.1770252"><ele>200.0</ele><time>2026-04-11T15:44:39.587Z</time></trkpt><trkpt lat="44.0781235" lon="12.1771567"><ele>197.0</ele><time>2026-04-11T15:44:40.583Z</time></trkpt><trkpt lat="44.0780989" lon="12.1772919"><ele>194.0</ele><time>2026-04-11T15:44:41.586Z</time></trkpt><trkpt lat="44.0780562" lon="12.1774213"><ele>191.0</ele><time>2026-04-11T15:44:42.591Z</time></trkpt><trkpt lat="44.0780218" lon="12.1775433"><ele>188.0</ele><time>2026-04-11T15:44:43.602Z</time></trkpt><trkpt lat="44.0779835" lon="12.1776757"><ele>185.4</ele><time>2026-04-11T15:44:44.6Z</time></trkpt><trkpt lat="44.0779567" lon="12.1778088"><ele>182.8</ele><time>2026-04-11T15:44:45.595Z</time></trkpt><trkpt lat="44.0779374" lon="12.1779474"><ele>180.2</ele><time>2026-04-11T15:44:46.616Z</time></trkpt><trkpt lat="44.077947" lon="12.1781035"><ele>177.6</ele><time>2026-04-11T15:44:47.602Z</time></trkpt><trkpt lat="44.0779721" lon="12.1782622"><ele>175.0</ele><time>2026-04-11T15:44:48.615Z</time></trkpt><trkpt lat="44.0780037" lon="12.1784171"><ele>173.5</ele><time>2026-04-11T15:44:49.611Z</time></trkpt><trkpt lat="44.0780405" lon="12.1785704"><ele>172.0</ele><time>2026-04-11T15:44:50.617Z</time></trkpt><trkpt lat="44.0780791" lon="12.1787244"><ele>170.5</ele><time>2026-04-11T15:44:51.605Z</time></trkpt><trkpt lat="44.0781195" lon="12.1788867"><ele>169.0</ele><time>2026-04-11T15:44:52.612Z</time></trkpt><trkpt lat="44.0781618" lon="12.1790471"><ele>167.5</ele><time>2026-04-11T15:44:53.612Z</time></trkpt><trkpt lat="44.0782001" lon="12.179217"><ele>166.0</ele><time>2026-04-11T15:44:54.635Z</time></trkpt><trkpt lat="44.0782446" lon="12.179386"><ele>164.5</ele><time>2026-04-11T15:44:55.616Z</time></trkpt><trkpt lat="44.0782911" lon="12.1795577"><ele>163.0</ele><time>2026-04-11T15:44:56.617Z</time></trkpt><trkpt lat="44.0783383" lon="12.1797346"><ele>163.5</ele><time>2026-04-11T15:44:57.615Z</time></trkpt><trkpt lat="44.0783849" lon="12.1799163"><ele>164.0</ele><time>2026-04-11T15:44:58.614Z</time></trkpt><trkpt lat="44.0784336" lon="12.1800967"><ele>164.5</ele><time>2026-04-11T15:44:59.614Z</time></trkpt><trkpt lat="44.078477" lon="12.1802821"><ele>165.0</ele><time>2026-04-11T15:45:00.609Z</time></trkpt><trkpt lat="44.0785198" lon="12.1804351"><ele>165.0</ele><time>2026-04-11T15:45:01.612Z</time></trkpt><trkpt lat="44.0785619" lon="12.1805789"><ele>165.0</ele><time>2026-04-11T15:45:02.611Z</time></trkpt><trkpt lat="44.0786154" lon="12.1807226"><ele>165.0</ele><time>2026-04-11T15:45:03.616Z</time></trkpt><trkpt lat="44.078675" lon="12.1808357"><ele>165.0</ele><time>2026-04-11T15:45:04.614Z</time></trkpt><trkpt lat="44.0787619" lon="12.1809201"><ele>165.0</ele><time>2026-04-11T15:45:05.615Z</time></trkpt><trkpt lat="44.0788547" lon="12.1809881"><ele>163.4</ele><time>2026-04-11T15:45:06.618Z</time></trkpt><trkpt lat="44.0789564" lon="12.1810482"><ele>161.8</ele><time>2026-04-11T15:45:07.624Z</time></trkpt><trkpt lat="44.0790604" lon="12.1810802"><ele>160.2</ele><time>2026-04-11T15:45:08.628Z</time></trkpt><trkpt lat="44.0791683" lon="12.1810718"><ele>158.6</ele><time>2026-04-11T15:45:09.623Z</time></trkpt><trkpt lat="44.0792711" lon="12.1810221"><ele>157.0</ele><time>2026-04-11T15:45:10.615Z</time></trkpt><trkpt lat="44.0793653" lon="12.1809574"><ele>157.0</ele><time>2026-04-11T15:45:11.615Z</time></trkpt><trkpt lat="44.0794568" lon="12.1809251"><ele>157.0</ele><time>2026-04-11T15:45:12.621Z</time></trkpt><trkpt lat="44.0795313" lon="12.1809478"><ele>157.0</ele><time>2026-04-11T15:45:13.617Z</time></trkpt><trkpt lat="44.0795356" lon="12.1810929"><ele>157.0</ele><time>2026-04-11T15:45:15.609Z</time></trkpt><trkpt lat="44.0794673" lon="12.1811727"><ele>157.0</ele><time>2026-04-11T15:45:16.61Z</time></trkpt><trkpt lat="44.0793617" lon="12.1812188"><ele>157.0</ele><time>2026-04-11T15:45:17.606Z</time></trkpt><trkpt lat="44.0792494" lon="12.1812416"><ele>157.0</ele><time>2026-04-11T15:45:18.608Z</time></trkpt><trkpt lat="44.0791304" lon="12.181245"><ele>157.0</ele><time>2026-04-11T15:45:19.612Z</time></trkpt><trkpt lat="44.0790157" lon="12.1812445"><ele>157.0</ele><time>2026-04-11T15:45:20.608Z</time></trkpt><trkpt lat="44.0788913" lon="12.1812355"><ele>155.75</ele><time>2026-04-11T15:45:21.604Z</time></trkpt><trkpt lat="44.0787735" lon="12.1812159"><ele>154.5</ele><time>2026-04-11T15:45:22.609Z</time></trkpt><trkpt lat="44.0786626" lon="12.181182"><ele>153.25</ele><time>2026-04-11T15:45:23.596Z</time></trkpt><trkpt lat="44.0785506" lon="12.1811383"><ele>152.0</ele><time>2026-04-11T15:45:24.612Z</time></trkpt><trkpt lat="44.0784427" lon="12.1810878"><ele>152.0</ele><time>2026-04-11T15:45:25.623Z</time></trkpt><trkpt lat="44.078334" lon="12.1810248"><ele>152.0</ele><time>2026-04-11T15:45:26.603Z</time></trkpt><trkpt lat="44.0782268" lon="12.1809594"><ele>152.0</ele><time>2026-04-11T15:45:27.603Z</time></trkpt><trkpt lat="44.0781243" lon="12.1808897"><ele>152.0</ele><time>2026-04-11T15:45:28.606Z</time></trkpt><trkpt lat="44.0780211" lon="12.1808262"><ele>150.5</ele><time>2026-04-11T15:45:29.605Z</time></trkpt><trkpt lat="44.0779218" lon="12.1807821"><ele>149.0</ele><time>2026-04-11T15:45:30.615Z</time></trkpt><trkpt lat="44.0778183" lon="12.1808084"><ele>147.5</ele><time>2026-04-11T15:45:31.609Z</time></trkpt><trkpt lat="44.0777238" lon="12.1808982"><ele>146.0</ele><time>2026-04-11T15:45:32.605Z</time></trkpt><trkpt lat="44.0776401" lon="12.1810409"><ele>146.0</ele><time>2026-04-11T15:45:33.6Z</time></trkpt><trkpt lat="44.0775573" lon="12.1811819"><ele>146.0</ele><time>2026-04-11T15:45:34.61Z</time></trkpt><trkpt lat="44.0774781" lon="12.1813086"><ele>146.0</ele><time>2026-04-11T15:45:35.613Z</time></trkpt><trkpt lat="44.0774071" lon="12.181423"><ele>146.0</ele><time>2026-04-11T15:45:36.621Z</time></trkpt><trkpt lat="44.0773549" lon="12.1815386"><ele>144.4</ele><time>2026-04-11T15:45:37.622Z</time></trkpt><trkpt lat="44.0773354" lon="12.1816685"><ele>142.8</ele><time>2026-04-11T15:45:38.624Z</time></trkpt><trkpt lat="44.0773503" lon="12.181808"><ele>141.20000000000002</ele><time>2026-04-11T15:45:39.624Z</time></trkpt><trkpt lat="44.0774029" lon="12.181938"><ele>139.6</ele><time>2026-04-11T15:45:40.624Z</time></trkpt><trkpt lat="44.0774877" lon="12.182055"><ele>138.0</ele><time>2026-04-11T15:45:41.627Z</time></trkpt><trkpt lat="44.0775891" lon="12.1821606"><ele>138.0</ele><time>2026-04-11T15:45:42.627Z</time></trkpt><trkpt lat="44.0777057" lon="12.1822605"><ele>138.0</ele><time>2026-04-11T15:45:43.622Z</time></trkpt><trkpt lat="44.0778272" lon="12.1823489"><ele>138.0</ele><time>2026-04-11T15:45:44.623Z</time></trkpt><trkpt lat="44.0779413" lon="12.1824432"><ele>138.0</ele><time>2026-04-11T15:45:45.619Z</time></trkpt><trkpt lat="44.078043" lon="12.1825414"><ele>136.75</ele><time>2026-04-11T15:45:46.613Z</time></trkpt><trkpt lat="44.0781424" lon="12.1826601"><ele>135.5</ele><time>2026-04-11T15:45:47.613Z</time></trkpt><trkpt lat="44.0782316" lon="12.1827939"><ele>134.25</ele><time>2026-04-11T15:45:48.612Z</time></trkpt><trkpt lat="44.0783129" lon="12.1829372"><ele>133.0</ele><time>2026-04-11T15:45:49.617Z</time></trkpt><trkpt lat="44.0783885" lon="12.1830893"><ele>131.5</ele><time>2026-04-11T15:45:50.616Z</time></trkpt><trkpt lat="44.0784653" lon="12.1832561"><ele>130.0</ele><time>2026-04-11T15:45:51.639Z</time></trkpt><trkpt lat="44.0785394" lon="12.1834378"><ele>128.5</ele><time>2026-04-11T15:45:52.625Z</time></trkpt><trkpt lat="44.0786205" lon="12.1836037"><ele>127.0</ele><time>2026-04-11T15:45:53.709Z</time></trkpt><trkpt lat="44.0787035" lon="12.1837776"><ele>127.0</ele><time>2026-04-11T15:45:54.72Z</time></trkpt><trkpt lat="44.0787813" lon="12.1839486"><ele>127.0</ele><time>2026-04-11T15:45:55.72Z</time></trkpt><trkpt lat="44.0788579" lon="12.1841168"><ele>127.0</ele><time>2026-04-11T15:45:56.752Z</time></trkpt><trkpt lat="44.0789313" lon="12.1842848"><ele>127.0</ele><time>2026-04-11T15:45:57.72Z</time></trkpt><trkpt lat="44.0790014" lon="12.1844403"><ele>126.19999999999999</ele><time>2026-04-11T15:45:58.728Z</time></trkpt><trkpt lat="44.0790684" lon="12.1845836"><ele>125.39999999999999</ele><time>2026-04-11T15:45:59.724Z</time></trkpt><trkpt lat="44.0791196" lon="12.1847161"><ele>124.60000000000001</ele><time>2026-04-11T15:46:00.723Z</time></trkpt><trkpt lat="44.079149" lon="12.184849"><ele>123.80000000000001</ele><time>2026-04-11T15:46:01.718Z</time></trkpt><trkpt lat="44.0791534" lon="12.1849687"><ele>123.0</ele><time>2026-04-11T15:46:02.724Z</time></trkpt><trkpt lat="44.0791277" lon="12.1850914"><ele>122.2</ele><time>2026-04-11T15:46:03.702Z</time></trkpt><trkpt lat="44.0790838" lon="12.1852193"><ele>121.4</ele><time>2026-04-11T15:46:04.709Z</time></trkpt><trkpt lat="44.0790275" lon="12.1853463"><ele>120.60000000000001</ele><time>2026-04-11T15:46:05.699Z</time></trkpt><trkpt lat="44.0789681" lon="12.185484"><ele>119.80000000000001</ele><time>2026-04-11T15:46:06.699Z</time></trkpt><trkpt lat="44.0789113" lon="12.1856211"><ele>119.0</ele><time>2026-04-11T15:46:07.72Z</time></trkpt><trkpt lat="44.0788628" lon="12.1857665"><ele>118.6</ele><time>2026-04-11T15:46:08.712Z</time></trkpt><trkpt lat="44.0788208" lon="12.1859222"><ele>118.2</ele><time>2026-04-11T15:46:09.725Z</time></trkpt><trkpt lat="44.078791" lon="12.1860789"><ele>117.79999999999998</ele><time>2026-04-11T15:46:10.703Z</time></trkpt><trkpt lat="44.0787909" lon="12.186226"><ele>117.39999999999999</ele><time>2026-04-11T15:46:11.696Z</time></trkpt><trkpt lat="44.0788281" lon="12.1863497"><ele>117.0</ele><time>2026-04-11T15:46:12.701Z</time></trkpt><trkpt lat="44.078884" lon="12.1864979"><ele>115.5</ele><time>2026-04-11T15:46:13.697Z</time></trkpt><trkpt lat="44.0789551" lon="12.1866342"><ele>114.0</ele><time>2026-04-11T15:46:14.719Z</time></trkpt><trkpt lat="44.0790313" lon="12.1867646"><ele>112.5</ele><time>2026-04-11T15:46:15.72Z</time></trkpt><trkpt lat="44.0791023" lon="12.1868985"><ele>111.0</ele><time>2026-04-11T15:46:16.708Z</time></trkpt><trkpt lat="44.0791498" lon="12.1870206"><ele>110.19999999999999</ele><time>2026-04-11T15:46:17.694Z</time></trkpt><trkpt lat="44.0791739" lon="12.1871416"><ele>109.39999999999999</ele><time>2026-04-11T15:46:18.69Z</time></trkpt><trkpt lat="44.0791829" lon="12.1872771"><ele>108.6</ele><time>2026-04-11T15:46:19.696Z</time></trkpt><trkpt lat="44.0791787" lon="12.1874321"><ele>107.8</ele><time>2026-04-11T15:46:20.705Z</time></trkpt><trkpt lat="44.0791432" lon="12.1875406"><ele>107.0</ele><time>2026-04-11T15:46:21.699Z</time></trkpt><trkpt lat="44.0790743" lon="12.1876131"><ele>104.0</ele><time>2026-04-11T15:46:22.705Z</time></trkpt><trkpt lat="44.0789947" lon="12.1876288"><ele>100.99999999999999</ele><time>2026-04-11T15:46:23.689Z</time></trkpt><trkpt lat="44.0789824" lon="12.1877262"><ele>98.0</ele><time>2026-04-11T15:46:24.597Z</time></trkpt><trkpt lat="44.0788766" lon="12.1876897"><ele>95.0</ele><time>2026-04-11T15:46:25.596Z</time></trkpt><trkpt lat="44.0787715" lon="12.1876686"><ele>92.0</ele><time>2026-04-11T15:46:26.624Z</time></trkpt><trkpt lat="44.0786674" lon="12.1876379"><ele>92.0</ele><time>2026-04-11T15:46:27.604Z</time></trkpt><trkpt lat="44.0785575" lon="12.187615"><ele>92.0</ele><time>2026-04-11T15:46:28.605Z</time></trkpt><trkpt lat="44.078444" lon="12.1876012"><ele>92.0</ele><time>2026-04-11T15:46:29.604Z</time></trkpt><trkpt lat="44.0783292" lon="12.1875913"><ele>92.0</ele><time>2026-04-11T15:46:30.607Z</time></trkpt><trkpt lat="44.0782098" lon="12.1875866"><ele>89.5</ele><time>2026-04-11T15:46:31.606Z</time></trkpt><trkpt lat="44.0780923" lon="12.1875846"><ele>87.0</ele><time>2026-04-11T15:46:32.6Z</time></trkpt><trkpt lat="44.0779734" lon="12.1875868"><ele>84.5</ele><time>2026-04-11T15:46:33.598Z</time></trkpt><trkpt lat="44.077854" lon="12.1875737"><ele>82.0</ele><time>2026-04-11T15:46:34.601Z</time></trkpt><trkpt lat="44.0777329" lon="12.1875532"><ele>82.0</ele><time>2026-04-11T15:46:35.587Z</time></trkpt><trkpt lat="44.0776219" lon="12.1875268"><ele>82.0</ele><time>2026-04-11T15:46:36.591Z</time></trkpt><trkpt lat="44.0775222" lon="12.1874989"><ele>82.0</ele><time>2026-04-11T15:46:37.593Z</time></trkpt><trkpt lat="44.0774365" lon="12.18748"><ele>82.0</ele><time>2026-04-11T15:46:38.61Z</time></trkpt><trkpt lat="44.0773577" lon="12.1874764"><ele>82.0</ele><time>2026-04-11T15:46:39.607Z</time></trkpt><trkpt lat="44.077297" lon="12.1875255"><ele>82.0</ele><time>2026-04-11T15:46:40.607Z</time></trkpt><trkpt lat="44.0772529" lon="12.187642"><ele>82.0</ele><time>2026-04-11T15:46:42.608Z</time></trkpt><trkpt lat="44.0773018" lon="12.1877806"><ele>82.0</ele><time>2026-04-11T15:46:49.636Z</time></trkpt><trkpt lat="44.0773743" lon="12.1878377"><ele>82.0</ele><time>2026-04-11T15:46:50.599Z</time></trkpt><trkpt lat="44.0774605" lon="12.1878878"><ele>82.0</ele><time>2026-04-11T15:46:51.623Z</time></trkpt><trkpt lat="44.0775566" lon="12.1879561"><ele>82.0</ele><time>2026-04-11T15:46:52.608Z</time></trkpt><trkpt lat="44.0776613" lon="12.1880219"><ele>82.0</ele><time>2026-04-11T15:46:53.615Z</time></trkpt><trkpt lat="44.0777806" lon="12.1880973"><ele>82.0</ele><time>2026-04-11T15:46:54.617Z</time></trkpt><trkpt lat="44.0779281" lon="12.1881817"><ele>82.0</ele><time>2026-04-11T15:46:55.628Z</time></trkpt><trkpt lat="44.0780987" lon="12.1882739"><ele>80.33333333333333</ele><time>2026-04-11T15:46:56.614Z</time></trkpt><trkpt lat="44.0782874" lon="12.1883686"><ele>78.66666666666667</ele><time>2026-04-11T15:46:57.641Z</time></trkpt><trkpt lat="44.0784927" lon="12.1884899"><ele>77.0</ele><time>2026-04-11T15:46:58.62Z</time></trkpt><trkpt lat="44.0786932" lon="12.1886231"><ele>77.0</ele><time>2026-04-11T15:46:59.624Z</time></trkpt><trkpt lat="44.0789062" lon="12.1887457"><ele>77.0</ele><time>2026-04-11T15:47:00.622Z</time></trkpt><trkpt lat="44.07911" lon="12.188869"><ele>76.0</ele><time>2026-04-11T15:47:01.638Z</time></trkpt><trkpt lat="44.0793167" lon="12.1889925"><ele>75.0</ele><time>2026-04-11T15:47:02.623Z</time></trkpt><trkpt lat="44.0795045" lon="12.1890869"><ele>74.0</ele><time>2026-04-11T15:47:03.627Z</time></trkpt><trkpt lat="44.0796666" lon="12.1891368"><ele>74.0</ele><time>2026-04-11T15:47:04.628Z</time></trkpt><trkpt lat="44.0798179" lon="12.1891476"><ele>74.0</ele><time>2026-04-11T15:47:05.622Z</time></trkpt><trkpt lat="44.079973" lon="12.1891326"><ele>74.0</ele><time>2026-04-11T15:47:06.619Z</time></trkpt><trkpt lat="44.0801277" lon="12.1891007"><ele>74.33333333333334</ele><time>2026-04-11T15:47:07.621Z</time></trkpt><trkpt lat="44.0802986" lon="12.1890598"><ele>74.66666666666667</ele><time>2026-04-11T15:47:08.618Z</time></trkpt><trkpt lat="44.0804604" lon="12.1890085"><ele>75.0</ele><time>2026-04-11T15:47:09.624Z</time></trkpt><trkpt lat="44.0806149" lon="12.1889573"><ele>76.0</ele><time>2026-04-11T15:47:10.617Z</time></trkpt><trkpt lat="44.0807682" lon="12.1889143"><ele>77.0</ele><time>2026-04-11T15:47:11.614Z</time></trkpt><trkpt lat="44.080912" lon="12.1888667"><ele>78.0</ele><time>2026-04-11T15:47:12.621Z</time></trkpt><trkpt lat="44.0810487" lon="12.1888207"><ele>79.0</ele><time>2026-04-11T15:47:13.61Z</time></trkpt><trkpt lat="44.0811739" lon="12.1887715"><ele>79.0</ele><time>2026-04-11T15:47:14.612Z</time></trkpt><trkpt lat="44.0812965" lon="12.1887338"><ele>79.0</ele><time>2026-04-11T15:47:15.609Z</time></trkpt><trkpt lat="44.0814311" lon="12.1887051"><ele>79.0</ele><time>2026-04-11T15:47:16.606Z</time></trkpt><trkpt lat="44.0815624" lon="12.1887064"><ele>79.0</ele><time>2026-04-11T15:47:17.607Z</time></trkpt><trkpt lat="44.0816933" lon="12.1887649"><ele>76.75</ele><time>2026-04-11T15:47:18.605Z</time></trkpt><trkpt lat="44.0818246" lon="12.188832"><ele>74.5</ele><time>2026-04-11T15:47:19.619Z</time></trkpt><trkpt lat="44.0819617" lon="12.1889028"><ele>72.25</ele><time>2026-04-11T15:47:20.617Z</time></trkpt><trkpt lat="44.082111" lon="12.1889464"><ele>70.0</ele><time>2026-04-11T15:47:21.612Z</time></trkpt><trkpt lat="44.0822693" lon="12.1889511"><ele>70.0</ele><time>2026-04-11T15:47:22.616Z</time></trkpt><trkpt lat="44.0824229" lon="12.1889502"><ele>70.0</ele><time>2026-04-11T15:47:23.619Z</time></trkpt><trkpt lat="44.0825661" lon="12.1889418"><ele>70.0</ele><time>2026-04-11T15:47:24.619Z</time></trkpt><trkpt lat="44.0826933" lon="12.1889268"><ele>70.0</ele><time>2026-04-11T15:47:25.617Z</time></trkpt><trkpt lat="44.0828175" lon="12.1889033"><ele>69.25</ele><time>2026-04-11T15:47:26.609Z</time></trkpt><trkpt lat="44.0829412" lon="12.1888851"><ele>68.5</ele><time>2026-04-11T15:47:27.611Z</time></trkpt><trkpt lat="44.083069" lon="12.1888844"><ele>67.75</ele><time>2026-04-11T15:47:28.628Z</time></trkpt><trkpt lat="44.0832145" lon="12.1889103"><ele>67.0</ele><time>2026-04-11T15:47:29.614Z</time></trkpt><trkpt lat="44.0833497" lon="12.1889571"><ele>69.0</ele><time>2026-04-11T15:47:30.615Z</time></trkpt><trkpt lat="44.0834847" lon="12.189012"><ele>71.0</ele><time>2026-04-11T15:47:31.615Z</time></trkpt><trkpt lat="44.0836206" lon="12.1890679"><ele>73.0</ele><time>2026-04-11T15:47:32.617Z</time></trkpt><trkpt lat="44.0837599" lon="12.1891338"><ele>75.0</ele><time>2026-04-11T15:47:33.609Z</time></trkpt><trkpt lat="44.0838958" lon="12.1891935"><ele>75.0</ele><time>2026-04-11T15:47:34.62Z</time></trkpt><trkpt lat="44.0840361" lon="12.1892553"><ele>75.0</ele><time>2026-04-11T15:47:35.612Z</time></trkpt><trkpt lat="44.084168" lon="12.1893031"><ele>75.0</ele><time>2026-04-11T15:47:36.613Z</time></trkpt><trkpt lat="44.0842996" lon="12.1893395"><ele>75.0</ele><time>2026-04-11T15:47:37.621Z</time></trkpt><trkpt lat="44.0844277" lon="12.1893652"><ele>75.5</ele><time>2026-04-11T15:47:38.612Z</time></trkpt><trkpt lat="44.0845589" lon="12.1893924"><ele>76.0</ele><time>2026-04-11T15:47:39.62Z</time></trkpt><trkpt lat="44.0846842" lon="12.1894211"><ele>76.5</ele><time>2026-04-11T15:47:40.617Z</time></trkpt><trkpt lat="44.0848139" lon="12.1894714"><ele>77.0</ele><time>2026-04-11T15:47:41.616Z</time></trkpt><trkpt lat="44.0849371" lon="12.1895237"><ele>77.25</ele><time>2026-04-11T15:47:42.612Z</time></trkpt><trkpt lat="44.0850599" lon="12.1895761"><ele>77.5</ele><time>2026-04-11T15:47:43.616Z</time></trkpt><trkpt lat="44.0851761" lon="12.1896375"><ele>77.75</ele><time>2026-04-11T15:47:44.607Z</time></trkpt><trkpt lat="44.0852863" lon="12.1896985"><ele>78.0</ele><time>2026-04-11T15:47:45.616Z</time></trkpt><trkpt lat="44.0853918" lon="12.1897629"><ele>78.0</ele><time>2026-04-11T15:47:46.621Z</time></trkpt><trkpt lat="44.085496" lon="12.1898273"><ele>78.0</ele><time>2026-04-11T15:47:47.617Z</time></trkpt><trkpt lat="44.0856053" lon="12.1898971"><ele>78.0</ele><time>2026-04-11T15:47:48.628Z</time></trkpt><trkpt lat="44.0857119" lon="12.1899724"><ele>78.0</ele><time>2026-04-11T15:47:49.62Z</time></trkpt><trkpt lat="44.0858166" lon="12.1900534"><ele>77.6</ele><time>2026-04-11T15:47:50.62Z</time></trkpt><trkpt lat="44.085917" lon="12.1901285"><ele>77.19999999999999</ele><time>2026-04-11T15:47:51.614Z</time></trkpt><trkpt lat="44.0860187" lon="12.1901982"><ele>76.8</ele><time>2026-04-11T15:47:52.622Z</time></trkpt><trkpt lat="44.0861187" lon="12.1902687"><ele>76.39999999999999</ele><time>2026-04-11T15:47:53.618Z</time></trkpt><trkpt lat="44.0862143" lon="12.1903408"><ele>76.0</ele><time>2026-04-11T15:47:54.629Z</time></trkpt><trkpt lat="44.0863081" lon="12.1904132"><ele>76.0</ele><time>2026-04-11T15:47:55.624Z</time></trkpt><trkpt lat="44.0864003" lon="12.1904913"><ele>76.0</ele><time>2026-04-11T15:47:56.621Z</time></trkpt><trkpt lat="44.0864914" lon="12.1905734"><ele>76.0</ele><time>2026-04-11T15:47:57.621Z</time></trkpt><trkpt lat="44.0865767" lon="12.1906585"><ele>76.0</ele><time>2026-04-11T15:47:58.623Z</time></trkpt><trkpt lat="44.0866577" lon="12.1907436"><ele>76.0</ele><time>2026-04-11T15:47:59.638Z</time></trkpt><trkpt lat="44.0867382" lon="12.1908221"><ele>75.83333333333333</ele><time>2026-04-11T15:48:00.616Z</time></trkpt><trkpt lat="44.0868134" lon="12.1909009"><ele>75.66666666666666</ele><time>2026-04-11T15:48:01.632Z</time></trkpt><trkpt lat="44.086885" lon="12.1909741"><ele>75.5</ele><time>2026-04-11T15:48:02.625Z</time></trkpt><trkpt lat="44.0869553" lon="12.1910436"><ele>75.33333333333333</ele><time>2026-04-11T15:48:03.622Z</time></trkpt><trkpt lat="44.0870241" lon="12.1911123"><ele>75.16666666666667</ele><time>2026-04-11T15:48:04.625Z</time></trkpt><trkpt lat="44.0870913" lon="12.1911846"><ele>75.0</ele><time>2026-04-11T15:48:05.619Z</time></trkpt><trkpt lat="44.0871614" lon="12.1912563"><ele>75.0</ele><time>2026-04-11T15:48:06.622Z</time></trkpt><trkpt lat="44.087235" lon="12.1913286"><ele>75.0</ele><time>2026-04-11T15:48:07.633Z</time></trkpt><trkpt lat="44.0873157" lon="12.1914025"><ele>75.0</ele><time>2026-04-11T15:48:08.619Z</time></trkpt><trkpt lat="44.0873972" lon="12.1914844"><ele>75.0</ele><time>2026-04-11T15:48:09.622Z</time></trkpt><trkpt lat="44.0874851" lon="12.1915595"><ele>75.0</ele><time>2026-04-11T15:48:10.621Z</time></trkpt><trkpt lat="44.0875808" lon="12.191632"><ele>74.5</ele><time>2026-04-11T15:48:11.617Z</time></trkpt><trkpt lat="44.0876786" lon="12.1917119"><ele>74.0</ele><time>2026-04-11T15:48:12.62Z</time></trkpt><trkpt lat="44.0877796" lon="12.1917862"><ele>73.5</ele><time>2026-04-11T15:48:13.615Z</time></trkpt><trkpt lat="44.0878842" lon="12.1918518"><ele>73.0</ele><time>2026-04-11T15:48:14.615Z</time></trkpt><trkpt lat="44.087988" lon="12.1919139"><ele>73.0</ele><time>2026-04-11T15:48:15.621Z</time></trkpt><trkpt lat="44.0880934" lon="12.1919767"><ele>73.0</ele><time>2026-04-11T15:48:16.617Z</time></trkpt><trkpt lat="44.0882026" lon="12.1920352"><ele>73.0</ele><time>2026-04-11T15:48:17.622Z</time></trkpt><trkpt lat="44.0883156" lon="12.1920862"><ele>73.0</ele><time>2026-04-11T15:48:18.618Z</time></trkpt><trkpt lat="44.0884248" lon="12.1921386"><ele>73.4</ele><time>2026-04-11T15:48:19.619Z</time></trkpt><trkpt lat="44.0885308" lon="12.1921849"><ele>73.8</ele><time>2026-04-11T15:48:20.612Z</time></trkpt><trkpt lat="44.0886306" lon="12.1922318"><ele>74.2</ele><time>2026-04-11T15:48:21.613Z</time></trkpt><trkpt lat="44.0887219" lon="12.1922686"><ele>74.6</ele><time>2026-04-11T15:48:22.616Z</time></trkpt><trkpt lat="44.088811" lon="12.192295"><ele>75.0</ele><time>2026-04-11T15:48:23.611Z</time></trkpt><trkpt lat="44.0888953" lon="12.1923283"><ele>74.4</ele><time>2026-04-11T15:48:24.616Z</time></trkpt><trkpt lat="44.088981" lon="12.1923592"><ele>73.8</ele><time>2026-04-11T15:48:25.625Z</time></trkpt><trkpt lat="44.089066" lon="12.192379"><ele>73.2</ele><time>2026-04-11T15:48:26.617Z</time></trkpt><trkpt lat="44.089156" lon="12.1924048"><ele>72.6</ele><time>2026-04-11T15:48:27.616Z</time></trkpt><trkpt lat="44.0892518" lon="12.1924211"><ele>72.0</ele><time>2026-04-11T15:48:28.617Z</time></trkpt><trkpt lat="44.0893614" lon="12.1924377"><ele>72.0</ele><time>2026-04-11T15:48:29.617Z</time></trkpt><trkpt lat="44.0894705" lon="12.1924468"><ele>72.0</ele><time>2026-04-11T15:48:30.629Z</time></trkpt><trkpt lat="44.0895835" lon="12.1924446"><ele>72.0</ele><time>2026-04-11T15:48:31.61Z</time></trkpt><trkpt lat="44.0897005" lon="12.1924368"><ele>72.0</ele><time>2026-04-11T15:48:32.625Z</time></trkpt><trkpt lat="44.0898221" lon="12.1924224"><ele>72.0</ele><time>2026-04-11T15:48:33.615Z</time></trkpt><trkpt lat="44.0899457" lon="12.1924033"><ele>72.0</ele><time>2026-04-11T15:48:34.624Z</time></trkpt><trkpt lat="44.090074" lon="12.1923767"><ele>72.0</ele><time>2026-04-11T15:48:35.619Z</time></trkpt><trkpt lat="44.0902064" lon="12.1923487"><ele>72.0</ele><time>2026-04-11T15:48:36.618Z</time></trkpt><trkpt lat="44.0903366" lon="12.1923229"><ele>72.0</ele><time>2026-04-11T15:48:37.619Z</time></trkpt><trkpt lat="44.0904648" lon="12.1923014"><ele>72.0</ele><time>2026-04-11T15:48:38.612Z</time></trkpt><trkpt lat="44.0905958" lon="12.1922798"><ele>72.0</ele><time>2026-04-11T15:48:39.599Z</time></trkpt><trkpt lat="44.0907262" lon="12.1922541"><ele>72.0</ele><time>2026-04-11T15:48:40.597Z</time></trkpt><trkpt lat="44.0908569" lon="12.1922302"><ele>71.0</ele><time>2026-04-11T15:48:41.592Z</time></trkpt><trkpt lat="44.0909839" lon="12.1922169"><ele>70.0</ele><time>2026-04-11T15:48:42.594Z</time></trkpt><trkpt lat="44.0911079" lon="12.1922212"><ele>69.0</ele><time>2026-04-11T15:48:43.602Z</time></trkpt><trkpt lat="44.0912267" lon="12.1922619"><ele>68.0</ele><time>2026-04-11T15:48:44.597Z</time></trkpt><trkpt lat="44.0913475" lon="12.192315"><ele>67.75</ele><time>2026-04-11T15:48:45.6Z</time></trkpt><trkpt lat="44.0914632" lon="12.1923773"><ele>67.5</ele><time>2026-04-11T15:48:46.611Z</time></trkpt><trkpt lat="44.0915743" lon="12.1924388"><ele>67.25</ele><time>2026-04-11T15:48:47.608Z</time></trkpt><trkpt lat="44.0916897" lon="12.1925002"><ele>67.0</ele><time>2026-04-11T15:48:48.61Z</time></trkpt><trkpt lat="44.0918022" lon="12.1925618"><ele>68.0</ele><time>2026-04-11T15:48:49.612Z</time></trkpt><trkpt lat="44.0919194" lon="12.1926325"><ele>69.0</ele><time>2026-04-11T15:48:50.611Z</time></trkpt><trkpt lat="44.092039" lon="12.1927064"><ele>70.0</ele><time>2026-04-11T15:48:51.611Z</time></trkpt><trkpt lat="44.0921597" lon="12.1927845"><ele>71.0</ele><time>2026-04-11T15:48:52.611Z</time></trkpt><trkpt lat="44.0922813" lon="12.1928591"><ele>71.0</ele><time>2026-04-11T15:48:53.616Z</time></trkpt><trkpt lat="44.0924036" lon="12.1929351"><ele>71.0</ele><time>2026-04-11T15:48:54.617Z</time></trkpt><trkpt lat="44.0925246" lon="12.1930066"><ele>71.0</ele><time>2026-04-11T15:48:55.614Z</time></trkpt><trkpt lat="44.0926423" lon="12.1930865"><ele>71.0</ele><time>2026-04-11T15:48:56.61Z</time></trkpt><trkpt lat="44.0927657" lon="12.1931595"><ele>70.5</ele><time>2026-04-11T15:48:57.618Z</time></trkpt><trkpt lat="44.0928915" lon="12.193229"><ele>70.0</ele><time>2026-04-11T15:48:58.622Z</time></trkpt><trkpt lat="44.0930189" lon="12.1932988"><ele>69.5</ele><time>2026-04-11T15:48:59.623Z</time></trkpt><trkpt lat="44.0931441" lon="12.1933707"><ele>69.0</ele><time>2026-04-11T15:49:00.622Z</time></trkpt><trkpt lat="44.0932717" lon="12.1934446"><ele>68.75</ele><time>2026-04-11T15:49:01.641Z</time></trkpt><trkpt lat="44.0933933" lon="12.1935178"><ele>68.5</ele><time>2026-04-11T15:49:02.622Z</time></trkpt><trkpt lat="44.0935194" lon="12.1935936"><ele>68.25</ele><time>2026-04-11T15:49:03.615Z</time></trkpt><trkpt lat="44.0936429" lon="12.1936685"><ele>68.0</ele><time>2026-04-11T15:49:04.618Z</time></trkpt><trkpt lat="44.0937668" lon="12.1937379"><ele>68.0</ele><time>2026-04-11T15:49:05.617Z</time></trkpt><trkpt lat="44.093889" lon="12.193806"><ele>68.0</ele><time>2026-04-11T15:49:06.624Z</time></trkpt><trkpt lat="44.0940087" lon="12.1938765"><ele>68.0</ele><time>2026-04-11T15:49:07.62Z</time></trkpt><trkpt lat="44.0941321" lon="12.1939497"><ele>68.0</ele><time>2026-04-11T15:49:08.618Z</time></trkpt><trkpt lat="44.0942535" lon="12.1940268"><ele>68.0</ele><time>2026-04-11T15:49:09.612Z</time></trkpt><trkpt lat="44.0943711" lon="12.1941142"><ele>68.0</ele><time>2026-04-11T15:49:10.611Z</time></trkpt><trkpt lat="44.0944856" lon="12.1942126"><ele>68.0</ele><time>2026-04-11T15:49:11.609Z</time></trkpt><trkpt lat="44.0945934" lon="12.1943329"><ele>68.0</ele><time>2026-04-11T15:49:12.609Z</time></trkpt><trkpt lat="44.0946983" lon="12.194462"><ele>68.0</ele><time>2026-04-11T15:49:13.614Z</time></trkpt><trkpt lat="44.0947998" lon="12.1945905"><ele>68.0</ele><time>2026-04-11T15:49:14.607Z</time></trkpt><trkpt lat="44.0948993" lon="12.1947236"><ele>68.0</ele><time>2026-04-11T15:49:15.615Z</time></trkpt><trkpt lat="44.0949973" lon="12.1948596"><ele>68.0</ele><time>2026-04-11T15:49:16.614Z</time></trkpt><trkpt lat="44.095103" lon="12.1949891"><ele>67.0</ele><time>2026-04-11T15:49:17.615Z</time></trkpt><trkpt lat="44.0952089" lon="12.1951351"><ele>66.0</ele><time>2026-04-11T15:49:18.62Z</time></trkpt><trkpt lat="44.0953143" lon="12.1952896"><ele>65.0</ele><time>2026-04-11T15:49:19.621Z</time></trkpt><trkpt lat="44.0954174" lon="12.1954484"><ele>65.0</ele><time>2026-04-11T15:49:20.618Z</time></trkpt><trkpt lat="44.0955183" lon="12.1956106"><ele>65.0</ele><time>2026-04-11T15:49:21.615Z</time></trkpt><trkpt lat="44.0956237" lon="12.1957655"><ele>65.0</ele><time>2026-04-11T15:49:22.623Z</time></trkpt><trkpt lat="44.0957281" lon="12.1959209"><ele>64.0</ele><time>2026-04-11T15:49:23.62Z</time></trkpt><trkpt lat="44.0958346" lon="12.19608"><ele>63.0</ele><time>2026-04-11T15:49:24.621Z</time></trkpt><trkpt lat="44.0959479" lon="12.1962285"><ele>62.0</ele><time>2026-04-11T15:49:25.613Z</time></trkpt><trkpt lat="44.0960746" lon="12.1963626"><ele>62.0</ele><time>2026-04-11T15:49:26.616Z</time></trkpt><trkpt lat="44.0962162" lon="12.1964943"><ele>62.0</ele><time>2026-04-11T15:49:27.615Z</time></trkpt><trkpt lat="44.0963732" lon="12.1966169"><ele>62.0</ele><time>2026-04-11T15:49:28.618Z</time></trkpt><trkpt lat="44.0965423" lon="12.196735"><ele>61.66666666666667</ele><time>2026-04-11T15:49:29.63Z</time></trkpt><trkpt lat="44.0967123" lon="12.1968398"><ele>61.33333333333333</ele><time>2026-04-11T15:49:30.622Z</time></trkpt><trkpt lat="44.0968814" lon="12.1969487"><ele>61.0</ele><time>2026-04-11T15:49:31.625Z</time></trkpt><trkpt lat="44.0970515" lon="12.1970474"><ele>61.0</ele><time>2026-04-11T15:49:32.636Z</time></trkpt><trkpt lat="44.0972204" lon="12.1971479"><ele>61.0</ele><time>2026-04-11T15:49:33.623Z</time></trkpt><trkpt lat="44.0973901" lon="12.1972391"><ele>61.0</ele><time>2026-04-11T15:49:34.62Z</time></trkpt><trkpt lat="44.0975662" lon="12.1973267"><ele>61.33333333333333</ele><time>2026-04-11T15:49:35.616Z</time></trkpt><trkpt lat="44.097738" lon="12.1974013"><ele>61.66666666666667</ele><time>2026-04-11T15:49:36.615Z</time></trkpt><trkpt lat="44.097892" lon="12.1974833"><ele>62.0</ele><time>2026-04-11T15:49:37.622Z</time></trkpt><trkpt lat="44.0980403" lon="12.1975462"><ele>62.0</ele><time>2026-04-11T15:49:38.636Z</time></trkpt><trkpt lat="44.0981802" lon="12.1975927"><ele>62.0</ele><time>2026-04-11T15:49:39.628Z</time></trkpt><trkpt lat="44.0983121" lon="12.1976366"><ele>62.0</ele><time>2026-04-11T15:49:40.629Z</time></trkpt><trkpt lat="44.098436" lon="12.1976742"><ele>62.0</ele><time>2026-04-11T15:49:41.628Z</time></trkpt><trkpt lat="44.0985761" lon="12.1976925"><ele>61.75</ele><time>2026-04-11T15:49:42.626Z</time></trkpt><trkpt lat="44.0987203" lon="12.1977036"><ele>61.5</ele><time>2026-04-11T15:49:43.632Z</time></trkpt><trkpt lat="44.098859" lon="12.1977097"><ele>61.25</ele><time>2026-04-11T15:49:44.634Z</time></trkpt><trkpt lat="44.099011" lon="12.1977121"><ele>61.0</ele><time>2026-04-11T15:49:45.623Z</time></trkpt><trkpt lat="44.0991691" lon="12.197709"><ele>61.0</ele><time>2026-04-11T15:49:46.64Z</time></trkpt><trkpt lat="44.0993309" lon="12.1976953"><ele>61.0</ele><time>2026-04-11T15:49:47.633Z</time></trkpt><trkpt lat="44.0995004" lon="12.1976864"><ele>61.0</ele><time>2026-04-11T15:49:48.636Z</time></trkpt><trkpt lat="44.0996617" lon="12.1976873"><ele>61.0</ele><time>2026-04-11T15:49:49.626Z</time></trkpt><trkpt lat="44.0998116" lon="12.1976788"><ele>61.0</ele><time>2026-04-11T15:49:50.635Z</time></trkpt><trkpt lat="44.0999608" lon="12.1976794"><ele>61.0</ele><time>2026-04-11T15:49:51.631Z</time></trkpt><trkpt lat="44.1001105" lon="12.1976838"><ele>61.0</ele><time>2026-04-11T15:49:52.631Z</time></trkpt><trkpt lat="44.1002669" lon="12.1976897"><ele>61.0</ele><time>2026-04-11T15:49:53.631Z</time></trkpt><trkpt lat="44.1004227" lon="12.1976893"><ele>61.0</ele><time>2026-04-11T15:49:54.637Z</time></trkpt><trkpt lat="44.1005792" lon="12.19769"><ele>61.0</ele><time>2026-04-11T15:49:55.636Z</time></trkpt><trkpt lat="44.10073" lon="12.1976868"><ele>61.5</ele><time>2026-04-11T15:49:56.627Z</time></trkpt><trkpt lat="44.1008787" lon="12.1976838"><ele>62.0</ele><time>2026-04-11T15:49:57.627Z</time></trkpt><trkpt lat="44.1010132" lon="12.1976846"><ele>62.5</ele><time>2026-04-11T15:49:58.632Z</time></trkpt><trkpt lat="44.1011386" lon="12.1976784"><ele>63.0</ele><time>2026-04-11T15:49:59.629Z</time></trkpt><trkpt lat="44.1012534" lon="12.1976595"><ele>63.0</ele><time>2026-04-11T15:50:00.623Z</time></trkpt><trkpt lat="44.1013579" lon="12.1975952"><ele>63.0</ele><time>2026-04-11T15:50:01.637Z</time></trkpt><trkpt lat="44.1014619" lon="12.1974976"><ele>63.0</ele><time>2026-04-11T15:50:02.631Z</time></trkpt><trkpt lat="44.1015738" lon="12.197368"><ele>63.0</ele><time>2026-04-11T15:50:03.631Z</time></trkpt><trkpt lat="44.1016847" lon="12.1972246"><ele>62.33333333333333</ele><time>2026-04-11T15:50:04.623Z</time></trkpt><trkpt lat="44.1018078" lon="12.1970804"><ele>61.666666666666664</ele><time>2026-04-11T15:50:05.622Z</time></trkpt><trkpt lat="44.1019189" lon="12.1969481"><ele>61.0</ele><time>2026-04-11T15:50:06.631Z</time></trkpt><trkpt lat="44.1020363" lon="12.1968227"><ele>61.0</ele><time>2026-04-11T15:50:07.622Z</time></trkpt><trkpt lat="44.1021622" lon="12.1966984"><ele>61.0</ele><time>2026-04-11T15:50:08.626Z</time></trkpt><trkpt lat="44.1022901" lon="12.1965986"><ele>61.0</ele><time>2026-04-11T15:50:09.631Z</time></trkpt><trkpt lat="44.102431" lon="12.1965289"><ele>60.5</ele><time>2026-04-11T15:50:10.626Z</time></trkpt><trkpt lat="44.1025735" lon="12.1964647"><ele>60.0</ele><time>2026-04-11T15:50:11.618Z</time></trkpt><trkpt lat="44.1027199" lon="12.1964243"><ele>59.5</ele><time>2026-04-11T15:50:12.625Z</time></trkpt><trkpt lat="44.1028651" lon="12.1963852"><ele>59.0</ele><time>2026-04-11T15:50:13.626Z</time></trkpt><trkpt lat="44.1030083" lon="12.1963673"><ele>59.0</ele><time>2026-04-11T15:50:14.627Z</time></trkpt><trkpt lat="44.1031557" lon="12.1963454"><ele>59.0</ele><time>2026-04-11T15:50:15.627Z</time></trkpt><trkpt lat="44.103306" lon="12.1963155"><ele>59.0</ele><time>2026-04-11T15:50:16.627Z</time></trkpt><trkpt lat="44.1034582" lon="12.1962902"><ele>59.66666666666667</ele><time>2026-04-11T15:50:17.624Z</time></trkpt><trkpt lat="44.1036081" lon="12.1962605"><ele>60.33333333333333</ele><time>2026-04-11T15:50:18.621Z</time></trkpt><trkpt lat="44.1037564" lon="12.1962425"><ele>61.0</ele><time>2026-04-11T15:50:19.618Z</time></trkpt><trkpt lat="44.1039094" lon="12.1962264"><ele>61.0</ele><time>2026-04-11T15:50:20.621Z</time></trkpt><trkpt lat="44.1040598" lon="12.1962275"><ele>61.0</ele><time>2026-04-11T15:50:21.619Z</time></trkpt><trkpt lat="44.104211" lon="12.1962393"><ele>61.0</ele><time>2026-04-11T15:50:22.617Z</time></trkpt><trkpt lat="44.1043581" lon="12.1962554"><ele>61.0</ele><time>2026-04-11T15:50:23.626Z</time></trkpt><trkpt lat="44.104504" lon="12.1962618"><ele>61.0</ele><time>2026-04-11T15:50:24.626Z</time></trkpt><trkpt lat="44.1046326" lon="12.1962673"><ele>61.0</ele><time>2026-04-11T15:50:25.628Z</time></trkpt><trkpt lat="44.1047382" lon="12.1962647"><ele>61.0</ele><time>2026-04-11T15:50:26.637Z</time></trkpt><trkpt lat="44.1048509" lon="12.1962724"><ele>61.0</ele><time>2026-04-11T15:50:27.624Z</time></trkpt><trkpt lat="44.1049576" lon="12.1962762"><ele>61.0</ele><time>2026-04-11T15:50:28.626Z</time></trkpt><trkpt lat="44.1050538" lon="12.1962853"><ele>60.99999999999999</ele><time>2026-04-11T15:50:29.625Z</time></trkpt><trkpt lat="44.1051489" lon="12.1963027"><ele>60.99999999999999</ele><time>2026-04-11T15:50:30.63Z</time></trkpt><trkpt lat="44.1052482" lon="12.1963145"><ele>61.0</ele><time>2026-04-11T15:50:31.618Z</time></trkpt><trkpt lat="44.1053464" lon="12.1963149"><ele>61.0</ele><time>2026-04-11T15:50:32.624Z</time></trkpt><trkpt lat="44.1054435" lon="12.1963174"><ele>61.0</ele><time>2026-04-11T15:50:33.621Z</time></trkpt><trkpt lat="44.1055386" lon="12.1963167"><ele>60.99999999999999</ele><time>2026-04-11T15:50:34.645Z</time></trkpt><trkpt lat="44.10562" lon="12.1963205"><ele>60.99999999999999</ele><time>2026-04-11T15:50:35.62Z</time></trkpt><trkpt lat="44.1056886" lon="12.1963199"><ele>61.0</ele><time>2026-04-11T15:50:36.625Z</time></trkpt><trkpt lat="44.1057982" lon="12.1963148"><ele>61.0</ele><time>2026-04-11T15:50:38.624Z</time></trkpt><trkpt lat="44.1059109" lon="12.1962976"><ele>60.599999999999994</ele><time>2026-04-11T15:50:40.631Z</time></trkpt><trkpt lat="44.1060157" lon="12.1962421"><ele>60.199999999999996</ele><time>2026-04-11T15:50:42.629Z</time></trkpt><trkpt lat="44.1060931" lon="12.1961463"><ele>59.800000000000004</ele><time>2026-04-11T15:50:44.631Z</time></trkpt><trkpt lat="44.1061141" lon="12.1959625"><ele>59.400000000000006</ele><time>2026-04-11T15:50:46.605Z</time></trkpt><trkpt lat="44.1061206" lon="12.1958364"><ele>59.0</ele><time>2026-04-11T15:50:47.606Z</time></trkpt><trkpt lat="44.1061372" lon="12.1957037"><ele>59.400000000000006</ele><time>2026-04-11T15:50:48.609Z</time></trkpt><trkpt lat="44.1061669" lon="12.1955654"><ele>59.800000000000004</ele><time>2026-04-11T15:50:49.617Z</time></trkpt><trkpt lat="44.1062156" lon="12.1954309"><ele>60.199999999999996</ele><time>2026-04-11T15:50:50.616Z</time></trkpt><trkpt lat="44.1062743" lon="12.1952926"><ele>60.599999999999994</ele><time>2026-04-11T15:50:51.604Z</time></trkpt><trkpt lat="44.106335" lon="12.1951464"><ele>61.0</ele><time>2026-04-11T15:50:52.611Z</time></trkpt><trkpt lat="44.1063986" lon="12.1950025"><ele>61.0</ele><time>2026-04-11T15:50:53.611Z</time></trkpt><trkpt lat="44.1064627" lon="12.1948589"><ele>61.0</ele><time>2026-04-11T15:50:54.613Z</time></trkpt><trkpt lat="44.1065301" lon="12.1947058"><ele>61.0</ele><time>2026-04-11T15:50:55.613Z</time></trkpt><trkpt lat="44.1065967" lon="12.1945515"><ele>61.0</ele><time>2026-04-11T15:50:56.607Z</time></trkpt><trkpt lat="44.1066656" lon="12.1943962"><ele>61.0</ele><time>2026-04-11T15:50:57.615Z</time></trkpt><trkpt lat="44.1067353" lon="12.194236"><ele>61.0</ele><time>2026-04-11T15:50:58.619Z</time></trkpt><trkpt lat="44.1068059" lon="12.19408"><ele>61.0</ele><time>2026-04-11T15:50:59.619Z</time></trkpt><trkpt lat="44.1068822" lon="12.1939325"><ele>61.0</ele><time>2026-04-11T15:51:00.617Z</time></trkpt><trkpt lat="44.1069615" lon="12.1937896"><ele>61.0</ele><time>2026-04-11T15:51:01.612Z</time></trkpt><trkpt lat="44.1070481" lon="12.1936453"><ele>61.0</ele><time>2026-04-11T15:51:02.622Z</time></trkpt><trkpt lat="44.1071415" lon="12.1935015"><ele>61.0</ele><time>2026-04-11T15:51:03.612Z</time></trkpt><trkpt lat="44.1072401" lon="12.193346"><ele>61.0</ele><time>2026-04-11T15:51:04.631Z</time></trkpt><trkpt lat="44.1073435" lon="12.1931996"><ele>61.0</ele><time>2026-04-11T15:51:05.606Z</time></trkpt><trkpt lat="44.1074401" lon="12.193054"><ele>61.0</ele><time>2026-04-11T15:51:06.612Z</time></trkpt><trkpt lat="44.1075429" lon="12.1929033"><ele>61.0</ele><time>2026-04-11T15:51:07.608Z</time></trkpt><trkpt lat="44.1076419" lon="12.1927636"><ele>61.0</ele><time>2026-04-11T15:51:08.626Z</time></trkpt><trkpt lat="44.1077441" lon="12.1926165"><ele>61.0</ele><time>2026-04-11T15:51:09.608Z</time></trkpt><trkpt lat="44.1078492" lon="12.1924643"><ele>61.0</ele><time>2026-04-11T15:51:10.612Z</time></trkpt><trkpt lat="44.1079477" lon="12.1923109"><ele>61.0</ele><time>2026-04-11T15:51:11.615Z</time></trkpt><trkpt lat="44.1080432" lon="12.1921463"><ele>60.666666666666664</ele><time>2026-04-11T15:51:12.613Z</time></trkpt><trkpt lat="44.1081418" lon="12.1919837"><ele>60.33333333333333</ele><time>2026-04-11T15:51:13.614Z</time></trkpt><trkpt lat="44.1082367" lon="12.1918232"><ele>60.0</ele><time>2026-04-11T15:51:14.612Z</time></trkpt><trkpt lat="44.1083286" lon="12.1916478"><ele>60.0</ele><time>2026-04-11T15:51:15.61Z</time></trkpt><trkpt lat="44.1084178" lon="12.1914622"><ele>60.0</ele><time>2026-04-11T15:51:16.613Z</time></trkpt><trkpt lat="44.1085028" lon="12.1912775"><ele>60.0</ele><time>2026-04-11T15:51:17.61Z</time></trkpt><trkpt lat="44.1085938" lon="12.1911029"><ele>60.0</ele><time>2026-04-11T15:51:18.612Z</time></trkpt><trkpt lat="44.1086943" lon="12.1909304"><ele>60.0</ele><time>2026-04-11T15:51:19.616Z</time></trkpt><trkpt lat="44.1087977" lon="12.1907767"><ele>60.0</ele><time>2026-04-11T15:51:20.62Z</time></trkpt><trkpt lat="44.1089219" lon="12.1906362"><ele>60.66666666666667</ele><time>2026-04-11T15:51:21.625Z</time></trkpt><trkpt lat="44.1090512" lon="12.190535"><ele>61.333333333333336</ele><time>2026-04-11T15:51:22.62Z</time></trkpt><trkpt lat="44.1091949" lon="12.1904546"><ele>62.0</ele><time>2026-04-11T15:51:23.614Z</time></trkpt><trkpt lat="44.1093527" lon="12.1903934"><ele>62.0</ele><time>2026-04-11T15:51:24.621Z</time></trkpt><trkpt lat="44.1095103" lon="12.1903522"><ele>62.0</ele><time>2026-04-11T15:51:25.608Z</time></trkpt><trkpt lat="44.109676" lon="12.1903455"><ele>62.0</ele><time>2026-04-11T15:51:26.611Z</time></trkpt><trkpt lat="44.1098513" lon="12.1903511"><ele>63.0</ele><time>2026-04-11T15:51:27.621Z</time></trkpt><trkpt lat="44.1100338" lon="12.1903618"><ele>64.0</ele><time>2026-04-11T15:51:28.623Z</time></trkpt><trkpt lat="44.1102171" lon="12.1903712"><ele>65.0</ele><time>2026-04-11T15:51:29.633Z</time></trkpt><trkpt lat="44.1103932" lon="12.1903857"><ele>65.0</ele><time>2026-04-11T15:51:30.615Z</time></trkpt><trkpt lat="44.1105609" lon="12.1904005"><ele>65.0</ele><time>2026-04-11T15:51:31.612Z</time></trkpt><trkpt lat="44.1107179" lon="12.1904078"><ele>65.0</ele><time>2026-04-11T15:51:32.617Z</time></trkpt><trkpt lat="44.1108663" lon="12.1904132"><ele>65.4</ele><time>2026-04-11T15:51:33.623Z</time></trkpt><trkpt lat="44.1109824" lon="12.1904273"><ele>65.8</ele><time>2026-04-11T15:51:34.611Z</time></trkpt><trkpt lat="44.1110819" lon="12.1904121"><ele>66.2</ele><time>2026-04-11T15:51:35.629Z</time></trkpt><trkpt lat="44.1111519" lon="12.190408"><ele>66.6</ele><time>2026-04-11T15:51:36.606Z</time></trkpt><trkpt lat="44.111243" lon="12.1903493"><ele>67.0</ele><time>2026-04-11T15:51:38.611Z</time></trkpt><trkpt lat="44.1113024" lon="12.1901847"><ele>67.0</ele><time>2026-04-11T15:51:40.613Z</time></trkpt><trkpt lat="44.1113187" lon="12.1900501"><ele>67.0</ele><time>2026-04-11T15:51:41.615Z</time></trkpt><trkpt lat="44.1113407" lon="12.1898664"><ele>67.0</ele><time>2026-04-11T15:51:42.596Z</time></trkpt><trkpt lat="44.1113633" lon="12.1896678"><ele>67.0</ele><time>2026-04-11T15:51:43.603Z</time></trkpt><trkpt lat="44.1113991" lon="12.1894577"><ele>67.33333333333333</ele><time>2026-04-11T15:51:44.605Z</time></trkpt><trkpt lat="44.111436" lon="12.1892504"><ele>67.66666666666667</ele><time>2026-04-11T15:51:45.61Z</time></trkpt><trkpt lat="44.1114981" lon="12.1890542"><ele>68.0</ele><time>2026-04-11T15:51:46.611Z</time></trkpt><trkpt lat="44.1115721" lon="12.1888833"><ele>68.0</ele><time>2026-04-11T15:51:47.597Z</time></trkpt><trkpt lat="44.1116802" lon="12.1887154"><ele>68.0</ele><time>2026-04-11T15:51:48.603Z</time></trkpt><trkpt lat="44.1117938" lon="12.1885462"><ele>68.0</ele><time>2026-04-11T15:51:49.599Z</time></trkpt><trkpt lat="44.11189" lon="12.1883509"><ele>69.66666666666667</ele><time>2026-04-11T15:51:50.603Z</time></trkpt><trkpt lat="44.111962" lon="12.1881551"><ele>71.33333333333333</ele><time>2026-04-11T15:51:51.607Z</time></trkpt><trkpt lat="44.112029" lon="12.1879316"><ele>73.0</ele><time>2026-04-11T15:51:52.609Z</time></trkpt><trkpt lat="44.1120709" lon="12.187701"><ele>73.0</ele><time>2026-04-11T15:51:53.598Z</time></trkpt><trkpt lat="44.1121157" lon="12.1874768"><ele>73.0</ele><time>2026-04-11T15:51:54.622Z</time></trkpt><trkpt lat="44.1121624" lon="12.1872714"><ele>73.0</ele><time>2026-04-11T15:51:55.604Z</time></trkpt><trkpt lat="44.1122122" lon="12.1870712"><ele>73.8</ele><time>2026-04-11T15:51:56.604Z</time></trkpt><trkpt lat="44.1122547" lon="12.1869205"><ele>74.6</ele><time>2026-04-11T15:51:57.603Z</time></trkpt><trkpt lat="44.1122863" lon="12.1867978"><ele>75.4</ele><time>2026-04-11T15:51:58.606Z</time></trkpt><trkpt lat="44.1123153" lon="12.1866884"><ele>76.2</ele><time>2026-04-11T15:51:59.617Z</time></trkpt><trkpt lat="44.1123594" lon="12.186573"><ele>77.0</ele><time>2026-04-11T15:52:01.617Z</time></trkpt><trkpt lat="44.1124312" lon="12.1867021"><ele>77.4</ele><time>2026-04-11T15:52:04.62Z</time></trkpt><trkpt lat="44.1125226" lon="12.1868173"><ele>77.80000000000001</ele><time>2026-04-11T15:52:06.624Z</time></trkpt><trkpt lat="44.1126248" lon="12.1869299"><ele>78.2</ele><time>2026-04-11T15:52:08.615Z</time></trkpt><trkpt lat="44.1126946" lon="12.1869854"><ele>78.60000000000001</ele><time>2026-04-11T15:52:09.616Z</time></trkpt><trkpt lat="44.1127791" lon="12.1870514"><ele>79.0</ele><time>2026-04-11T15:52:10.615Z</time></trkpt><trkpt lat="44.1128714" lon="12.1871273"><ele>79.0</ele><time>2026-04-11T15:52:11.617Z</time></trkpt><trkpt lat="44.1129659" lon="12.1871979"><ele>79.0</ele><time>2026-04-11T15:52:12.617Z</time></trkpt><trkpt lat="44.1130588" lon="12.187268"><ele>79.0</ele><time>2026-04-11T15:52:13.615Z</time></trkpt><trkpt lat="44.1131468" lon="12.1873405"><ele>79.0</ele><time>2026-04-11T15:52:14.623Z</time></trkpt><trkpt lat="44.1132295" lon="12.1874149"><ele>79.0</ele><time>2026-04-11T15:52:15.614Z</time></trkpt><trkpt lat="44.1133067" lon="12.1874842"><ele>78.57142857142858</ele><time>2026-04-11T15:52:16.62Z</time></trkpt><trkpt lat="44.1133733" lon="12.1875353"><ele>78.14285714285714</ele><time>2026-04-11T15:52:17.623Z</time></trkpt><trkpt lat="44.1134604" lon="12.1875968"><ele>77.71428571428572</ele><time>2026-04-11T15:52:19.622Z</time></trkpt><trkpt lat="44.1135134" lon="12.187649"><ele>77.28571428571429</ele><time>2026-04-11T15:52:21.627Z</time></trkpt><trkpt lat="44.1135745" lon="12.1876897"><ele>76.85714285714286</ele><time>2026-04-11T15:52:23.631Z</time></trkpt><trkpt lat="44.1136388" lon="12.187725"><ele>76.42857142857143</ele><time>2026-04-11T15:52:25.627Z</time></trkpt><trkpt lat="44.1136984" lon="12.1877607"><ele>76.0</ele><time>2026-04-11T15:52:27.626Z</time></trkpt><trkpt lat="44.1137659" lon="12.1877937"><ele>76.0</ele><time>2026-04-11T15:52:29.628Z</time></trkpt><trkpt lat="44.1138256" lon="12.1878261"><ele>76.0</ele><time>2026-04-11T15:52:31.628Z</time></trkpt><trkpt lat="44.1138926" lon="12.1878517"><ele>76.0</ele><time>2026-04-11T15:52:34.62Z</time></trkpt><trkpt lat="44.1140039" lon="12.1878492"><ele>76.0</ele><time>2026-04-11T15:52:51.633Z</time></trkpt><trkpt lat="44.1140819" lon="12.1878444"><ele>76.0</ele><time>2026-04-11T15:52:52.619Z</time></trkpt><trkpt lat="44.1141615" lon="12.1878409"><ele>76.0</ele><time>2026-04-11T15:52:53.628Z</time></trkpt><trkpt lat="44.1142457" lon="12.1878435"><ele>75.8</ele><time>2026-04-11T15:52:54.63Z</time></trkpt><trkpt lat="44.1143276" lon="12.1878649"><ele>75.6</ele><time>2026-04-11T15:52:55.63Z</time></trkpt><trkpt lat="44.1144082" lon="12.1879197"><ele>75.4</ele><time>2026-04-11T15:52:56.62Z</time></trkpt><trkpt lat="44.1144873" lon="12.1880177"><ele>75.2</ele><time>2026-04-11T15:52:57.631Z</time></trkpt><trkpt lat="44.1145678" lon="12.1881384"><ele>75.0</ele><time>2026-04-11T15:52:58.629Z</time></trkpt><trkpt lat="44.1146599" lon="12.1882736"><ele>74.25</ele><time>2026-04-11T15:52:59.633Z</time></trkpt><trkpt lat="44.1147477" lon="12.1884004"><ele>73.5</ele><time>2026-04-11T15:53:00.633Z</time></trkpt><trkpt lat="44.11483" lon="12.1885247"><ele>72.75</ele><time>2026-04-11T15:53:01.633Z</time></trkpt><trkpt lat="44.1149109" lon="12.1886365"><ele>72.0</ele><time>2026-04-11T15:53:02.624Z</time></trkpt><trkpt lat="44.1149884" lon="12.1887437"><ele>71.4</ele><time>2026-04-11T15:53:03.629Z</time></trkpt><trkpt lat="44.1150686" lon="12.1888387"><ele>70.80000000000001</ele><time>2026-04-11T15:53:04.623Z</time></trkpt><trkpt lat="44.1151448" lon="12.1889309"><ele>70.2</ele><time>2026-04-11T15:53:05.621Z</time></trkpt><trkpt lat="44.1152265" lon="12.189021"><ele>69.60000000000001</ele><time>2026-04-11T15:53:06.622Z</time></trkpt><trkpt lat="44.1153106" lon="12.1891062"><ele>69.0</ele><time>2026-04-11T15:53:07.628Z</time></trkpt><trkpt lat="44.1154014" lon="12.189174"><ele>68.8</ele><time>2026-04-11T15:53:08.644Z</time></trkpt><trkpt lat="44.1154958" lon="12.1892415"><ele>68.60000000000001</ele><time>2026-04-11T15:53:09.629Z</time></trkpt><trkpt lat="44.1155912" lon="12.1893122"><ele>68.4</ele><time>2026-04-11T15:53:10.63Z</time></trkpt><trkpt lat="44.115684" lon="12.1893894"><ele>68.2</ele><time>2026-04-11T15:53:11.619Z</time></trkpt><trkpt lat="44.1157644" lon="12.1894679"><ele>68.0</ele><time>2026-04-11T15:53:12.624Z</time></trkpt><trkpt lat="44.1158366" lon="12.1895484"><ele>67.6</ele><time>2026-04-11T15:53:13.617Z</time></trkpt><trkpt lat="44.1158912" lon="12.1896553"><ele>67.19999999999999</ele><time>2026-04-11T15:53:14.621Z</time></trkpt><trkpt lat="44.1159235" lon="12.1897867"><ele>66.8</ele><time>2026-04-11T15:53:15.616Z</time></trkpt><trkpt lat="44.1159494" lon="12.1899489"><ele>66.39999999999999</ele><time>2026-04-11T15:53:16.621Z</time></trkpt><trkpt lat="44.1159917" lon="12.1901279"><ele>66.0</ele><time>2026-04-11T15:53:17.628Z</time></trkpt><trkpt lat="44.1160325" lon="12.1903223"><ele>65.33333333333333</ele><time>2026-04-11T15:53:18.615Z</time></trkpt><trkpt lat="44.1160762" lon="12.1905382"><ele>64.66666666666666</ele><time>2026-04-11T15:53:19.624Z</time></trkpt><trkpt lat="44.1161145" lon="12.1907427"><ele>64.0</ele><time>2026-04-11T15:53:20.618Z</time></trkpt><trkpt lat="44.1161637" lon="12.1909329"><ele>63.5</ele><time>2026-04-11T15:53:21.618Z</time></trkpt><trkpt lat="44.1162108" lon="12.1911148"><ele>63.0</ele><time>2026-04-11T15:53:22.628Z</time></trkpt><trkpt lat="44.1162639" lon="12.1912883"><ele>62.5</ele><time>2026-04-11T15:53:23.71Z</time></trkpt><trkpt lat="44.1163187" lon="12.1914434"><ele>62.0</ele><time>2026-04-11T15:53:24.72Z</time></trkpt><trkpt lat="44.1163792" lon="12.1915918"><ele>61.400000000000006</ele><time>2026-04-11T15:53:25.714Z</time></trkpt><trkpt lat="44.1164449" lon="12.1917241"><ele>60.800000000000004</ele><time>2026-04-11T15:53:26.724Z</time></trkpt><trkpt lat="44.11651" lon="12.1918279"><ele>60.2</ele><time>2026-04-11T15:53:27.702Z</time></trkpt><trkpt lat="44.1165761" lon="12.1919285"><ele>59.6</ele><time>2026-04-11T15:53:28.709Z</time></trkpt><trkpt lat="44.1166309" lon="12.1920098"><ele>59.0</ele><time>2026-04-11T15:53:29.713Z</time></trkpt><trkpt lat="44.1166927" lon="12.1920811"><ele>58.50000000000001</ele><time>2026-04-11T15:53:32.718Z</time></trkpt><trkpt lat="44.1167591" lon="12.1920209"><ele>58.0</ele><time>2026-04-11T15:53:34.731Z</time></trkpt><trkpt lat="44.1168024" lon="12.191953"><ele>57.5</ele><time>2026-04-11T15:53:35.728Z</time></trkpt><trkpt lat="44.1168481" lon="12.1918823"><ele>57.0</ele><time>2026-04-11T15:53:36.709Z</time></trkpt><trkpt lat="44.1169003" lon="12.1917755"><ele>56.50000000000001</ele><time>2026-04-11T15:53:37.711Z</time></trkpt><trkpt lat="44.1169596" lon="12.1916568"><ele>56.0</ele><time>2026-04-11T15:53:38.71Z</time></trkpt><trkpt lat="44.1170154" lon="12.191547"><ele>57.25</ele><time>2026-04-11T15:53:39.725Z</time></trkpt><trkpt lat="44.1170796" lon="12.1914298"><ele>58.5</ele><time>2026-04-11T15:53:40.718Z</time></trkpt><trkpt lat="44.1171473" lon="12.1913052"><ele>59.75</ele><time>2026-04-11T15:53:41.727Z</time></trkpt><trkpt lat="44.1172245" lon="12.191171"><ele>61.0</ele><time>2026-04-11T15:53:42.707Z</time></trkpt><trkpt lat="44.1173012" lon="12.1910372"><ele>61.0</ele><time>2026-04-11T15:53:43.719Z</time></trkpt><trkpt lat="44.1173762" lon="12.1908846"><ele>61.0</ele><time>2026-04-11T15:53:44.718Z</time></trkpt><trkpt lat="44.1174481" lon="12.1907326"><ele>61.0</ele><time>2026-04-11T15:53:45.713Z</time></trkpt><trkpt lat="44.1175325" lon="12.1905674"><ele>61.0</ele><time>2026-04-11T15:53:46.712Z</time></trkpt><trkpt lat="44.1176346" lon="12.190393"><ele>60.666666666666664</ele><time>2026-04-11T15:53:47.709Z</time></trkpt><trkpt lat="44.1177344" lon="12.1902125"><ele>60.33333333333333</ele><time>2026-04-11T15:53:48.716Z</time></trkpt><trkpt lat="44.1178364" lon="12.1900187"><ele>60.0</ele><time>2026-04-11T15:53:49.717Z</time></trkpt><trkpt lat="44.1179399" lon="12.1898204"><ele>60.0</ele><time>2026-04-11T15:53:50.71Z</time></trkpt><trkpt lat="44.1180532" lon="12.1896246"><ele>60.0</ele><time>2026-04-11T15:53:51.715Z</time></trkpt><trkpt lat="44.1181832" lon="12.1894391"><ele>60.0</ele><time>2026-04-11T15:53:52.715Z</time></trkpt><trkpt lat="44.118347" lon="12.1892472"><ele>60.0</ele><time>2026-04-11T15:53:53.7Z</time></trkpt><trkpt lat="44.1185058" lon="12.1890675"><ele>60.0</ele><time>2026-04-11T15:53:54.704Z</time></trkpt><trkpt lat="44.1186589" lon="12.1888955"><ele>60.0</ele><time>2026-04-11T15:53:55.707Z</time></trkpt><trkpt lat="44.1188197" lon="12.188729"><ele>60.0</ele><time>2026-04-11T15:53:56.706Z</time></trkpt><trkpt lat="44.1189782" lon="12.1885728"><ele>60.0</ele><time>2026-04-11T15:53:57.717Z</time></trkpt><trkpt lat="44.1191246" lon="12.1884285"><ele>60.0</ele><time>2026-04-11T15:53:58.723Z</time></trkpt><trkpt lat="44.1192569" lon="12.1882993"><ele>60.0</ele><time>2026-04-11T15:53:59.712Z</time></trkpt><trkpt lat="44.1193725" lon="12.1881877"><ele>60.0</ele><time>2026-04-11T15:54:00.727Z</time></trkpt><trkpt lat="44.1194793" lon="12.1880858"><ele>60.0</ele><time>2026-04-11T15:54:01.722Z</time></trkpt><trkpt lat="44.1195795" lon="12.1879957"><ele>60.0</ele><time>2026-04-11T15:54:02.728Z</time></trkpt><trkpt lat="44.1196792" lon="12.1879095"><ele>60.25</ele><time>2026-04-11T15:54:03.728Z</time></trkpt><trkpt lat="44.1197829" lon="12.1878298"><ele>60.5</ele><time>2026-04-11T15:54:04.724Z</time></trkpt><trkpt lat="44.119886" lon="12.1877572"><ele>60.75</ele><time>2026-04-11T15:54:05.726Z</time></trkpt><trkpt lat="44.1200001" lon="12.1876832"><ele>61.0</ele><time>2026-04-11T15:54:06.721Z</time></trkpt><trkpt lat="44.1201072" lon="12.187617"><ele>61.25</ele><time>2026-04-11T15:54:07.729Z</time></trkpt><trkpt lat="44.1202136" lon="12.1875512"><ele>61.5</ele><time>2026-04-11T15:54:08.72Z</time></trkpt><trkpt lat="44.1203153" lon="12.1874897"><ele>61.75</ele><time>2026-04-11T15:54:09.734Z</time></trkpt><trkpt lat="44.1204164" lon="12.1874269"><ele>62.0</ele><time>2026-04-11T15:54:10.743Z</time></trkpt><trkpt lat="44.1205184" lon="12.1873625"><ele>62.25</ele><time>2026-04-11T15:54:11.725Z</time></trkpt><trkpt lat="44.1206242" lon="12.1872998"><ele>62.5</ele><time>2026-04-11T15:54:12.719Z</time></trkpt><trkpt lat="44.1207329" lon="12.1872387"><ele>62.75</ele><time>2026-04-11T15:54:13.714Z</time></trkpt><trkpt lat="44.1208459" lon="12.1871779"><ele>63.0</ele><time>2026-04-11T15:54:14.72Z</time></trkpt><trkpt lat="44.1209592" lon="12.1871203"><ele>62.4</ele><time>2026-04-11T15:54:15.721Z</time></trkpt><trkpt lat="44.1210624" lon="12.1870779"><ele>61.8</ele><time>2026-04-11T15:54:16.723Z</time></trkpt><trkpt lat="44.121168" lon="12.1870489"><ele>61.2</ele><time>2026-04-11T15:54:17.709Z</time></trkpt><trkpt lat="44.1212795" lon="12.1870258"><ele>60.6</ele><time>2026-04-11T15:54:18.72Z</time></trkpt><trkpt lat="44.1213965" lon="12.1870041"><ele>60.0</ele><time>2026-04-11T15:54:19.72Z</time></trkpt><trkpt lat="44.1215177" lon="12.1869884"><ele>60.0</ele><time>2026-04-11T15:54:20.715Z</time></trkpt><trkpt lat="44.1216192" lon="12.1869804"><ele>60.0</ele><time>2026-04-11T15:54:21.713Z</time></trkpt><trkpt lat="44.121731" lon="12.1869711"><ele>60.0</ele><time>2026-04-11T15:54:22.736Z</time></trkpt><trkpt lat="44.1218117" lon="12.1869653"><ele>60.0</ele><time>2026-04-11T15:54:23.725Z</time></trkpt><trkpt lat="44.1219204" lon="12.1869085"><ele>60.0</ele><time>2026-04-11T15:54:26.623Z</time></trkpt><trkpt lat="44.1219146" lon="12.1867171"><ele>60.0</ele><time>2026-04-11T15:54:28.611Z</time></trkpt><trkpt lat="44.1219032" lon="12.1865799"><ele>60.0</ele><time>2026-04-11T15:54:29.619Z</time></trkpt><trkpt lat="44.121889" lon="12.1864231"><ele>60.0</ele><time>2026-04-11T15:54:30.617Z</time></trkpt><trkpt lat="44.121879" lon="12.1862395"><ele>60.0</ele><time>2026-04-11T15:54:31.607Z</time></trkpt><trkpt lat="44.1218772" lon="12.1860432"><ele>60.33333333333333</ele><time>2026-04-11T15:54:32.611Z</time></trkpt><trkpt lat="44.1218766" lon="12.1858397"><ele>60.666666666666664</ele><time>2026-04-11T15:54:33.605Z</time></trkpt><trkpt lat="44.1218722" lon="12.1856212"><ele>61.0</ele><time>2026-04-11T15:54:34.61Z</time></trkpt><trkpt lat="44.1218528" lon="12.1853539"><ele>61.666666666666664</ele><time>2026-04-11T15:54:35.608Z</time></trkpt><trkpt lat="44.1218171" lon="12.1850851"><ele>62.33333333333333</ele><time>2026-04-11T15:54:36.62Z</time></trkpt><trkpt lat="44.1217684" lon="12.18484"><ele>63.0</ele><time>2026-04-11T15:54:37.607Z</time></trkpt><trkpt lat="44.1217157" lon="12.1846402"><ele>63.0</ele><time>2026-04-11T15:54:38.612Z</time></trkpt><trkpt lat="44.1216534" lon="12.1844877"><ele>63.0</ele><time>2026-04-11T15:54:39.613Z</time></trkpt><trkpt lat="44.1216168" lon="12.1843694"><ele>63.0</ele><time>2026-04-11T15:54:40.614Z</time></trkpt><trkpt lat="44.1215933" lon="12.1842878"><ele>63.0</ele><time>2026-04-11T15:54:41.633Z</time></trkpt><trkpt lat="44.1215585" lon="12.1842062"><ele>63.0</ele><time>2026-04-11T15:54:42.606Z</time></trkpt><trkpt lat="44.1215827" lon="12.1841178"><ele>63.0</ele><time>2026-04-11T15:54:53.622Z</time></trkpt><trkpt lat="44.1216275" lon="12.1840419"><ele>65.0</ele><time>2026-04-11T15:54:54.631Z</time></trkpt><trkpt lat="44.1216615" lon="12.1839427"><ele>67.0</ele><time>2026-04-11T15:54:55.603Z</time></trkpt><trkpt lat="44.1216841" lon="12.1838231"><ele>69.0</ele><time>2026-04-11T15:54:56.616Z</time></trkpt><trkpt lat="44.1217118" lon="12.1837"><ele>71.0</ele><time>2026-04-11T15:54:57.609Z</time></trkpt><trkpt lat="44.1217448" lon="12.1835556"><ele>73.0</ele><time>2026-04-11T15:54:58.615Z</time></trkpt><trkpt lat="44.1217737" lon="12.1834128"><ele>73.0</ele><time>2026-04-11T15:54:59.615Z</time></trkpt><trkpt lat="44.1218035" lon="12.1832663"><ele>73.0</ele><time>2026-04-11T15:55:00.622Z</time></trkpt><trkpt lat="44.121836" lon="12.1831173"><ele>73.0</ele><time>2026-04-11T15:55:01.615Z</time></trkpt><trkpt lat="44.1218658" lon="12.1829744"><ele>73.0</ele><time>2026-04-11T15:55:02.615Z</time></trkpt><trkpt lat="44.1218931" lon="12.1828334"><ele>73.0</ele><time>2026-04-11T15:55:03.606Z</time></trkpt><trkpt lat="44.1219021" lon="12.1826868"><ele>74.6</ele><time>2026-04-11T15:55:04.615Z</time></trkpt><trkpt lat="44.1218836" lon="12.1825261"><ele>76.19999999999999</ele><time>2026-04-11T15:55:05.615Z</time></trkpt><trkpt lat="44.1218514" lon="12.1823752"><ele>77.8</ele><time>2026-04-11T15:55:06.613Z</time></trkpt><trkpt lat="44.121834" lon="12.182242"><ele>79.39999999999999</ele><time>2026-04-11T15:55:07.619Z</time></trkpt><trkpt lat="44.1218525" lon="12.1821255"><ele>81.0</ele><time>2026-04-11T15:55:08.616Z</time></trkpt><trkpt lat="44.1219086" lon="12.1820412"><ele>81.25</ele><time>2026-04-11T15:55:09.614Z</time></trkpt><trkpt lat="44.1220178" lon="12.1819974"><ele>81.5</ele><time>2026-04-11T15:55:10.618Z</time></trkpt><trkpt lat="44.122178" lon="12.1819818"><ele>81.75</ele><time>2026-04-11T15:55:11.619Z</time></trkpt><trkpt lat="44.1223476" lon="12.1819861"><ele>82.0</ele><time>2026-04-11T15:55:12.642Z</time></trkpt><trkpt lat="44.1225226" lon="12.1820606"><ele>87.33333333333333</ele><time>2026-04-11T15:55:13.617Z</time></trkpt><trkpt lat="44.122711" lon="12.1821321"><ele>92.66666666666666</ele><time>2026-04-11T15:55:14.605Z</time></trkpt><trkpt lat="44.1228816" lon="12.1821891"><ele>98.0</ele><time>2026-04-11T15:55:15.617Z</time></trkpt><trkpt lat="44.1230026" lon="12.1822107"><ele>97.99999999999999</ele><time>2026-04-11T15:55:16.621Z</time></trkpt><trkpt lat="44.1230765" lon="12.1822156"><ele>98.0</ele><time>2026-04-11T15:55:17.61Z</time></trkpt><trkpt lat="44.123138" lon="12.1821425"><ele>98.0</ele><time>2026-04-11T15:55:19.621Z</time></trkpt><trkpt lat="44.1231263" lon="12.1819703"><ele>98.0</ele><time>2026-04-11T15:55:21.629Z</time></trkpt><trkpt lat="44.1230688" lon="12.1818932"><ele>97.99999999999999</ele><time>2026-04-11T15:55:22.614Z</time></trkpt><trkpt lat="44.1230105" lon="12.1818051"><ele>98.0</ele><time>2026-04-11T15:55:23.614Z</time></trkpt><trkpt lat="44.122962" lon="12.1817063"><ele>97.99999999999999</ele><time>2026-04-11T15:55:24.623Z</time></trkpt><trkpt lat="44.1229136" lon="12.1815935"><ele>98.0</ele><time>2026-04-11T15:55:25.626Z</time></trkpt><trkpt lat="44.1228696" lon="12.1814844"><ele>98.0</ele><time>2026-04-11T15:55:26.624Z</time></trkpt><trkpt lat="44.1228502" lon="12.1813784"><ele>98.0</ele><time>2026-04-11T15:55:27.626Z</time></trkpt><trkpt lat="44.1228621" lon="12.1812695"><ele>97.99999999999999</ele><time>2026-04-11T15:55:28.626Z</time></trkpt><trkpt lat="44.122908" lon="12.1811697"><ele>98.0</ele><time>2026-04-11T15:55:29.627Z</time></trkpt><trkpt lat="44.1229671" lon="12.1810761"><ele>98.4</ele><time>2026-04-11T15:55:30.623Z</time></trkpt><trkpt lat="44.1230296" lon="12.1809912"><ele>98.80000000000001</ele><time>2026-04-11T15:55:31.619Z</time></trkpt><trkpt lat="44.1230875" lon="12.1809129"><ele>99.2</ele><time>2026-04-11T15:55:32.619Z</time></trkpt><trkpt lat="44.1231407" lon="12.1808625"><ele>99.6</ele><time>2026-04-11T15:55:33.613Z</time></trkpt><trkpt lat="44.1232314" lon="12.1807683"><ele>100.0</ele><time>2026-04-11T15:55:35.612Z</time></trkpt><trkpt lat="44.1233187" lon="12.180675"><ele>100.8</ele><time>2026-04-11T15:55:37.617Z</time></trkpt><trkpt lat="44.1234096" lon="12.1805932"><ele>101.6</ele><time>2026-04-11T15:55:39.617Z</time></trkpt><trkpt lat="44.1235015" lon="12.1805147"><ele>102.4</ele><time>2026-04-11T15:55:41.614Z</time></trkpt><trkpt lat="44.1235595" lon="12.1804731"><ele>103.2</ele><time>2026-04-11T15:55:42.633Z</time></trkpt><trkpt lat="44.1236407" lon="12.1804282"><ele>104.0</ele><time>2026-04-11T15:55:43.614Z</time></trkpt><trkpt lat="44.1237404" lon="12.1803717"><ele>104.0</ele><time>2026-04-11T15:55:44.608Z</time></trkpt><trkpt lat="44.1238492" lon="12.1802936"><ele>104.0</ele><time>2026-04-11T15:55:45.608Z</time></trkpt><trkpt lat="44.1239683" lon="12.180208"><ele>104.0</ele><time>2026-04-11T15:55:46.616Z</time></trkpt><trkpt lat="44.1240914" lon="12.1801287"><ele>104.0</ele><time>2026-04-11T15:55:47.615Z</time></trkpt><trkpt lat="44.1242155" lon="12.1800608"><ele>107.0</ele><time>2026-04-11T15:55:48.608Z</time></trkpt><trkpt lat="44.124342" lon="12.1799977"><ele>110.0</ele><time>2026-04-11T15:55:49.618Z</time></trkpt><trkpt lat="44.1244739" lon="12.1799454"><ele>113.0</ele><time>2026-04-11T15:55:50.608Z</time></trkpt><trkpt lat="44.1246248" lon="12.179913"><ele>116.0</ele><time>2026-04-11T15:55:51.605Z</time></trkpt><trkpt lat="44.1247859" lon="12.1798889"><ele>117.4</ele><time>2026-04-11T15:55:52.614Z</time></trkpt><trkpt lat="44.1249043" lon="12.1798597"><ele>118.8</ele><time>2026-04-11T15:55:53.612Z</time></trkpt><trkpt lat="44.1249685" lon="12.1798124"><ele>120.20000000000002</ele><time>2026-04-11T15:55:54.615Z</time></trkpt><trkpt lat="44.1250634" lon="12.1796846"><ele>121.60000000000001</ele><time>2026-04-11T15:55:56.615Z</time></trkpt><trkpt lat="44.1251111" lon="12.179593"><ele>123.0</ele><time>2026-04-11T15:55:57.617Z</time></trkpt><trkpt lat="44.1251467" lon="12.1794701"><ele>123.0</ele><time>2026-04-11T15:55:58.617Z</time></trkpt><trkpt lat="44.1251686" lon="12.1793204"><ele>123.0</ele><time>2026-04-11T15:55:59.618Z</time></trkpt><trkpt lat="44.1251656" lon="12.1791305"><ele>123.0</ele><time>2026-04-11T15:56:00.609Z</time></trkpt><trkpt lat="44.1251631" lon="12.1789216"><ele>123.0</ele><time>2026-04-11T15:56:01.609Z</time></trkpt><trkpt lat="44.1251702" lon="12.1787005"><ele>123.66666666666666</ele><time>2026-04-11T15:56:02.615Z</time></trkpt><trkpt lat="44.1251828" lon="12.1784791"><ele>124.33333333333333</ele><time>2026-04-11T15:56:03.627Z</time></trkpt><trkpt lat="44.1251981" lon="12.1782494"><ele>125.0</ele><time>2026-04-11T15:56:04.624Z</time></trkpt><trkpt lat="44.1252159" lon="12.178011"><ele>127.0</ele><time>2026-04-11T15:56:05.627Z</time></trkpt><trkpt lat="44.1252351" lon="12.1777695"><ele>129.0</ele><time>2026-04-11T15:56:06.617Z</time></trkpt><trkpt lat="44.1252561" lon="12.1775505"><ele>131.0</ele><time>2026-04-11T15:56:07.623Z</time></trkpt><trkpt lat="44.1252766" lon="12.1773589"><ele>131.5</ele><time>2026-04-11T15:56:08.61Z</time></trkpt><trkpt lat="44.1253124" lon="12.1771917"><ele>132.0</ele><time>2026-04-11T15:56:09.621Z</time></trkpt><trkpt lat="44.1253765" lon="12.1770311"><ele>132.5</ele><time>2026-04-11T15:56:10.627Z</time></trkpt><trkpt lat="44.1254524" lon="12.1768444"><ele>133.0</ele><time>2026-04-11T15:56:11.617Z</time></trkpt><trkpt lat="44.1255202" lon="12.1766347"><ele>133.33333333333334</ele><time>2026-04-11T15:56:12.625Z</time></trkpt><trkpt lat="44.1255732" lon="12.1764045"><ele>133.66666666666666</ele><time>2026-04-11T15:56:13.661Z</time></trkpt><trkpt lat="44.125616" lon="12.1761498"><ele>134.0</ele><time>2026-04-11T15:56:14.634Z</time></trkpt><trkpt lat="44.1256395" lon="12.1759014"><ele>135.0</ele><time>2026-04-11T15:56:15.637Z</time></trkpt><trkpt lat="44.1256448" lon="12.175623"><ele>136.0</ele><time>2026-04-11T15:56:16.623Z</time></trkpt><trkpt lat="44.1256665" lon="12.1753353"><ele>137.0</ele><time>2026-04-11T15:56:17.626Z</time></trkpt><trkpt lat="44.1256876" lon="12.1750661"><ele>137.0</ele><time>2026-04-11T15:56:18.638Z</time></trkpt><trkpt lat="44.1256941" lon="12.1748562"><ele>137.0</ele><time>2026-04-11T15:56:19.637Z</time></trkpt><trkpt lat="44.1257187" lon="12.1746841"><ele>137.0</ele><time>2026-04-11T15:56:20.635Z</time></trkpt><trkpt lat="44.1257557" lon="12.1744964"><ele>137.0</ele><time>2026-04-11T15:56:21.635Z</time></trkpt><trkpt lat="44.1258111" lon="12.174309"><ele>137.0</ele><time>2026-04-11T15:56:22.624Z</time></trkpt><trkpt lat="44.1258689" lon="12.1741229"><ele>137.0</ele><time>2026-04-11T15:56:23.632Z</time></trkpt><trkpt lat="44.1259311" lon="12.1739338"><ele>137.0</ele><time>2026-04-11T15:56:24.632Z</time></trkpt><trkpt lat="44.1260142" lon="12.1737348"><ele>136.66666666666666</ele><time>2026-04-11T15:56:25.626Z</time></trkpt><trkpt lat="44.1261223" lon="12.1735318"><ele>136.33333333333334</ele><time>2026-04-11T15:56:26.638Z</time></trkpt><trkpt lat="44.1262359" lon="12.173331"><ele>136.0</ele><time>2026-04-11T15:56:27.634Z</time></trkpt><trkpt lat="44.1263448" lon="12.1731553"><ele>138.33333333333334</ele><time>2026-04-11T15:56:28.634Z</time></trkpt><trkpt lat="44.1264678" lon="12.172983"><ele>140.66666666666666</ele><time>2026-04-11T15:56:29.639Z</time></trkpt><trkpt lat="44.1265968" lon="12.1728198"><ele>143.0</ele><time>2026-04-11T15:56:30.631Z</time></trkpt><trkpt lat="44.1267519" lon="12.1726846"><ele>143.0</ele><time>2026-04-11T15:56:31.639Z</time></trkpt><trkpt lat="44.1269287" lon="12.172541"><ele>143.0</ele><time>2026-04-11T15:56:32.64Z</time></trkpt><trkpt lat="44.1271055" lon="12.1723957"><ele>143.0</ele><time>2026-04-11T15:56:33.627Z</time></trkpt><trkpt lat="44.1272603" lon="12.1722661"><ele>145.33333333333331</ele><time>2026-04-11T15:56:34.636Z</time></trkpt><trkpt lat="44.1274137" lon="12.1721464"><ele>147.66666666666666</ele><time>2026-04-11T15:56:35.639Z</time></trkpt><trkpt lat="44.1275462" lon="12.1720211"><ele>150.0</ele><time>2026-04-11T15:56:36.635Z</time></trkpt><trkpt lat="44.1276789" lon="12.1718852"><ele>150.0</ele><time>2026-04-11T15:56:37.728Z</time></trkpt><trkpt lat="44.1278072" lon="12.1717502"><ele>150.0</ele><time>2026-04-11T15:56:38.716Z</time></trkpt><trkpt lat="44.1279342" lon="12.1716142"><ele>150.0</ele><time>2026-04-11T15:56:39.729Z</time></trkpt><trkpt lat="44.1280662" lon="12.1714762"><ele>150.0</ele><time>2026-04-11T15:56:40.72Z</time></trkpt><trkpt lat="44.1281996" lon="12.1713205"><ele>150.0</ele><time>2026-04-11T15:56:41.708Z</time></trkpt><trkpt lat="44.1283359" lon="12.1711395"><ele>150.0</ele><time>2026-04-11T15:56:42.709Z</time></trkpt><trkpt lat="44.1284788" lon="12.1709335"><ele>150.33333333333334</ele><time>2026-04-11T15:56:43.72Z</time></trkpt><trkpt lat="44.1285981" lon="12.1707416"><ele>150.66666666666669</ele><time>2026-04-11T15:56:44.732Z</time></trkpt><trkpt lat="44.128704" lon="12.1705654"><ele>151.0</ele><time>2026-04-11T15:56:45.711Z</time></trkpt><trkpt lat="44.1288077" lon="12.1703883"><ele>150.5</ele><time>2026-04-11T15:56:46.73Z</time></trkpt><trkpt lat="44.1289008" lon="12.1702404"><ele>150.0</ele><time>2026-04-11T15:56:47.715Z</time></trkpt><trkpt lat="44.1290001" lon="12.1700952"><ele>149.5</ele><time>2026-04-11T15:56:48.728Z</time></trkpt><trkpt lat="44.1291073" lon="12.1699461"><ele>149.0</ele><time>2026-04-11T15:56:49.73Z</time></trkpt><trkpt lat="44.129217" lon="12.1697342"><ele>149.0</ele><time>2026-04-11T15:56:50.731Z</time></trkpt><trkpt lat="44.129354" lon="12.1695449"><ele>149.0</ele><time>2026-04-11T15:56:51.723Z</time></trkpt><trkpt lat="44.1294974" lon="12.1693434"><ele>149.0</ele><time>2026-04-11T15:56:52.724Z</time></trkpt><trkpt lat="44.1296464" lon="12.1691333"><ele>150.66666666666666</ele><time>2026-04-11T15:56:53.727Z</time></trkpt><trkpt lat="44.1297919" lon="12.1689165"><ele>152.33333333333334</ele><time>2026-04-11T15:56:54.735Z</time></trkpt><trkpt lat="44.1299327" lon="12.1686809"><ele>154.0</ele><time>2026-04-11T15:56:55.72Z</time></trkpt><trkpt lat="44.1300597" lon="12.1684357"><ele>151.66666666666669</ele><time>2026-04-11T15:56:56.719Z</time></trkpt><trkpt lat="44.1301798" lon="12.1681925"><ele>149.33333333333334</ele><time>2026-04-11T15:56:57.726Z</time></trkpt><trkpt lat="44.1302757" lon="12.1679796"><ele>147.0</ele><time>2026-04-11T15:56:58.715Z</time></trkpt><trkpt lat="44.1303675" lon="12.1677953"><ele>147.0</ele><time>2026-04-11T15:56:59.718Z</time></trkpt><trkpt lat="44.1304426" lon="12.1676801"><ele>147.0</ele><time>2026-04-11T15:57:00.707Z</time></trkpt><trkpt lat="44.1305545" lon="12.1675321"><ele>147.0</ele><time>2026-04-11T15:57:01.707Z</time></trkpt><trkpt lat="44.1306724" lon="12.1674056"><ele>147.0</ele><time>2026-04-11T15:57:02.712Z</time></trkpt><trkpt lat="44.1307624" lon="12.1673253"><ele>148.79999999999998</ele><time>2026-04-11T15:57:03.727Z</time></trkpt><trkpt lat="44.1308682" lon="12.1672278"><ele>150.6</ele><time>2026-04-11T15:57:04.716Z</time></trkpt><trkpt lat="44.1309632" lon="12.1671418"><ele>152.39999999999998</ele><time>2026-04-11T15:57:05.724Z</time></trkpt><trkpt lat="44.1310454" lon="12.1670672"><ele>154.2</ele><time>2026-04-11T15:57:06.727Z</time></trkpt><trkpt lat="44.1311204" lon="12.1669992"><ele>156.0</ele><time>2026-04-11T15:57:07.709Z</time></trkpt><trkpt lat="44.1311825" lon="12.1669408"><ele>156.0</ele><time>2026-04-11T15:57:08.74Z</time></trkpt><trkpt lat="44.1312467" lon="12.1668554"><ele>156.0</ele><time>2026-04-11T15:57:10.726Z</time></trkpt><trkpt lat="44.1312948" lon="12.1667863"><ele>156.0</ele><time>2026-04-11T15:57:11.723Z</time></trkpt><trkpt lat="44.1312205" lon="12.166828"><ele>156.0</ele><time>2026-04-11T15:57:12.732Z</time></trkpt><trkpt lat="44.1312342" lon="12.1666678"><ele>156.0</ele><time>2026-04-11T15:57:14.734Z</time></trkpt><trkpt lat="44.13127" lon="12.1665416"><ele>155.0</ele><time>2026-04-11T15:57:15.736Z</time></trkpt><trkpt lat="44.1313059" lon="12.1664099"><ele>154.0</ele><time>2026-04-11T15:57:16.705Z</time></trkpt><trkpt lat="44.1313387" lon="12.1662952"><ele>153.0</ele><time>2026-04-11T15:57:17.725Z</time></trkpt><trkpt lat="44.1313817" lon="12.1661478"><ele>152.0</ele><time>2026-04-11T15:57:18.714Z</time></trkpt><trkpt lat="44.1314262" lon="12.1659903"><ele>151.0</ele><time>2026-04-11T15:57:19.731Z</time></trkpt><trkpt lat="44.1314687" lon="12.1658215"><ele>150.33333333333334</ele><time>2026-04-11T15:57:20.729Z</time></trkpt><trkpt lat="44.1315182" lon="12.1656361"><ele>149.66666666666666</ele><time>2026-04-11T15:57:21.719Z</time></trkpt><trkpt lat="44.1315782" lon="12.165442"><ele>149.0</ele><time>2026-04-11T15:57:22.728Z</time></trkpt><trkpt lat="44.1316516" lon="12.1652348"><ele>150.5</ele><time>2026-04-11T15:57:23.726Z</time></trkpt><trkpt lat="44.1317276" lon="12.1650496"><ele>152.0</ele><time>2026-04-11T15:57:24.729Z</time></trkpt><trkpt lat="44.1318023" lon="12.1648815"><ele>153.5</ele><time>2026-04-11T15:57:25.72Z</time></trkpt><trkpt lat="44.1318745" lon="12.164723"><ele>155.0</ele><time>2026-04-11T15:57:26.72Z</time></trkpt><trkpt lat="44.131941" lon="12.1645722"><ele>155.0</ele><time>2026-04-11T15:57:27.726Z</time></trkpt><trkpt lat="44.1320004" lon="12.1644255"><ele>155.0</ele><time>2026-04-11T15:57:28.727Z</time></trkpt><trkpt lat="44.1320566" lon="12.1642887"><ele>155.0</ele><time>2026-04-11T15:57:29.729Z</time></trkpt><trkpt lat="44.1321183" lon="12.1641556"><ele>155.0</ele><time>2026-04-11T15:57:30.736Z</time></trkpt><trkpt lat="44.1321657" lon="12.1640421"><ele>155.0</ele><time>2026-04-11T15:57:31.716Z</time></trkpt><trkpt lat="44.1322031" lon="12.1639436"><ele>154.6</ele><time>2026-04-11T15:57:32.72Z</time></trkpt><trkpt lat="44.1322335" lon="12.1638526"><ele>154.2</ele><time>2026-04-11T15:57:33.715Z</time></trkpt><trkpt lat="44.1322869" lon="12.1637217"><ele>153.8</ele><time>2026-04-11T15:57:35.733Z</time></trkpt><trkpt lat="44.132379" lon="12.1637122"><ele>153.4</ele><time>2026-04-11T15:57:38.737Z</time></trkpt><trkpt lat="44.1324929" lon="12.1637678"><ele>153.0</ele><time>2026-04-11T15:57:40.726Z</time></trkpt><trkpt lat="44.1325643" lon="12.1638197"><ele>153.0</ele><time>2026-04-11T15:57:42.721Z</time></trkpt><trkpt lat="44.1326285" lon="12.1638382"><ele>153.0</ele><time>2026-04-11T15:57:45.726Z</time></trkpt><trkpt lat="44.1327455" lon="12.1638606"><ele>153.0</ele><time>2026-04-11T15:57:48.741Z</time></trkpt><trkpt lat="44.1328119" lon="12.1639032"><ele>153.0</ele><time>2026-04-11T15:57:58.736Z</time></trkpt><trkpt lat="44.1328937" lon="12.1639462"><ele>153.0</ele><time>2026-04-11T15:58:00.737Z</time></trkpt><trkpt lat="44.1329739" lon="12.1639899"><ele>153.0</ele><time>2026-04-11T15:58:02.722Z</time></trkpt><trkpt lat="44.1330468" lon="12.1640143"><ele>153.33333333333334</ele><time>2026-04-11T15:58:04.732Z</time></trkpt><trkpt lat="44.1331349" lon="12.1640517"><ele>153.66666666666666</ele><time>2026-04-11T15:58:06.712Z</time></trkpt><trkpt lat="44.1332084" lon="12.1640702"><ele>154.0</ele><time>2026-04-11T15:58:08.712Z</time></trkpt><trkpt lat="44.1332776" lon="12.164078"><ele>154.33333333333331</ele><time>2026-04-11T15:58:10.735Z</time></trkpt><trkpt lat="44.1333459" lon="12.1640992"><ele>154.66666666666666</ele><time>2026-04-11T15:58:13.737Z</time></trkpt><trkpt lat="44.1334174" lon="12.1640813"><ele>155.0</ele><time>2026-04-11T16:09:09.745Z</time></trkpt><trkpt lat="44.1333461" lon="12.1640606"><ele>140.0</ele><time>2026-04-11T16:09:44.645Z</time></trkpt><trkpt lat="44.1332807" lon="12.1640423"><ele>140.0</ele><time>2026-04-11T16:09:47.644Z</time></trkpt></trkseg></trk></gpx>